# Wetter Temperatur Luftdruck Luftfeuchtigkeit Sichtweite Windgeschwindigkeit Windrichtung Zeit
1 Clouds 2 993 87 10000 2.57 60 05:19 02.10.2022
2 Clouds 2 993 87 10000 2.06 30 01:20 02.10.2022
3 Clouds 2 993 87 10000 2.06 20 00:38 02.10.2022
4 Clouds 2 992 87 10000 2.57 50 23:28 01.10.2022
5 Clouds 2 992 87 10000 3.09 20 21:48 01.10.2022
6 Clouds 2 992 93 10000 3.09 360 19:21 01.10.2022
7 Clouds 2 991 93 10000 4.63 40 17:46 01.10.2022
8 Clouds 2 991 87 10000 3.6 40 15:32 01.10.2022
9 Clouds 2 991 87 10000 3.6 30 14:18 01.10.2022
10 Clouds 1 991 93 10000 4.12 40 12:34 01.10.2022
11 Clouds 1 991 93 10000 4.12 40 11:23 01.10.2022
12 Clouds 1 992 67 10000 3.1 28 10:53 01.10.2022
13 Clouds 1 991 86 10000 3.09 40 10:30 01.10.2022
14 Clouds 1 991 86 10000 2.57 50 09:26 01.10.2022
15 Clouds 1 991 86 10000 1.79 40 08:39 01.10.2022
16 Clouds 2 993 76 10000 3.4 20 03:50 01.10.2022
17 Clouds 1 992 93 10000 2.06 10 03:22 01.10.2022
18 Clouds 2 994 80 10000 3.6 60 23:22 30.09.2022
19 Clouds 2 994 87 10000 3.09 40 22:19 30.09.2022
20 Clouds 2 994 87 10000 3.6 40 21:22 30.09.2022
21 Clouds 2 995 80 10000 2.57 30 20:42 30.09.2022
22 Clouds 2 996 87 10000 1.54 340 19:30 30.09.2022
23 Clouds 2 999 74 10000 1.34 230 16:58 30.09.2022
24 Clouds 1 998 93 10000 3.09 200 14:49 30.09.2022
25 Clouds 1 999 93 10000 3.58 200 13:24 30.09.2022
26 Clouds 0 999 86 10000 1.79 180 11:56 30.09.2022
27 Clouds 1 1000 93 10000 2.06 200 09:45 30.09.2022
28 Clouds 1 1000 93 10000 2.57 230 08:20 30.09.2022
29 Clouds 1 1000 93 10000 2.57 240 04:24 30.09.2022
30 Clouds 2 1000 93 10000 3.6 270 02:22 30.09.2022
31 Clouds 2 999 100 10000 1.54 250 22:24 29.09.2022
32 Clouds 3 999 93 10000 3.6 290 21:26 29.09.2022
33 Clouds 2 999 100 10000 4.12 290 20:26 29.09.2022
34 Drizzle 3 999 100 10000 4.92 300 18:31 29.09.2022
35 Clouds 3 998 100 10000 3.58 310 16:56 29.09.2022
36 Fog 3 998 100 5000 3.6 310 16:26 29.09.2022
37 Drizzle 4 998 93 2500 3.6 300 15:35 29.09.2022
38 Fog 4 998 100 450 4.12 190 13:28 29.09.2022
39 Fog 4 998 100 450 4.12 190 13:28 29.09.2022
40 Clouds 5 999 94 10000 3.58 298 08:52 29.09.2022
41 Clouds 5 998 100 10000 2.06 320 05:36 29.09.2022
42 Clouds 5 999 100 10000 2.57 30 02:44 29.09.2022
43 Fog 5 1001 100 300 3.09 40 23:32 28.09.2022
44 Fog 6 1002 100 500 3.6 40 22:25 28.09.2022
45 Fog 6 1003 93 600 1.03 340 21:28 28.09.2022
46 Fog 6 1004 93 10000 1.54 330 20:20 28.09.2022
47 Fog 5 1006 100 1500 1.03 350 18:20 28.09.2022
48 Clouds 5 1009 100 10000 4.16 77 14:50 28.09.2022
49 Fog 5 1009 93 1300 2.06 20 12:40 28.09.2022
50 Snow 5 1009 100 450 1.54 230 10:24 28.09.2022
51 Fog 5 1009 100 750 1.03 220 08:25 28.09.2022
52 Fog 6 1009 93 1000 2.57 220 06:42 28.09.2022
53 Clouds 5 1008 100 10000 6.71 190 01:54 28.09.2022
54 Drizzle 5 1008 100 1200 6.71 190 01:30 28.09.2022
55 Rain 5 1006 93 10000 9.39 170 22:54 27.09.2022
56 Rain 6 1005 93 2500 10.8 180 21:25 27.09.2022
57 Drizzle 7 1004 87 4200 12.35 170 20:37 27.09.2022
58 Rain 7 1004 87 10000 10.8 160 19:47 27.09.2022
59 Rain 8 1004 76 4000 10.29 160 18:31 27.09.2022
60 Rain 7 1003 81 10000 7.2 170 17:43 27.09.2022
61 Drizzle 6 1003 93 4400 2.57 0 15:27 27.09.2022
62 Drizzle 5 1003 100 10000 2.57 30 14:41 27.09.2022
63 Drizzle 6 1003 93 10000 1.54 50 12:40 27.09.2022
64 Rain 6 1004 91 10000 5.42 129 10:58 27.09.2022
65 Clouds 6 1003 93 10000 6.17 190 08:46 27.09.2022
66 Snow 8 1002 76 10000 9.26 180 06:31 27.09.2022
67 Rain 7 1003 91 10000 12.9 172 01:57 27.09.2022
68 Rain 9 1001 81 10000 12.86 160 01:27 27.09.2022
69 Rain 8 1000 87 10000 15.43 170 23:25 26.09.2022
70 Rain 9 1000 87 10000 10.8 180 22:31 26.09.2022
71 Rain 10 1000 81 10000 14.4 170 20:40 26.09.2022
72 Rain 10 999 81 10000 15.43 160 19:30 26.09.2022
73 Rain 10 1000 93 4800 7.72 180 18:31 26.09.2022
74 Drizzle 9 1000 93 10000 5.14 200 16:29 26.09.2022
75 Drizzle 11 999 82 10000 11.83 170 14:24 26.09.2022
76 Rain 11 999 82 10000 11.32 160 11:29 26.09.2022
77 Snow 11 999 87 10000 12.35 170 10:38 26.09.2022
78 Snow 11 999 87 10000 12.35 170 10:19 26.09.2022
79 Rain 6 1001 98 10000 3.43 80 09:53 26.09.2022
80 Snow 9 999 100 1500 7.72 180 09:23 26.09.2022
81 Snow 5 1000 100 1700 1.03 80 07:37 26.09.2022
82 Rain 6 1001 97 10000 2.99 81 02:51 26.09.2022
83 Rain 4 1002 87 5000 5.66 60 23:46 25.09.2022
84 Rain 4 1002 87 10000 5.14 20 22:29 25.09.2022
85 Rain 7 1003 57 10000 1.03 0 21:35 25.09.2022
86 Rain 5 1004 75 10000 6.17 40 20:47 25.09.2022
87 Clouds 5 1004 65 10000 2.57 0 19:43 25.09.2022
88 Clouds 6 1005 61 10000 6.17 50 18:40 25.09.2022
89 Clouds 6 1005 61 10000 6.17 50 18:20 25.09.2022
90 Clouds 6 1007 52 10000 7.2 60 16:36 25.09.2022
91 Clouds 6 1009 52 10000 2.06 30 15:44 25.09.2022
92 Clouds 6 1010 49 10000 8.05 70 14:22 25.09.2022
93 Clouds 5 1012 41 10000 5.81 80 12:51 25.09.2022
94 Clouds 4 1013 65 10000 11.83 50 10:32 25.09.2022
95 Clouds 3 1015 70 10000 10.29 60 08:24 25.09.2022
96 Clouds 2 1019 80 10000 8.75 40 05:38 25.09.2022
97 Clouds 2 1022 74 10000 2.68 10 01:55 25.09.2022
98 Clouds 4 1018 65 10000 3.09 320 22:35 24.09.2022
99 Clouds 4 1016 69 10000 4.47 310 20:55 24.09.2022
100 Clouds 4 1014 70 10000 5.14 310 19:22 24.09.2022
101 Clouds 4 1010 70 10000 4.12 310 17:49 24.09.2022
102 Clouds 4 1008 70 10000 5.66 320 16:25 24.09.2022
103 Clouds 3 1006 75 10000 3.6 340 15:20 24.09.2022
104 Drizzle 3 1001 87 10000 7.72 330 13:27 24.09.2022
105 Clouds 3 998 86 10000 5.36 350 12:50 24.09.2022
106 Rain 4 993 100 10000 3.58 20 10:54 24.09.2022
107 Rain 4 992 100 4000 4.63 320 09:46 24.09.2022
108 Rain 4 994 99 248 7.31 311 08:43 24.09.2022
109 Rain 6 991 97 2672 7.14 169 07:24 24.09.2022
110 Clouds 9 993 93 3382 21.01 160 04:46 24.09.2022
111 Clouds 9 993 93 3484 21.01 160 02:24 24.09.2022
112 Clouds 9 993 93 1875 21.01 160 22:29 23.09.2022
113 Snow 9 993 93 1400 21.09 160 21:28 23.09.2022
114 Rain 9 992 100 3462 24.14 170 20:56 23.09.2022
115 Rain 9 992 100 2800 24.18 170 20:20 23.09.2022
116 Rain 9 991 100 3000 25.21 170 18:28 23.09.2022
117 Mist 10 993 93 1800 22.12 160 14:33 23.09.2022
118 Snow 10 996 87 2300 20.06 160 10:45 23.09.2022
119 Snow 10 996 87 2400 20.06 160 09:32 23.09.2022
120 Snow 10 1000 87 2600 19.55 160 05:20 23.09.2022
121 Snow 9 1002 87 4300 15.95 160 00:31 23.09.2022
122 Rain 9 1003 87 7000 15.43 160 23:21 22.09.2022
123 Rain 9 1004 87 7000 15.43 170 22:26 22.09.2022
124 Rain 9 1003 87 5000 16.46 160 20:46 22.09.2022
125 Sand 10 1003 76 10000 16.46 160 19:27 22.09.2022
126 Clouds 10 1006 76 10000 15.2 160 16:57 22.09.2022
127 Clouds 9 1002 76 10000 14.92 170 12:19 22.09.2022
128 Clouds 8 1002 87 10000 14.31 180 10:20 22.09.2022
129 Clouds 8 1001 87 10000 15.95 180 08:46 22.09.2022
130 Clouds 8 1001 87 9000 13.89 180 06:42 22.09.2022
131 Clouds 8 1001 76 10000 16.46 170 02:43 22.09.2022
132 Clouds 7 1003 75 10000 5.36 200 22:50 21.09.2022
133 Clouds 5 1004 87 10000 2.06 260 21:40 21.09.2022
134 Clouds 5 1006 93 10000 4.17 163 19:55 21.09.2022
135 Clouds 5 1007 93 10000 4.92 190 17:47 21.09.2022
136 Fog 4 1008 100 10000 5.14 190 16:30 21.09.2022
137 Clouds 4 1008 93 10000 4.07 167 13:59 21.09.2022
138 Clouds 4 1009 93 10000 4.12 170 12:41 21.09.2022
139 Clouds 4 1009 93 10000 5.66 200 11:28 21.09.2022
140 Clouds 3 1010 100 10000 5.36 200 09:50 21.09.2022
141 Clouds 3 1010 100 10000 3.58 220 08:58 21.09.2022
142 Clouds 3 1009 93 10000 3.6 230 07:18 21.09.2022
143 Clouds 4 1008 87 10000 3.6 220 02:47 21.09.2022
144 Clouds 4 1008 87 10000 3.6 220 02:25 21.09.2022
145 Clouds 4 1007 93 10000 3.09 190 00:34 21.09.2022
146 Clouds 4 1007 93 10000 3.09 190 00:34 21.09.2022
147 Clouds 4 1006 93 10000 4.12 250 22:43 20.09.2022
148 Drizzle 4 1004 100 8000 5.14 220 20:52 20.09.2022
149 Drizzle 4 1004 100 8000 7.2 210 19:32 20.09.2022
150 Fog 5 1002 87 4000 8.75 180 16:28 20.09.2022
151 Clouds 3 1002 100 10000 9.77 200 14:46 20.09.2022
152 Clouds 3 1001 100 10000 9.26 200 13:28 20.09.2022
153 Clouds 4 1003 85 10000 3.95 191 09:50 20.09.2022
154 Snow 3 1001 100 200 4.63 220 08:27 20.09.2022
155 Fog 4 1001 100 700 2.06 170 05:24 20.09.2022
156 Clouds 3 1001 100 10000 1.79 210 03:59 20.09.2022
157 Clouds 6 1000 90 10000 2.3 259 22:55 19.09.2022
158 Clouds 9 999 81 10000 2.57 250 22:18 19.09.2022
159 Clouds 12 999 71 10000 2.06 240 20:51 19.09.2022
160 Clouds 12 999 71 10000 2.06 240 20:31 19.09.2022
161 Clear 12 999 66 10000 1.03 230 17:45 19.09.2022
162 Clear 11 999 71 10000 0.51 0 15:37 19.09.2022
163 Clear 8 999 87 10000 1.54 10 13:33 19.09.2022
164 Clouds 9 998 76 10000 3.09 160 11:28 19.09.2022
165 Clear 8 998 87 10000 2.24 160 08:51 19.09.2022
166 Clouds 8 997 81 10000 2.24 160 08:18 19.09.2022
167 Clouds 6 995 88 10000 2.65 208 01:58 19.09.2022
168 Clouds 10 995 81 10000 4.63 20 23:22 18.09.2022
169 Clouds 12 994 62 10000 4.63 20 21:45 18.09.2022
170 Clouds 13 994 54 10000 5.66 30 20:33 18.09.2022
171 Clouds 11 994 62 10000 7.2 40 18:34 18.09.2022
172 Clouds 9 994 71 10000 6.71 40 17:39 18.09.2022
173 Clouds 10 994 66 10000 7.15 50 15:56 18.09.2022
174 Clouds 10 994 71 10000 5.66 40 14:30 18.09.2022
175 Clouds 11 994 62 10000 5.14 60 12:36 18.09.2022
176 Clouds 10 994 66 10000 5.14 50 11:46 18.09.2022
177 Clouds 11 994 76 10000 4.63 200 06:30 18.09.2022
178 Clouds 13 994 71 10000 8.05 60 01:30 18.09.2022
179 Clouds 9 994 93 10000 8.23 60 00:42 18.09.2022
180 Clouds 11 996 87 10000 8.23 60 22:23 17.09.2022
181 Clouds 11 997 87 10000 6.71 50 20:48 17.09.2022
182 Fog 9 998 93 10000 5.14 50 19:28 17.09.2022
183 Clouds 10 998 93 10000 4.63 30 17:19 17.09.2022
184 Rain 8 999 94 10000 0.56 130 13:59 17.09.2022
185 Fog 9 998 100 9000 1.03 0 12:33 17.09.2022
186 Rain 8 998 93 10000 1.03 0 10:47 17.09.2022
187 Clouds 9 999 93 7000 3.09 40 06:29 17.09.2022
188 Rain 13 999 76 10000 1.54 0 03:34 17.09.2022
189 Clouds 10 999 87 10000 4.63 40 23:23 16.09.2022
190 Clouds 11 1000 82 10000 3.09 50 21:46 16.09.2022
191 Clouds 11 1001 82 10000 3.09 40 20:41 16.09.2022
192 Clouds 8 1002 100 10000 4.63 40 18:28 16.09.2022
193 Fog 7 1004 100 10000 5.66 50 16:18 16.09.2022
194 Fog 7 1006 100 300 7.2 50 14:40 16.09.2022
195 Fog 7 1007 100 550 6.71 40 12:35 16.09.2022
196 Clouds 7 1009 100 10000 6.17 50 09:37 16.09.2022
197 Snow 7 1010 100 10000 6.17 60 07:22 16.09.2022
198 Snow 7 1011 100 10000 4.12 50 06:47 16.09.2022
199 Snow 8 1012 93 1900 2.57 0 05:43 16.09.2022
200 Snow 8 1013 93 9000 1.54 0 01:30 16.09.2022
201 Drizzle 8 1014 93 800 1.54 320 21:24 15.09.2022
202 Drizzle 7 1014 100 3000 2.57 60 20:28 15.09.2022
203 Rain 7 1014 96 10000 2.92 60 18:57 15.09.2022
204 Drizzle 10 1015 93 4000 4.12 200 17:38 15.09.2022
205 Drizzle 10 1015 93 4000 4.12 200 17:18 15.09.2022
206 Fog 8 1015 93 3500 2.06 30 15:22 15.09.2022
207 Drizzle 9 1014 93 3500 7.2 190 12:49 15.09.2022
208 Drizzle 9 1014 100 3500 7.2 190 11:47 15.09.2022
209 Snow 8 1014 93 2900 6.69 190 09:43 15.09.2022
210 Rain 7 1013 87 3500 11.62 170 05:37 15.09.2022
211 Clouds 8 1014 81 10000 11.18 180 02:58 15.09.2022
212 Clouds 6 1014 78 10000 3.43 151 22:51 14.09.2022
213 Rain 8 1013 87 10000 3.09 0 20:24 14.09.2022
214 Clouds 9 1013 81 10000 1.54 0 19:32 14.09.2022
215 Clouds 8 1013 87 10000 3.09 180 17:35 14.09.2022
216 Clouds 8 1014 87 10000 4.63 210 16:36 14.09.2022
217 Clouds 8 1014 87 10000 4.63 210 16:36 14.09.2022
218 Clouds 11 1012 66 10000 6.69 200 14:47 14.09.2022
219 Clouds 9 1012 76 10000 8.75 190 12:33 14.09.2022
220 Clouds 6 1014 78 10000 7.56 179 09:51 14.09.2022
221 Snow 6 1012 93 7000 6.69 210 08:21 14.09.2022
222 Clouds 9 1012 76 10000 9.26 180 06:49 14.09.2022
223 Clouds 9 1012 76 10000 9.26 180 06:25 14.09.2022
224 Clouds 8 1011 81 10000 6.71 200 02:19 14.09.2022
225 Clouds 8 1012 81 10000 1.54 240 01:32 14.09.2022
226 Clouds 9 1013 81 10000 4.53 166 00:52 14.09.2022
227 Clouds 9 1013 81 10000 2.24 200 23:54 13.09.2022
228 Clouds 9 1011 81 10000 2.57 200 23:36 13.09.2022
229 Clouds 9 1011 81 10000 2.57 200 23:18 13.09.2022
230 Rain 8 1012 93 10000 1.03 200 22:22 13.09.2022
231 Rain 8 1012 93 10000 1.03 200 22:22 13.09.2022
232 Clouds 10 1011 76 10000 2.06 170 20:45 13.09.2022
233 Clouds 9 1010 81 10000 1.03 0 18:43 13.09.2022
234 Clouds 9 1011 87 10000 0.51 0 16:19 13.09.2022
235 Clouds 9 1011 81 10000 1.03 0 15:18 13.09.2022
236 Clouds 7 1011 93 10000 0 0 13:31 13.09.2022
237 Clouds 8 1012 87 10000 0.89 70 09:58 13.09.2022
238 Clouds 8 1012 87 10000 1.54 180 07:47 13.09.2022
239 Clouds 6 1014 89 10000 4.01 130 00:58 13.09.2022
240 Rain 8 1013 87 10000 5.14 220 23:21 12.09.2022
241 Clouds 9 1013 81 10000 7.2 200 22:26 12.09.2022
242 Clouds 7 1014 93 10000 4.92 190 20:54 12.09.2022
243 Fog 8 1014 93 10000 3.6 190 19:26 12.09.2022
244 Drizzle 6 1014 100 300 5.14 200 17:47 12.09.2022
245 Drizzle 7 1015 93 1500 8.23 200 15:40 12.09.2022
246 Rain 7 1014 93 10000 10.29 170 12:26 12.09.2022
247 Mist 6 1015 100 3300 11.83 180 10:24 12.09.2022
248 Clouds 9 1014 76 10000 11.83 160 07:21 12.09.2022
249 Clouds 9 1014 71 10000 14.4 180 04:32 12.09.2022
250 Clouds 9 1015 71 10000 13.89 170 00:42 12.09.2022
251 Clouds 9 1014 70 10000 13.89 180 22:45 11.09.2022
252 Clouds 9 1013 70 10000 17.43 170 21:22 11.09.2022
253 Clouds 9 1013 71 10000 17.49 170 20:43 11.09.2022
254 Drizzle 8 1013 76 10000 18.01 160 19:27 11.09.2022
255 Clouds 8 1013 75 10000 18.78 160 18:58 11.09.2022
256 Clouds 8 1012 76 10000 20.58 170 17:26 11.09.2022
257 Rain 7 1014 81 10000 16.99 170 15:46 11.09.2022
258 Rain 7 1014 81 10000 14.92 180 13:22 11.09.2022
259 Rain 10 1014 57 10000 16.46 150 11:25 11.09.2022
260 Clouds 11 1016 58 10000 15.95 160 08:19 11.09.2022
261 Clouds 12 1017 50 10000 13.38 160 05:19 11.09.2022
262 Clouds 7 1021 79 10000 5.72 165 23:50 10.09.2022
263 Clouds 10 1020 71 10000 6.17 200 22:22 10.09.2022
264 Clouds 9 1021 76 10000 5.66 190 20:33 10.09.2022
265 Clouds 9 1020 76 10000 3.09 0 19:44 10.09.2022
266 Clouds 9 1020 76 10000 3.09 0 19:25 10.09.2022
267 Clouds 10 1021 71 10000 5.66 210 17:27 10.09.2022
268 Clouds 10 1021 71 10000 1.54 170 15:35 10.09.2022
269 Clouds 7 1021 87 10000 0.51 350 13:40 10.09.2022
270 Clouds 7 1021 87 10000 1.03 190 12:30 10.09.2022
271 Clouds 7 1022 87 10000 1.03 160 10:31 10.09.2022
272 Clouds 7 1022 87 10000 0.51 40 08:42 10.09.2022
273 Clouds 7 1022 87 10000 0.51 40 08:20 10.09.2022
274 Clouds 7 1022 87 10000 0.51 40 08:20 10.09.2022
275 Clouds 8 1022 87 10000 1.54 180 03:48 10.09.2022
276 Clouds 8 1021 87 10000 4.12 150 23:37 09.09.2022
277 Clouds 9 1021 81 10000 3.6 180 22:36 09.09.2022
278 Clouds 10 1020 71 10000 4.47 190 20:57 09.09.2022
279 Clouds 10 1020 71 10000 4.63 190 20:19 09.09.2022
280 Clouds 12 1020 62 10000 5.66 200 19:22 09.09.2022
281 Clear 10 1019 71 10000 3.6 210 17:29 09.09.2022
282 Clear 9 1019 76 10000 1.54 350 15:23 09.09.2022
283 Clouds 8 1019 71 10000 1.03 160 13:33 09.09.2022
284 Clouds 6 1019 87 10000 2.57 0 11:27 09.09.2022
285 Clouds 7 1018 75 10000 1.79 210 07:58 09.09.2022
286 Clouds 9 1018 71 10000 0 0 03:39 09.09.2022
287 Clouds 9 1018 71 10000 0.51 140 00:21 09.09.2022
288 Clouds 7 1018 65 10000 1.06 51 21:52 08.09.2022
289 Clouds 12 1017 62 10000 1.54 250 20:49 08.09.2022
290 Clouds 12 1017 62 10000 1.54 250 20:29 08.09.2022
291 Clouds 10 1017 62 10000 1.03 0 19:25 08.09.2022
292 Clouds 10 1017 71 10000 2.06 180 17:29 08.09.2022
293 Clouds 9 1017 71 10000 1.03 230 16:18 08.09.2022
294 Clouds 6 1017 81 10000 1.03 210 13:30 08.09.2022
295 Clouds 7 1016 70 10000 0 0 12:42 08.09.2022
296 Clouds 6 1016 75 10000 0.51 0 11:32 08.09.2022
297 Clouds 5 1016 75 10000 2.82 77 09:57 08.09.2022
298 Clouds 6 1016 75 10000 1.54 200 07:38 08.09.2022
299 Clouds 5 1017 86 10000 0.89 100 04:53 08.09.2022
300 Clouds 6 1017 87 10000 0.51 0 02:36 08.09.2022
301 Clouds 6 1017 87 10000 0.51 0 02:18 08.09.2022
302 Clouds 6 1017 93 10000 0.51 0 00:21 08.09.2022
303 Clouds 7 1017 87 10000 1.03 200 21:58 07.09.2022
304 Clouds 7 1017 87 10000 1.03 200 21:38 07.09.2022
305 Clouds 7 1017 87 10000 2.06 180 20:30 07.09.2022
306 Clouds 7 1017 87 10000 2.57 180 19:23 07.09.2022
307 Clouds 9 1017 71 10000 2.68 40 17:22 07.09.2022
308 Fog 4 1018 100 10000 1.54 360 11:32 07.09.2022
309 Fog 4 1018 100 550 0.51 80 10:36 07.09.2022
310 Rain 5 1018 93 100 1.34 180 08:33 07.09.2022
311 Clouds 5 1019 93 10000 2.24 150 06:50 07.09.2022
312 Clouds 7 1021 75 10000 0.45 330 00:53 07.09.2022
313 Clouds 8 1020 81 10000 4.63 200 22:28 06.09.2022
314 Clouds 7 1021 87 10000 5.14 190 21:38 06.09.2022
315 Clouds 7 1021 87 10000 5.66 190 19:40 06.09.2022
316 Rain 6 1021 87 10000 6.17 200 18:42 06.09.2022
317 Clouds 5 1021 81 10000 7.15 170 17:51 06.09.2022
318 Clouds 7 1021 70 10000 7.15 190 16:53 06.09.2022
319 Clouds 7 1021 70 10000 7.2 190 16:26 06.09.2022
320 Clouds 7 1022 70 10000 7.15 160 14:54 06.09.2022
321 Clouds 6 1021 75 10000 6.71 170 13:44 06.09.2022
322 Clouds 6 1021 75 10000 6.71 190 13:21 06.09.2022
323 Clouds 6 1021 75 10000 6.71 160 11:29 06.09.2022
324 Clouds 5 1021 87 10000 6.71 180 10:33 06.09.2022
325 Clouds 4 1021 93 10000 6.17 190 08:41 06.09.2022
326 Clouds 4 1021 100 10000 6.71 180 07:37 06.09.2022
327 Clouds 6 1021 75 10000 6.17 160 02:34 06.09.2022
328 Clouds 6 1021 81 10000 6.71 180 23:22 05.09.2022
329 Clouds 5 1021 81 10000 6.71 180 21:52 05.09.2022
330 Rain 5 1021 100 8000 7.72 190 20:32 05.09.2022
331 Rain 5 1020 93 10000 6.71 190 19:18 05.09.2022
332 Rain 5 1020 100 4800 7.2 190 18:44 05.09.2022
333 Rain 5 1020 100 4800 7.2 190 18:21 05.09.2022
334 Mist 5 1020 100 3500 6.71 190 16:35 05.09.2022
335 Rain 6 1019 93 2000 8.75 200 15:46 05.09.2022
336 Rain 6 1018 100 10000 11.83 190 13:25 05.09.2022
337 Rain 7 1017 93 5000 11.83 180 12:26 05.09.2022
338 Snow 10 1014 87 2600 12.35 180 09:19 05.09.2022
339 Clouds 11 1012 76 10000 18.52 170 06:40 05.09.2022
340 Clouds 7 1014 92 10000 7.83 176 01:56 05.09.2022
341 Clouds 8 1014 90 10000 8.1 172 22:59 04.09.2022
342 Clouds 15 1013 63 10000 9.77 180 22:27 04.09.2022
343 Clouds 11 1013 87 10000 6.71 190 20:44 04.09.2022
344 Clouds 9 1014 93 10000 4.12 200 19:29 04.09.2022
345 Clouds 9 1015 93 10000 1.79 20 17:55 04.09.2022
346 Fog 8 1016 100 10000 1.54 30 16:42 04.09.2022
347 Fog 7 1017 100 700 1.03 240 14:29 04.09.2022
348 Fog 8 1017 100 4000 0.51 330 13:28 04.09.2022
349 Clouds 6 1017 93 10000 1.85 144 11:54 04.09.2022
350 Clouds 8 1018 93 10000 0.51 0 10:47 04.09.2022
351 Clouds 8 1018 93 10000 2.06 10 08:20 04.09.2022
352 Clouds 10 1019 81 10000 6.69 170 05:19 04.09.2022
353 Clouds 6 1020 93 10000 2.72 127 00:50 04.09.2022
354 Mist 8 1020 100 2500 6.69 190 22:22 03.09.2022
355 Fog 8 1021 93 10000 1.03 0 21:23 03.09.2022
356 Clouds 8 1021 100 10000 2.06 250 19:42 03.09.2022
357 Fog 8 1021 93 7000 8.49 200 17:28 03.09.2022
358 Mist 8 1021 93 4700 8.75 200 16:31 03.09.2022
359 Rain 8 1021 93 3000 11.32 180 14:45 03.09.2022
360 Rain 8 1021 93 3000 11.32 180 14:22 03.09.2022
361 Clouds 7 1021 93 10000 11.18 180 12:24 03.09.2022
362 Snow 11 1019 76 4200 13.89 170 10:49 03.09.2022
363 Snow 8 1018 87 2500 16.46 180 08:29 03.09.2022
364 Snow 8 1018 87 2500 16.46 180 08:29 03.09.2022
365 Clouds 7 1020 89 10000 18.22 173 06:58 03.09.2022
366 Snow 9 1015 87 3200 16.46 160 04:34 03.09.2022
367 Snow 9 1015 93 4300 9.26 190 00:32 03.09.2022
368 Snow 10 1014 81 3600 15.43 170 23:20 02.09.2022
369 Clouds 10 1013 87 10000 16.09 170 20:59 02.09.2022
370 Drizzle 10 1013 87 3500 16.46 170 20:39 02.09.2022
371 Drizzle 10 1012 87 5000 16.46 170 19:30 02.09.2022
372 Drizzle 10 1011 87 3500 16.98 180 18:43 02.09.2022
373 Drizzle 10 1011 87 3500 16.98 180 18:24 02.09.2022
374 Rain 9 1011 93 5000 16.46 170 16:49 02.09.2022
375 Rain 8 1009 100 4500 19.03 170 15:35 02.09.2022
376 Rain 16 1006 82 10000 14.92 190 12:43 02.09.2022
377 Rain 19 1006 77 3100 19.55 150 10:22 02.09.2022
378 Rain 19 1006 72 3300 17.49 160 09:41 02.09.2022
379 Clouds 14 1007 77 10000 3.6 0 07:36 02.09.2022
380 Rain 8 1009 81 10000 2.06 0 06:41 02.09.2022
381 Clouds 8 1011 77 10000 3.92 126 03:52 02.09.2022
382 Clouds 11 1011 43 10000 3.6 120 22:45 01.09.2022
383 Clouds 9 1012 53 10000 1.54 0 21:44 01.09.2022
384 Clouds 9 1012 53 10000 1.54 0 21:25 01.09.2022
385 Clouds 8 1012 53 10000 1.54 0 20:46 01.09.2022
386 Clouds 9 1013 46 10000 5.66 60 19:20 01.09.2022
387 Clouds 5 1015 70 10000 7.2 50 17:47 01.09.2022
388 Clouds 5 1016 65 10000 4.63 50 16:29 01.09.2022
389 Clouds 6 1017 56 10000 0 0 14:33 01.09.2022
390 Clouds 5 1017 65 10000 1.72 106 12:59 01.09.2022
391 Clouds 5 1017 60 10000 2.31 100 11:54 01.09.2022
392 Clouds 5 1017 60 10000 2.57 0 11:33 01.09.2022
393 Clouds 5 1017 60 10000 1.03 0 10:40 01.09.2022
394 Clouds 5 1018 60 10000 1.03 180 08:30 01.09.2022
395 Clouds 4 1019 70 10000 3.09 40 06:23 01.09.2022
396 Clouds 5 1023 70 10000 4.12 70 01:34 01.09.2022
397 Clouds 6 1024 65 10000 4.12 50 00:18 01.09.2022
398 Clouds 6 1024 65 10000 3.09 60 21:44 31.08.2022
399 Clouds 5 1024 60 10000 1.34 40 19:59 31.08.2022
400 Clouds 7 1023 57 10000 1.03 0 18:19 31.08.2022
401 Clouds 5 1023 70 10000 0.51 0 16:31 31.08.2022
402 Clouds 4 1022 81 10000 0.51 0 14:36 31.08.2022
403 Clouds 4 1022 86 10000 1.34 260 12:24 31.08.2022
404 Clouds 4 1020 87 10000 1.54 260 11:30 31.08.2022
405 Clouds 3 1019 93 10000 1.03 0 09:20 31.08.2022
406 Rain 2 1016 93 10000 1.54 220 06:18 31.08.2022
407 Rain 3 1010 100 8000 4.12 250 23:25 30.08.2022
408 Rain 4 1007 93 8000 10.29 170 21:49 30.08.2022
409 Clouds 4 1009 93 63 12.07 180 20:58 30.08.2022
410 Rain 4 1003 87 5000 12.35 180 18:49 30.08.2022
411 Rain 4 1001 93 7000 10.29 180 15:29 30.08.2022
412 Drizzle 4 1000 93 10000 9.26 190 13:25 30.08.2022
413 Fog 4 1000 100 500 6.17 210 11:22 30.08.2022
414 Rain 4 1000 97 579 4.37 188 10:57 30.08.2022
415 Clouds 4 1000 100 10000 2.68 230 07:50 30.08.2022
416 Clouds 5 998 93 10000 4.92 260 02:55 30.08.2022
417 Mist 5 998 93 4900 5.14 260 23:28 29.08.2022
418 Clouds 6 997 87 10000 6.17 250 22:33 29.08.2022
419 Clouds 6 996 87 7000 4.63 240 21:27 29.08.2022
420 Clouds 6 996 87 7000 4.63 240 21:27 29.08.2022
421 Clouds 7 995 81 7000 4.63 230 20:26 29.08.2022
422 Clouds 7 995 70 10000 3.12 277 17:58 29.08.2022
423 Clouds 10 994 62 10000 2.06 230 17:25 29.08.2022
424 Clouds 10 994 50 10000 1.54 350 16:43 29.08.2022
425 Clouds 10 995 53 10000 1.54 360 15:18 29.08.2022
426 Clouds 7 995 81 10000 0 0 13:26 29.08.2022
427 Clouds 6 996 81 10000 0.51 110 11:33 29.08.2022
428 Clouds 5 996 93 10000 0.89 130 10:39 29.08.2022
429 Clouds 8 997 57 10000 1.54 30 08:38 29.08.2022
430 Clouds 8 1000 65 10000 2.68 30 05:58 29.08.2022
431 Clouds 10 1003 57 10000 3.6 30 01:25 29.08.2022
432 Clouds 10 1004 43 10000 3.58 60 22:50 28.08.2022
433 Clouds 11 1004 43 10000 3.6 60 21:45 28.08.2022
434 Clouds 10 1005 43 10000 4.47 50 20:58 28.08.2022
435 Clouds 11 1005 43 10000 6.71 60 19:44 28.08.2022
436 Clouds 10 1006 68 10000 6.71 60 18:22 28.08.2022
437 Clouds 10 1006 50 10000 6.71 60 17:40 28.08.2022
438 Clouds 10 1007 50 10000 6.17 60 16:33 28.08.2022
439 Clouds 9 1007 57 10000 6.17 70 14:44 28.08.2022
440 Clouds 8 1008 75 10000 5.36 70 12:49 28.08.2022
441 Clouds 8 1009 75 10000 4.92 60 10:51 28.08.2022
442 Clouds 8 1009 75 10000 4.92 60 09:57 28.08.2022
443 Clouds 6 1009 93 10000 2.57 20 08:39 28.08.2022
444 Clouds 5 1010 86 10000 2.68 70 07:50 28.08.2022
445 Clouds 6 1011 87 10000 0.51 150 03:44 28.08.2022
446 Clouds 7 1011 76 10000 2.06 200 00:33 28.08.2022
447 Clouds 8 1011 71 10000 2.57 190 22:41 27.08.2022
448 Clouds 8 1011 70 10000 2.24 190 21:58 27.08.2022
449 Clouds 10 1011 71 10000 3.6 200 20:27 27.08.2022
450 Clouds 9 1011 76 10000 2.06 0 18:42 27.08.2022
451 Clouds 9 1011 71 10000 1.03 0 16:25 27.08.2022
452 Clouds 7 1011 87 10000 1.54 360 15:30 27.08.2022
453 Clouds 5 1011 87 10000 2.06 20 12:41 27.08.2022
454 Clouds 5 1011 80 10000 1.79 30 11:56 27.08.2022
455 Clouds 5 1011 86 10000 2.24 30 09:52 27.08.2022
456 Clouds 5 1011 87 10000 2.57 30 09:25 27.08.2022
457 Clouds 4 1012 93 10000 3.09 20 05:24 27.08.2022
458 Clouds 8 1013 76 10000 2.06 350 00:25 27.08.2022
459 Clouds 9 1013 71 10000 2.06 330 23:35 26.08.2022
460 Clouds 9 1013 76 10000 2.06 260 21:45 26.08.2022
461 Clouds 8 1013 76 10000 1.54 330 19:40 26.08.2022
462 Clouds 7 1014 87 10000 3.6 30 17:29 26.08.2022
463 Clouds 5 1014 93 10000 1.54 320 15:37 26.08.2022
464 Clouds 5 1014 93 10000 0.89 210 14:56 26.08.2022
465 Clouds 5 1014 93 10000 1.79 230 12:54 26.08.2022
466 Clouds 5 1014 93 10000 1.54 220 11:43 26.08.2022
467 Clouds 5 1014 93 10000 1.54 220 11:21 26.08.2022
468 Clouds 5 1013 93 10000 3.58 200 07:56 26.08.2022
469 Clouds 5 1014 89 10000 2.75 179 02:57 26.08.2022
470 Fog 7 1013 93 10000 5.66 190 23:45 25.08.2022
471 Fog 7 1013 93 10000 4.63 190 22:20 25.08.2022
472 Clouds 9 1014 87 10000 6.71 190 20:53 25.08.2022
473 Clouds 8 1011 87 10000 8.23 190 19:27 25.08.2022
474 Clouds 8 1011 93 10000 9.26 190 18:29 25.08.2022
475 Drizzle 7 1011 93 10000 8.75 180 17:31 25.08.2022
476 Clouds 8 1010 87 10000 9.26 180 16:36 25.08.2022
477 Rain 7 1010 93 5000 9.26 180 15:28 25.08.2022
478 Clouds 7 1012 87 10000 7.6 180 13:51 25.08.2022
479 Snow 6 1009 93 4600 8.23 180 10:49 25.08.2022
480 Rain 6 1010 94 10000 8.77 178 09:52 25.08.2022
481 Clouds 7 1008 87 10000 10.8 170 07:35 25.08.2022
482 Clouds 6 1010 97 10000 7.31 165 02:51 25.08.2022
483 Clouds 9 1008 81 10000 10.8 160 23:36 24.08.2022
484 Rain 6 1011 96 10000 5.1 162 22:55 24.08.2022
485 Rain 6 1011 96 9640 5.54 172 21:53 24.08.2022
486 Clouds 8 1009 87 10000 8.23 170 21:28 24.08.2022
487 Clouds 8 1011 87 10000 7.6 180 19:56 24.08.2022
488 Clouds 8 1011 87 10000 0.89 340 16:58 24.08.2022
489 Clouds 8 1011 87 10000 0.89 340 15:54 24.08.2022
490 Clouds 8 1010 87 10000 1.03 340 15:18 24.08.2022
491 Clouds 6 1012 87 10000 0.51 0 12:48 24.08.2022
492 Clouds 5 1012 93 10000 1.54 190 11:18 24.08.2022
493 Clouds 5 1014 93 9000 0.51 290 08:45 24.08.2022
494 Clouds 6 1014 93 10000 6.17 190 06:23 24.08.2022
495 Clouds 7 1015 81 10000 7.15 180 00:53 24.08.2022
496 Clouds 6 1011 93 10000 9.77 180 22:38 23.08.2022
497 Clouds 6 1014 87 10000 8.75 183 21:55 23.08.2022
498 Rain 6 1008 93 10000 10.8 180 20:47 23.08.2022
499 Rain 7 1005 93 2800 15.43 180 19:18 23.08.2022
500 Clouds 8 1006 81 6789 16.09 160 17:59 23.08.2022
501 Rain 8 999 81 6000 16.46 160 17:22 23.08.2022
502 Fog 6 999 100 3500 1.03 10 16:24 23.08.2022
503 Rain 5 999 100 10000 1.54 0 14:30 23.08.2022
504 Drizzle 5 999 93 4500 0.51 0 12:46 23.08.2022
505 Rain 6 999 86 7358 1.18 51 10:58 23.08.2022
506 Snow 6 999 87 9000 3.09 360 10:33 23.08.2022
507 Snow 6 999 87 8000 3.09 40 09:32 23.08.2022
508 Snow 6 1000 87 10000 1.54 0 08:46 23.08.2022
509 Snow 6 1000 87 10000 1.54 0 08:19 23.08.2022
510 Clouds 6 1001 81 10000 9.39 190 07:33 23.08.2022
511 Clouds 6 1001 87 9000 9.77 190 06:23 23.08.2022
512 Clouds 9 1004 61 10000 10.28 190 01:49 23.08.2022
513 Clouds 9 1004 61 10000 10.29 190 00:27 23.08.2022
514 Clouds 11 1005 46 10000 10.29 170 23:32 22.08.2022
515 Clouds 10 1006 53 10000 10.29 180 22:25 22.08.2022
516 Clouds 7 1007 66 10000 10.75 177 20:53 22.08.2022
517 Clouds 10 1007 53 10000 10.8 190 19:46 22.08.2022
518 Clouds 8 1008 66 10000 5.66 200 18:37 22.08.2022
519 Clouds 7 1009 76 10000 2.57 0 16:23 22.08.2022
520 Clouds 7 1009 76 10000 1.03 240 15:22 22.08.2022
521 Clouds 4 1011 100 10000 4.02 220 12:53 22.08.2022
522 Clouds 4 1011 100 9000 3.6 200 09:27 22.08.2022
523 Clouds 6 1011 72 10000 2.41 164 06:58 22.08.2022
524 Fog 4 1011 100 100 2.57 190 02:42 22.08.2022
525 Clouds 6 1011 87 10000 2.06 200 00:37 22.08.2022
526 Fog 6 1011 87 10000 3.09 200 23:34 21.08.2022
527 Clouds 8 1011 75 10000 2.68 200 21:56 21.08.2022
528 Clouds 8 1011 76 10000 3.09 200 21:20 21.08.2022
529 Clouds 8 1011 76 10000 2.57 200 20:20 21.08.2022
530 Clouds 8 1011 81 10000 1.79 340 18:59 21.08.2022
531 Clouds 5 1013 86 10000 0.89 350 16:52 21.08.2022
532 Clouds 5 1012 93 10000 1.34 30 15:52 21.08.2022
533 Clouds 4 1012 93 10000 1.79 360 14:57 21.08.2022
534 Clouds 5 1012 86 10000 0.98 130 13:51 21.08.2022
535 Clouds 4 1012 93 10000 1.34 10 12:56 21.08.2022
536 Clouds 3 1012 93 10000 1.03 100 10:41 21.08.2022
537 Clouds 3 1012 100 10000 0.51 140 09:21 21.08.2022
538 Clouds 4 1011 93 10000 1.03 0 08:46 21.08.2022
539 Clouds 4 1011 93 10000 1.03 0 08:28 21.08.2022
540 Clouds 3 1012 93 10000 0.45 240 06:59 21.08.2022
541 Snow 3 1011 100 5000 2.57 280 02:35 21.08.2022
542 Clouds 5 1010 87 10000 2.57 270 23:35 20.08.2022
543 Drizzle 5 1010 87 10000 3.09 310 22:23 20.08.2022
544 Drizzle 5 1009 87 10000 2.68 320 21:22 20.08.2022
545 Drizzle 5 1008 93 10000 3.09 290 19:49 20.08.2022
546 Drizzle 5 1008 93 10000 3.09 290 19:21 20.08.2022
547 Clouds 5 1007 87 10000 4.12 300 18:27 20.08.2022
548 Drizzle 5 1006 93 10000 4.63 310 17:25 20.08.2022
549 Fog 5 1006 100 8000 3.6 300 16:23 20.08.2022
550 Clouds 6 1004 87 10000 4.12 240 14:35 20.08.2022
551 Clouds 5 1003 93 10000 2.06 230 12:28 20.08.2022
552 Clouds 5 1002 93 10000 2.06 190 11:46 20.08.2022
553 Clouds 5 1002 93 10000 2.06 210 09:25 20.08.2022
554 Clouds 5 1002 93 10000 4.63 190 07:31 20.08.2022
555 Clouds 6 1003 81 10000 5.66 180 05:48 20.08.2022
556 Clouds 7 1006 75 10000 7.6 190 00:58 20.08.2022
557 Clouds 8 1006 70 10000 7.15 190 23:52 19.08.2022
558 Clouds 10 1005 57 10000 2.68 210 22:50 19.08.2022
559 Clouds 10 1005 53 10000 3.09 180 21:34 19.08.2022
560 Clouds 9 1006 53 10000 4.63 50 19:41 19.08.2022
561 Clouds 10 1007 53 10000 6.17 60 16:40 19.08.2022
562 Clouds 8 1009 61 10000 6.17 60 14:37 19.08.2022
563 Clouds 8 1010 66 10000 6.71 70 12:47 19.08.2022
564 Clouds 7 1011 76 10000 5.66 70 10:43 19.08.2022
565 Clouds 6 1012 69 10000 4.27 85 09:39 19.08.2022
566 Clouds 6 1013 83 10000 2.64 3 04:59 19.08.2022
567 Clouds 9 1013 71 10000 3.09 360 00:45 19.08.2022
568 Clouds 9 1013 71 10000 3.09 360 00:22 19.08.2022
569 Clear 6 1014 76 10000 6.38 335 22:59 18.08.2022
570 Clouds 10 1013 66 10000 3.6 360 22:30 18.08.2022
571 Clear 7 1014 73 10000 7.17 328 21:53 18.08.2022
572 Clouds 10 1013 66 10000 4.63 20 21:18 18.08.2022
573 Clear 8 1013 70 10000 5.8 329 19:54 18.08.2022
574 Clouds 12 1012 58 10000 3.6 40 19:24 18.08.2022
575 Clouds 10 1013 62 10000 4.12 50 17:46 18.08.2022
576 Clear 8 1013 75 10000 4.92 50 16:55 18.08.2022
577 Clouds 5 1013 86 10000 5.36 30 14:22 18.08.2022
578 Clouds 5 1013 86 10000 5.36 30 13:58 18.08.2022
579 Clouds 6 1013 87 10000 4.63 50 12:46 18.08.2022
580 Clouds 5 1013 93 10000 6.71 40 11:23 18.08.2022
581 Clear 5 1013 93 10000 5.36 40 09:43 18.08.2022
582 Clear 5 1013 93 10000 5.66 40 08:31 18.08.2022
583 Clear 5 1013 93 10000 4.92 30 07:18 18.08.2022
584 Fog 5 1013 93 10000 3.6 40 03:23 18.08.2022
585 Clouds 8 1013 76 10000 3.09 20 23:18 17.08.2022
586 Clouds 8 1013 76 10000 1.03 0 21:28 17.08.2022
587 Clouds 5 1014 86 10000 2.24 280 19:59 17.08.2022
588 Clouds 5 1014 86 10000 1.34 290 18:58 17.08.2022
589 Clouds 6 1013 81 10000 1.54 310 17:32 17.08.2022
590 Clouds 5 1012 87 10000 2.06 290 16:22 17.08.2022
591 Clouds 5 1012 87 10000 2.06 300 15:22 17.08.2022
592 Clouds 4 1011 93 10000 1.34 360 12:54 17.08.2022
593 Drizzle 3 1011 100 10000 2.06 310 11:36 17.08.2022
594 Snow 4 1009 93 10000 2.57 300 09:31 17.08.2022
595 Clouds 4 1010 93 10000 1.34 10 07:55 17.08.2022
596 Drizzle 4 1006 93 10000 1.54 340 03:27 17.08.2022
597 Clouds 5 1005 89 10000 1.62 266 23:58 16.08.2022
598 Clouds 5 1003 93 10000 2.57 200 22:30 16.08.2022
599 Clouds 5 1004 93 10000 2.24 220 20:52 16.08.2022
600 Clouds 5 1004 93 10000 2.24 220 19:53 16.08.2022
601 Clouds 5 1002 93 10000 3.09 220 18:40 16.08.2022
602 Clouds 5 1002 100 10000 4.12 210 17:43 16.08.2022
603 Fog 4 1002 100 10000 4.12 220 15:48 16.08.2022
604 Clouds 4 1003 100 10000 4.02 220 14:55 16.08.2022
605 Fog 4 1003 100 200 4.12 220 14:37 16.08.2022
606 Clouds 3 1003 100 10000 3.58 190 12:58 16.08.2022
607 Clouds 4 1005 97 9493 2.55 175 10:59 16.08.2022
608 Clouds 4 1005 98 505 2.21 174 09:50 16.08.2022
609 Snow 5 1004 93 250 3.09 220 08:47 16.08.2022
610 Clouds 4 1006 98 173 2.28 208 07:58 16.08.2022
611 Rain 6 1007 98 778 7.14 191 02:50 16.08.2022
612 Rain 8 1005 93 6000 14.92 170 22:31 15.08.2022
613 Clouds 8 1008 93 6598 12.96 180 21:55 15.08.2022
614 Rain 8 1005 93 10000 13.38 180 21:34 15.08.2022
615 Rain 9 1005 93 10000 15.43 170 20:20 15.08.2022
616 Rain 10 1007 81 10000 13.38 170 18:43 15.08.2022
617 Clouds 10 1007 76 10000 10.8 180 17:46 15.08.2022
618 Clouds 8 1009 87 10000 5.14 200 16:22 15.08.2022
619 Clouds 6 1011 92 10000 3.47 151 13:58 15.08.2022
620 Rain 6 1011 100 9000 7.2 200 12:38 15.08.2022
621 Rain 7 1012 93 8000 10.29 190 10:18 15.08.2022
622 Rain 6 1013 94 10000 8.89 194 08:52 15.08.2022
623 Clouds 9 1012 87 10000 11.83 180 06:34 15.08.2022
624 Clouds 8 1014 93 10000 8.49 190 03:34 15.08.2022
625 Clouds 9 1013 87 10000 10.8 180 23:24 14.08.2022
626 Clouds 9 1013 87 10000 11.83 180 21:43 14.08.2022
627 Clouds 9 1014 87 10000 10.73 190 20:41 14.08.2022
628 Clouds 9 1013 87 10000 10.8 190 19:36 14.08.2022
629 Clouds 11 1012 71 10000 11.83 170 18:21 14.08.2022
630 Clouds 9 1012 87 10000 11.32 200 17:37 14.08.2022
631 Clouds 8 1012 93 10000 10.8 190 16:23 14.08.2022
632 Clouds 9 1012 93 10000 9.26 190 15:34 14.08.2022
633 Clouds 6 1014 93 10000 6.58 178 13:51 14.08.2022
634 Rain 10 1012 81 10000 12.35 160 13:31 14.08.2022
635 Rain 9 1012 87 8000 12.35 180 12:45 14.08.2022
636 Rain 9 1012 93 10000 11.83 180 11:30 14.08.2022
637 Clouds 10 1012 76 10000 10.29 180 09:34 14.08.2022
638 Clouds 10 1011 76 10000 6.17 180 08:18 14.08.2022
639 Clouds 9 1012 93 10000 1.03 220 05:45 14.08.2022
640 Clouds 9 1011 87 10000 2.57 220 01:48 14.08.2022
641 Clouds 11 1011 76 10000 2.57 230 23:23 13.08.2022
642 Clouds 12 1011 71 10000 3.09 240 22:28 13.08.2022
643 Clouds 7 1011 71 10000 2.13 230 20:56 13.08.2022
644 Fog 12 1010 62 10000 2.57 200 19:49 13.08.2022
645 Fog 12 1010 62 10000 2.57 200 19:19 13.08.2022
646 Clouds 12 1010 66 10000 1.54 0 17:22 13.08.2022
647 Clouds 11 1010 66 10000 1.54 340 15:18 13.08.2022
648 Clouds 10 1010 71 10000 1.03 360 14:24 13.08.2022
649 Clouds 9 1010 81 10000 1.54 210 13:36 13.08.2022
650 Clouds 7 1010 87 10000 0.51 170 11:49 13.08.2022
651 Clouds 6 1010 93 10000 0 0 09:43 13.08.2022
652 Clouds 9 1010 66 10000 1.79 180 07:50 13.08.2022
653 Clouds 11 1011 66 10000 1.03 200 02:33 13.08.2022
654 Clouds 11 1011 71 10000 4.12 180 23:45 12.08.2022
655 Clouds 13 1011 62 10000 3.6 200 21:40 12.08.2022
656 Clear 8 1012 70 10000 1.32 249 19:51 12.08.2022
657 Clouds 13 1011 54 10000 2.57 200 19:26 12.08.2022
658 Clouds 13 1012 54 10000 2.57 200 18:34 12.08.2022
659 Clouds 11 1012 58 10000 4.63 60 16:28 12.08.2022
660 Clouds 9 1012 76 10000 6.71 60 15:31 12.08.2022
661 Clouds 9 1012 71 10000 7.2 50 14:27 12.08.2022
662 Clouds 8 1012 81 10000 6.71 40 12:51 12.08.2022
663 Clouds 5 1013 86 10000 5.81 40 09:51 12.08.2022
664 Clouds 6 1013 81 10000 4.12 40 07:47 12.08.2022
665 Clouds 6 1013 81 10000 4.12 30 06:31 12.08.2022
666 Clouds 8 1013 71 10000 4.12 30 02:22 12.08.2022
667 Clear 9 1012 66 10000 3.6 10 00:23 12.08.2022
668 Clear 10 1012 66 10000 3.09 20 23:35 11.08.2022
669 Clouds 9 1012 71 10000 3.09 350 22:24 11.08.2022
670 Clouds 10 1010 76 10000 2.68 320 21:39 11.08.2022
671 Clouds 10 1010 76 10000 3.09 320 20:45 11.08.2022
672 Clouds 10 1010 76 10000 3.09 320 20:18 11.08.2022
673 Clouds 11 1010 71 10000 2.57 330 19:32 11.08.2022
674 Clouds 12 1009 71 10000 1.03 0 17:48 11.08.2022
675 Clouds 10 1009 76 10000 0.51 340 16:34 11.08.2022
676 Clouds 9 1008 87 10000 2.06 20 15:21 11.08.2022
677 Fog 6 1007 100 10000 2.06 10 12:44 11.08.2022
678 Clouds 6 1006 100 10000 3.6 60 10:27 11.08.2022
679 Rain 5 1005 100 250 4.63 30 07:38 11.08.2022
680 Clouds 6 1007 89 10000 3.53 12 03:52 11.08.2022
681 Rain 7 1005 93 10000 1.03 300 00:37 11.08.2022
682 Clouds 8 1005 93 10000 2.57 60 22:32 10.08.2022
683 Clouds 7 1005 93 10000 2.06 40 21:25 10.08.2022
684 Clouds 5 1008 100 10000 1.79 190 20:55 10.08.2022
685 Fog 5 1006 100 10000 1.34 330 19:31 10.08.2022
686 Fog 5 1006 100 2400 1.54 330 18:22 10.08.2022
687 Drizzle 5 1007 93 700 2.68 200 16:41 10.08.2022
688 Fog 4 1008 100 200 3.6 220 13:36 10.08.2022
689 Fog 4 1008 100 250 3.6 220 12:44 10.08.2022
690 Clouds 5 1008 93 10000 3.6 200 09:25 10.08.2022
691 Clouds 5 1008 93 10000 1.54 220 08:34 10.08.2022
692 Clouds 4 1008 100 10000 1.54 190 07:20 10.08.2022
693 Clouds 4 1008 100 10000 2.57 200 03:32 10.08.2022
694 Clouds 5 1009 93 10000 2.24 220 23:51 09.08.2022
695 Clouds 5 1008 93 10000 2.57 220 23:24 09.08.2022
696 Clouds 5 1007 93 10000 4.12 220 21:36 09.08.2022
697 Clouds 5 1007 93 10000 3.6 220 20:40 09.08.2022
698 Clouds 6 1006 87 10000 3.6 210 18:45 09.08.2022
699 Clouds 6 1006 87 10000 3.6 200 17:31 09.08.2022
700 Clouds 5 1005 93 10000 3.6 200 16:42 09.08.2022
701 Clouds 5 1005 93 10000 2.68 200 15:59 09.08.2022
702 Fog 5 1004 93 6000 2.06 190 14:28 09.08.2022
703 Fog 4 1002 93 10000 1.03 260 10:39 09.08.2022
704 Clouds 4 1001 100 10000 1.79 270 08:51 09.08.2022
705 Clouds 4 1001 100 10000 0.89 260 07:54 09.08.2022
706 Clouds 4 1000 93 5000 3.6 300 04:31 09.08.2022
707 Clouds 5 997 93 10000 3.58 330 23:58 08.08.2022
708 Clouds 5 997 86 10000 2.68 340 22:57 08.08.2022
709 Clouds 5 997 87 10000 3.09 340 22:35 08.08.2022
710 Clouds 5 997 87 10000 2.57 360 21:30 08.08.2022
711 Clouds 5 996 86 10000 5.36 330 19:57 08.08.2022
712 Clouds 6 996 87 10000 5.66 330 19:22 08.08.2022
713 Clouds 6 996 87 10000 5.14 320 17:47 08.08.2022
714 Clouds 5 996 93 10000 4.12 330 15:46 08.08.2022
715 Clouds 5 996 93 10000 3.09 360 14:45 08.08.2022
716 Fog 4 996 100 7000 3.6 360 12:29 08.08.2022
717 Clouds 4 997 93 10000 3.09 10 10:25 08.08.2022
718 Clouds 4 998 93 10000 4.12 10 07:49 08.08.2022
719 Clouds 5 1000 93 10000 4.02 340 03:39 08.08.2022
720 Fog 6 1001 87 10000 5.14 330 23:28 07.08.2022
721 Clouds 6 1001 87 10000 2.06 350 21:41 07.08.2022
722 Clouds 7 1001 81 10000 2.24 20 20:55 07.08.2022
723 Clouds 7 1001 81 10000 2.57 20 20:18 07.08.2022
724 Clouds 5 1001 86 10000 2.24 340 19:51 07.08.2022
725 Clouds 6 1001 87 10000 2.06 330 18:41 07.08.2022
726 Clouds 5 1002 93 10000 1.03 340 17:22 07.08.2022
727 Clouds 4 1002 100 10000 0.89 240 16:51 07.08.2022
728 Drizzle 4 1002 100 4500 1.54 200 15:26 07.08.2022
729 Clouds 4 1003 93 10000 2.24 230 13:55 07.08.2022
730 Drizzle 4 1002 93 5000 3.6 250 12:38 07.08.2022
731 Clouds 4 1001 100 10000 3.09 270 10:42 07.08.2022
732 Clouds 4 1003 100 10000 2.24 270 09:56 07.08.2022
733 Mist 4 1000 100 2600 2.06 290 04:33 07.08.2022
734 Clouds 4 1000 100 7530 2.68 320 01:59 07.08.2022
735 Clouds 6 999 87 10000 1.54 350 22:33 06.08.2022
736 Clouds 5 999 93 10000 2.68 350 21:52 06.08.2022
737 Clouds 7 999 93 10000 4.63 330 19:46 06.08.2022
738 Clouds 7 999 93 10000 2.57 350 18:38 06.08.2022
739 Clouds 8 999 87 10000 3.09 350 17:45 06.08.2022
740 Clouds 9 1000 87 10000 2.68 40 16:24 06.08.2022
741 Clouds 5 1001 100 10000 5.81 20 13:51 06.08.2022
742 Fog 6 1002 100 10000 5.14 30 12:27 06.08.2022
743 Fog 6 1002 100 10000 5.14 30 12:27 06.08.2022
744 Fog 6 1002 100 10000 5.14 30 11:21 06.08.2022
745 Fog 6 1003 100 4000 3.6 40 09:41 06.08.2022
746 Clouds 6 1005 100 10000 6.17 200 04:43 06.08.2022
747 Clouds 7 1006 93 10000 8.23 200 01:47 06.08.2022
748 Clouds 9 1005 81 10000 11.83 170 22:36 05.08.2022
749 Clouds 9 1005 81 10000 12.35 160 21:18 05.08.2022
750 Clouds 8 1004 87 10000 15.95 170 19:18 05.08.2022
751 Rain 8 1003 87 8000 16.99 170 18:41 05.08.2022
752 Rain 7 1006 93 10000 14.85 171 16:53 05.08.2022
753 Rain 7 1006 92 10000 15.43 171 15:55 05.08.2022
754 Rain 8 1002 93 4000 19.03 170 14:54 05.08.2022
755 Clouds 8 1002 93 10000 17.49 170 13:39 05.08.2022
756 Clouds 8 1002 93 10000 17.49 170 13:19 05.08.2022
757 Rain 8 1006 88 10000 17.06 170 11:58 05.08.2022
758 Clouds 10 1003 76 10000 16.46 170 10:24 05.08.2022
759 Rain 9 1006 76 10000 15.88 165 07:58 05.08.2022
760 Snow 12 1005 66 5000 13.89 160 05:25 05.08.2022
761 Clouds 9 1008 76 10000 11.18 170 23:50 04.08.2022
762 Clouds 9 1008 76 10000 11.18 170 23:50 04.08.2022
763 Clouds 8 1007 87 10000 16.99 170 21:39 04.08.2022
764 Clouds 8 1007 87 10000 16.99 170 21:21 04.08.2022
765 Rain 7 1006 93 2000 17.49 170 20:40 04.08.2022
766 Rain 7 1006 87 2000 17.49 170 19:21 04.08.2022
767 Rain 7 1004 93 4000 17.49 170 18:34 04.08.2022
768 Rain 7 1003 87 4000 18.52 170 17:28 04.08.2022
769 Rain 8 999 81 4700 21.61 160 13:35 04.08.2022
770 Rain 8 999 81 6000 13.38 160 11:46 04.08.2022
771 Snow 9 999 71 10000 10.8 170 10:48 04.08.2022
772 Rain 7 1001 87 10000 14.65 165 07:51 04.08.2022
773 Clouds 9 999 93 10000 7.05 159 04:28 04.08.2022
774 Clouds 9 1000 93 10000 5.12 135 02:20 04.08.2022
775 Rain 9 998 93 10000 0.51 250 23:43 03.08.2022
776 Clouds 9 999 87 4937 1.79 30 21:50 03.08.2022
777 Rain 9 999 87 10000 4.12 40 20:37 03.08.2022
778 Rain 10 1000 81 10000 5.66 40 19:29 03.08.2022
779 Clouds 10 1003 76 10000 4.92 30 17:58 03.08.2022
780 Clouds 9 1004 87 10000 4.63 30 16:24 03.08.2022
781 Clouds 9 1004 87 10000 4.63 30 16:24 03.08.2022
782 Clouds 8 1006 93 10000 5.14 40 14:45 03.08.2022
783 Clouds 10 1008 76 10000 5.66 200 12:30 03.08.2022
784 Clouds 9 1010 87 10000 5.14 40 08:26 03.08.2022
785 Clouds 9 1013 87 10000 4.63 30 04:47 03.08.2022
786 Clouds 10 1014 81 10000 3.6 30 03:30 03.08.2022
787 Clouds 10 1015 81 10000 2.57 190 01:35 03.08.2022
788 Clouds 11 1016 76 10000 3.6 190 23:18 02.08.2022
789 Clouds 8 1017 88 10000 2.59 178 21:55 02.08.2022
790 Clouds 12 1016 66 10000 5.14 210 21:30 02.08.2022
791 Clouds 7 1017 91 10000 3.54 168 18:59 02.08.2022
792 Clouds 12 1016 66 10000 7.2 190 16:27 02.08.2022
793 Clouds 7 1016 89 10000 5.89 184 12:55 02.08.2022
794 Clouds 8 1013 87 10000 3.6 190 09:42 02.08.2022
795 Clouds 8 1014 82 10000 2.93 104 07:56 02.08.2022
796 Clouds 9 1012 81 10000 1.79 10 07:25 02.08.2022
797 Clouds 9 1012 81 10000 5.36 190 04:55 02.08.2022
798 Clouds 9 1011 81 10000 3.6 0 01:26 02.08.2022
799 Clouds 9 1012 76 10000 8.05 190 22:57 01.08.2022
800 Clouds 10 1011 76 10000 7.15 200 20:57 01.08.2022
801 Clouds 10 1008 76 10000 7.2 200 19:41 01.08.2022
802 Clouds 10 1009 76 10000 7.15 200 18:53 01.08.2022
803 Clouds 8 1008 88 10000 2.45 180 16:54 01.08.2022
804 Rain 10 1007 93 10000 5.36 200 16:29 01.08.2022
805 Rain 9 1006 100 10000 5.66 200 15:33 01.08.2022
806 Clouds 10 1006 81 10000 2.57 190 14:43 01.08.2022
807 Clouds 10 1006 81 10000 1.54 120 12:57 01.08.2022
808 Clouds 11 1004 71 10000 1.03 230 10:47 01.08.2022
809 Clouds 8 1005 77 10000 2.54 71 08:45 01.08.2022
810 Clouds 8 1005 79 10000 2.63 98 06:50 01.08.2022
811 Clouds 9 1005 76 10000 4.92 190 04:31 01.08.2022
812 Clouds 9 1005 76 10000 4.92 190 00:58 01.08.2022
813 Clouds 10 1005 71 10000 5.14 210 22:44 31.07.2022
814 Clouds 10 1005 71 10000 5.14 210 22:18 31.07.2022
815 Clouds 10 1005 71 10000 4.63 200 20:21 31.07.2022
816 Clouds 9 1006 76 10000 3.6 200 18:39 31.07.2022
817 Fog 9 1006 76 10000 4.12 210 16:26 31.07.2022
818 Clouds 8 1007 81 10000 4.63 200 14:33 31.07.2022
819 Clouds 7 1008 87 10000 4.02 200 12:55 31.07.2022
820 Clouds 6 1007 93 10000 5.66 200 11:37 31.07.2022
821 Clouds 6 1008 87 10000 4.63 190 08:46 31.07.2022
822 Clouds 8 1008 76 10000 6.17 200 05:20 31.07.2022
823 Clouds 9 1009 76 10000 4.92 200 01:20 31.07.2022
824 Clouds 10 1009 71 10000 7.72 210 22:46 30.07.2022
825 Clouds 7 1011 88 10000 5.08 172 21:50 30.07.2022
826 Clouds 12 1009 66 10000 7.2 200 21:32 30.07.2022
827 Clouds 12 1009 66 10000 7.72 200 20:33 30.07.2022
828 Clouds 8 1011 88 10000 5.75 171 19:50 30.07.2022
829 Clouds 10 1011 76 10000 3.58 210 17:53 30.07.2022
830 Clouds 11 1010 71 10000 7.15 210 16:38 30.07.2022
831 Clouds 10 1010 76 10000 7.2 210 15:30 30.07.2022
832 Clouds 8 1010 81 10000 5.14 200 13:23 30.07.2022
833 Clouds 8 1010 87 10000 3.09 190 12:22 30.07.2022
834 Clouds 7 1011 87 10000 3.19 161 11:51 30.07.2022
835 Clouds 8 1010 81 10000 3.47 164 10:19 30.07.2022
836 Clouds 7 1011 88 10000 3.81 165 08:55 30.07.2022
837 Rain 9 1010 76 2200 3.98 161 07:33 30.07.2022
838 Clouds 12 1009 66 5000 7.59 175 02:33 30.07.2022
839 Clouds 12 1008 62 10000 11.83 180 00:30 30.07.2022
840 Clouds 11 1007 71 10000 13.89 180 21:38 29.07.2022
841 Clouds 9 1009 81 10000 12.07 190 20:51 29.07.2022
842 Clouds 8 1007 87 10000 10.8 200 19:47 29.07.2022
843 Clouds 9 1007 81 10000 3.6 220 17:34 29.07.2022
844 Clouds 8 1008 87 10000 6.71 210 14:51 29.07.2022
845 Clouds 7 1008 87 10000 8.94 200 12:55 29.07.2022
846 Snow 7 1005 87 10000 1.54 360 09:34 29.07.2022
847 Snow 8 1005 76 10000 1.54 0 08:41 29.07.2022
848 Snow 7 1005 87 10000 1.54 210 07:30 29.07.2022
849 Clouds 7 1006 81 10000 1.54 240 01:46 29.07.2022
850 Clouds 7 1007 79 10000 3.78 295 21:54 28.07.2022
851 Clouds 7 1007 79 10000 5.06 292 20:54 28.07.2022
852 Clouds 9 1006 76 10000 3.09 230 20:22 28.07.2022
853 Clouds 13 1006 58 10000 1.03 0 19:41 28.07.2022
854 Clouds 11 1006 66 10000 2.06 330 18:26 28.07.2022
855 Clouds 10 1006 66 10000 3.09 30 17:42 28.07.2022
856 Fog 8 1006 93 10000 3.6 10 16:41 28.07.2022
857 Clouds 6 1007 82 10000 3.07 318 14:58 28.07.2022
858 Fog 3 1007 100 400 4.63 30 12:49 28.07.2022
859 Snow 3 1007 100 250 4.12 20 09:45 28.07.2022
860 Snow 3 1007 100 350 3.09 20 06:24 28.07.2022
861 Clouds 3 1007 100 400 6.17 20 05:26 28.07.2022
862 Clouds 6 1008 93 10000 4.12 360 00:45 28.07.2022
863 Clouds 8 1008 81 10000 4.12 350 22:31 27.07.2022
864 Clouds 7 1009 82 10000 8.43 323 20:56 27.07.2022
865 Clouds 10 1008 76 10000 3.09 10 19:34 27.07.2022
866 Clouds 8 1009 87 10000 4.12 50 17:23 27.07.2022
867 Clear 8 1010 76 10000 4.34 339 15:52 27.07.2022
868 Clear 5 1010 100 10000 4.02 20 14:55 27.07.2022
869 Fog 5 1010 100 500 4.12 20 14:33 27.07.2022
870 Fog 4 1010 100 200 4.63 10 12:49 27.07.2022
871 Clouds 5 1011 91 10000 4.26 342 07:53 27.07.2022
872 Clouds 5 1011 91 10000 4.58 343 07:53 27.07.2022
873 Clouds 5 1011 100 6000 5.14 30 06:19 27.07.2022
874 Clouds 6 1012 93 10000 2.06 350 00:48 27.07.2022
875 Clouds 8 1012 81 10000 3.09 340 22:26 26.07.2022
876 Clouds 8 1011 81 10000 2.06 30 21:20 26.07.2022
877 Clouds 7 1011 93 10000 0.51 0 20:25 26.07.2022
878 Clouds 7 1011 87 10000 2.06 190 18:42 26.07.2022
879 Clouds 7 1013 87 10000 1.79 200 17:58 26.07.2022
880 Clouds 5 1013 88 10000 2.79 289 15:59 26.07.2022
881 Clouds 5 1013 88 10000 2.55 278 15:18 26.07.2022
882 Clouds 5 1011 100 10000 4.12 190 13:20 26.07.2022
883 Clouds 5 1013 91 10000 1.62 256 10:59 26.07.2022
884 Clouds 5 1013 91 10000 1.92 282 08:55 26.07.2022
885 Snow 5 1011 93 750 6.69 210 05:49 26.07.2022
886 Clouds 9 1010 76 10000 2.06 320 00:37 26.07.2022
887 Clouds 6 1011 89 10000 4.66 302 22:53 25.07.2022
888 Clouds 11 1009 71 10000 3.09 280 22:25 25.07.2022
889 Clouds 11 1009 71 10000 3.09 240 21:41 25.07.2022
890 Clouds 11 1009 66 10000 3.09 210 20:41 25.07.2022
891 Clouds 11 1009 66 10000 3.09 230 19:33 25.07.2022
892 Clouds 11 1008 71 10000 3.6 200 18:18 25.07.2022
893 Clouds 10 1009 76 10000 1.54 0 17:27 25.07.2022
894 Clouds 5 1009 100 10000 0.89 350 14:59 25.07.2022
895 Fog 4 1009 93 1000 1.03 240 12:22 25.07.2022
896 Clouds 5 1010 95 10000 2.32 242 09:58 25.07.2022
897 Mist 6 1009 93 2300 4.12 220 04:38 25.07.2022
898 Clouds 7 1009 85 10000 4.35 321 23:54 24.07.2022
899 Clouds 12 1008 66 10000 4.12 30 23:18 24.07.2022
900 Clouds 13 1008 67 10000 3.6 20 22:34 24.07.2022
901 Clouds 13 1007 67 10000 2.57 340 21:25 24.07.2022
902 Clouds 9 1009 79 10000 6.31 320 20:51 24.07.2022
903 Clouds 14 1008 62 10000 3.09 350 20:26 24.07.2022
904 Clouds 9 1009 77 10000 6.82 320 18:56 24.07.2022
905 Clouds 12 1009 71 10000 3.6 20 16:48 24.07.2022
906 Clouds 12 1009 66 10000 4.02 30 15:51 24.07.2022
907 Clouds 10 1010 81 10000 3.6 30 14:38 24.07.2022
908 Clouds 7 1011 93 10000 4.92 10 12:55 24.07.2022
909 Clouds 7 1011 93 10000 5.14 10 12:18 24.07.2022
910 Fog 7 1011 93 10000 5.66 20 11:26 24.07.2022
911 Clouds 7 1013 93 10000 4.92 20 08:56 24.07.2022
912 Clouds 7 1013 93 10000 3.58 30 07:52 24.07.2022
913 Clouds 8 1013 87 10000 3.6 10 06:27 24.07.2022
914 Clouds 9 1016 81 10000 5.36 20 01:50 24.07.2022
915 Clouds 13 1017 67 10000 3.6 320 22:25 23.07.2022
916 Clouds 16 1017 51 10000 3.6 40 20:35 23.07.2022
917 Clouds 10 1018 74 10000 4.8 307 18:51 23.07.2022
918 Clouds 14 1018 62 10000 3.6 40 17:41 23.07.2022
919 Clouds 14 1018 62 10000 3.6 40 17:23 23.07.2022
920 Clouds 11 1019 76 10000 2.57 30 15:42 23.07.2022
921 Clouds 9 1019 81 10000 2.68 360 14:59 23.07.2022
922 Clouds 9 1019 81 10000 3.09 360 14:36 23.07.2022
923 Clouds 7 1020 87 10000 1.34 360 13:50 23.07.2022
924 Fog 8 1020 87 10000 1.54 30 11:46 23.07.2022
925 Clouds 8 1020 87 10000 1.54 360 10:28 23.07.2022
926 Clouds 6 1021 93 10000 2.57 20 09:26 23.07.2022
927 Clouds 5 1022 100 10000 1.34 190 05:58 23.07.2022
928 Clear 8 1022 81 10000 0.89 230 02:54 23.07.2022
929 Clouds 8 1022 81 10000 2.24 190 23:57 22.07.2022
930 Clouds 8 1022 81 10000 5.14 190 21:18 22.07.2022
931 Clouds 10 1021 76 10000 5.36 200 19:55 22.07.2022
932 Clouds 10 1021 76 10000 4.47 190 18:36 22.07.2022
933 Clouds 11 1021 76 10000 4.63 190 17:37 22.07.2022
934 Clouds 11 1021 71 10000 5.14 200 15:30 22.07.2022
935 Clouds 12 1020 71 10000 1.03 190 12:33 22.07.2022
936 Clouds 12 1019 71 10000 2.06 70 09:45 22.07.2022
937 Clouds 12 1019 71 10000 2.06 70 09:19 22.07.2022
938 Clouds 13 1018 67 10000 3.6 60 07:23 22.07.2022
939 Clouds 12 1018 71 6000 2.06 20 04:18 22.07.2022
940 Clouds 15 1017 58 10000 7.72 190 23:27 21.07.2022
941 Clouds 14 1017 67 10000 6.69 190 21:37 21.07.2022
942 Clouds 15 1016 67 10000 9.77 180 19:35 21.07.2022
943 Clouds 15 1015 67 10000 7.72 200 18:29 21.07.2022
944 Clouds 16 1015 59 10000 7.2 180 17:20 21.07.2022
945 Clouds 13 1015 71 10000 9.77 190 15:39 21.07.2022
946 Clouds 14 1014 67 10000 9.77 170 14:46 21.07.2022
947 Clouds 14 1014 67 10000 6.17 180 13:22 21.07.2022
948 Clouds 15 1013 63 10000 12.35 160 11:42 21.07.2022
949 Clouds 14 1012 67 10000 10.8 160 09:44 21.07.2022
950 Clouds 9 1013 80 10000 5.23 159 08:53 21.07.2022
951 Clouds 9 1013 85 10000 3.4 141 07:50 21.07.2022
952 Clouds 15 1012 67 7000 11.32 160 06:25 21.07.2022
953 Clouds 10 1011 87 10000 6.17 210 02:23 21.07.2022
954 Clouds 11 1010 82 10000 11.83 180 22:24 20.07.2022
955 Clouds 9 1010 93 10000 10.29 190 21:49 20.07.2022
956 Clouds 10 1009 87 10000 7.2 200 20:46 20.07.2022
957 Clouds 10 1009 87 10000 7.72 200 19:46 20.07.2022
958 Clouds 8 1011 95 10000 4.03 170 18:53 20.07.2022
959 Clouds 11 1009 87 10000 8.23 190 18:30 20.07.2022
960 Clouds 12 1008 76 10000 3.09 40 17:24 20.07.2022
961 Clouds 12 1008 76 10000 5.66 40 15:32 20.07.2022
962 Clouds 11 1008 82 10000 1.54 0 14:35 20.07.2022
963 Clouds 10 1009 81 10000 0.89 170 12:51 20.07.2022
964 Clouds 11 1008 76 10000 0.51 0 10:29 20.07.2022
965 Clouds 7 1009 85 10000 0.66 15 05:52 20.07.2022
966 Clouds 15 1007 63 10000 2.06 240 01:40 20.07.2022
967 Clouds 16 1007 59 10000 2.57 270 00:41 20.07.2022
968 Clouds 17 1007 55 10000 4.12 260 22:35 19.07.2022
969 Clouds 10 1007 75 10000 4.12 296 21:54 19.07.2022
970 Clouds 16 1007 55 10000 3.6 30 20:49 19.07.2022
971 Clouds 16 1007 59 10000 2.57 30 19:22 19.07.2022
972 Clouds 15 1007 67 10000 3.6 30 18:41 19.07.2022
973 Clouds 10 1008 78 10000 1.17 338 17:54 19.07.2022
974 Clouds 12 1008 76 10000 3.6 30 15:49 19.07.2022
975 Clouds 10 1008 81 10000 1.03 240 13:37 19.07.2022
976 Clouds 8 1009 87 10000 1.03 300 11:33 19.07.2022
977 Clouds 8 1009 87 10000 2.24 180 09:53 19.07.2022
978 Clouds 8 1008 87 10000 1.03 0 08:48 19.07.2022
979 Clouds 8 1008 87 10000 2.68 40 07:57 19.07.2022
980 Clouds 8 1008 87 10000 3.09 40 07:18 19.07.2022
981 Snow 10 1008 76 10000 1.54 50 05:19 19.07.2022
982 Clouds 9 1008 76 10000 0.51 130 04:40 19.07.2022
983 Clouds 10 1008 62 10000 2.06 200 00:18 19.07.2022
984 Clouds 10 1008 62 10000 1.54 200 23:20 18.07.2022
985 Clouds 11 1008 58 10000 3.09 190 22:42 18.07.2022
986 Clouds 11 1008 62 10000 3.6 200 21:26 18.07.2022
987 Clouds 12 1008 58 10000 2.57 220 20:45 18.07.2022
988 Clouds 12 1008 54 10000 2.57 200 19:21 18.07.2022
989 Clouds 10 1009 76 10000 1.54 320 16:45 18.07.2022
990 Clouds 10 1009 76 10000 1.03 300 15:40 18.07.2022
991 Clouds 9 1009 87 10000 0.51 320 13:40 18.07.2022
992 Clouds 8 1009 93 10000 0.51 300 12:29 18.07.2022
993 Clouds 8 1010 87 10000 1.03 330 10:24 18.07.2022
994 Clouds 7 1010 93 10000 1.03 0 08:20 18.07.2022
995 Clouds 7 1009 87 10000 3.6 220 06:48 18.07.2022
996 Rain 9 1007 81 10000 13.38 190 23:30 17.07.2022
997 Rain 8 1007 87 10000 11.62 170 22:32 17.07.2022
998 Rain 10 1007 76 10000 11.83 170 21:43 17.07.2022
999 Rain 8 1009 84 10000 10 171 20:53 17.07.2022
1000 Clouds 10 1007 71 10000 12.86 150 20:35 17.07.2022
1001 Rain 9 1006 76 10000 14.92 160 19:26 17.07.2022
1002 Rain 9 1006 76 10000 11.83 170 18:26 17.07.2022
1003 Rain 7 1007 87 10000 9.77 180 17:37 17.07.2022
1004 Rain 7 1009 89 10000 8.39 164 16:50 17.07.2022
1005 Rain 7 1007 87 10000 9.26 180 16:25 17.07.2022
1006 Rain 7 1007 87 10000 6.17 180 14:32 17.07.2022
1007 Rain 8 1007 87 10000 4.12 170 13:30 17.07.2022
1008 Rain 9 1007 71 10000 9.77 160 11:32 17.07.2022
1009 Clouds 7 1008 81 10000 4.02 180 08:50 17.07.2022
1010 Clouds 7 1008 76 10000 6.17 190 03:43 17.07.2022
1011 Clouds 7 1008 76 10000 7.2 200 02:21 17.07.2022
1012 Clouds 7 1008 76 10000 10.29 200 23:20 16.07.2022
1013 Clouds 6 1008 81 10000 9.77 180 21:25 16.07.2022
1014 Clouds 5 1008 81 10000 10.29 190 19:26 16.07.2022
1015 Clouds 5 1007 87 10000 9.77 200 18:27 16.07.2022
1016 Clouds 4 1008 100 10000 7.2 200 16:31 16.07.2022
1017 Drizzle 3 1007 100 500 7.2 200 13:49 16.07.2022
1018 Clouds 4 1008 87 10000 3.93 177 10:53 16.07.2022
1019 Fog 3 1006 100 900 5.14 200 09:33 16.07.2022
1020 Clouds 3 1006 100 750 6.17 210 08:43 16.07.2022
1021 Clouds 3 1006 100 750 6.17 210 08:19 16.07.2022
1022 Clouds 4 1006 86 10000 4.08 183 03:58 16.07.2022
1023 Mist 4 1004 100 1600 6.17 210 02:49 16.07.2022
1024 Fog 4 1003 93 5000 5.66 200 23:30 15.07.2022
1025 Fog 5 1003 93 1400 7.2 210 22:40 15.07.2022
1026 Clouds 5 1002 93 10000 6.71 220 21:29 15.07.2022
1027 Fog 6 1002 87 10000 7.2 210 20:26 15.07.2022
1028 Clouds 6 1001 87 10000 7.2 210 18:42 15.07.2022
1029 Clouds 6 1001 87 10000 7.2 210 17:38 15.07.2022
1030 Clear 4 1001 100 10000 4.92 220 14:54 15.07.2022
1031 Clear 4 1001 100 10000 7.15 200 12:58 15.07.2022
1032 Fog 4 1000 100 300 9.26 200 11:27 15.07.2022
1033 Fog 4 1000 100 200 7.72 210 10:23 15.07.2022
1034 Mist 7 999 81 3100 9.26 200 06:30 15.07.2022
1035 Clouds 8 999 72 10000 2.84 275 00:58 15.07.2022
1036 Clouds 9 999 66 10000 3.35 300 00:21 15.07.2022
1037 Clouds 10 998 63 10000 3.1 310 22:52 14.07.2022
1038 Clouds 10 998 60 10000 3.08 322 21:51 14.07.2022
1039 Clouds 16 997 36 10000 2.57 260 21:29 14.07.2022
1040 Clouds 16 997 33 10000 2.57 200 20:45 14.07.2022
1041 Clouds 16 997 33 10000 2.57 200 20:21 14.07.2022
1042 Clouds 15 997 36 10000 2.06 210 19:19 14.07.2022
1043 Clouds 12 999 58 10000 5.14 200 16:23 14.07.2022
1044 Clouds 11 999 62 10000 3.09 190 15:34 14.07.2022
1045 Clouds 11 999 54 10000 4.12 60 14:31 14.07.2022
1046 Clouds 9 1000 70 10000 5.81 50 12:58 14.07.2022
1047 Clouds 9 1001 70 10000 7.15 50 11:56 14.07.2022
1048 Clouds 9 1001 71 10000 7.2 50 11:24 14.07.2022
1049 Clouds 9 1001 76 10000 5.14 40 10:37 14.07.2022
1050 Clouds 9 1003 76 10000 6.71 60 07:55 14.07.2022
1051 Clear 12 1008 66 10000 3.6 20 01:27 14.07.2022
1052 Clear 8 1007 73 10000 6.73 344 00:54 14.07.2022
1053 Clouds 13 1009 62 10000 3.09 40 23:35 13.07.2022
1054 Clouds 12 1010 71 10000 2.57 360 22:23 13.07.2022
1055 Clouds 13 1010 62 10000 4.12 40 21:21 13.07.2022
1056 Clouds 12 1011 71 10000 4.12 40 20:23 13.07.2022
1057 Clouds 9 1013 87 10000 5.36 50 17:56 13.07.2022
1058 Clouds 7 1013 100 10000 6.17 40 16:59 13.07.2022
1059 Clouds 5 1014 100 10000 4.02 20 15:51 13.07.2022
1060 Fog 5 1014 93 1200 1.03 350 13:24 13.07.2022
1061 Fog 4 1015 100 500 0.51 200 10:47 13.07.2022
1062 Drizzle 4 1015 100 500 0.51 200 10:28 13.07.2022
1063 Snow 4 1015 100 350 1.54 170 09:28 13.07.2022
1064 Rain 5 1016 96 10000 3.57 166 07:53 13.07.2022
1065 Fog 4 1015 100 450 5.14 210 04:36 13.07.2022
1066 Rain 6 1013 93 10000 7.2 190 00:25 13.07.2022
1067 Rain 5 1013 100 1500 6.69 200 22:28 12.07.2022
1068 Rain 5 1013 100 10000 6.69 200 21:45 12.07.2022
1069 Rain 5 1012 93 10000 6.17 190 20:44 12.07.2022
1070 Clouds 6 1011 87 10000 7.2 200 19:48 12.07.2022
1071 Clouds 6 1011 81 10000 7.2 200 18:35 12.07.2022
1072 Clouds 5 1011 87 10000 4.63 210 16:24 12.07.2022
1073 Fog 3 1011 100 10000 3.6 190 14:32 12.07.2022
1074 Fog 3 1010 100 10000 2.57 190 13:35 12.07.2022
1075 Fog 2 1010 100 300 1.03 230 11:54 12.07.2022
1076 Snow 2 1009 100 200 3.6 210 10:26 12.07.2022
1077 Clouds 4 1010 90 10000 1.61 194 08:57 12.07.2022
1078 Snow 2 1008 93 150 4.12 200 07:48 12.07.2022
1079 Clouds 2 1008 100 200 1.54 240 05:45 12.07.2022
1080 Clouds 3 1007 93 10000 1.03 320 04:57 12.07.2022
1081 Clouds 5 1008 86 10000 2.24 300 00:54 12.07.2022
1082 Clouds 6 1006 87 10000 3.6 270 22:43 11.07.2022
1083 Clouds 6 1005 81 10000 4.63 280 21:34 11.07.2022
1084 Clouds 7 1005 81 10000 4.12 270 20:32 11.07.2022
1085 Clouds 8 1004 76 10000 3.09 280 19:18 11.07.2022
1086 Clouds 7 1004 87 10000 2.06 320 18:29 11.07.2022
1087 Fog 5 1004 93 10000 1.54 270 16:31 11.07.2022
1088 Fog 4 1004 100 2000 1.03 310 15:28 11.07.2022
1089 Fog 3 1004 100 400 1.03 310 13:19 11.07.2022
1090 Fog 2 1004 100 1000 1.54 350 11:24 11.07.2022
1091 Fog 2 1004 100 1000 1.54 350 11:24 11.07.2022
1092 Clouds 4 1005 91 10000 3.53 334 09:58 11.07.2022
1093 Clouds 3 1004 100 450 2.06 360 09:35 11.07.2022
1094 Clouds 2 1004 100 1000 2.57 360 08:32 11.07.2022
1095 Clear 4 1008 91 10000 5.97 325 01:54 11.07.2022
1096 Clouds 7 1007 76 10000 3.6 330 23:55 10.07.2022
1097 Clouds 7 1007 76 10000 4.12 320 22:48 10.07.2022
1098 Clear 6 1009 81 10000 6.82 320 20:56 10.07.2022
1099 Clouds 8 1008 71 10000 2.06 320 20:37 10.07.2022
1100 Clouds 7 1008 81 10000 2.06 10 19:38 10.07.2022
1101 Clouds 7 1009 81 10000 3.6 50 18:43 10.07.2022
1102 Clouds 6 1009 81 10000 3.09 40 17:35 10.07.2022
1103 Clouds 5 1010 87 10000 3.6 30 16:24 10.07.2022
1104 Clouds 4 1010 93 10000 3.6 20 15:20 10.07.2022
1105 Clouds 3 1010 93 10000 3.09 30 13:40 10.07.2022
1106 Clouds 3 1010 93 10000 2.06 30 12:26 10.07.2022
1107 Clouds 4 1012 85 10000 3.1 347 09:57 10.07.2022
1108 Clouds 3 1011 93 10000 1.54 320 08:44 10.07.2022
1109 Clouds 2 1011 100 550 1.54 310 07:29 10.07.2022
1110 Clouds 3 1011 93 10000 2.06 240 01:23 10.07.2022
1111 Clouds 5 1011 86 10000 4.12 230 22:43 09.07.2022
1112 Clouds 5 1011 86 10000 4.12 230 22:19 09.07.2022
1113 Clouds 5 1010 93 10000 4.12 230 20:45 09.07.2022
1114 Clouds 5 1009 93 10000 3.6 220 18:35 09.07.2022
1115 Fog 5 1009 100 10000 5.14 190 17:45 09.07.2022
1116 Fog 5 1008 93 4000 4.12 200 16:44 09.07.2022
1117 Fog 5 1008 93 700 3.09 200 15:40 09.07.2022
1118 Fog 4 1008 100 1200 2.68 190 14:28 09.07.2022
1119 Fog 3 1008 100 500 3.09 190 13:50 09.07.2022
1120 Fog 3 1007 100 400 4.12 180 12:45 09.07.2022
1121 Fog 3 1007 100 150 4.12 200 11:22 09.07.2022
1122 Clouds 3 1007 100 200 5.14 200 10:22 09.07.2022
1123 Fog 3 1006 100 300 4.12 210 07:45 09.07.2022
1124 Clouds 5 1008 93 10000 1.34 280 04:59 09.07.2022
1125 Clouds 6 1007 93 10000 2.57 10 02:34 09.07.2022
1126 Clouds 6 1009 87 10000 7.54 326 22:54 08.07.2022
1127 Clouds 6 1009 85 10000 8.47 323 21:59 08.07.2022
1128 Clouds 12 1008 66 10000 3.6 10 20:42 08.07.2022
1129 Clouds 12 1008 66 10000 3.6 10 20:23 08.07.2022
1130 Clouds 12 1009 71 10000 2.57 10 18:26 08.07.2022
1131 Clouds 11 1010 76 10000 2.57 30 17:21 08.07.2022
1132 Clear 5 1011 100 10000 4.92 10 14:54 08.07.2022
1133 Fog 6 1012 100 1000 6.71 20 13:45 08.07.2022
1134 Clear 5 1012 93 10000 5.81 10 11:59 08.07.2022
1135 Clouds 5 1013 100 4800 6.71 20 10:37 08.07.2022
1136 Clouds 6 1014 93 10000 3.58 360 08:44 08.07.2022
1137 Clouds 5 1015 93 10000 2.24 10 06:50 08.07.2022
1138 Clouds 8 1016 87 10000 1.54 280 01:49 08.07.2022
1139 Clouds 10 1016 76 10000 2.06 240 23:41 07.07.2022
1140 Clouds 10 1016 76 10000 2.57 260 22:38 07.07.2022
1141 Clouds 9 1016 81 10000 2.24 200 20:56 07.07.2022
1142 Clouds 9 1014 81 10000 1.54 0 18:37 07.07.2022
1143 Clouds 8 1014 87 10000 3.09 270 17:19 07.07.2022
1144 Clouds 8 1013 87 10000 2.57 270 15:22 07.07.2022
1145 Clouds 7 1012 93 10000 2.57 340 13:26 07.07.2022
1146 Clouds 7 1012 87 10000 2.06 320 12:39 07.07.2022
1147 Clouds 7 1012 87 10000 2.06 320 12:19 07.07.2022
1148 Clouds 6 1011 100 10000 2.06 360 11:30 07.07.2022
1149 Clouds 6 1011 100 10000 2.57 50 10:43 07.07.2022
1150 Clouds 6 1011 100 10000 2.57 50 10:25 07.07.2022
1151 Clouds 6 1010 100 10000 3.09 30 07:40 07.07.2022
1152 Clouds 8 1010 93 10000 2.06 20 04:42 07.07.2022
1153 Clouds 9 1009 87 10000 4.47 40 23:37 06.07.2022
1154 Clouds 9 1009 87 10000 4.47 40 23:19 06.07.2022
1155 Clouds 9 1009 87 10000 4.47 40 22:57 06.07.2022
1156 Clouds 9 1009 87 10000 4.63 40 22:38 06.07.2022
1157 Clouds 9 1009 87 10000 4.92 40 21:30 06.07.2022
1158 Clouds 8 1009 93 10000 3.6 40 19:39 06.07.2022
1159 Rain 7 1009 100 10000 3.6 30 18:29 06.07.2022
1160 Rain 7 1009 93 10000 1.03 320 16:27 06.07.2022
1161 Clouds 7 1010 93 10000 1.79 200 14:58 06.07.2022
1162 Rain 7 1009 93 10000 5.66 190 12:43 06.07.2022
1163 Rain 7 1008 93 10000 6.71 190 11:49 06.07.2022
1164 Snow 7 1008 93 7000 7.72 180 10:20 06.07.2022
1165 Snow 7 1007 93 8000 9.77 190 08:26 06.07.2022
1166 Rain 6 1007 100 10000 10.29 190 07:36 06.07.2022
1167 Clouds 6 1006 93 10000 11.32 200 05:31 06.07.2022
1168 Clouds 14 1005 72 10000 2.06 330 22:49 05.07.2022
1169 Clouds 8 1006 85 10000 4.35 314 21:59 05.07.2022
1170 Clouds 13 1005 76 10000 3.09 270 20:41 05.07.2022
1171 Clouds 14 1005 72 10000 2.06 20 19:43 05.07.2022
1172 Clouds 14 1005 72 10000 2.06 20 19:25 05.07.2022
1173 Clouds 11 1006 87 10000 1.54 0 17:48 05.07.2022
1174 Clouds 9 1007 93 10000 1.34 360 16:56 05.07.2022
1175 Fog 8 1007 93 3000 1.03 320 15:38 05.07.2022
1176 Fog 7 1007 93 10000 2.06 200 14:31 05.07.2022
1177 Clouds 7 1006 93 10000 3.6 200 12:48 05.07.2022
1178 Clouds 6 1007 96 10000 2.83 143 11:52 05.07.2022
1179 Rain 7 1006 93 10000 7.2 210 10:42 05.07.2022
1180 Clouds 8 1006 87 10000 10.29 160 09:24 05.07.2022
1181 Clouds 9 1005 81 10000 11.83 160 08:18 05.07.2022
1182 Rain 8 1004 93 10000 5.66 190 05:45 05.07.2022
1183 Clouds 8 1004 93 10000 7.2 190 04:25 05.07.2022
1184 Drizzle 7 1002 100 5000 6.69 180 00:37 05.07.2022
1185 Drizzle 7 1002 93 600 7.72 190 23:34 04.07.2022
1186 Rain 6 1003 97 10000 1.86 157 22:50 04.07.2022
1187 Drizzle 8 1001 93 4000 10.28 190 21:48 04.07.2022
1188 Clouds 8 1002 93 6396 10.28 190 20:53 04.07.2022
1189 Rain 8 1001 93 10000 10.29 190 20:34 04.07.2022
1190 Rain 6 1002 94 6675 5.76 174 19:55 04.07.2022
1191 Clouds 12 999 76 10000 5.14 50 19:36 04.07.2022
1192 Rain 11 999 87 10000 6.17 40 18:18 04.07.2022
1193 Rain 6 1001 91 10000 0.3 103 15:58 04.07.2022
1194 Clouds 10 1000 81 10000 7.2 190 15:33 04.07.2022
1195 Clouds 12 1001 66 10000 3.6 210 13:29 04.07.2022
1196 Clouds 11 1000 71 10000 1.03 20 12:33 04.07.2022
1197 Clouds 10 1001 71 10000 3.6 0 10:34 04.07.2022
1198 Clouds 9 1001 76 10000 0.89 100 09:53 04.07.2022
1199 Clouds 9 1002 76 10000 1.54 0 08:24 04.07.2022
1200 Clouds 10 1004 66 10000 1.54 10 05:18 04.07.2022
1201 Clouds 11 1007 62 10000 9.26 200 00:42 04.07.2022
1202 Clouds 10 1007 66 10000 3.17 201 22:59 03.07.2022
1203 Clouds 10 1008 63 10000 0.36 224 20:59 03.07.2022
1204 Clouds 16 1008 41 10000 3.09 30 20:41 03.07.2022
1205 Clouds 16 1008 48 10000 4.63 50 19:41 03.07.2022
1206 Clouds 16 1008 48 10000 4.63 50 19:23 03.07.2022
1207 Clouds 14 1009 58 10000 0.51 280 17:45 03.07.2022
1208 Clouds 10 1009 66 10000 4.47 50 16:54 03.07.2022
1209 Clouds 9 1010 76 10000 6.71 60 15:24 03.07.2022
1210 Clouds 9 1010 76 10000 6.71 60 14:32 03.07.2022
1211 Clouds 9 1010 76 10000 6.17 40 13:48 03.07.2022
1212 Clouds 9 1011 76 10000 0.51 320 12:35 03.07.2022
1213 Clouds 9 1012 76 10000 0.51 330 11:29 03.07.2022
1214 Clouds 8 1012 76 10000 2.57 180 10:39 03.07.2022
1215 Clouds 8 1012 81 10000 0.45 140 09:59 03.07.2022
1216 Clouds 9 1013 76 10000 1.03 350 07:36 03.07.2022
1217 Clouds 11 1014 66 10000 1.03 220 05:18 03.07.2022
1218 Clouds 13 1015 58 10000 4.63 60 00:23 03.07.2022
1219 Clouds 12 1016 62 10000 5.66 50 22:35 02.07.2022
1220 Clouds 11 1017 62 10000 5.14 30 21:38 02.07.2022
1221 Clouds 9 1018 76 10000 5.36 50 19:53 02.07.2022
1222 Clouds 9 1017 76 10000 5.66 50 19:31 02.07.2022
1223 Clouds 7 1018 78 10000 1.07 141 17:58 02.07.2022
1224 Clouds 9 1018 76 10000 3.09 360 17:36 02.07.2022
1225 Clouds 9 1017 76 10000 1.54 0 15:32 02.07.2022
1226 Clouds 7 1017 81 10000 2.57 0 12:24 02.07.2022
1227 Clouds 6 1016 87 10000 2.57 50 11:28 02.07.2022
1228 Clouds 7 1016 81 10000 2.06 40 10:48 02.07.2022
1229 Clouds 6 1016 87 10000 2.06 360 09:49 02.07.2022
1230 Clouds 7 1016 81 10000 7.2 150 08:36 02.07.2022
1231 Clouds 7 1016 81 10000 7.2 150 08:18 02.07.2022
1232 Rain 4 1016 95 10000 6 159 02:53 02.07.2022
1233 Rain 5 1013 87 10000 9.26 170 00:27 02.07.2022
1234 Clouds 3 1015 95 10000 7.73 178 22:59 01.07.2022
1235 Drizzle 5 1013 87 10000 7.72 180 22:19 01.07.2022
1236 Drizzle 5 1012 87 10000 8.23 170 21:37 01.07.2022
1237 Clouds 3 1014 94 2916 9.14 174 20:57 01.07.2022
1238 Drizzle 5 1011 93 10000 9.26 180 19:47 01.07.2022
1239 Drizzle 5 1011 93 10000 9.26 180 19:22 01.07.2022
1240 Drizzle 5 1011 93 10000 9.26 170 16:38 01.07.2022
1241 Drizzle 6 1010 87 5000 9.26 170 14:21 01.07.2022
1242 Rain 6 1009 93 10000 6.69 190 13:22 01.07.2022
1243 Clouds 6 1011 84 10000 10.12 177 10:53 01.07.2022
1244 Snow 6 1010 93 10000 5.66 0 10:19 01.07.2022
1245 Clouds 10 1009 66 10000 10.29 160 06:20 01.07.2022
1246 Clouds 5 1012 93 10000 4.02 190 01:57 01.07.2022
1247 Clouds 8 1011 81 10000 4.63 0 23:34 30.06.2022
1248 Clouds 8 1011 76 10000 6.71 50 22:47 30.06.2022
1249 Clouds 8 1011 76 10000 6.71 50 22:27 30.06.2022
1250 Clouds 9 1012 70 10000 6.71 60 21:51 30.06.2022
1251 Rain 7 1012 93 10000 4.12 40 20:41 30.06.2022
1252 Rain 7 1012 93 10000 4.12 40 20:18 30.06.2022
1253 Rain 8 1013 87 10000 1.54 220 19:47 30.06.2022
1254 Rain 6 1013 93 10000 3.6 40 18:49 30.06.2022
1255 Clouds 6 1014 87 10000 4.12 30 17:49 30.06.2022
1256 Clouds 6 1014 87 10000 4.12 30 17:18 30.06.2022
1257 Clouds 5 1016 82 10000 2.9 146 15:56 30.06.2022
1258 Clouds 4 1017 89 10000 4.62 162 13:58 30.06.2022
1259 Fog 4 1016 100 6000 1.03 0 13:19 30.06.2022
1260 Mist 4 1015 93 3000 1.03 300 12:33 30.06.2022
1261 Drizzle 5 1015 81 3000 7.2 170 10:21 30.06.2022
1262 Mist 4 1015 87 4400 5.66 170 09:41 30.06.2022
1263 Mist 4 1014 87 4500 7.6 160 08:31 30.06.2022
1264 Clouds 4 1014 87 5000 7.72 160 07:41 30.06.2022
1265 Clouds 4 1014 80 1111 10.28 160 03:53 30.06.2022
1266 Snow 4 1007 81 2300 10.29 160 23:39 29.06.2022
1267 Rain 5 1007 75 3000 8.23 160 22:42 29.06.2022
1268 Rain 5 1007 75 3000 8.23 160 22:19 29.06.2022
1269 Rain 5 1005 87 3500 9.26 180 20:35 29.06.2022
1270 Clouds 5 1004 86 5291 10.28 180 19:57 29.06.2022
1271 Rain 5 1004 87 10000 10.29 180 19:31 29.06.2022
1272 Rain 6 1003 81 10000 10.8 180 17:39 29.06.2022
1273 Rain 6 1002 81 10000 10.8 180 16:24 29.06.2022
1274 Rain 5 1003 90 10000 13.73 155 13:58 29.06.2022
1275 Rain 7 1001 81 7000 11.83 160 12:38 29.06.2022
1276 Clouds 7 999 81 10000 11.83 170 10:19 29.06.2022
1277 Mist 7 999 87 4400 11.32 170 09:31 29.06.2022
1278 Rain 6 1000 86 10000 17.72 168 06:57 29.06.2022
1279 Snow 9 998 81 3800 11.83 160 04:46 29.06.2022
1280 Rain 4 999 98 484 2.62 163 00:54 29.06.2022
1281 Rain 8 998 93 3000 3.6 160 00:35 29.06.2022
1282 Clouds 8 998 87 7629 8.49 60 22:53 28.06.2022
1283 Rain 8 996 87 7000 8.75 60 22:21 28.06.2022
1284 Clouds 7 998 87 10000 8.49 70 21:50 28.06.2022
1285 Rain 7 997 87 7000 8.75 70 21:30 28.06.2022
1286 Rain 8 998 81 10000 6.17 50 20:18 28.06.2022
1287 Rain 10 999 71 10000 4.63 50 19:32 28.06.2022
1288 Rain 10 1000 71 10000 1.03 350 18:42 28.06.2022
1289 Clouds 10 1001 66 10000 1.54 200 17:37 28.06.2022
1290 Clouds 6 1003 70 10000 1.28 140 15:56 28.06.2022
1291 Clouds 7 1004 68 10000 3.2 152 14:59 28.06.2022
1292 Clouds 12 1003 50 10000 1.03 0 14:19 28.06.2022
1293 Clouds 12 1003 47 10000 1.03 0 13:47 28.06.2022
1294 Clouds 11 1004 50 10000 3.6 0 12:48 28.06.2022
1295 Clouds 9 1004 66 10000 10.8 70 10:46 28.06.2022
1296 Clouds 8 1006 71 10000 10.8 70 09:25 28.06.2022
1297 Clouds 8 1007 71 10000 8.23 70 08:43 28.06.2022
1298 Clouds 9 1007 66 10000 8.75 80 07:20 28.06.2022
1299 Clouds 5 1009 81 10000 0.89 140 04:59 28.06.2022
1300 Clouds 5 1012 86 10000 6.41 144 23:59 27.06.2022
1301 Rain 7 1009 76 10000 12.86 170 23:36 27.06.2022
1302 Rain 5 1012 88 10000 7.43 145 22:50 27.06.2022
1303 Rain 7 1009 81 6000 13.89 160 21:33 27.06.2022
1304 Rain 7 1009 81 6000 12.35 160 20:44 27.06.2022
1305 Rain 5 1011 92 8644 9.16 147 18:58 27.06.2022
1306 Rain 7 1010 81 3000 11.83 160 18:19 27.06.2022
1307 Rain 7 1010 76 6000 4.63 0 16:19 27.06.2022
1308 Rain 7 1011 81 6000 2.06 140 14:44 27.06.2022
1309 Rain 7 1011 81 6000 8.75 170 13:35 27.06.2022
1310 Rain 5 1012 89 10000 10.08 158 12:52 27.06.2022
1311 Rain 6 1010 75 10000 13.38 160 10:23 27.06.2022
1312 Snow 6 1010 81 10000 14.92 160 08:48 27.06.2022
1313 Snow 6 1010 81 10000 14.92 160 08:19 27.06.2022
1314 Snow 6 1009 81 3800 13.38 160 06:38 27.06.2022
1315 Snow 6 1008 81 10000 9.26 170 02:28 27.06.2022
1316 Rain 4 1009 93 10000 12.95 166 23:55 26.06.2022
1317 Clouds 4 1008 91 10000 11.89 165 21:59 26.06.2022
1318 Clouds 8 1005 76 10000 11.83 180 20:44 26.06.2022
1319 Rain 8 1004 71 10000 11.32 170 19:32 26.06.2022
1320 Rain 7 1004 81 10000 11.32 160 18:30 26.06.2022
1321 Rain 7 1004 76 10000 12.35 160 16:45 26.06.2022
1322 Rain 8 1003 71 10000 15.2 160 14:42 26.06.2022
1323 Rain 7 1002 93 10000 15.43 160 13:38 26.06.2022
1324 Rain 7 1002 93 10000 15.43 160 13:18 26.06.2022
1325 Rain 7 1002 81 10000 11.83 160 11:26 26.06.2022
1326 Snow 7 1002 81 6000 10.8 160 10:26 26.06.2022
1327 Snow 7 1002 81 6000 11.83 160 09:22 26.06.2022
1328 Snow 6 1002 93 10000 6.17 190 07:44 26.06.2022
1329 Clouds 7 1005 93 8958 2.68 190 01:55 26.06.2022
1330 Rain 7 1004 87 10000 3.09 190 00:21 26.06.2022
1331 Clouds 9 1004 71 10000 3.6 250 23:49 25.06.2022
1332 Clouds 9 1004 71 10000 3.6 250 23:20 25.06.2022
1333 Clouds 12 1004 62 10000 4.12 30 22:27 25.06.2022
1334 Clouds 13 1005 58 10000 4.12 30 21:41 25.06.2022
1335 Clouds 13 1005 58 10000 4.12 30 21:18 25.06.2022
1336 Clouds 11 1006 66 10000 2.06 350 20:27 25.06.2022
1337 Clouds 9 1007 76 10000 2.06 350 19:21 25.06.2022
1338 Clouds 7 1009 81 10000 3.58 200 17:57 25.06.2022
1339 Clouds 7 1009 81 10000 3.6 200 17:22 25.06.2022
1340 Clouds 8 1010 76 10000 5.14 200 15:36 25.06.2022
1341 Clouds 8 1010 76 10000 1.54 170 13:41 25.06.2022
1342 Clouds 8 1011 66 10000 2.57 40 12:38 25.06.2022
1343 Clouds 8 1012 66 10000 2.06 360 10:35 25.06.2022
1344 Clouds 7 1013 70 10000 1.54 20 09:20 25.06.2022
1345 Clouds 7 1013 65 10000 1.54 320 08:37 25.06.2022
1346 Clouds 7 1013 65 10000 1.54 320 08:18 25.06.2022
1347 Clouds 7 1014 61 10000 4.63 200 04:18 25.06.2022
1348 Clouds 12 1014 50 10000 1.54 220 00:38 25.06.2022
1349 Clouds 6 1016 79 10000 3.43 170 22:55 24.06.2022
1350 Clouds 10 1014 53 10000 4.12 50 21:42 24.06.2022
1351 Clouds 9 1015 66 10000 3.62 185 20:57 24.06.2022
1352 Clouds 9 1015 66 10000 1.03 0 20:19 24.06.2022
1353 Clouds 9 1015 66 10000 3.6 190 19:22 24.06.2022
1354 Clouds 7 1015 70 10000 5.66 60 18:49 24.06.2022
1355 Clouds 7 1015 70 10000 5.66 60 18:30 24.06.2022
1356 Clouds 6 1015 81 10000 1.54 340 17:21 24.06.2022
1357 Clouds 5 1015 87 10000 3.09 360 15:47 24.06.2022
1358 Clouds 4 1015 93 10000 2.06 30 14:28 24.06.2022
1359 Clouds 5 1017 80 10000 0.89 210 13:55 24.06.2022
1360 Clouds 5 1015 81 10000 1.03 0 11:45 24.06.2022
1361 Clouds 5 1015 81 10000 1.03 0 11:22 24.06.2022
1362 Clouds 3 1014 93 10000 4.47 180 10:19 24.06.2022
1363 Clouds 2 1014 100 10000 4.63 180 09:40 24.06.2022
1364 Clouds 5 1015 75 10000 2.89 181 08:52 24.06.2022
1365 Clouds 2 1013 93 10000 4.12 190 06:49 24.06.2022
1366 Clouds 2 1013 93 10000 4.12 190 06:31 24.06.2022
1367 Clouds 3 1015 93 10000 1.79 190 05:57 24.06.2022
1368 Clouds 8 1012 76 10000 1.03 230 01:36 24.06.2022
1369 Clouds 5 1012 81 10000 2.68 190 22:55 23.06.2022
1370 Clouds 6 1012 81 10000 3.09 190 22:33 23.06.2022
1371 Clouds 5 1014 81 10000 2.96 282 20:57 23.06.2022
1372 Clouds 8 1012 81 10000 3.09 180 20:32 23.06.2022
1373 Fog 6 1012 100 10000 1.54 0 19:24 23.06.2022
1374 Clouds 3 1013 100 10000 2.24 20 17:50 23.06.2022
1375 Clouds 3 1013 100 10000 2.24 20 16:58 23.06.2022
1376 Fog 2 1013 93 400 1.03 320 15:49 23.06.2022
1377 Fog 2 1013 93 400 1.03 320 15:24 23.06.2022
1378 Fog 2 1013 93 300 1.03 230 13:32 23.06.2022
1379 Fog 1 1013 100 200 2.06 200 11:23 23.06.2022
1380 Fog 2 1013 100 200 1.03 320 10:31 23.06.2022
1381 Clouds 1 1013 100 200 2.57 20 08:49 23.06.2022
1382 Clouds 3 1013 93 10000 2.57 350 02:46 23.06.2022
1383 Clouds 4 1013 87 10000 3.6 320 00:26 23.06.2022
1384 Clouds 6 1013 81 10000 2.06 0 23:27 22.06.2022
1385 Clouds 6 1013 81 10000 1.54 300 22:39 22.06.2022
1386 Clouds 6 1013 81 10000 2.57 40 21:22 22.06.2022
1387 Clouds 5 1013 87 10000 2.06 10 20:34 22.06.2022
1388 Clouds 5 1013 86 10000 2.24 40 19:52 22.06.2022
1389 Clouds 5 1013 87 10000 3.09 60 18:40 22.06.2022
1390 Clouds 3 1013 93 10000 2.57 20 17:27 22.06.2022
1391 Clouds 2 1014 93 10000 2.06 20 16:24 22.06.2022
1392 Snow 2 1014 93 10000 1.54 360 15:26 22.06.2022
1393 Snow 2 1014 93 8000 1.54 30 14:19 22.06.2022
1394 Snow 1 1014 93 6000 1.54 360 13:37 22.06.2022
1395 Snow 1 1014 93 6000 2.24 20 13:18 22.06.2022
1396 Clouds 1 1015 93 10000 2.06 10 11:49 22.06.2022
1397 Clouds 2 1016 86 10000 3.28 1 10:55 22.06.2022
1398 Clouds 1 1015 93 10000 3.09 20 10:19 22.06.2022
1399 Clouds 1 1016 93 10000 3.09 360 08:27 22.06.2022
1400 Clouds 2 1017 87 10000 2.24 10 03:50 22.06.2022
1401 Clouds 3 1017 87 10000 3.6 340 01:23 22.06.2022
1402 Clouds 4 1017 81 10000 3.09 350 00:24 22.06.2022
1403 Clouds 5 1017 75 10000 2.06 340 22:18 21.06.2022
1404 Clouds 2 1018 93 1524 2.24 320 19:55 21.06.2022
1405 Clouds 2 1018 93 10000 3.6 200 18:35 21.06.2022
1406 Clouds 2 1018 93 10000 3.6 210 17:39 21.06.2022
1407 Clouds 0 1017 97 174 7.15 180 13:54 21.06.2022
1408 Clouds 0 1017 100 10000 6.71 210 11:37 21.06.2022
1409 Clouds 0 1018 99 57 7.6 210 09:54 21.06.2022
1410 Clouds 0 1017 100 10000 7.72 220 08:47 21.06.2022
1411 Snow 0 1016 100 3400 8.75 210 06:36 21.06.2022
1412 Clouds 0 1016 100 8000 9.77 190 01:31 21.06.2022
1413 Rain 1 1015 100 4000 11.32 200 23:24 20.06.2022
1414 Rain 1 1013 100 2000 14.92 200 21:54 20.06.2022
1415 Clouds 3 1012 93 1123 15.65 170 20:53 20.06.2022
1416 Drizzle 3 1011 93 3000 15.95 170 19:40 20.06.2022
1417 Drizzle 4 1011 87 4000 16.99 170 18:46 20.06.2022
1418 Drizzle 4 1011 87 4000 16.99 170 18:20 20.06.2022
1419 Drizzle 4 1011 93 4000 15.43 180 17:35 20.06.2022
1420 Clouds 5 1011 86 10000 12.52 170 15:57 20.06.2022
1421 Clouds 5 1010 86 10000 10.28 160 12:56 20.06.2022
1422 Drizzle 6 1010 87 1500 9.26 170 11:25 20.06.2022
1423 Clouds 6 1010 93 5000 5.14 180 09:47 20.06.2022
1424 Fog 5 1010 100 400 6.17 190 08:44 20.06.2022
1425 Snow 6 1009 93 1200 6.17 190 06:49 20.06.2022
1426 Fog 7 1009 100 600 2.57 190 03:20 20.06.2022
1427 Rain 7 1009 93 10000 2.06 50 00:37 20.06.2022
1428 Rain 6 1008 100 10000 1.03 260 23:24 19.06.2022
1429 Rain 7 1008 93 10000 4.63 60 22:18 19.06.2022
1430 Rain 7 1008 93 10000 2.57 60 21:41 19.06.2022
1431 Rain 7 1008 93 10000 1.03 260 20:46 19.06.2022
1432 Clouds 7 1007 93 10000 1.03 240 19:48 19.06.2022
1433 Clouds 7 1007 93 10000 1.03 240 19:24 19.06.2022
1434 Clouds 8 1007 87 10000 2.06 200 18:31 19.06.2022
1435 Clouds 8 1007 87 10000 0.51 0 17:39 19.06.2022
1436 Clouds 7 1007 93 10000 1.03 310 16:38 19.06.2022
1437 Clouds 6 1007 93 10000 2.06 10 15:44 19.06.2022
1438 Clouds 6 1007 93 10000 2.06 10 15:26 19.06.2022
1439 Clouds 6 1006 93 10000 0.51 0 14:35 19.06.2022
1440 Clouds 5 1006 93 10000 2.06 360 13:43 19.06.2022
1441 Rain 5 1007 90 10000 1.69 85 11:53 19.06.2022
1442 Rain 5 1007 89 10000 1.85 93 10:52 19.06.2022
1443 Rain 5 1006 87 10000 5.18 81 08:55 19.06.2022
1444 Rain 7 1006 81 10000 2.06 0 08:30 19.06.2022
1445 Rain 5 1007 90 10000 4.76 71 06:54 19.06.2022
1446 Snow 6 1009 87 10000 10.29 80 03:38 19.06.2022
1447 Rain 6 1010 87 10000 6.71 60 00:28 19.06.2022
1448 Clouds 5 1012 93 6810 6.71 60 23:59 18.06.2022
1449 Rain 5 1011 93 6000 6.71 60 23:34 18.06.2022
1450 Rain 5 1011 93 4000 3.6 180 22:23 18.06.2022
1451 Rain 4 1012 94 10000 6.14 174 20:51 18.06.2022
1452 Rain 6 1009 93 4000 9.26 190 20:18 18.06.2022
1453 Clouds 5 1008 93 4385 12.07 180 18:57 18.06.2022
1454 Mist 6 1008 93 2500 12.35 180 18:38 18.06.2022
1455 Rain 6 1008 93 2500 12.35 180 18:38 18.06.2022
1456 Rain 5 1007 93 3000 12.86 180 17:29 18.06.2022
1457 Rain 5 1006 93 2800 14.4 180 16:18 18.06.2022
1458 Rain 4 1007 96 1691 13.12 181 14:58 18.06.2022
1459 Rain 5 1002 93 2800 18.01 180 14:37 18.06.2022
1460 Rain 5 1000 93 3000 15.95 180 12:31 18.06.2022
1461 Rain 5 998 87 3500 16.99 170 11:25 18.06.2022
1462 Rain 5 998 93 3000 16.99 180 10:23 18.06.2022
1463 Snow 5 996 93 1800 15.95 180 09:19 18.06.2022
1464 Snow 5 995 100 1900 15.95 180 07:34 18.06.2022
1465 Snow 5 994 100 3400 16.99 180 06:24 18.06.2022
1466 Rain 4 996 94 8704 19.81 178 02:53 18.06.2022
1467 Clouds 4 994 100 4720 1.34 10 01:23 18.06.2022
1468 Drizzle 4 994 100 3000 1.54 10 00:39 18.06.2022
1469 Rain 4 994 93 5000 6.71 40 23:43 17.06.2022
1470 Clouds 2 996 93 6537 8.49 20 22:49 17.06.2022
1471 Rain 2 997 93 4100 5.66 30 20:33 17.06.2022
1472 Rain 3 997 100 6000 1.03 0 19:25 17.06.2022
1473 Mist 3 997 93 2400 5.66 210 18:24 17.06.2022
1474 Mist 3 997 93 1800 7.2 210 17:34 17.06.2022
1475 Rain 3 997 93 3000 9.77 190 16:38 17.06.2022
1476 Rain 5 996 87 6000 11.32 180 15:42 17.06.2022
1477 Rain 5 996 87 6000 12.86 170 14:46 17.06.2022
1478 Rain 5 996 87 6000 12.86 170 14:19 17.06.2022
1479 Rain 5 996 87 10000 19.22 160 13:42 17.06.2022
1480 Clouds 5 995 81 10000 19.55 160 12:42 17.06.2022
1481 Rain 3 999 92 6111 16.77 169 11:56 17.06.2022
1482 Rain 5 995 81 10000 19.03 160 11:35 17.06.2022
1483 Rain 3 999 90 10000 16.83 165 09:59 17.06.2022
1484 Snow 4 996 87 5000 15.95 180 08:27 17.06.2022
1485 Rain 3 1000 95 1408 10.87 160 06:57 17.06.2022
1486 Clouds 3 998 64 214 10.28 170 04:52 17.06.2022
1487 Clouds 4 1000 38 10000 9.77 190 02:41 17.06.2022
1488 Clouds 4 1000 56 10000 8.75 200 00:33 17.06.2022
1489 Clouds 4 999 65 10000 8.75 210 22:44 16.06.2022
1490 Clouds 4 999 81 10000 7.15 210 21:36 16.06.2022
1491 Clouds 4 999 79 10000 7.15 210 21:18 16.06.2022
1492 Clouds 4 999 75 10000 7.2 210 20:36 16.06.2022
1493 Clouds 4 999 79 10000 5.81 220 19:55 16.06.2022
1494 Clouds 4 1000 75 10000 4.12 230 18:28 16.06.2022
1495 Clouds 4 1000 81 10000 4.12 190 17:43 16.06.2022
1496 Clouds 4 1000 81 10000 3.6 220 16:40 16.06.2022
1497 Clouds 4 1000 81 10000 3.6 190 15:24 16.06.2022
1498 Fog 3 1001 87 10000 2.57 220 14:46 16.06.2022
1499 Fog 2 1001 93 800 2.06 200 13:34 16.06.2022
1500 Fog 1 1000 100 800 2.06 210 12:37 16.06.2022
1501 Clouds 0 1001 77 10000 1.34 220 11:52 16.06.2022
1502 Fog 1 1001 93 3000 1.54 220 11:18 16.06.2022
1503 Fog 1 1001 93 7000 1.03 350 10:32 16.06.2022
1504 Fog 1 1001 93 10000 1.03 10 09:22 16.06.2022
1505 Clouds 1 1000 93 10000 2.57 30 08:36 16.06.2022
1506 Clouds 1 1001 93 10000 3.09 10 07:28 16.06.2022
1507 Clouds 2 1001 87 10000 3.6 20 05:31 16.06.2022
1508 Clouds 4 1002 69 10000 2.68 330 02:52 16.06.2022
1509 Clouds 5 1002 60 10000 1.34 360 01:51 16.06.2022
1510 Clouds 5 1002 60 10000 1.34 360 01:51 16.06.2022
1511 Clear 6 1002 61 10000 1.54 360 01:21 16.06.2022
1512 Clear 6 1002 61 10000 1.54 360 01:21 16.06.2022
1513 Clear 7 1002 61 10000 3.09 340 23:49 15.06.2022
1514 Clear 7 1002 61 10000 3.6 340 22:44 15.06.2022
1515 Clear 7 1002 57 10000 5.66 330 21:23 15.06.2022
1516 Clear 7 1002 56 10000 5.36 330 20:56 15.06.2022
1517 Clouds 7 1002 57 10000 5.14 340 20:35 15.06.2022
1518 Clouds 8 1002 39 10000 3.09 340 19:46 15.06.2022
1519 Clouds 8 1002 39 10000 3.6 60 18:29 15.06.2022
1520 Clouds 7 1002 42 10000 4.12 50 17:42 15.06.2022
1521 Clouds 5 1003 48 10000 4.92 50 15:51 15.06.2022
1522 Clouds 4 1003 56 10000 6.17 10 14:30 15.06.2022
1523 Clouds 3 1002 60 10000 9.39 20 13:20 15.06.2022
1524 Clouds 3 1002 56 10000 9.77 20 12:33 15.06.2022
1525 Clouds 3 1003 60 10000 10.28 20 10:53 15.06.2022
1526 Clouds 3 1003 60 10000 10.29 20 10:20 15.06.2022
1527 Clouds 4 1003 60 10000 8.05 20 08:58 15.06.2022
1528 Clouds 4 1003 60 10000 8.05 20 07:32 15.06.2022
1529 Clear 4 1003 60 10000 8.05 20 05:24 15.06.2022
1530 Clouds 5 1003 52 10000 10.29 20 02:40 15.06.2022
1531 Clouds 6 1003 42 10000 11.32 30 01:36 15.06.2022
1532 Clouds 6 1003 45 10000 10.29 40 00:18 15.06.2022
1533 Clouds 6 1004 42 10000 11.32 20 23:38 14.06.2022
1534 Clouds 6 1004 42 10000 10.8 20 22:45 14.06.2022
1535 Clouds 6 1004 42 10000 9.77 30 21:43 14.06.2022
1536 Clouds 5 1004 41 10000 10.28 30 20:58 14.06.2022
1537 Clouds 6 1004 42 10000 10.29 30 20:38 14.06.2022
1538 Clouds 6 1004 42 10000 9.77 20 19:47 14.06.2022
1539 Clouds 6 1005 39 10000 10.29 30 18:39 14.06.2022
1540 Clear 5 1005 48 10000 9.39 20 16:53 14.06.2022
1541 Clouds 5 1005 48 10000 9.77 20 16:34 14.06.2022
1542 Clouds 4 1006 52 10000 9.26 20 15:41 14.06.2022
1543 Clear 4 1007 51 10000 8.05 20 14:53 14.06.2022
1544 Clear 3 1006 64 10000 7.15 10 13:59 14.06.2022
1545 Clear 3 1007 64 10000 4.92 10 12:59 14.06.2022
1546 Clear 3 1007 64 10000 6.71 20 11:56 14.06.2022
1547 Clear 2 1007 69 10000 7.15 20 10:52 14.06.2022
1548 Clouds 2 1007 69 10000 7.2 20 10:28 14.06.2022
1549 Clouds 2 1007 69 10000 5.66 10 09:22 14.06.2022
1550 Clouds 2 1007 75 10000 5.66 20 08:37 14.06.2022
1551 Clouds 2 1007 75 10000 5.66 20 06:32 14.06.2022
1552 Clear 3 1008 86 10000 4.02 350 03:52 14.06.2022
1553 Clouds 3 1008 75 10000 2.06 350 01:37 14.06.2022
1554 Clouds 3 1008 75 10000 4.12 320 00:21 14.06.2022
1555 Clouds 3 1009 69 10000 6.71 320 22:58 13.06.2022
1556 Clouds 3 1009 70 10000 6.71 320 22:23 13.06.2022
1557 Clouds 2 1009 75 10000 7.2 330 21:39 13.06.2022
1558 Clouds 2 1009 74 10000 7.6 330 19:59 13.06.2022
1559 Clouds 3 1009 74 10000 8.05 330 18:54 13.06.2022
1560 Clouds 2 1009 77 10000 7.15 330 17:56 13.06.2022
1561 Clouds 2 1009 87 10000 7.2 330 17:25 13.06.2022
1562 Clouds 3 1009 75 10000 2.06 30 16:31 13.06.2022
1563 Clouds 0 1009 86 10000 4.02 330 14:51 13.06.2022
1564 Clouds 1 1009 86 10000 4.12 330 14:31 13.06.2022
1565 Clouds 1 1009 86 10000 6.17 330 13:33 13.06.2022
1566 Clouds 0 1009 86 10000 7.2 320 12:23 13.06.2022
1567 Snow 1 1010 81 10000 9.35 314 10:56 13.06.2022
1568 Clouds 0 1009 86 10000 7.2 320 10:26 13.06.2022
1569 Snow 0 1009 89 971 9.59 309 08:52 13.06.2022
1570 Snow 0 1009 95 750 7.97 297 06:37 13.06.2022
1571 Snow 0 1009 92 1471 7.43 296 05:35 13.06.2022
1572 Snow 0 1009 92 1471 7.43 296 05:35 13.06.2022
1573 Clouds 1 1009 73 10000 6.93 307 02:27 13.06.2022
1574 Clouds 1 1009 73 10000 6.93 307 01:36 13.06.2022
1575 Clouds 0 1005 100 10000 6.17 300 23:49 12.06.2022
1576 Snow 1 1005 93 1200 6.17 290 22:44 12.06.2022
1577 Clouds 2 1004 80 10000 5.81 300 21:53 12.06.2022
1578 Clouds 2 1003 79 10000 5.36 300 20:54 12.06.2022
1579 Snow 2 1003 87 10000 5.66 300 20:18 12.06.2022
1580 Clouds 2 1003 80 10000 4.63 320 19:30 12.06.2022
1581 Clouds 2 1003 80 10000 4.63 320 19:30 12.06.2022
1582 Clouds 2 1002 80 10000 6.71 320 17:41 12.06.2022
1583 Clouds 2 1000 84 10000 5.81 330 15:57 12.06.2022
1584 Clouds 2 1000 85 10000 4.92 320 14:51 12.06.2022
1585 Clouds 2 999 87 9000 5.14 320 14:20 12.06.2022
1586 Clouds 2 998 87 9000 5.14 320 13:49 12.06.2022
1587 Clouds 2 997 93 9000 5.14 330 12:32 12.06.2022
1588 Clouds 3 997 87 8000 3.09 320 11:36 12.06.2022
1589 Clouds 3 996 93 7000 3.6 20 10:21 12.06.2022
1590 Clouds 4 997 86 10000 4.02 20 08:54 12.06.2022
1591 Clouds 4 995 87 10000 4.12 20 08:35 12.06.2022
1592 Clouds 5 996 87 10000 1.54 350 07:31 12.06.2022
1593 Clouds 6 997 75 10000 3.6 40 04:35 12.06.2022
1594 Clouds 7 998 76 10000 4.12 40 02:38 12.06.2022
1595 Clouds 8 999 71 10000 4.63 30 01:36 12.06.2022
1596 Clouds 8 1000 70 10000 4.47 30 00:58 12.06.2022
1597 Clouds 8 1000 71 10000 4.63 30 00:20 12.06.2022
1598 Clouds 9 1000 66 10000 4.63 30 23:29 11.06.2022
1599 Clouds 10 1001 62 10000 3.6 360 22:38 11.06.2022
1600 Clouds 10 1001 62 10000 3.6 360 22:38 11.06.2022
1601 Clouds 11 1002 62 10000 3.6 40 21:42 11.06.2022
1602 Clouds 11 1003 62 10000 4.12 40 20:34 11.06.2022
1603 Clouds 10 1004 71 10000 4.63 40 19:46 11.06.2022
1604 Clouds 10 1004 71 10000 4.63 40 19:19 11.06.2022
1605 Clouds 9 1004 76 10000 4.12 30 18:33 11.06.2022
1606 Clouds 8 1004 81 10000 5.36 40 17:50 11.06.2022
1607 Clouds 8 1005 81 10000 5.66 40 17:26 11.06.2022
1608 Clouds 7 1005 87 10000 5.81 40 16:52 11.06.2022
1609 Clouds 7 1006 87 10000 6.17 40 16:26 11.06.2022
1610 Clouds 7 1006 87 10000 6.17 50 15:28 11.06.2022
1611 Clouds 5 1008 81 10000 4.92 20 13:53 11.06.2022
1612 Clouds 5 1008 86 10000 4.02 20 12:51 11.06.2022
1613 Clouds 5 1009 81 10000 1.03 20 10:46 11.06.2022
1614 Clouds 5 1010 80 10000 0.95 28 09:51 11.06.2022
1615 Clouds 5 1010 81 10000 1.03 170 09:18 11.06.2022
1616 Clouds 4 1011 87 10000 1.03 200 07:40 11.06.2022
1617 Clouds 5 1011 81 10000 1.54 240 06:25 11.06.2022
1618 Clouds 6 1012 81 7000 1.03 120 04:23 11.06.2022
1619 Clouds 5 1013 81 10000 3.16 231 01:52 11.06.2022
1620 Clouds 6 1013 81 10000 0.51 0 01:32 11.06.2022
1621 Clouds 7 1013 70 10000 1.03 0 23:49 10.06.2022
1622 Clouds 7 1014 70 10000 3.09 20 22:31 10.06.2022
1623 Clouds 5 1014 75 10000 1.34 360 21:50 10.06.2022
1624 Clouds 5 1014 70 10000 4.92 200 20:41 10.06.2022
1625 Clouds 5 1014 70 10000 4.92 200 20:22 10.06.2022
1626 Clouds 6 1014 70 10000 5.14 200 19:20 10.06.2022
1627 Clouds 5 1015 73 10000 1.25 169 18:56 10.06.2022
1628 Clouds 7 1014 65 10000 4.02 210 17:58 10.06.2022
1629 Clouds 7 1014 65 10000 4.12 210 17:35 10.06.2022
1630 Clouds 8 1014 61 10000 2.21 179 16:50 10.06.2022
1631 Drizzle 6 1014 65 10000 8.75 200 15:44 10.06.2022
1632 Clouds 6 1014 75 10000 7.15 200 14:57 10.06.2022
1633 Clouds 6 1015 70 10000 2.57 0 13:36 10.06.2022
1634 Clouds 5 1015 75 10000 5.66 210 12:21 10.06.2022
1635 Clouds 5 1015 81 10000 5.14 200 11:30 10.06.2022
1636 Clouds 6 1014 61 10000 2.06 160 10:36 10.06.2022
1637 Clouds 6 1014 61 9000 3.6 190 09:37 10.06.2022
1638 Clouds 4 1016 80 10000 3.58 200 07:58 10.06.2022
1639 Clouds 5 1015 69 10000 1.34 180 06:50 10.06.2022
1640 Clouds 5 1015 70 10000 1.54 180 06:31 10.06.2022
1641 Clouds 5 1015 70 10000 4.12 200 05:34 10.06.2022
1642 Clouds 5 1015 60 10000 6.71 190 02:54 10.06.2022
1643 Clouds 6 1015 65 10000 6.17 200 01:37 10.06.2022
1644 Clouds 8 1015 71 10000 5.81 200 23:58 09.06.2022
1645 Clouds 8 1014 57 10000 7.2 210 22:47 09.06.2022
1646 Clouds 8 1014 53 10000 6.71 200 21:46 09.06.2022
1647 Clouds 8 1014 53 10000 6.71 200 21:28 09.06.2022
1648 Clouds 8 1014 57 10000 6.71 210 20:40 09.06.2022
1649 Clouds 8 1014 52 10000 6.71 210 19:51 09.06.2022
1650 Clouds 8 1014 61 10000 6.17 200 18:43 09.06.2022
1651 Clear 8 1013 52 10000 4.92 200 17:56 09.06.2022
1652 Clear 8 1013 61 10000 5.14 200 16:44 09.06.2022
1653 Clear 7 1013 53 10000 4.63 200 15:42 09.06.2022
1654 Clear 7 1013 61 10000 4.12 210 14:34 09.06.2022
1655 Clouds 6 1013 70 10000 4.12 200 13:46 09.06.2022
1656 Clouds 6 1013 70 10000 4.12 200 13:25 09.06.2022
1657 Clouds 4 1013 86 10000 2.24 200 11:53 09.06.2022
1658 Clouds 4 1013 87 7000 2.57 210 10:40 09.06.2022
1659 Mist 3 1013 93 2200 3.6 190 09:41 09.06.2022
1660 Mist 3 1013 93 2200 3.6 190 09:23 09.06.2022
1661 Clear 4 1012 81 10000 1.03 220 07:34 09.06.2022
1662 Clear 6 1012 56 10000 3.6 40 05:27 09.06.2022
1663 Clear 10 1013 43 10000 3.09 30 01:44 09.06.2022
1664 Clear 11 1014 40 10000 2.57 10 23:34 08.06.2022
1665 Clear 6 1015 63 10000 3.89 299 22:51 08.06.2022
1666 Clear 11 1014 40 10000 3.09 330 22:26 08.06.2022
1667 Clear 11 1014 40 10000 4.12 320 21:49 08.06.2022
1668 Clear 12 1014 43 10000 3.09 320 20:43 08.06.2022
1669 Clear 12 1014 47 10000 2.57 330 19:49 08.06.2022
1670 Clear 6 1015 61 10000 3.43 289 18:58 08.06.2022
1671 Clear 11 1014 50 10000 1.54 0 18:40 08.06.2022
1672 Clear 10 1014 57 10000 1.54 300 16:34 08.06.2022
1673 Clear 9 1014 61 10000 1.54 0 15:26 08.06.2022
1674 Clear 7 1014 70 10000 3.09 360 13:36 08.06.2022
1675 Clear 5 1014 80 10000 0.89 250 11:51 08.06.2022
1676 Clouds 5 1014 81 10000 1.03 250 11:24 08.06.2022
1677 Clear 5 1014 75 10000 1.03 110 09:47 08.06.2022
1678 Clear 5 1014 75 10000 1.03 110 09:20 08.06.2022
1679 Clear 5 1014 75 10000 0 0 08:18 08.06.2022
1680 Clear 4 1014 87 10000 2.06 200 05:36 08.06.2022
1681 Clouds 6 1013 75 10000 3.09 200 02:39 08.06.2022
1682 Clouds 6 1013 75 10000 4.12 190 00:21 08.06.2022
1683 Clear 7 1012 70 10000 4.47 200 23:25 07.06.2022
1684 Clouds 7 1012 70 10000 4.63 200 22:42 07.06.2022
1685 Clouds 7 1012 70 10000 4.63 200 22:20 07.06.2022
1686 Clouds 9 1012 53 10000 4.12 190 21:28 07.06.2022
1687 Clear 7 1013 58 10000 2.86 307 20:52 07.06.2022
1688 Clear 10 1011 53 10000 3.6 200 20:31 07.06.2022
1689 Clouds 10 1011 53 10000 3.6 210 19:24 07.06.2022
1690 Clouds 10 1011 53 10000 4.12 200 18:19 07.06.2022
1691 Clear 10 1010 46 10000 3.6 180 17:21 07.06.2022
1692 Clear 10 1010 46 10000 2.06 330 16:41 07.06.2022
1693 Clear 9 1010 46 10000 1.54 340 15:43 07.06.2022
1694 Clear 9 1010 46 10000 1.54 340 15:23 07.06.2022
1695 Clear 7 1009 57 10000 1.54 360 14:46 07.06.2022
1696 Clear 7 1009 52 10000 0.89 320 13:58 07.06.2022
1697 Clear 7 1009 53 10000 1.03 320 13:29 07.06.2022
1698 Clear 6 1009 61 10000 2.06 360 12:45 07.06.2022
1699 Clear 6 1009 56 10000 2.57 50 11:32 07.06.2022
1700 Clear 5 1008 60 10000 1.03 10 10:26 07.06.2022
1701 Clear 4 1008 70 10000 3.09 10 08:49 07.06.2022
1702 Clear 4 1008 70 10000 3.09 10 08:49 07.06.2022
1703 Clear 4 1008 70 10000 3.09 10 08:49 07.06.2022
1704 Clear 4 1008 70 10000 3.09 10 08:49 07.06.2022
1705 Clear 5 1008 60 10000 2.06 30 07:32 07.06.2022
1706 Clear 7 1007 42 10000 1.34 40 05:56 07.06.2022
1707 Clouds 7 1007 53 10000 4.12 40 03:22 07.06.2022
1708 Clouds 8 1005 49 10000 7.72 20 00:44 07.06.2022
1709 Clouds 10 1005 43 10000 7.2 30 23:35 06.06.2022
1710 Clouds 8 1004 53 10000 9.77 20 22:47 06.06.2022
1711 Clouds 9 1004 40 10000 10.8 20 21:49 06.06.2022
1712 Clouds 9 1004 43 10000 13.38 20 20:21 06.06.2022
1713 Clouds 9 1003 40 10000 13.89 20 19:23 06.06.2022
1714 Clouds 8 1004 46 10000 10.29 20 18:47 06.06.2022
1715 Clouds 8 1004 45 10000 8.94 20 17:55 06.06.2022
1716 Clouds 8 1004 45 10000 7.6 10 16:51 06.06.2022
1717 Clouds 8 1005 46 10000 6.17 10 15:44 06.06.2022
1718 Clear 8 1005 42 10000 8.94 30 14:57 06.06.2022
1719 Clouds 8 1005 42 10000 7.2 20 13:40 06.06.2022
1720 Clear 8 1006 45 10000 7.15 40 12:59 06.06.2022
1721 Clear 8 1006 46 10000 7.2 40 12:27 06.06.2022
1722 Clear 7 1006 49 10000 7.2 40 11:45 06.06.2022
1723 Clear 5 1007 60 10000 4.47 20 09:51 06.06.2022
1724 Clear 6 1006 56 10000 5.14 30 08:44 06.06.2022
1725 Clear 8 1006 49 10000 4.63 50 07:44 06.06.2022
1726 Clear 7 1006 57 10000 5.66 40 06:49 06.06.2022
1727 Clear 7 1007 65 10000 4.63 10 04:36 06.06.2022
1728 Clear 9 1008 51 10000 4.82 23 01:53 06.06.2022
1729 Clear 9 1008 52 10000 3.24 33 00:55 06.06.2022
1730 Clear 13 1007 35 10000 4.12 30 00:33 06.06.2022
1731 Clear 9 1008 53 10000 3.12 49 22:59 05.06.2022
1732 Clear 15 1008 29 10000 3.09 30 22:19 05.06.2022
1733 Clear 15 1008 26 10000 3.6 30 20:23 05.06.2022
1734 Clear 10 1008 48 10000 2.84 41 18:57 05.06.2022
1735 Clear 13 1008 38 10000 4.12 30 18:18 05.06.2022
1736 Clear 11 1008 40 10000 5.14 50 17:38 05.06.2022
1737 Clear 11 1008 40 10000 5.14 50 17:20 05.06.2022
1738 Clear 10 1009 46 10000 5.14 50 16:47 05.06.2022
1739 Clear 9 1009 53 10000 6.17 60 15:25 05.06.2022
1740 Clear 9 1009 57 10000 6.71 50 14:21 05.06.2022
1741 Clear 7 1010 65 10000 7.15 40 11:59 05.06.2022
1742 Clear 7 1011 65 10000 7.2 40 10:45 05.06.2022
1743 Clear 7 1011 65 10000 7.2 40 10:24 05.06.2022
1744 Clear 7 1011 65 10000 8.23 40 09:42 05.06.2022
1745 Clear 8 1011 53 10000 8.23 60 08:25 05.06.2022
1746 Clear 7 1013 57 10000 6.17 40 06:25 05.06.2022
1747 Clear 7 1013 61 10000 5.14 30 05:19 05.06.2022
1748 Clear 8 1015 59 10000 4.11 22 02:57 05.06.2022
1749 Clear 14 1016 28 10000 2.06 360 01:24 05.06.2022
1750 Clear 14 1016 28 10000 2.06 360 01:24 05.06.2022
1751 Clear 14 1017 26 10000 2.57 350 23:43 04.06.2022
1752 Clear 14 1017 26 10000 3.09 10 21:31 04.06.2022
1753 Clear 14 1018 26 10000 3.09 60 19:46 04.06.2022
1754 Clear 7 1018 49 10000 1.04 78 17:50 04.06.2022
1755 Clear 7 1019 53 10000 1.57 131 16:22 04.06.2022
1756 Clear 7 1019 53 10000 1.57 131 15:54 04.06.2022
1757 Clear 10 1019 43 10000 3.09 200 14:36 04.06.2022
1758 Clouds 11 1017 30 10000 7.2 60 11:48 04.06.2022
1759 Clear 5 1018 61 10000 4.62 59 10:57 04.06.2022
1760 Clear 11 1017 32 10000 7.2 70 10:20 04.06.2022
1761 Clear 12 1017 28 10000 11.83 70 09:41 04.06.2022
1762 Clear 12 1017 30 10000 12.35 60 08:40 04.06.2022
1763 Clear 12 1016 32 10000 11.83 60 07:27 04.06.2022
1764 Clouds 9 1018 49 10000 5.14 30 04:33 04.06.2022
1765 Clouds 9 1018 49 10000 5.14 30 04:33 04.06.2022
1766 Clouds 9 1018 49 10000 5.14 30 04:33 04.06.2022
1767 Clouds 9 1018 49 10000 5.14 30 04:33 04.06.2022
1768 Clouds 9 1018 49 10000 5.14 30 04:33 04.06.2022
1769 Clouds 13 1018 28 10000 4.12 50 00:48 04.06.2022
1770 Clouds 13 1018 24 10000 3.6 50 23:35 03.06.2022
1771 Clouds 12 1018 30 10000 5.14 50 22:30 03.06.2022
1772 Clouds 8 1018 48 10000 6.38 33 20:52 03.06.2022
1773 Clouds 12 1018 24 10000 10.29 80 20:27 03.06.2022
1774 Clouds 10 1018 29 10000 7.2 40 17:39 03.06.2022
1775 Clear 9 1018 37 10000 7.2 40 16:37 03.06.2022
1776 Clear 8 1018 39 10000 6.71 40 15:18 03.06.2022
1777 Clouds 5 1018 41 10000 8.05 60 12:56 03.06.2022
1778 Clouds 5 1018 45 10000 7.6 50 10:54 03.06.2022
1779 Clear 5 1018 60 10000 3.09 330 09:38 03.06.2022
1780 Clear 6 1018 45 10000 1.54 0 08:32 03.06.2022
1781 Clouds 6 1018 49 10000 6.17 50 07:26 03.06.2022
1782 Clouds 5 1018 60 10000 4.47 360 06:32 03.06.2022
1783 Clouds 5 1018 60 10000 4.63 360 05:19 03.06.2022
1784 Clouds 9 1018 43 10000 3.09 30 00:25 03.06.2022
1785 Clouds 9 1018 43 10000 4.63 20 22:41 02.06.2022
1786 Clouds 9 1018 43 10000 4.63 20 22:41 02.06.2022
1787 Clouds 10 1018 34 10000 3.6 30 21:38 02.06.2022
1788 Clouds 9 1018 34 10000 4.63 30 20:22 02.06.2022
1789 Clouds 9 1018 43 10000 3.6 50 19:46 02.06.2022
1790 Clouds 9 1018 43 10000 3.6 50 19:28 02.06.2022
1791 Clouds 7 1018 57 10000 4.12 30 17:32 02.06.2022
1792 Clouds 8 1018 49 10000 5.66 40 16:27 02.06.2022
1793 Clouds 7 1019 53 10000 5.14 50 14:20 02.06.2022
1794 Clouds 6 1018 56 10000 5.66 50 13:29 02.06.2022
1795 Clouds 4 1019 75 10000 5.66 30 11:36 02.06.2022
1796 Clouds 4 1019 70 10000 5.66 50 10:20 02.06.2022
1797 Clear 4 1019 70 10000 4.63 50 09:28 02.06.2022
1798 Clouds 4 1019 70 10000 5.14 40 08:27 02.06.2022
1799 Clouds 4 1020 65 10000 4.63 50 07:25 02.06.2022
1800 Clouds 5 1021 60 10000 3.58 60 04:52 02.06.2022
1801 Clouds 8 1022 46 10000 3.6 40 02:38 02.06.2022
1802 Clouds 9 1022 45 10000 3.58 60 23:50 01.06.2022
1803 Clouds 9 1022 43 10000 4.12 50 22:32 01.06.2022
1804 Clouds 9 1022 46 10000 5.14 40 21:37 01.06.2022
1805 Clear 9 1023 42 10000 5.81 30 20:59 01.06.2022
1806 Clouds 9 1023 43 10000 6.17 30 20:37 01.06.2022
1807 Clouds 8 1023 46 10000 4.63 40 19:28 01.06.2022
1808 Clear 5 1023 56 10000 4.92 20 17:46 01.06.2022
1809 Clear 6 1023 56 10000 5.14 20 16:38 01.06.2022
1810 Clear 5 1023 65 10000 5.81 20 14:59 01.06.2022
1811 Clear 4 1023 69 10000 5.36 20 13:54 01.06.2022
1812 Clear 4 1022 70 10000 6.71 30 12:28 01.06.2022
1813 Clear 4 1022 65 10000 4.92 20 10:25 01.06.2022
1814 Clear 4 1022 65 10000 5.14 20 09:24 01.06.2022
1815 Clear 4 1022 65 10000 6.17 20 07:25 01.06.2022
1816 Clear 4 1021 70 10000 5.66 30 06:40 01.06.2022
1817 Clear 7 1021 61 10000 6.17 20 01:29 01.06.2022
1818 Clear 8 1020 53 10000 8.23 10 23:41 31.05.2022
1819 Clouds 8 1020 52 10000 8.23 20 22:37 31.05.2022
1820 Clouds 9 1020 57 10000 6.17 20 21:46 31.05.2022
1821 Clouds 9 1019 49 10000 6.17 30 20:46 31.05.2022
1822 Clouds 9 1019 49 10000 6.17 30 20:23 31.05.2022
1823 Clouds 6 1020 53 10000 5.71 19 18:54 31.05.2022
1824 Clouds 9 1020 49 10000 4.47 50 17:51 31.05.2022
1825 Clouds 9 1020 49 10000 4.63 50 17:20 31.05.2022
1826 Clouds 8 1020 49 10000 3.6 30 15:42 31.05.2022
1827 Clouds 7 1020 57 10000 3.09 50 14:33 31.05.2022
1828 Clouds 5 1020 70 10000 3.6 40 12:22 31.05.2022
1829 Clouds 5 1020 70 10000 3.6 50 11:42 31.05.2022
1830 Clouds 4 1020 75 10000 3.09 50 09:49 31.05.2022
1831 Clouds 4 1021 81 10000 3.6 50 07:36 31.05.2022
1832 Clouds 5 1022 75 10000 3.6 50 05:24 31.05.2022
1833 Clouds 8 1023 66 10000 3.09 50 02:33 31.05.2022
1834 Clouds 9 1024 66 10000 3.09 50 23:29 30.05.2022
1835 Clouds 8 1025 70 10000 2.68 20 22:59 30.05.2022
1836 Clouds 8 1025 71 10000 3.09 20 22:24 30.05.2022
1837 Clouds 10 1025 57 10000 2.57 50 21:35 30.05.2022
1838 Clouds 8 1026 66 10000 3.09 50 20:31 30.05.2022
1839 Clouds 5 1027 75 10000 3.58 60 19:26 30.05.2022
1840 Clouds 4 1027 100 10000 4.12 60 17:43 30.05.2022
1841 Clouds 3 1028 100 10000 3.58 40 16:54 30.05.2022
1842 Fog 1 1028 100 600 5.14 40 15:43 30.05.2022
1843 Fog 0 1029 100 200 1.03 240 12:44 30.05.2022
1844 Fog 0 1029 93 200 4.12 190 11:26 30.05.2022
1845 Snow -1 1028 100 150 7.2 180 09:39 30.05.2022
1846 Clear 4 1027 81 10000 5.66 190 07:24 30.05.2022
1847 Clear 5 1026 70 10000 2.24 170 05:51 30.05.2022
1848 Clear 6 1024 70 10000 2.06 50 02:36 30.05.2022
1849 Clear 5 1022 75 10000 5.36 30 23:32 29.05.2022
1850 Clear 6 1022 75 10000 5.66 30 22:40 29.05.2022
1851 Clear 6 1022 75 10000 5.14 40 21:40 29.05.2022
1852 Clear 4 1021 71 10000 4.92 20 19:57 29.05.2022
1853 Clear 4 1021 75 10000 5.14 20 19:28 29.05.2022
1854 Clouds 2 1019 87 10000 5.14 20 17:48 29.05.2022
1855 Clear 0 1019 74 10000 4.47 360 15:50 29.05.2022
1856 Clouds 1 1019 93 10000 4.63 360 15:32 29.05.2022
1857 Clouds 1 1018 86 10000 5.14 10 14:44 29.05.2022
1858 Clouds 0 1018 86 10000 3.09 50 12:21 29.05.2022
1859 Clouds 0 1017 93 10000 2.57 20 10:45 29.05.2022
1860 Clouds 0 1017 83 10000 3.51 4 09:54 29.05.2022
1861 Clouds 0 1015 86 10000 2.57 340 07:42 29.05.2022
1862 Clouds 0 1013 88 10000 2.68 360 04:51 29.05.2022
1863 Clouds 0 1013 93 10000 3.09 360 04:32 29.05.2022
1864 Clouds 0 1012 85 10000 4.92 340 00:53 29.05.2022
1865 Clouds 1 1012 86 10000 6.71 340 23:47 28.05.2022
1866 Clouds 1 1012 86 10000 6.71 340 23:18 28.05.2022
1867 Clouds 1 1012 80 10000 6.17 340 21:46 28.05.2022
1868 Clouds 1 1012 80 10000 7.2 340 20:46 28.05.2022
1869 Clouds 1 1012 80 10000 8.23 340 19:19 28.05.2022
1870 Clouds 1 1011 80 10000 7.2 340 18:21 28.05.2022
1871 Clouds 1 1011 80 10000 6.17 340 17:32 28.05.2022
1872 Clouds 0 1012 86 10000 5.66 340 15:49 28.05.2022
1873 Clouds 0 1012 86 10000 5.66 340 15:19 28.05.2022
1874 Clouds 0 1012 80 10000 6.17 360 13:29 28.05.2022
1875 Clouds -1 1013 86 10000 6.17 10 12:42 28.05.2022
1876 Clouds -1 1013 93 10000 6.17 360 11:28 28.05.2022
1877 Clouds -1 1014 93 10000 6.17 350 10:38 28.05.2022
1878 Clouds -2 1015 92 10000 5.81 350 09:54 28.05.2022
1879 Clouds -1 1015 86 10000 5.66 340 08:21 28.05.2022
1880 Clouds -1 1016 93 10000 6.17 350 06:33 28.05.2022
1881 Clouds -1 1018 93 10000 6.17 340 04:46 28.05.2022
1882 Clouds 0 1019 86 10000 5.59 344 02:18 28.05.2022
1883 Clouds 0 1020 75 10000 4.47 320 23:55 27.05.2022
1884 Clouds 1 1020 80 10000 4.63 290 22:38 27.05.2022
1885 Clouds 1 1020 80 10000 3.09 220 21:28 27.05.2022
1886 Clouds 1 1019 86 10000 5.14 220 20:44 27.05.2022
1887 Clouds 1 1019 86 10000 5.14 220 20:19 27.05.2022
1888 Clouds 1 1019 75 10000 5.14 200 19:37 27.05.2022
1889 Clouds 1 1019 75 10000 5.14 200 19:19 27.05.2022
1890 Clouds 0 1019 80 10000 6.71 190 17:19 27.05.2022
1891 Clouds 0 1018 86 7477 7.15 160 15:56 27.05.2022
1892 Clouds 0 1019 84 10000 4.23 197 14:53 27.05.2022
1893 Clouds 0 1016 80 10000 7.72 190 13:40 27.05.2022
1894 Clouds -1 1016 86 10000 5.66 190 12:20 27.05.2022
1895 Clouds -1 1016 86 10000 5.66 190 11:30 27.05.2022
1896 Clouds -1 1015 86 10000 5.14 190 10:41 27.05.2022
1897 Clouds -1 1017 80 10000 2.79 181 09:59 27.05.2022
1898 Snow -1 1015 86 9000 4.63 190 09:30 27.05.2022
1899 Clouds -1 1014 86 10000 4.12 190 07:39 27.05.2022
1900 Clouds -1 1014 86 10000 4.12 190 07:39 27.05.2022
1901 Clouds -1 1014 86 10000 5.81 200 04:58 27.05.2022
1902 Clouds -1 1014 100 10000 5.14 200 01:38 27.05.2022
1903 Snow -1 1013 100 1200 4.63 220 23:23 26.05.2022
1904 Snow 0 1012 93 10000 5.66 200 22:22 26.05.2022
1905 Snow 0 1011 93 10000 6.17 200 21:27 26.05.2022
1906 Snow 0 1010 93 10000 5.14 200 19:39 26.05.2022
1907 Clouds 0 1012 84 9209 6.71 210 18:52 26.05.2022
1908 Snow -1 1009 100 2500 6.71 200 17:36 26.05.2022
1909 Snow -1 1008 100 1300 6.17 200 16:30 26.05.2022
1910 Snow 0 1008 93 1100 6.71 210 15:32 26.05.2022
1911 Snow 0 1007 93 1300 6.17 210 14:20 26.05.2022
1912 Snow 1 1005 93 2100 9.26 190 12:18 26.05.2022
1913 Clouds 3 1005 81 10000 9.77 180 11:21 26.05.2022
1914 Snow 3 1004 70 10000 6.71 190 09:39 26.05.2022
1915 Clouds 3 1003 65 10000 10.29 170 08:51 26.05.2022
1916 Clouds 2 1004 69 10000 5.81 190 06:51 26.05.2022
1917 Clear 2 1004 64 10000 1.34 70 02:54 26.05.2022
1918 Clouds 2 1005 75 10000 4.12 200 00:19 26.05.2022
1919 Clouds 2 1006 64 10000 1.34 300 22:58 25.05.2022
1920 Clouds 3 1007 56 10000 1.54 250 21:44 25.05.2022
1921 Clouds 0 1007 69 10000 1.79 50 20:53 25.05.2022
1922 Clouds 0 1008 64 10000 3.58 200 19:59 25.05.2022
1923 Clouds 0 1009 69 10000 5.14 200 18:48 25.05.2022
1924 Clouds 0 1009 64 10000 3.6 220 17:26 25.05.2022
1925 Clouds 0 1010 69 10000 1.54 360 16:35 25.05.2022
1926 Clouds 0 1010 62 10000 3.14 142 15:53 25.05.2022
1927 Clouds -1 1012 63 10000 0.89 90 14:51 25.05.2022
1928 Clouds -1 1011 64 10000 2.57 180 14:32 25.05.2022
1929 Clouds -1 1011 64 10000 1.03 90 13:28 25.05.2022
1930 Clouds -3 1013 66 10000 3.8 152 12:24 25.05.2022
1931 Clouds -4 1012 80 10000 0 0 10:42 25.05.2022
1932 Clouds -3 1013 64 10000 3.02 154 09:53 25.05.2022
1933 Clouds -4 1014 62 10000 1.95 158 08:22 25.05.2022
1934 Clouds -4 1014 64 10000 1.07 204 06:45 25.05.2022
1935 Clouds -4 1013 86 10000 3.09 290 03:19 25.05.2022
1936 Clouds -3 1011 86 7547 4.47 280 23:53 24.05.2022
1937 Snow -3 1011 86 10000 4.63 280 23:23 24.05.2022
1938 Snow -3 1011 86 2500 4.63 280 22:19 24.05.2022
1939 Clouds -3 1010 80 10000 6.17 280 21:38 24.05.2022
1940 Clouds -3 1010 80 10000 6.17 280 21:19 24.05.2022
1941 Clouds -2 1009 80 10000 6.17 280 19:37 24.05.2022
1942 Clouds -2 1008 79 7403 5.81 280 18:50 24.05.2022
1943 Snow -2 1007 93 2000 2.57 240 16:41 24.05.2022
1944 Snow -2 1007 93 2000 2.57 240 16:19 24.05.2022
1945 Snow -3 1008 90 1168 6.1 264 14:50 24.05.2022
1946 Snow -3 1005 80 10000 8.23 170 13:52 24.05.2022
1947 Snow -4 1005 86 4000 8.75 180 12:46 24.05.2022
1948 Clouds -4 1005 80 10000 6.71 190 10:46 24.05.2022
1949 Snow -4 1005 80 10000 6.69 210 09:43 24.05.2022
1950 Snow -4 1005 86 10000 6.71 220 08:49 24.05.2022
1951 Clouds -3 1006 86 10000 3.58 240 06:56 24.05.2022
1952 Clouds -2 1004 86 10000 7.6 210 03:48 24.05.2022
1953 Clouds -1 1004 86 176 7.15 210 01:51 24.05.2022
1954 Clouds -1 1004 86 10000 7.2 210 01:19 24.05.2022
1955 Clouds -1 1003 92 3776 7.6 210 22:55 23.05.2022
1956 Clouds -2 1003 100 10000 7.6 220 21:55 23.05.2022
1957 Snow -2 1003 100 1200 7.72 220 21:29 23.05.2022
1958 Snow -1 1002 93 2000 9.77 190 20:29 23.05.2022
1959 Snow -1 1002 93 5000 10.8 190 19:31 23.05.2022
1960 Clouds -1 1002 92 601 11.18 190 18:58 23.05.2022
1961 Snow -1 1002 93 1200 11.32 190 18:30 23.05.2022
1962 Snow -1 1002 93 2200 11.83 200 17:20 23.05.2022
1963 Snow -1 1001 93 1500 11.32 200 15:23 23.05.2022
1964 Snow -1 1000 100 1000 10.8 200 13:21 23.05.2022
1965 Clouds 0 999 86 10000 11.83 190 11:33 23.05.2022
1966 Snow 0 998 86 10000 12.35 190 10:31 23.05.2022
1967 Clouds 0 998 86 10000 12.86 200 09:39 23.05.2022
1968 Snow 0 997 86 6000 14.92 200 08:32 23.05.2022
1969 Snow 0 995 93 9000 14.4 190 06:46 23.05.2022
1970 Snow 0 994 100 6000 15.95 190 05:39 23.05.2022
1971 Clouds 1 993 93 5000 16.46 170 02:35 23.05.2022
1972 Clouds 0 993 100 2500 16.46 180 01:42 23.05.2022
1973 Clouds 1 993 93 10000 15.95 180 00:38 23.05.2022
1974 Clouds 2 992 80 10000 15.95 180 22:42 22.05.2022
1975 Clouds 0 992 94 1522 14.31 180 21:55 22.05.2022
1976 Snow 1 992 93 2500 14.4 180 21:36 22.05.2022
1977 Clouds 2 991 87 10000 14.32 171 20:37 22.05.2022
1978 Clouds 2 991 87 10000 15.48 171 20:18 22.05.2022
1979 Snow 1 994 94 1698 12.33 171 18:57 22.05.2022
1980 Snow 1 992 100 3100 11.83 360 18:28 22.05.2022
1981 Snow 1 994 98 48 6.5 184 17:51 22.05.2022
1982 Snow 1 994 98 37 8.86 192 16:51 22.05.2022
1983 Snow 1 994 97 46 16.11 176 14:56 22.05.2022
1984 Snow 1 993 96 57 18.78 174 13:57 22.05.2022
1985 Snow 2 993 96 68 20.66 174 12:54 22.05.2022
1986 Snow 2 993 96 85 21.66 174 11:53 22.05.2022
1987 Snow 3 992 93 1400 18.01 170 10:29 22.05.2022
1988 Snow 4 994 93 1800 13.89 170 09:27 22.05.2022
1989 Snow 4 996 93 1900 15.95 160 07:44 22.05.2022
1990 Snow 6 998 81 2500 14.92 160 06:41 22.05.2022
1991 Clouds 5 1002 71 10000 17.67 164 03:53 22.05.2022
1992 Clouds 3 1006 81 10000 8.05 200 00:49 22.05.2022
1993 Clouds 3 1006 81 10000 8.05 200 00:49 22.05.2022
1994 Clouds 3 1007 86 10000 8.05 200 23:56 21.05.2022
1995 Clouds 3 1007 87 10000 8.23 200 23:27 21.05.2022
1996 Clouds 4 1009 80 10000 5.36 200 21:59 21.05.2022
1997 Clouds 4 1009 81 10000 5.66 200 21:37 21.05.2022
1998 Fog 4 1009 81 10000 2.57 210 20:41 21.05.2022
1999 Clouds 3 1010 100 10000 1.34 320 19:53 21.05.2022
2000 Clouds 3 1011 93 10000 1.34 330 18:54 21.05.2022
2001 Clouds 2 1011 93 10000 2.06 240 17:23 21.05.2022
2002 Clouds 3 1013 70 10000 2.87 168 14:51 21.05.2022
2003 Clouds -1 1013 100 10000 1.54 190 14:19 21.05.2022
2004 Clouds -1 1013 100 10000 2.57 180 13:25 21.05.2022
2005 Mist -1 1012 100 4000 2.06 340 12:39 21.05.2022
2006 Fog -2 1013 100 500 2.57 190 11:45 21.05.2022
2007 Fog -2 1013 93 800 1.03 0 10:21 21.05.2022
2008 Clouds 2 1013 76 10000 1.6 169 08:59 21.05.2022
2009 Clouds -3 1013 100 600 1.03 200 08:39 21.05.2022
2010 Clouds 1 1013 79 10000 1.88 222 06:21 21.05.2022
2011 Clouds 2 1012 79 10000 2.02 226 01:59 21.05.2022
2012 Clouds -2 1010 100 1000 2.57 180 23:42 20.05.2022
2013 Fog -1 1010 100 700 3.6 220 22:41 20.05.2022
2014 Fog -1 1010 100 700 3.6 220 22:18 20.05.2022
2015 Mist 0 1009 93 3000 2.57 220 21:19 20.05.2022
2016 Clouds 3 1010 73 10000 2.71 274 20:51 20.05.2022
2017 Clouds 3 1010 73 10000 2.65 226 19:54 20.05.2022
2018 Clouds 0 1009 72 10000 1.34 240 18:58 20.05.2022
2019 Mist 0 1009 100 4000 1.54 240 18:24 20.05.2022
2020 Fog -1 1009 100 400 4.12 190 16:28 20.05.2022
2021 Clouds 3 1009 73 10000 1.88 169 15:54 20.05.2022
2022 Fog -1 1008 100 400 2.06 200 15:32 20.05.2022
2023 Fog -1 1008 93 300 1.03 360 14:28 20.05.2022
2024 Fog -2 1008 100 300 1.54 160 13:31 20.05.2022
2025 Snow -2 1007 100 150 4.12 190 10:48 20.05.2022
2026 Snow -2 1007 100 150 1.62 103 09:32 20.05.2022
2027 Snow -2 1006 100 150 2.34 67 08:37 20.05.2022
2028 Snow -1 1006 93 150 2.37 32 06:44 20.05.2022
2029 Clouds 0 1006 67 10000 2.24 180 05:53 20.05.2022
2030 Clouds 4 1006 80 10000 2.68 360 02:53 20.05.2022
2031 Clear 5 1006 70 10000 4.12 30 23:47 19.05.2022
2032 Clear 4 1007 75 10000 4.63 30 22:39 19.05.2022
2033 Clear 5 1007 65 10000 4.92 40 21:52 19.05.2022
2034 Clear 5 1007 65 10000 5.14 40 21:24 19.05.2022
2035 Clear 4 1007 57 10000 5.36 20 20:54 19.05.2022
2036 Clear 4 1007 75 10000 5.66 20 20:20 19.05.2022
2037 Clear 3 1007 81 10000 5.14 20 19:34 19.05.2022
2038 Clouds 5 1008 62 10000 1.95 335 17:52 19.05.2022
2039 Fog -1 1009 100 500 1.54 320 16:22 19.05.2022
2040 Clouds 3 1010 69 10000 1.52 337 14:52 19.05.2022
2041 Fog -1 1009 93 150 2.57 20 14:21 19.05.2022
2042 Fog -2 1009 100 150 1.03 260 12:23 19.05.2022
2043 Fog -2 1009 100 200 1.03 220 10:40 19.05.2022
2044 Clear 2 1010 82 10000 2.07 159 08:59 19.05.2022
2045 Snow -2 1009 100 100 3.09 190 07:48 19.05.2022
2046 Snow -1 1009 93 150 4.12 170 04:44 19.05.2022
2047 Clear 5 1008 68 10000 0.89 240 01:58 19.05.2022
2048 Clear 5 1007 63 10000 2.68 360 23:53 18.05.2022
2049 Clear 5 1007 65 10000 3.6 10 22:46 18.05.2022
2050 Clear 5 1007 65 10000 3.6 10 22:46 18.05.2022
2051 Clear 5 1008 56 10000 4.12 20 21:47 18.05.2022
2052 Clear 5 1008 56 10000 4.12 20 21:25 18.05.2022
2053 Clear 5 1007 60 10000 4.63 20 20:24 18.05.2022
2054 Clear 4 1008 65 10000 5.14 30 19:39 18.05.2022
2055 Clear 3 1008 81 10000 4.63 30 18:21 18.05.2022
2056 Clear 3 1008 81 10000 4.12 10 17:41 18.05.2022
2057 Clear 3 1008 81 10000 4.12 10 17:23 18.05.2022
2058 Clear 3 1008 81 10000 5.14 20 16:23 18.05.2022
2059 Clouds 2 1009 87 10000 6.17 20 15:39 18.05.2022
2060 Clear 2 1009 80 10000 6.17 20 14:35 18.05.2022
2061 Clouds 1 1009 93 10000 5.14 10 13:22 18.05.2022
2062 Clouds 1 1010 86 10000 5.14 20 12:40 18.05.2022
2063 Clouds 0 1010 93 10000 5.14 20 11:34 18.05.2022
2064 Clear 0 1010 75 10000 5.36 30 10:56 18.05.2022
2065 Clear 0 1010 93 10000 5.14 30 09:24 18.05.2022
2066 Clouds -1 1011 100 10000 4.63 20 07:32 18.05.2022
2067 Clouds 0 1011 86 10000 4.63 20 05:34 18.05.2022
2068 Clouds 2 1013 80 10000 4.63 30 01:20 18.05.2022
2069 Clear 2 1013 80 10000 4.63 10 00:21 18.05.2022
2070 Clouds 3 1014 69 10000 4.47 10 21:56 17.05.2022
2071 Clouds 3 1014 70 10000 4.63 10 21:20 17.05.2022
2072 Clouds 2 1014 80 10000 4.02 10 19:59 17.05.2022
2073 Clouds 2 1014 80 10000 4.12 10 19:27 17.05.2022
2074 Clouds 2 1015 80 10000 5.36 10 17:50 17.05.2022
2075 Clouds 0 1015 80 10000 5.36 20 16:58 17.05.2022
2076 Clouds 1 1015 80 10000 5.66 20 16:29 17.05.2022
2077 Clouds 0 1016 86 10000 5.14 30 15:25 17.05.2022
2078 Clouds 0 1016 93 10000 4.63 20 14:30 17.05.2022
2079 Clouds -1 1016 100 10000 4.12 10 13:32 17.05.2022
2080 Fog -2 1016 93 200 5.14 20 11:43 17.05.2022
2081 Mist -2 1016 93 1100 5.66 20 09:27 17.05.2022
2082 Clouds -2 1016 93 10000 5.14 20 08:25 17.05.2022
2083 Clouds -2 1016 100 10000 4.12 20 06:48 17.05.2022
2084 Clear -1 1016 93 10000 3.09 40 03:41 17.05.2022
2085 Clear 1 1015 80 10000 4.63 350 00:43 17.05.2022
2086 Clear 2 1015 75 10000 4.63 350 22:43 16.05.2022
2087 Clear 3 1015 60 10000 3.6 360 21:41 16.05.2022
2088 Clear 3 1014 60 10000 3.09 30 20:47 16.05.2022
2089 Clear 2 1014 60 10000 3.6 40 19:46 16.05.2022
2090 Clear 2 1014 64 10000 4.63 10 18:20 16.05.2022
2091 Clear 0 1013 69 10000 4.47 30 15:50 16.05.2022
2092 Clear 0 1013 74 10000 3.09 10 14:26 16.05.2022
2093 Clear 0 1012 74 10000 3.6 20 13:23 16.05.2022
2094 Clear -1 1012 74 10000 1.54 30 11:25 16.05.2022
2095 Clear -1 1010 64 10000 4.63 60 09:37 16.05.2022
2096 Clear -1 1011 67 10000 3.86 29 06:58 16.05.2022
2097 Clear -1 1009 58 10000 4.92 10 03:58 16.05.2022
2098 Clear -1 1009 59 10000 5.14 10 23:38 15.05.2022
2099 Clear -1 1009 59 10000 5.14 10 22:32 15.05.2022
2100 Clear -1 1009 55 10000 5.14 10 21:47 15.05.2022
2101 Clear -1 1009 58 10000 4.92 10 20:57 15.05.2022
2102 Clear -2 1009 63 10000 4.92 10 19:53 15.05.2022
2103 Clear -2 1010 58 10000 5.36 10 17:52 15.05.2022
2104 Clear -3 1010 68 10000 6.17 360 16:31 15.05.2022
2105 Clear -4 1010 73 10000 6.71 350 13:59 15.05.2022
2106 Clear -4 1010 74 10000 6.71 350 13:23 15.05.2022
2107 Clear -4 1010 80 10000 5.66 30 11:41 15.05.2022
2108 Clouds -4 1010 80 10000 5.66 10 10:35 15.05.2022
2109 Clouds -4 1010 80 10000 4.12 30 08:47 15.05.2022
2110 Clouds -5 1010 85 10000 1.79 60 06:59 15.05.2022
2111 Clouds -5 1010 85 10000 1.34 140 05:57 15.05.2022
2112 Snow -4 1011 86 2000 2.57 300 01:43 15.05.2022
2113 Clouds -3 1012 68 10000 1.79 330 23:52 14.05.2022
2114 Clouds -3 1012 68 10000 2.06 330 23:33 14.05.2022
2115 Clouds -3 1011 74 6000 2.06 340 21:43 14.05.2022
2116 Clouds -5 1011 85 10000 3.6 340 21:18 14.05.2022
2117 Clouds -3 1011 68 10000 2.57 20 19:40 14.05.2022
2118 Clouds -3 1011 68 10000 2.57 20 19:40 14.05.2022
2119 Clouds -3 1011 68 10000 2.57 20 19:40 14.05.2022
2120 Clouds -3 1011 68 10000 2.57 20 19:20 14.05.2022
2121 Clouds -3 1011 68 10000 2.06 10 18:47 14.05.2022
2122 Clouds -3 1011 74 10000 3.09 10 17:36 14.05.2022
2123 Snow -4 1011 74 10000 5.14 320 15:47 14.05.2022
2124 Snow -4 1011 80 10000 4.63 340 14:37 14.05.2022
2125 Clouds -5 1010 85 10000 4.92 340 12:51 14.05.2022
2126 Clouds -3 1010 73 10000 3.6 360 11:37 14.05.2022
2127 Clouds -4 1010 86 10000 5.14 350 10:24 14.05.2022
2128 Clouds -5 1010 79 10000 5.81 330 09:56 14.05.2022
2129 Clouds -5 1011 85 10000 7.15 340 08:59 14.05.2022
2130 Snow -4 1009 80 10000 2.57 340 07:23 14.05.2022
2131 Clouds -4 1010 80 10000 4.12 340 03:45 14.05.2022
2132 Snow -3 1010 68 10000 1.03 10 00:21 14.05.2022
2133 Snow -3 1010 68 10000 1.03 50 23:24 13.05.2022
2134 Clouds -1 1010 68 10000 0.45 330 22:54 13.05.2022
2135 Snow -1 1010 69 10000 0.51 330 22:20 13.05.2022
2136 Clouds -2 1010 74 10000 7 315 20:57 13.05.2022
2137 Snow -2 1010 74 8000 1.03 0 20:30 13.05.2022
2138 Clouds -3 1010 73 10000 3.58 320 19:51 13.05.2022
2139 Clouds -3 1010 74 10000 4.12 320 18:47 13.05.2022
2140 Snow -4 1010 80 10000 4.12 320 17:29 13.05.2022
2141 Snow -4 1010 86 10000 6.17 320 16:29 13.05.2022
2142 Snow -4 1010 80 7000 5.66 300 15:45 13.05.2022
2143 Snow -4 1010 80 10000 5.66 300 14:29 13.05.2022
2144 Snow -4 1009 80 10000 3.09 300 12:47 13.05.2022
2145 Snow -4 1009 80 10000 3.09 300 11:39 13.05.2022
2146 Clouds -3 1010 80 4408 3.84 320 09:54 13.05.2022
2147 Snow -3 1010 83 6642 3.55 319 08:51 13.05.2022
2148 Clouds -3 1009 84 4832 3.55 314 07:50 13.05.2022
2149 Clouds -4 1008 74 10000 3.6 300 06:49 13.05.2022
2150 Clouds -3 1009 77 10000 4.4 329 04:54 13.05.2022
2151 Clouds -3 1005 79 10000 2.68 310 00:57 13.05.2022
2152 Clouds -2 1004 80 10000 4.12 330 22:49 12.05.2022
2153 Clouds -2 1004 80 10000 4.12 330 22:30 12.05.2022
2154 Clouds -1 1002 80 10000 5.14 300 20:49 12.05.2022
2155 Clouds -1 1001 86 10000 4.12 310 19:26 12.05.2022
2156 Snow -1 1001 93 10000 5.14 300 18:25 12.05.2022
2157 Snow 0 999 100 2000 2.57 280 16:39 12.05.2022
2158 Clouds 0 998 100 10000 0.45 360 14:52 12.05.2022
2159 Snow 1 997 100 1000 1.54 20 13:48 12.05.2022
2160 Snow 0 995 100 2500 3.09 40 11:48 12.05.2022
2161 Snow 0 995 100 2400 2.57 30 10:32 12.05.2022
2162 Clouds 0 995 93 3169 3.64 28 08:52 12.05.2022
2163 Clouds 0 995 93 3169 3.64 28 08:52 12.05.2022
2164 Snow 0 994 95 2387 4.29 34 07:59 12.05.2022
2165 Snow 0 993 100 7000 2.57 10 07:22 12.05.2022
2166 Clouds 0 993 90 2140 6.71 60 03:50 12.05.2022
2167 Snow 2 993 87 8000 6.71 60 01:29 12.05.2022
2168 Snow 1 993 93 5000 6.17 60 23:18 11.05.2022
2169 Snow 1 994 93 10000 6.17 40 22:18 11.05.2022
2170 Snow 1 994 93 5000 7.2 40 21:25 11.05.2022
2171 Clouds 1 995 93 5000 7.2 40 20:20 11.05.2022
2172 Clouds 0 998 100 4000 2.06 60 17:33 11.05.2022
2173 Snow 1 999 86 3300 1.54 240 16:27 11.05.2022
2174 Snow 1 1000 86 10000 2.57 30 14:48 11.05.2022
2175 Snow 1 1000 86 10000 2.57 30 14:25 11.05.2022
2176 Clouds 1 1001 86 10000 1.03 0 13:25 11.05.2022
2177 Clouds 2 1002 75 10000 1.03 0 11:48 11.05.2022
2178 Clouds 0 1004 93 10000 5.66 70 09:30 11.05.2022
2179 Clouds -1 1006 100 10000 3.6 20 06:36 11.05.2022
2180 Snow 0 1007 93 6000 3.6 40 02:27 11.05.2022
2181 Clouds 0 1008 100 36 1.18 215 22:58 10.05.2022
2182 Snow 1 1008 93 1000 0 0 22:30 10.05.2022
2183 Mist 0 1008 100 2000 1.03 190 21:41 10.05.2022
2184 Clouds 0 1008 100 10000 2.57 210 20:47 10.05.2022
2185 Clouds 0 1009 99 46 7.15 190 18:58 10.05.2022
2186 Drizzle 0 1010 100 10000 7.2 190 17:38 10.05.2022
2187 Drizzle 0 1010 100 5000 7.72 190 16:38 10.05.2022
2188 Clouds 1 1011 80 10000 7.72 180 13:37 10.05.2022
2189 Snow 0 1014 99 105 3.75 179 11:54 10.05.2022
2190 Snow 0 1013 100 7000 5.66 190 11:34 10.05.2022
2191 Snow 0 1014 99 103 3.41 181 10:57 10.05.2022
2192 Snow 0 1015 99 87 3.05 185 09:52 10.05.2022
2193 Snow 0 1014 93 1800 8.23 180 08:29 10.05.2022
2194 Snow -1 1014 93 800 10.29 180 06:21 10.05.2022
2195 Snow 0 1012 80 6000 14.92 180 02:31 10.05.2022
2196 Snow 0 1012 80 6000 12.35 180 00:23 10.05.2022
2197 Clouds 1 1013 64 10000 8.75 200 22:42 09.05.2022
2198 Clouds 1 1012 60 10000 8.23 190 21:48 09.05.2022
2199 Clouds -1 1013 93 10000 8.75 200 20:22 09.05.2022
2200 Clouds -1 1012 86 10000 6.17 200 18:35 09.05.2022
2201 Clouds -1 1012 80 10000 3.09 220 17:33 09.05.2022
2202 Clouds -2 1012 86 10000 2.57 270 16:28 09.05.2022
2203 Clouds -2 1012 86 10000 2.06 310 15:48 09.05.2022
2204 Clouds -2 1012 86 10000 2.57 330 14:46 09.05.2022
2205 Clouds -2 1012 86 10000 2.24 320 13:59 09.05.2022
2206 Clouds -2 1012 86 10000 2.57 320 13:32 09.05.2022
2207 Clouds -2 1011 92 10000 2.24 360 11:54 09.05.2022
2208 Clouds -2 1011 92 10000 3.58 340 10:50 09.05.2022
2209 Clouds -2 1010 93 10000 3.6 340 10:29 09.05.2022
2210 Clouds -2 1008 93 10000 3.6 350 08:23 09.05.2022
2211 Clouds -2 1008 93 10000 3.09 350 07:43 09.05.2022
2212 Clouds -1 1006 93 9000 5.66 340 02:44 09.05.2022
2213 Clouds 1 1004 86 10000 6.17 340 23:29 08.05.2022
2214 Clouds 1 1004 86 10000 6.17 340 22:47 08.05.2022
2215 Clouds 1 1003 86 10000 6.71 340 21:47 08.05.2022
2216 Clouds 1 1003 86 10000 6.17 340 20:31 08.05.2022
2217 Clouds 2 1003 80 10000 6.71 350 19:37 08.05.2022
2218 Clouds 1 1003 80 10000 4.63 350 18:49 08.05.2022
2219 Clouds 0 1003 74 10000 4.02 40 17:52 08.05.2022
2220 Clouds 1 1003 80 10000 4.63 10 16:33 08.05.2022
2221 Clear 0 1003 74 10000 4.63 360 15:25 08.05.2022
2222 Clear 0 1003 80 10000 5.14 20 14:27 08.05.2022
2223 Clear -1 1003 80 10000 4.47 10 12:21 08.05.2022
2224 Clouds -2 1003 86 10000 5.14 10 10:27 08.05.2022
2225 Clouds -2 1003 92 10000 4.47 30 09:56 08.05.2022
2226 Clouds -2 1003 86 10000 4.47 30 08:52 08.05.2022
2227 Clear -1 1003 86 10000 4.92 30 06:51 08.05.2022
2228 Clear -1 1004 93 10000 5.14 20 03:26 08.05.2022
2229 Clear 0 1005 86 10000 4.63 30 02:23 08.05.2022
2230 Clear 1 1005 80 10000 4.63 360 00:21 08.05.2022
2231 Clear 1 1005 80 10000 4.63 360 23:47 07.05.2022
2232 Clear 2 1005 69 10000 4.12 360 22:46 07.05.2022
2233 Clear 2 1005 69 10000 4.47 30 21:57 07.05.2022
2234 Clear 2 1005 69 10000 4.63 30 21:33 07.05.2022
2235 Clear 1 1005 69 10000 5.66 20 20:28 07.05.2022
2236 Clear 1 1005 69 10000 5.66 10 19:22 07.05.2022
2237 Clear 1 1006 75 10000 6.17 10 17:34 07.05.2022
2238 Clear 0 1006 80 10000 7.2 10 15:41 07.05.2022
2239 Clouds -1 1007 86 10000 4.47 20 12:50 07.05.2022
2240 Clouds -2 1007 93 10000 3.09 10 10:33 07.05.2022
2241 Clouds -5 1009 85 10000 1.21 66 08:57 07.05.2022
2242 Clouds -3 1009 79 10000 1.34 120 07:50 07.05.2022
2243 Clouds -3 1007 74 10000 0 0 06:43 07.05.2022
2244 Clouds -2 1007 80 10000 2.06 30 04:35 07.05.2022
2245 Clouds 0 1005 70 10000 2.68 350 00:56 07.05.2022
2246 Clouds 0 1005 59 10000 3.09 10 23:36 06.05.2022
2247 Clouds 0 1005 64 10000 3.6 10 22:26 06.05.2022
2248 Clouds 0 1004 64 10000 4.12 360 21:41 06.05.2022
2249 Clouds 0 1004 64 10000 4.12 360 20:24 06.05.2022
2250 Clear 0 1004 64 10000 4.63 360 19:29 06.05.2022
2251 Clouds 0 1004 61 10000 4.47 360 18:56 06.05.2022
2252 Clouds 1 1004 55 10000 4.12 40 17:38 06.05.2022
2253 Clouds 0 1004 59 10000 5.14 40 16:23 06.05.2022
2254 Clouds 0 1004 59 10000 4.63 40 15:39 06.05.2022
2255 Clouds -1 1004 69 10000 6.17 40 14:33 06.05.2022
2256 Clouds -1 1004 58 10000 5.81 60 12:53 06.05.2022
2257 Clouds -1 1004 59 10000 6.17 60 12:31 06.05.2022
2258 Clouds -1 1004 55 10000 5.66 60 11:38 06.05.2022
2259 Clouds -2 1004 54 10000 5.66 40 09:49 06.05.2022
2260 Clouds -2 1004 54 10000 5.66 40 09:19 06.05.2022
2261 Clouds -2 1004 63 10000 5.81 50 07:59 06.05.2022
2262 Clouds -2 1005 69 10000 6.69 40 06:39 06.05.2022
2263 Clouds -2 1006 64 10000 4.63 60 04:37 06.05.2022
2264 Clouds -2 1006 54 10000 3.09 50 02:43 06.05.2022
2265 Clouds 0 1007 59 10000 3.09 10 23:36 05.05.2022
2266 Clouds 1 1007 55 10000 2.24 20 21:52 05.05.2022
2267 Clouds 0 1007 55 10000 2.24 30 20:54 05.05.2022
2268 Clouds 2 1007 51 10000 2.06 20 19:49 05.05.2022
2269 Clear -2 1008 56 10000 0.7 80 16:57 05.05.2022
2270 Clouds 2 1007 38 10000 1.54 0 16:18 05.05.2022
2271 Clear -2 1007 54 10000 5.14 60 14:43 05.05.2022
2272 Clear -2 1007 54 10000 5.14 60 13:20 05.05.2022
2273 Clouds -3 1007 59 10000 6.17 60 12:24 05.05.2022
2274 Clear -4 1008 80 10000 5.66 50 10:33 05.05.2022
2275 Clouds -4 1008 80 10000 6.17 60 09:39 05.05.2022
2276 Clouds -5 1009 80 10000 5.14 40 07:24 05.05.2022
2277 Clouds -10 1013 95 10000 3.35 29 03:00 05.05.2022
2278 Clouds -5 1013 86 10000 5.66 360 01:48 05.05.2022
2279 Clouds -5 1013 86 10000 5.66 360 01:22 05.05.2022
2280 Clouds -4 1013 74 10000 7.2 360 23:34 04.05.2022
2281 Clouds -4 1014 80 10000 7.2 360 22:27 04.05.2022
2282 Clouds -4 1014 80 10000 8.23 20 21:49 04.05.2022
2283 Clouds -4 1014 80 10000 8.23 20 21:26 04.05.2022
2284 Clouds -4 1014 80 10000 8.23 20 21:26 04.05.2022
2285 Clouds -4 1015 74 10000 6.71 10 20:22 04.05.2022
2286 Clouds -5 1016 73 10000 5.36 360 19:51 04.05.2022
2287 Clouds -5 1016 73 10000 5.36 10 18:51 04.05.2022
2288 Clouds -4 1016 74 10000 5.66 10 18:21 04.05.2022
2289 Clouds -5 1017 80 10000 5.14 360 17:30 04.05.2022
2290 Clouds -6 1018 79 10000 6.17 350 15:38 04.05.2022
2291 Clouds -6 1018 79 10000 6.17 350 15:20 04.05.2022
2292 Clouds -6 1018 73 10000 5.66 350 14:20 04.05.2022
2293 Clouds -6 1018 73 10000 5.14 340 13:20 04.05.2022
2294 Clouds -7 1018 79 10000 4.12 350 12:29 04.05.2022
2295 Snow -7 1019 86 8000 3.09 340 10:40 04.05.2022
2296 Snow -7 1018 86 6000 3.6 300 09:40 04.05.2022
2297 Snow -7 1018 86 3600 4.63 290 08:40 04.05.2022
2298 Snow -6 1018 86 8000 5.66 300 06:31 04.05.2022
2299 Snow -6 1019 96 415 2.88 292 02:53 04.05.2022
2300 Snow -5 1015 93 10000 5.14 310 00:33 04.05.2022
2301 Snow -4 1013 93 10000 8.23 300 22:34 03.05.2022
2302 Snow -3 1012 93 1000 2.06 270 21:43 03.05.2022
2303 Snow -3 1014 89 677 6.85 268 20:53 03.05.2022
2304 Clouds -2 1013 100 173 11.18 200 19:57 03.05.2022
2305 Clouds -2 1013 100 99 11.62 180 18:52 03.05.2022
2306 Snow -2 1011 100 1000 11.83 180 18:20 03.05.2022
2307 Snow -1 1013 93 500 14.4 170 16:44 03.05.2022
2308 Clouds -1 1015 92 161 11.62 180 15:38 03.05.2022
2309 Snow -1 1015 86 900 10.8 160 12:47 03.05.2022
2310 Snow -1 1015 86 900 10.8 160 12:27 03.05.2022
2311 Snow -2 1018 94 291 9.4 165 10:57 03.05.2022
2312 Clouds 0 1017 55 10000 9.77 170 09:34 03.05.2022
2313 Clouds -1 1018 93 10000 8.23 190 07:33 03.05.2022
2314 Clouds -3 1019 84 10000 4.69 176 06:44 03.05.2022
2315 Clouds 0 1022 82 10000 2.68 210 00:54 03.05.2022
2316 Clouds 0 1021 86 10000 1.03 260 22:38 02.05.2022
2317 Clouds 0 1022 80 10000 0.89 330 21:52 02.05.2022
2318 Clouds 2 1022 74 10000 1.34 290 20:51 02.05.2022
2319 Clouds 2 1022 69 10000 1.54 320 18:44 02.05.2022
2320 Clouds 2 1022 69 10000 1.54 320 18:25 02.05.2022
2321 Clouds 1 1022 80 10000 2.57 20 17:37 02.05.2022
2322 Clouds 1 1022 75 10000 2.57 30 16:23 02.05.2022
2323 Clouds 0 1022 80 10000 2.06 10 15:31 02.05.2022
2324 Clouds -1 1021 80 10000 3.58 50 13:52 02.05.2022
2325 Clouds -1 1021 80 10000 4.12 10 12:20 02.05.2022
2326 Clouds -5 1022 85 10000 1.07 31 10:51 02.05.2022
2327 Clouds -3 1021 86 10000 3.6 60 09:30 02.05.2022
2328 Clouds -8 1022 91 10000 1.54 21 07:52 02.05.2022
2329 Clouds -2 1021 86 10000 4.12 20 04:36 02.05.2022
2330 Clouds -1 1022 80 10000 5.14 360 00:25 02.05.2022
2331 Clouds -1 1022 74 10000 4.92 360 23:52 01.05.2022
2332 Clouds 0 1022 69 10000 5.66 350 22:39 01.05.2022
2333 Clouds 0 1022 64 10000 5.14 360 21:26 01.05.2022
2334 Clouds 0 1022 55 10000 5.14 20 20:19 01.05.2022
2335 Clouds -1 1022 58 10000 4.92 360 18:59 01.05.2022
2336 Clouds -1 1022 59 10000 5.14 360 18:39 01.05.2022
2337 Clouds -1 1023 59 10000 4.63 360 17:46 01.05.2022
2338 Clouds -1 1023 69 10000 6.71 360 16:24 01.05.2022
2339 Clear -2 1023 74 10000 6.17 360 15:38 01.05.2022
2340 Clear -2 1023 74 10000 7.15 10 13:52 01.05.2022
2341 Clear -3 1023 74 10000 8.23 10 11:28 01.05.2022
2342 Clear -4 1023 80 10000 6.69 10 09:32 01.05.2022
2343 Clouds -4 1023 80 10000 6.69 10 08:47 01.05.2022
2344 Clouds -4 1025 74 10000 7.2 10 04:31 01.05.2022
2345 Clouds -3 1027 63 10000 6.69 10 00:34 01.05.2022
2346 Clouds -3 1028 58 10000 5.81 360 21:52 30.04.2022
2347 Clouds -3 1028 59 10000 6.17 360 21:19 30.04.2022
2348 Clouds -4 1029 63 10000 7.2 10 19:45 30.04.2022
2349 Clouds -4 1029 63 10000 6.71 360 18:45 30.04.2022
2350 Clouds -5 1030 73 10000 8.05 360 16:54 30.04.2022
2351 Clouds -5 1031 73 10000 8.05 360 15:50 30.04.2022
2352 Clouds -5 1031 73 10000 10.28 10 14:54 30.04.2022
2353 Clouds -6 1032 79 10000 8.23 360 13:30 30.04.2022
2354 Clouds -7 1033 79 10000 8.23 360 11:34 30.04.2022
2355 Clouds -11 1035 84 10000 4.93 18 10:55 30.04.2022
2356 Clouds -12 1035 84 10000 4.82 14 09:51 30.04.2022
2357 Clouds -6 1034 73 10000 10.29 20 07:31 30.04.2022
2358 Clouds -6 1035 73 10000 7.2 360 03:45 30.04.2022
2359 Clouds -6 1035 92 10000 4.02 330 23:54 29.04.2022
2360 Clouds -5 1032 93 10000 4.12 320 22:35 29.04.2022
2361 Clouds -5 1034 92 10000 4.02 300 21:54 29.04.2022
2362 Snow -5 1031 93 10000 4.12 300 21:19 29.04.2022
2363 Snow -4 1031 84 1864 5.91 284 19:52 29.04.2022
2364 Clouds -4 1031 80 10000 5.77 275 18:58 29.04.2022
2365 Snow -2 1027 93 1700 2.24 180 17:33 29.04.2022
2366 Clouds -3 1024 92 281 4.47 250 15:58 29.04.2022
2367 Snow -2 1023 93 600 4.63 240 14:34 29.04.2022
2368 Snow -2 1022 100 600 4.12 230 13:27 29.04.2022
2369 Snow 0 1020 100 900 10.29 190 12:26 29.04.2022
2370 Snow 0 1020 98 45 8.82 192 09:52 29.04.2022
2371 Snow 1 1018 97 49 10.46 178 07:52 29.04.2022
2372 Snow 1 1017 100 2700 14.92 170 07:24 29.04.2022
2373 Snow 1 1018 97 54 11.23 173 05:57 29.04.2022
2374 Snow 1 1019 97 60 9.5 165 00:51 29.04.2022
2375 Clouds 2 1018 93 59 13.86 160 23:52 28.04.2022
2376 Snow 1 1018 100 1500 13.89 170 22:47 28.04.2022
2377 Clouds 0 1017 100 52 13.86 170 21:59 28.04.2022
2378 Snow 1 1017 100 2000 13.89 170 21:37 28.04.2022
2379 Snow 1 1017 100 2000 14.92 170 20:42 28.04.2022
2380 Snow 1 1017 100 2000 14.4 170 19:49 28.04.2022
2381 Snow 1 1017 100 2000 14.4 170 19:24 28.04.2022
2382 Snow 2 1017 93 2000 12.35 170 18:45 28.04.2022
2383 Snow 2 1017 93 3000 12.96 180 17:32 28.04.2022
2384 Clouds 2 1017 93 46 12.96 180 16:50 28.04.2022
2385 Snow 2 1017 93 2000 13.38 180 16:20 28.04.2022
2386 Snow 2 1017 93 2000 13.38 180 16:20 28.04.2022
2387 Snow 2 1017 93 2000 12.35 170 15:41 28.04.2022
2388 Clouds 0 1018 98 48 12.07 170 14:55 28.04.2022
2389 Snow 1 1016 93 2500 12.35 170 13:23 28.04.2022
2390 Snow 1 1016 100 3700 11.32 170 12:28 28.04.2022
2391 Snow 0 1018 98 71 3.79 190 10:59 28.04.2022
2392 Snow 1 1016 93 2700 11.83 170 10:26 28.04.2022
2393 Snow 1 1015 100 3100 12.35 170 09:43 28.04.2022
2394 Snow 1 1014 100 3900 13.38 170 07:40 28.04.2022
2395 Snow 1 1014 100 3300 14.4 170 06:42 28.04.2022
2396 Snow 1 1016 98 53 8.27 178 05:52 28.04.2022
2397 Snow 1 1013 100 2600 15.95 170 04:42 28.04.2022
2398 Clouds 0 1012 100 65 15.2 160 00:52 28.04.2022
2399 Clouds 2 1012 93 2000 15.95 160 23:18 27.04.2022
2400 Clouds 2 1011 93 111 15.2 160 21:58 27.04.2022
2401 Clouds 2 1011 93 2500 15.43 160 21:34 27.04.2022
2402 Clouds 2 1011 93 2500 17.49 160 20:45 27.04.2022
2403 Clouds 2 1011 93 99 15.65 160 19:54 27.04.2022
2404 Clouds 2 1011 93 2500 15.95 160 19:31 27.04.2022
2405 Clouds 2 1011 93 2500 15.95 160 18:39 27.04.2022
2406 Clouds 2 1012 93 140 13.86 170 17:54 27.04.2022
2407 Clouds 4 1010 95 842 13.86 160 15:57 27.04.2022
2408 Clouds 2 1011 95 864 11.18 170 12:59 27.04.2022
2409 Rain 3 1010 81 10000 11.32 170 11:24 27.04.2022
2410 Snow 3 1010 81 7000 14.92 160 10:45 27.04.2022
2411 Snow 2 1010 93 3800 15.95 160 08:22 27.04.2022
2412 Snow 2 1011 87 10000 13.89 160 06:41 27.04.2022
2413 Snow 2 1012 80 6000 17.49 160 02:31 27.04.2022
2414 Snow 3 1013 81 10000 18.01 160 01:21 27.04.2022
2415 Snow 3 1013 81 10000 18.01 160 00:27 27.04.2022
2416 Snow 1 1013 100 4100 18.52 160 23:24 26.04.2022
2417 Clouds 2 1014 93 4400 20.58 160 22:45 26.04.2022
2418 Clouds 1 1016 85 10000 15.17 168 21:59 26.04.2022
2419 Snow 1 1014 93 4400 16.98 160 21:19 26.04.2022
2420 Snow 1 1016 93 1300 14.4 160 20:37 26.04.2022
2421 Snow 0 1016 100 1400 14.4 170 19:45 26.04.2022
2422 Snow 0 1016 100 1400 14.4 170 19:26 26.04.2022
2423 Snow 1 1017 93 4000 10.8 170 18:39 26.04.2022
2424 Clouds 1 1017 93 10000 12.35 170 17:39 26.04.2022
2425 Snow 2 1018 87 10000 11.32 170 15:41 26.04.2022
2426 Clouds 1 1020 71 10000 11.17 173 13:51 26.04.2022
2427 Clouds 0 1020 69 10000 8.94 170 12:57 26.04.2022
2428 Clouds -1 1021 86 10000 7.72 190 11:24 26.04.2022
2429 Clouds 0 1021 69 10000 7.2 180 10:30 26.04.2022
2430 Clouds -1 1021 74 10000 10.29 170 08:34 26.04.2022
2431 Clouds -1 1024 86 10000 4.47 180 04:59 26.04.2022
2432 Clouds -1 1024 86 10000 4.63 180 04:22 26.04.2022
2433 Clouds -1 1027 80 10000 1.34 230 00:51 26.04.2022
2434 Clouds -1 1028 80 10000 1.79 190 23:50 25.04.2022
2435 Clouds 0 1029 79 10000 1.79 280 21:57 25.04.2022
2436 Clouds 0 1029 74 10000 2.06 280 21:26 25.04.2022
2437 Clouds 0 1030 77 10000 1.79 40 19:58 25.04.2022
2438 Clouds 0 1032 74 10000 1.03 330 18:48 25.04.2022
2439 Clouds 0 1032 80 10000 1.54 350 17:40 25.04.2022
2440 Clouds -1 1032 80 10000 1.54 20 16:44 25.04.2022
2441 Clouds -1 1032 86 10000 2.06 20 15:23 25.04.2022
2442 Clouds -1 1033 86 10000 1.54 10 14:34 25.04.2022
2443 Clouds -2 1033 93 10000 2.57 340 13:21 25.04.2022
2444 Clouds -2 1033 93 10000 1.03 340 10:44 25.04.2022
2445 Clouds -2 1033 100 10000 2.06 330 09:42 25.04.2022
2446 Clouds -2 1035 90 10000 2.79 320 07:56 25.04.2022
2447 Clouds -2 1033 100 10000 2.57 320 06:18 25.04.2022
2448 Snow -1 1035 93 2900 2.57 330 01:49 25.04.2022
2449 Clouds 0 1035 91 10000 2.68 320 23:57 24.04.2022
2450 Snow 0 1035 86 10000 3.09 320 23:28 24.04.2022
2451 Clouds 0 1035 93 10000 2.06 320 22:39 24.04.2022
2452 Clouds 0 1035 88 10000 2.24 290 21:58 24.04.2022
2453 Clouds 0 1035 93 10000 2.57 290 21:22 24.04.2022
2454 Clouds 0 1035 93 10000 3.6 270 20:47 24.04.2022
2455 Clouds 0 1035 93 10000 3.6 270 20:21 24.04.2022
2456 Clouds 0 1036 86 10000 3.63 320 18:54 24.04.2022
2457 Clouds 0 1035 85 10000 3.58 210 17:55 24.04.2022
2458 Clouds 0 1035 93 10000 4.47 210 17:22 24.04.2022
2459 Clouds 0 1035 84 10000 4.47 210 16:56 24.04.2022
2460 Clouds 0 1035 93 10000 4.63 210 16:29 24.04.2022
2461 Clouds 0 1035 93 10000 4.63 210 16:29 24.04.2022
2462 Clouds 0 1037 82 10000 4.47 200 15:53 24.04.2022
2463 Clouds 0 1037 82 10000 4.47 200 14:55 24.04.2022
2464 Clouds 0 1035 93 10000 5.14 200 13:45 24.04.2022
2465 Clouds 0 1035 93 10000 5.14 200 13:23 24.04.2022
2466 Clouds -1 1036 87 10000 2.61 179 11:53 24.04.2022
2467 Clouds 0 1036 88 10000 5.81 190 10:59 24.04.2022
2468 Clouds 0 1033 86 10000 5.66 190 09:47 24.04.2022
2469 Clouds 0 1032 86 10000 4.63 190 08:23 24.04.2022
2470 Clouds 0 1031 80 10000 10.29 180 05:46 24.04.2022
2471 Snow 1 1030 86 7000 11.32 180 02:49 24.04.2022
2472 Clouds 2 1028 90 10000 8.94 180 00:55 24.04.2022
2473 Clouds 2 1028 91 10000 9.39 180 23:55 23.04.2022
2474 Clouds 2 1028 87 10000 9.77 180 23:25 23.04.2022
2475 Clouds 3 1027 87 10000 8.75 180 22:40 23.04.2022
2476 Clouds 3 1026 87 10000 10.8 160 21:48 23.04.2022
2477 Clouds 3 1026 87 10000 10.8 160 21:30 23.04.2022
2478 Rain 2 1026 93 4000 3.09 180 20:27 23.04.2022
2479 Clouds 2 1025 93 10000 3.09 20 19:21 23.04.2022
2480 Snow 1 1026 99 116 3.59 110 18:55 23.04.2022
2481 Rain 2 1025 93 10000 1.54 0 18:32 23.04.2022
2482 Snow 2 1025 93 10000 0.51 0 17:47 23.04.2022
2483 Snow 2 1025 93 10000 2.68 160 16:46 23.04.2022
2484 Clouds 2 1026 93 110 2.68 160 15:53 23.04.2022
2485 Clouds 1 1024 93 10000 3.6 60 13:33 23.04.2022
2486 Clouds 2 1024 90 10000 0.89 120 11:57 23.04.2022
2487 Clouds 1 1023 86 10000 0 0 10:37 23.04.2022
2488 Snow 1 1023 86 10000 0.51 30 08:30 23.04.2022
2489 Clouds 1 1022 86 10000 0 0 05:27 23.04.2022
2490 Clouds 1 1022 86 10000 2.57 50 03:32 23.04.2022
2491 Clouds 1 1022 93 10000 2.57 10 23:38 22.04.2022
2492 Clouds 1 1022 93 10000 2.57 10 23:20 22.04.2022
2493 Clouds 0 1023 100 10000 0.89 10 21:59 22.04.2022
2494 Clouds 1 1022 100 10000 1.03 10 21:40 22.04.2022
2495 Clouds 1 1022 93 10000 1.54 10 20:37 22.04.2022
2496 Clouds 0 1022 93 10000 1.54 340 19:39 22.04.2022
2497 Clouds 1 1022 93 10000 1.54 340 19:18 22.04.2022
2498 Clouds 1 1021 100 10000 2.06 360 18:28 22.04.2022
2499 Clouds 1 1021 93 10000 1.54 10 17:34 22.04.2022
2500 Clouds 0 1021 100 10000 2.06 30 16:29 22.04.2022
2501 Clouds 0 1021 93 10000 2.57 30 15:31 22.04.2022
2502 Clouds -1 1021 93 10000 3.09 20 14:38 22.04.2022
2503 Snow -1 1021 100 10000 0 0 13:42 22.04.2022
2504 Clouds -2 1021 100 1110 1.79 160 12:55 22.04.2022
2505 Snow -2 1020 93 2200 1.54 220 11:24 22.04.2022
2506 Clouds -4 1021 98 2116 0.17 291 10:58 22.04.2022
2507 Snow -2 1020 100 2100 2.57 210 10:40 22.04.2022
2508 Snow -2 1020 100 2100 2.57 210 10:20 22.04.2022
2509 Snow -1 1019 93 1300 3.09 220 09:30 22.04.2022
2510 Snow -1 1019 100 450 4.63 200 08:49 22.04.2022
2511 Snow -1 1018 98 150 4.42 198 06:54 22.04.2022
2512 Clouds 2 1011 94 1539 13.86 170 01:41 22.04.2022
2513 Snow 2 1010 87 6000 19.03 160 23:39 21.04.2022
2514 Clouds 0 1009 92 10000 11.18 180 22:52 21.04.2022
2515 Snow 1 1009 93 1800 11.32 180 21:49 21.04.2022
2516 Snow 2 1008 87 2500 12.35 170 20:34 21.04.2022
2517 Snow 1 1010 91 10000 18.33 173 19:51 21.04.2022
2518 Snow 1 1008 93 3300 10.29 180 18:34 21.04.2022
2519 Rain 3 1007 81 6000 14.92 160 17:47 21.04.2022
2520 Clouds 3 1006 75 4000 14.4 160 16:28 21.04.2022
2521 Snow 1 1006 100 2500 18.52 160 15:20 21.04.2022
2522 Snow 1 1005 100 1800 19.03 160 14:38 21.04.2022
2523 Snow 1 1004 100 1700 18.01 160 13:23 21.04.2022
2524 Snow 1 1004 100 1700 18.01 160 13:23 21.04.2022
2525 Snow 1 1003 93 1500 17.49 160 12:36 21.04.2022
2526 Snow 0 1004 100 1000 14.4 170 10:45 21.04.2022
2527 Snow 0 1006 89 961 12.08 150 08:54 21.04.2022
2528 Snow -6 1008 91 1391 2.1 67 06:55 21.04.2022
2529 Snow -6 1008 91 1391 2.1 67 06:55 21.04.2022
2530 Snow -5 1011 76 2350 3.83 74 04:58 21.04.2022
2531 Clouds -3 1013 59 10000 1.03 340 03:26 21.04.2022
2532 Clouds -4 1013 54 10000 1.03 0 02:46 21.04.2022
2533 Clouds -4 1013 54 10000 1.03 0 02:46 21.04.2022
2534 Clouds -4 1015 46 10000 1.03 0 00:43 21.04.2022
2535 Clouds -4 1015 46 10000 1.03 0 00:43 21.04.2022
2536 Clouds -5 1017 45 10000 0.89 220 23:50 20.04.2022
2537 Clouds -4 1017 46 10000 1.03 220 23:22 20.04.2022
2538 Clouds -4 1018 46 10000 7.2 70 22:45 20.04.2022
2539 Clouds -4 1018 46 10000 7.2 70 22:26 20.04.2022
2540 Clouds -5 1020 54 10000 7.72 70 21:27 20.04.2022
2541 Clouds -5 1021 58 10000 6.71 70 20:23 20.04.2022
2542 Clouds -6 1022 62 10000 8.05 60 19:51 20.04.2022
2543 Clouds -6 1022 63 10000 8.23 60 19:18 20.04.2022
2544 Clouds -6 1025 62 10000 9.39 60 17:56 20.04.2022
2545 Clouds -6 1025 63 10000 9.26 40 16:48 20.04.2022
2546 Clouds -6 1025 63 10000 9.26 40 16:30 20.04.2022
2547 Clouds -12 1029 74 10000 5.02 41 13:51 20.04.2022
2548 Clouds -16 1031 90 8181 4.44 50 11:50 20.04.2022
2549 Clouds -9 1030 67 10000 6.17 20 11:21 20.04.2022
2550 Clouds -9 1030 67 10000 6.17 350 10:19 20.04.2022
2551 Clouds -9 1030 67 10000 5.14 340 09:25 20.04.2022
2552 Clouds -9 1030 67 10000 5.14 340 08:22 20.04.2022
2553 Snow -10 1029 67 10000 5.66 350 07:36 20.04.2022
2554 Clouds -10 1029 73 10000 6.69 320 03:38 20.04.2022
2555 Clouds -9 1027 73 10000 7.72 320 00:23 20.04.2022
2556 Clouds -9 1026 79 10000 8.23 320 23:41 19.04.2022
2557 Clouds -9 1025 79 10000 7.2 320 22:27 19.04.2022
2558 Clouds -8 1024 67 10000 7.15 320 21:57 19.04.2022
2559 Clouds -8 1024 67 10000 7.2 320 21:24 19.04.2022
2560 Clouds -8 1023 73 10000 7.2 320 20:46 19.04.2022
2561 Clouds -10 1022 72 10000 8.05 320 19:57 19.04.2022
2562 Clouds -9 1022 73 10000 8.23 320 19:19 19.04.2022
2563 Clouds -9 1022 73 10000 8.23 320 19:19 19.04.2022
2564 Clouds -8 1020 67 7668 7.6 320 17:50 19.04.2022
2565 Clouds -9 1020 73 10000 8.75 320 16:43 19.04.2022
2566 Clouds -9 1020 73 10000 8.75 320 16:23 19.04.2022
2567 Clouds -10 1018 66 5167 8.05 330 14:50 19.04.2022
2568 Clouds -9 1018 67 10000 8.23 330 14:27 19.04.2022
2569 Clouds -10 1016 78 6791 7.6 330 12:51 19.04.2022
2570 Snow -9 1016 79 10000 7.72 330 12:26 19.04.2022
2571 Clouds -9 1015 79 10000 7.72 350 10:47 19.04.2022
2572 Snow -9 1014 79 8000 7.2 340 09:23 19.04.2022
2573 Clouds -13 1014 86 10000 4.52 10 05:59 19.04.2022
2574 Clouds -10 1014 66 10000 8.94 350 03:59 19.04.2022
2575 Clouds -10 1014 78 10000 8.49 340 00:56 19.04.2022
2576 Snow -9 1015 79 10000 9.26 340 23:36 18.04.2022
2577 Clouds -8 1015 73 10000 7.2 340 21:38 18.04.2022
2578 Clouds -8 1015 73 10000 7.2 340 21:20 18.04.2022
2579 Snow -8 1016 79 10000 7.2 340 20:36 18.04.2022
2580 Clouds -7 1015 79 10000 6.71 330 19:57 18.04.2022
2581 Clouds -7 1015 79 10000 5.81 330 18:58 18.04.2022
2582 Snow -7 1015 79 5000 6.17 330 18:32 18.04.2022
2583 Snow -7 1015 79 10000 6.17 320 17:38 18.04.2022
2584 Snow -7 1015 79 10000 6.17 320 17:18 18.04.2022
2585 Snow -7 1015 86 7000 6.17 310 16:34 18.04.2022
2586 Snow -6 1015 86 6000 4.63 320 15:27 18.04.2022
2587 Clouds -5 1014 80 10000 3.09 290 13:42 18.04.2022
2588 Clouds -5 1014 80 10000 3.09 290 13:42 18.04.2022
2589 Clouds -5 1014 80 10000 3.09 280 12:40 18.04.2022
2590 Clouds -5 1013 80 10000 2.57 250 11:42 18.04.2022
2591 Snow -5 1013 80 10000 2.06 220 10:42 18.04.2022
2592 Clouds -5 1012 80 10000 2.57 240 09:31 18.04.2022
2593 Snow -5 1012 80 10000 1.54 250 08:29 18.04.2022
2594 Clouds -6 1012 93 1179 1.95 232 05:58 18.04.2022
2595 Clouds -5 1008 85 9003 1.79 280 01:37 18.04.2022
2596 Clouds -3 1007 86 10000 3.09 290 22:44 17.04.2022
2597 Clouds -2 1007 79 9543 4.02 230 21:51 17.04.2022
2598 Clouds -2 1007 80 10000 4.12 230 21:32 17.04.2022
2599 Clouds -2 1006 79 9552 5.36 200 20:50 17.04.2022
2600 Clouds -2 1005 79 10000 6.71 190 19:53 17.04.2022
2601 Clouds -2 1005 80 10000 6.17 170 18:32 17.04.2022
2602 Clouds -2 1004 80 10000 7.2 170 16:33 17.04.2022
2603 Clouds -2 1004 80 10000 7.2 190 15:32 17.04.2022
2604 Clouds -2 1003 74 10000 7.2 180 14:28 17.04.2022
2605 Clouds -3 1003 80 10000 6.69 190 13:20 17.04.2022
2606 Clouds -4 1002 86 10000 6.69 190 12:30 17.04.2022
2607 Clouds -5 1002 80 10000 1.54 120 10:48 17.04.2022
2608 Clouds -5 1002 80 10000 1.54 120 10:29 17.04.2022
2609 Clouds -13 1004 94 10000 1.75 131 09:50 17.04.2022
2610 Clouds -13 1003 93 7761 1.87 107 08:58 17.04.2022
2611 Clouds -5 1001 74 10000 1.03 100 08:27 17.04.2022
2612 Clouds -4 1001 68 10000 3.6 360 05:20 17.04.2022
2613 Clouds -3 1001 68 10000 5.66 10 01:47 17.04.2022
2614 Clouds -3 1002 68 10000 4.47 360 23:59 16.04.2022
2615 Clouds -3 1002 63 10000 4.47 360 22:56 16.04.2022
2616 Clouds -3 1001 63 10000 4.63 360 21:44 16.04.2022
2617 Clouds -2 1002 54 10000 3.58 10 20:54 16.04.2022
2618 Clouds -2 1002 54 10000 2.57 360 19:21 16.04.2022
2619 Clear -3 1002 68 10000 3.09 360 18:35 16.04.2022
2620 Clear -3 1002 68 10000 3.6 360 16:44 16.04.2022
2621 Clear -3 1002 68 10000 3.09 30 15:46 16.04.2022
2622 Clear -5 1001 73 10000 2.68 40 14:57 16.04.2022
2623 Clear -4 1001 74 10000 3.09 40 14:30 16.04.2022
2624 Clear -4 1001 68 10000 3.6 10 13:48 16.04.2022
2625 Clear -5 1001 74 10000 4.63 20 12:35 16.04.2022
2626 Clouds -5 1002 74 10000 4.12 10 11:26 16.04.2022
2627 Clouds -6 1001 79 10000 4.12 20 10:29 16.04.2022
2628 Clouds -6 1001 79 10000 4.63 360 09:36 16.04.2022
2629 Clouds -5 1001 63 10000 7.72 10 08:42 16.04.2022
2630 Clouds -5 1000 63 10000 7.72 30 07:21 16.04.2022
2631 Clear -14 1003 81 10000 3.69 41 04:54 16.04.2022
2632 Clouds -10 1003 70 10000 4.16 15 01:22 16.04.2022
2633 Clouds -6 999 62 10000 11.62 20 23:45 15.04.2022
2634 Clouds -6 999 62 10000 11.62 20 22:48 15.04.2022
2635 Clouds -6 999 62 10000 11.62 20 22:28 15.04.2022
2636 Clouds -6 999 62 10000 11.62 20 21:20 15.04.2022
2637 Clouds -6 999 63 10000 11.83 20 20:38 15.04.2022
2638 Clouds -6 999 63 10000 13.89 20 19:43 15.04.2022
2639 Clouds -6 1000 62 10000 15.65 20 18:58 15.04.2022
2640 Clouds -6 999 63 10000 15.95 20 18:26 15.04.2022
2641 Clouds -7 1000 62 10000 17.43 20 17:57 15.04.2022
2642 Clouds -7 999 62 10000 16.09 20 17:24 15.04.2022
2643 Clouds -7 999 63 10000 16.46 20 16:24 15.04.2022
2644 Clouds -7 999 58 10000 16.99 20 15:42 15.04.2022
2645 Clouds -7 999 58 10000 16.99 20 15:42 15.04.2022
2646 Clouds -7 999 57 10000 18.33 20 13:55 15.04.2022
2647 Clouds -11 1001 61 10000 7.36 17 12:52 15.04.2022
2648 Clouds -7 1000 63 10000 17.49 20 12:24 15.04.2022
2649 Clouds -12 1001 63 10000 7.48 10 11:50 15.04.2022
2650 Clouds -8 1000 57 10000 16.46 20 10:46 15.04.2022
2651 Clouds -14 1002 70 10000 6.21 13 09:59 15.04.2022
2652 Clouds -8 1000 57 10000 14.4 20 09:22 15.04.2022
2653 Clear -8 1000 57 10000 13.89 10 08:39 15.04.2022
2654 Clear -13 1002 67 10000 5.72 21 06:50 15.04.2022
2655 Clouds -7 1001 58 10000 13.86 10 04:49 15.04.2022
2656 Clouds -5 1003 68 10000 7.72 10 00:46 15.04.2022
2657 Clouds -5 1003 63 10000 7.72 10 23:26 14.04.2022
2658 Clouds -4 1003 58 10000 7.2 360 22:46 14.04.2022
2659 Clouds -4 1003 58 10000 7.2 360 22:27 14.04.2022
2660 Clouds -5 1003 62 10000 6.71 360 21:50 14.04.2022
2661 Clouds -4 1003 63 10000 6.17 360 19:41 14.04.2022
2662 Clouds -4 1003 63 10000 6.17 360 19:20 14.04.2022
2663 Clouds -4 1004 63 10000 4.12 360 17:46 14.04.2022
2664 Clouds -5 1004 67 10000 4.02 360 16:51 14.04.2022
2665 Clouds -5 1004 68 10000 4.12 360 16:21 14.04.2022
2666 Clouds -8 1005 83 10000 4 1 13:54 14.04.2022
2667 Clouds -4 1004 68 10000 3.09 350 13:25 14.04.2022
2668 Clouds -4 1004 80 10000 3.09 360 12:33 14.04.2022
2669 Clouds -4 1004 74 10000 2.57 0 11:47 14.04.2022
2670 Clouds -4 1004 74 10000 2.57 0 11:18 14.04.2022
2671 Clouds -4 1004 93 10000 5.14 350 10:31 14.04.2022
2672 Clouds -10 1005 96 1231 3.35 14 09:50 14.04.2022
2673 Clouds -4 1004 93 10000 5.14 340 08:35 14.04.2022
2674 Clouds -9 1004 96 7806 3.47 354 05:58 14.04.2022
2675 Clouds -3 1005 93 9000 6.71 340 01:23 14.04.2022
2676 Clouds -2 1005 93 10000 7.2 340 22:41 13.04.2022
2677 Clouds -2 1005 86 10000 6.71 340 21:44 13.04.2022
2678 Clouds -2 1005 93 10000 6.71 340 20:47 13.04.2022
2679 Clouds -1 1005 80 10000 5.81 360 19:54 13.04.2022
2680 Clouds -2 1005 74 10000 4.63 20 18:43 13.04.2022
2681 Clear -2 1005 74 10000 4.02 20 17:52 13.04.2022
2682 Clouds -2 1005 74 10000 4.12 20 17:23 13.04.2022
2683 Clear -3 1006 74 10000 4.12 360 16:24 13.04.2022
2684 Clear -3 1005 80 10000 5.14 20 15:31 13.04.2022
2685 Clouds -3 1005 80 10000 4.63 20 14:46 13.04.2022
2686 Clouds -5 1006 79 10000 4.47 360 13:57 13.04.2022
2687 Clouds -9 1007 83 10000 3.5 13 12:59 13.04.2022
2688 Clouds -4 1006 86 10000 4.12 20 12:19 13.04.2022
2689 Clouds -5 1006 93 10000 3.6 10 10:44 13.04.2022
2690 Clouds -11 1007 95 10000 2.8 22 08:50 13.04.2022
2691 Clouds -4 1006 86 10000 3.09 20 08:31 13.04.2022
2692 Clouds -9 1007 96 10000 2.57 26 06:51 13.04.2022
2693 Clouds -4 1006 100 10000 2.06 20 06:25 13.04.2022
2694 Clouds -3 1007 93 10000 4.12 10 03:31 13.04.2022
2695 Clouds -2 1007 93 10000 6.17 350 00:20 13.04.2022
2696 Clouds 0 1007 69 10000 6.71 350 22:46 12.04.2022
2697 Clouds 0 1007 69 10000 3.58 40 21:57 12.04.2022
2698 Clouds -1 1007 68 10000 4.47 360 20:51 12.04.2022
2699 Clouds -1 1007 69 10000 4.63 360 20:33 12.04.2022
2700 Clouds -1 1007 80 10000 4.63 10 19:47 12.04.2022
2701 Clouds -1 1007 80 10000 4.63 10 19:28 12.04.2022
2702 Clouds -1 1008 80 10000 5.81 30 17:59 12.04.2022
2703 Clouds -1 1009 80 10000 5.81 10 16:53 12.04.2022
2704 Clouds -1 1009 80 10000 6.17 10 16:19 12.04.2022
2705 Clouds -1 1009 80 10000 5.14 360 15:26 12.04.2022
2706 Clouds -2 1010 80 10000 6.69 30 14:21 12.04.2022
2707 Clouds -2 1010 74 10000 5.66 20 13:28 12.04.2022
2708 Clouds -2 1011 74 10000 5.66 30 12:44 12.04.2022
2709 Clouds -9 1012 77 10000 3.13 32 11:42 12.04.2022
2710 Clouds -2 1011 74 10000 5.14 30 10:32 12.04.2022
2711 Clouds -8 1012 79 10000 3.07 32 08:57 12.04.2022
2712 Clouds -8 1012 79 10000 3.08 35 07:51 12.04.2022
2713 Clouds -2 1012 64 10000 5.66 50 05:49 12.04.2022
2714 Clouds -2 1013 69 10000 5.14 50 04:46 12.04.2022
2715 Clouds -1 1015 63 10000 3.58 50 23:53 11.04.2022
2716 Clouds 0 1015 64 10000 4.63 40 22:44 11.04.2022
2717 Clouds 0 1015 64 10000 3.6 50 21:37 11.04.2022
2718 Clouds 0 1016 65 10000 4.02 40 20:55 11.04.2022
2719 Clouds 0 1016 69 10000 4.12 40 20:28 11.04.2022
2720 Clouds 1 1016 55 10000 4.12 40 19:42 11.04.2022
2721 Clouds 1 1016 55 10000 4.12 40 19:18 11.04.2022
2722 Clouds 1 1016 55 10000 3.09 40 18:41 11.04.2022
2723 Clouds 0 1016 50 10000 1.88 360 17:56 11.04.2022
2724 Clouds 0 1017 63 10000 2.68 40 16:54 11.04.2022
2725 Clouds 0 1017 63 10000 2.68 60 15:54 11.04.2022
2726 Clouds -1 1016 63 10000 2.68 100 13:59 11.04.2022
2727 Clouds -1 1017 55 10000 4.12 80 12:47 11.04.2022
2728 Clouds -1 1017 55 10000 4.12 80 12:29 11.04.2022
2729 Clouds -1 1017 59 10000 3.6 70 11:30 11.04.2022
2730 Clouds -1 1017 64 10000 2.57 160 10:21 11.04.2022
2731 Clouds -5 1018 78 10000 3.13 83 08:56 11.04.2022
2732 Clouds 0 1016 59 10000 0 0 06:21 11.04.2022
2733 Clouds -1 1016 69 10000 1.03 190 01:23 11.04.2022
2734 Clouds 1 1015 69 10000 5.14 160 22:34 10.04.2022
2735 Clouds 0 1015 69 10000 4.47 200 21:55 10.04.2022
2736 Clouds 1 1015 69 10000 4.63 200 21:28 10.04.2022
2737 Clouds 2 1015 55 10000 4.63 190 20:30 10.04.2022
2738 Clouds 1 1015 60 10000 4.63 170 19:43 10.04.2022
2739 Clouds 1 1015 60 10000 4.63 170 19:18 10.04.2022
2740 Clouds 2 1015 55 10000 6.17 160 18:41 10.04.2022
2741 Clouds 0 1016 59 10000 7.6 160 17:52 10.04.2022
2742 Clouds 1 1015 60 10000 7.72 160 17:32 10.04.2022
2743 Clouds -1 1015 69 10000 2.57 40 16:21 10.04.2022
2744 Clouds 0 1015 68 10000 4.47 180 14:59 10.04.2022
2745 Clouds -1 1015 63 10000 4.47 180 13:54 10.04.2022
2746 Clouds -1 1015 64 10000 6.69 170 12:33 10.04.2022
2747 Clouds -1 1015 59 10000 7.2 160 11:46 10.04.2022
2748 Clouds -1 1015 59 10000 7.2 160 11:28 10.04.2022
2749 Clouds -1 1015 59 10000 7.72 170 10:43 10.04.2022
2750 Clouds -7 1017 82 10000 3.1 95 09:50 10.04.2022
2751 Clouds -2 1015 59 10000 2.06 0 09:21 10.04.2022
2752 Clouds -2 1015 59 10000 4.12 200 08:21 10.04.2022
2753 Clouds -3 1015 63 10000 4.12 190 07:18 10.04.2022
2754 Clouds -4 1015 74 10000 2.06 20 05:19 10.04.2022
2755 Clouds -4 1015 68 10000 1.54 140 02:20 10.04.2022
2756 Clouds -5 1015 79 10000 8.49 20 23:54 09.04.2022
2757 Clouds -4 1015 80 10000 8.75 20 23:35 09.04.2022
2758 Clouds -3 1017 74 10000 6.17 360 22:43 09.04.2022
2759 Clouds -3 1016 74 10000 6.17 20 21:34 09.04.2022
2760 Clouds -3 1017 74 10000 6.17 10 20:48 09.04.2022
2761 Clouds -3 1017 74 10000 6.17 10 20:23 09.04.2022
2762 Clouds -3 1017 74 10000 4.63 40 19:41 09.04.2022
2763 Clouds -3 1017 73 10000 5.36 20 18:54 09.04.2022
2764 Clouds -3 1017 74 10000 5.66 20 18:18 09.04.2022
2765 Clouds -3 1017 74 10000 5.66 20 17:34 09.04.2022
2766 Clouds -4 1017 80 10000 5.14 360 16:47 09.04.2022
2767 Clear -5 1018 79 10000 4.47 350 15:55 09.04.2022
2768 Clouds -5 1018 80 10000 4.63 350 15:28 09.04.2022
2769 Clouds -5 1019 80 10000 3.6 350 14:27 09.04.2022
2770 Clouds -6 1018 79 10000 4.02 360 13:54 09.04.2022
2771 Clouds -10 1020 91 10000 2.08 40 12:59 09.04.2022
2772 Clouds -6 1018 73 10000 4.12 340 12:34 09.04.2022
2773 Clouds -6 1018 73 10000 5.14 350 11:22 09.04.2022
2774 Clouds -7 1018 79 10000 5.14 330 10:21 09.04.2022
2775 Clouds -7 1017 86 10000 5.14 330 09:37 09.04.2022
2776 Clouds -11 1018 94 10000 1.77 65 08:51 09.04.2022
2777 Clouds -11 1019 93 10000 1.21 29 06:56 09.04.2022
2778 Clouds -4 1014 80 10000 4.12 340 01:32 09.04.2022
2779 Snow -4 1013 93 10000 4.63 330 23:30 08.04.2022
2780 Clouds -5 1013 92 10000 4.02 330 21:58 08.04.2022
2781 Snow -4 1013 93 10000 4.12 330 21:29 08.04.2022
2782 Snow -4 1012 93 3500 3.6 340 20:38 08.04.2022
2783 Snow -4 1012 93 2500 3.09 340 19:20 08.04.2022
2784 Clouds -4 1012 86 10000 2.57 350 18:29 08.04.2022
2785 Clouds -4 1012 86 10000 2.57 350 17:46 08.04.2022
2786 Clouds -4 1012 86 10000 2.57 350 17:22 08.04.2022
2787 Clouds -4 1012 80 10000 2.06 340 16:47 08.04.2022
2788 Clouds -5 1013 85 10000 2.24 340 15:57 08.04.2022
2789 Clouds -4 1013 86 10000 2.57 340 15:26 08.04.2022
2790 Clouds -4 1013 86 10000 2.06 340 14:27 08.04.2022
2791 Clouds -5 1013 93 10000 2.57 20 13:46 08.04.2022
2792 Clouds -5 1013 93 10000 2.57 20 13:27 08.04.2022
2793 Clouds -8 1015 90 8587 0.37 215 11:56 08.04.2022
2794 Clouds -5 1013 93 10000 3.6 330 10:33 08.04.2022
2795 Clouds -5 1013 93 10000 4.63 320 09:38 08.04.2022
2796 Clouds -5 1013 86 10000 5.14 320 08:44 08.04.2022
2797 Clouds -11 1015 96 10000 1.39 287 06:55 08.04.2022
2798 Clouds -5 1013 93 10000 4.12 300 05:18 08.04.2022
2799 Snow -5 1013 86 10000 6.69 320 01:27 08.04.2022
2800 Snow -5 1013 86 10000 6.71 320 00:25 08.04.2022
2801 Clouds -5 1013 85 10000 7.15 330 22:59 07.04.2022
2802 Snow -4 1013 86 10000 7.2 330 22:39 07.04.2022
2803 Snow -4 1013 86 10000 7.2 330 22:21 07.04.2022
2804 Clouds -5 1013 92 10000 5.36 330 21:53 07.04.2022
2805 Snow -4 1013 93 10000 5.66 330 21:19 07.04.2022
2806 Snow -3 1012 93 10000 3.09 360 20:37 07.04.2022
2807 Snow -3 1012 93 10000 2.06 0 18:48 07.04.2022
2808 Clouds -3 1012 93 8000 2.06 170 17:27 07.04.2022
2809 Clouds -4 1012 93 2000 2.57 130 16:45 07.04.2022
2810 Clouds -4 1012 93 2000 2.57 130 16:23 07.04.2022
2811 Clouds -6 1015 88 2381 5.08 300 14:50 07.04.2022
2812 Clouds -6 1013 93 10000 2.57 320 13:43 07.04.2022
2813 Clouds -7 1016 92 10000 3.58 330 12:58 07.04.2022
2814 Clouds -6 1014 93 10000 4.12 320 11:40 07.04.2022
2815 Snow -6 1014 93 9000 4.12 340 09:42 07.04.2022
2816 Snow -6 1014 100 7000 4.63 330 08:38 07.04.2022
2817 Clouds -5 1017 90 8304 4.82 324 06:57 07.04.2022
2818 Clouds -5 1016 100 1459 4.47 320 02:58 07.04.2022
2819 Snow -4 1016 100 9000 4.63 320 02:28 07.04.2022
2820 Snow -3 1015 93 10000 3.6 330 00:42 07.04.2022
2821 Clouds -2 1015 92 555 2.24 340 22:54 06.04.2022
2822 Clouds -2 1015 92 555 2.24 340 22:54 06.04.2022
2823 Snow -2 1015 93 5000 2.68 340 22:30 06.04.2022
2824 Fog -2 1015 100 5000 3.09 340 21:45 06.04.2022
2825 Clouds -2 1015 100 10000 3.6 320 20:41 06.04.2022
2826 Clouds -1 1014 100 4782 0.89 20 19:59 06.04.2022
2827 Clouds -1 1015 92 2978 0.89 360 18:53 06.04.2022
2828 Clouds -1 1015 93 10000 1.03 360 18:34 06.04.2022
2829 Clouds -1 1014 93 10000 2.06 10 17:35 06.04.2022
2830 Fog -2 1014 100 300 3.09 330 16:39 06.04.2022
2831 Fog -1 1014 93 300 3.09 360 15:49 06.04.2022
2832 Fog -1 1014 93 300 3.09 360 15:30 06.04.2022
2833 Fog -2 1014 100 400 3.6 20 13:31 06.04.2022
2834 Fog -2 1015 100 300 3.6 360 12:28 06.04.2022
2835 Clouds -6 1017 96 10000 2.75 20 10:57 06.04.2022
2836 Mist -2 1015 100 2000 4.63 10 10:32 06.04.2022
2837 Mist -2 1015 100 2700 3.6 10 09:46 06.04.2022
2838 Clouds -2 1015 93 10000 3.6 360 08:39 06.04.2022
2839 Clouds -2 1016 100 8244 2.68 360 07:57 06.04.2022
2840 Clouds -2 1016 100 10000 2.06 320 05:23 06.04.2022
2841 Clouds -1 1016 93 10000 3.6 10 00:20 06.04.2022
2842 Clouds -1 1016 93 10000 2.57 360 23:47 05.04.2022
2843 Clouds 0 1016 93 10000 2.06 290 21:48 05.04.2022
2844 Clouds 0 1016 93 10000 2.06 290 21:48 05.04.2022
2845 Clouds 0 1016 86 10000 2.24 290 20:58 05.04.2022
2846 Clouds 1 1016 86 10000 2.57 290 20:23 05.04.2022
2847 Clouds 0 1015 93 10000 1.54 30 18:28 05.04.2022
2848 Clouds 0 1014 93 10000 1.03 300 17:21 05.04.2022
2849 Clouds 0 1014 93 10000 1.54 270 16:42 05.04.2022
2850 Clouds -1 1013 92 10000 1.79 260 15:51 05.04.2022
2851 Fog -1 1013 93 10000 2.06 260 15:30 05.04.2022
2852 Clouds -1 1012 93 10000 4.12 20 13:46 05.04.2022
2853 Clouds -5 1014 87 10000 0.89 14 12:33 05.04.2022
2854 Clouds -1 1011 93 10000 3.6 30 11:43 05.04.2022
2855 Clouds -1 1011 93 10000 3.6 30 11:24 05.04.2022
2856 Clouds -1 1010 93 10000 4.63 30 09:31 05.04.2022
2857 Clouds -1 1009 93 10000 5.14 30 08:33 05.04.2022
2858 Clouds -5 1010 91 10000 1.06 337 03:50 05.04.2022
2859 Clouds 2 1007 80 10000 0.51 140 23:45 04.04.2022
2860 Clouds 1 1007 86 10000 1.03 220 22:38 04.04.2022
2861 Clouds 2 1006 80 10000 2.24 210 21:51 04.04.2022
2862 Clouds 2 1006 80 10000 2.57 210 21:20 04.04.2022
2863 Clouds 2 1006 80 10000 2.57 190 20:47 04.04.2022
2864 Clouds 2 1005 80 10000 1.03 330 19:30 04.04.2022
2865 Clouds 2 1005 80 10000 0.51 20 18:44 04.04.2022
2866 Clouds 3 1005 65 10000 2.06 20 17:33 04.04.2022
2867 Clouds 1 1005 86 10000 4.63 360 16:36 04.04.2022
2868 Clouds 2 1005 75 10000 1.03 20 15:34 04.04.2022
2869 Clouds 0 1005 93 10000 1.54 70 14:49 04.04.2022
2870 Clouds 0 1005 93 10000 1.54 70 14:31 04.04.2022
2871 Clouds 1 1005 80 10000 0.51 0 13:18 04.04.2022
2872 Clouds 0 1005 80 10000 1.54 10 11:29 04.04.2022
2873 Clouds 1 1005 75 10000 0 0 10:49 04.04.2022
2874 Clouds 0 1005 86 10000 0 0 07:36 04.04.2022
2875 Clear 1 1006 86 10000 4.12 40 03:18 04.04.2022
2876 Clear 2 1007 87 10000 4.63 60 23:48 03.04.2022
2877 Clear 3 1007 81 10000 5.66 40 22:31 03.04.2022
2878 Clouds 2 1008 87 10000 5.14 40 21:37 03.04.2022
2879 Clouds 2 1008 87 10000 4.12 40 20:40 03.04.2022
2880 Clouds 2 1008 87 10000 4.12 50 19:45 03.04.2022
2881 Clouds 2 1009 87 10000 6.17 50 18:31 03.04.2022
2882 Clouds 2 1009 87 10000 6.17 40 17:44 03.04.2022
2883 Clouds 0 1009 87 10000 4.92 40 16:50 03.04.2022
2884 Clouds 1 1009 93 10000 5.14 40 16:31 03.04.2022
2885 Clouds 1 1009 93 10000 3.6 50 14:38 03.04.2022
2886 Clouds 2 1010 87 10000 1.03 120 13:45 03.04.2022
2887 Clouds 0 1010 100 10000 1.03 70 12:38 03.04.2022
2888 Clouds 0 1011 94 10000 4.02 50 10:58 03.04.2022
2889 Clouds 1 1009 93 10000 0.51 0 09:36 03.04.2022
2890 Clouds 0 1008 100 10000 1.54 360 07:37 03.04.2022
2891 Snow 0 1007 93 10000 2.57 200 04:37 03.04.2022
2892 Snow 1 1005 86 10000 1.03 170 00:41 03.04.2022
2893 Clouds 0 1004 86 10000 1.34 190 22:57 02.04.2022
2894 Clouds 0 1003 87 10000 2.24 180 21:58 02.04.2022
2895 Clouds 1 1003 93 10000 2.57 180 21:36 02.04.2022
2896 Clouds 1 1003 93 10000 2.57 180 21:18 02.04.2022
2897 Clouds 2 1002 80 10000 2.24 210 19:53 02.04.2022
2898 Clouds 3 1002 70 10000 3.09 10 18:23 02.04.2022
2899 Clouds 1 1003 84 10000 1.85 239 17:53 02.04.2022
2900 Clouds 4 1003 65 10000 3.09 40 16:25 02.04.2022
2901 Clouds 3 1003 70 10000 3.6 30 15:21 02.04.2022
2902 Clouds 2 1003 75 10000 4.12 10 14:49 02.04.2022
2903 Clouds 2 1003 75 10000 1.54 40 13:36 02.04.2022
2904 Clouds 1 1004 80 10000 1.54 360 12:47 02.04.2022
2905 Clouds 2 1004 75 10000 0.51 0 11:31 02.04.2022
2906 Clouds 2 1004 69 10000 0.51 100 09:30 02.04.2022
2907 Clouds -2 1005 75 10000 3.21 97 06:51 02.04.2022
2908 Clouds -2 1005 75 10000 3.21 97 06:51 02.04.2022
2909 Clouds 2 1005 69 10000 1.34 10 03:53 02.04.2022
2910 Clouds 0 1007 79 10000 2.73 40 23:58 01.04.2022
2911 Clouds 2 1005 64 10000 3.6 30 23:30 01.04.2022
2912 Clouds 2 1005 69 10000 2.67 15 21:52 01.04.2022
2913 Clouds 0 1005 74 10000 4.47 40 20:52 01.04.2022
2914 Clouds 1 1005 75 10000 4.63 40 20:30 01.04.2022
2915 Clouds 1 1006 80 10000 4.12 30 19:37 01.04.2022
2916 Clouds 0 1007 80 10000 5.81 40 18:51 01.04.2022
2917 Clouds 0 1008 74 10000 5.81 30 17:59 01.04.2022
2918 Clouds 1 1008 75 10000 6.17 30 17:34 01.04.2022
2919 Clouds 0 1010 86 10000 6.71 50 15:42 01.04.2022
2920 Clouds -1 1010 86 10000 8.23 40 14:39 01.04.2022
2921 Clouds -1 1011 86 10000 3.09 50 13:35 01.04.2022
2922 Clouds -2 1012 93 10000 6.69 20 12:33 01.04.2022
2923 Fog -2 1012 93 10000 6.69 20 11:44 01.04.2022
2924 Clouds -2 1013 93 10000 2.06 0 10:19 01.04.2022
2925 Clouds -2 1013 100 10000 5.14 40 09:30 01.04.2022
2926 Clouds -5 1015 87 10000 2.94 42 06:55 01.04.2022
2927 Clouds -6 1016 88 10000 2.79 54 04:54 01.04.2022
2928 Clouds -2 1015 100 10000 1.54 0 04:36 01.04.2022
2929 Clouds -5 1017 88 10000 0.7 134 01:59 01.04.2022
2930 Clouds -1 1015 86 10000 2.06 20 00:46 01.04.2022
2931 Clouds 1 1014 80 10000 3.09 10 22:20 31.03.2022
2932 Clouds 1 1014 80 10000 3.09 30 21:37 31.03.2022
2933 Clouds 4 1014 60 10000 0.51 330 20:43 31.03.2022
2934 Clouds 4 1014 60 10000 0.51 330 20:25 31.03.2022
2935 Clouds 3 1013 74 10000 0.45 350 18:57 31.03.2022
2936 Clouds 0 1013 77 10000 2.24 360 17:55 31.03.2022
2937 Clouds 0 1012 93 10000 3.6 10 16:45 31.03.2022
2938 Clouds 0 1014 76 10000 4.47 350 15:54 31.03.2022
2939 Clouds 0 1012 93 10000 4.63 350 15:22 31.03.2022
2940 Clouds -1 1012 93 10000 1.54 20 14:44 31.03.2022
2941 Clouds -3 1012 100 10000 5.14 20 13:27 31.03.2022
2942 Clouds -3 1011 93 10000 6.17 20 11:30 31.03.2022
2943 Clouds -3 1011 93 10000 4.63 10 10:19 31.03.2022
2944 Clouds -3 1010 93 10000 4.63 30 09:19 31.03.2022
2945 Clouds -4 1009 93 10000 5.66 0 07:31 31.03.2022
2946 Fog -4 1010 93 10000 7.2 20 01:27 31.03.2022
2947 Fog -3 1009 93 10000 5.66 360 23:23 30.03.2022
2948 Clouds -3 1010 92 10000 6.71 20 21:54 30.03.2022
2949 Fog -3 1010 93 6000 6.71 20 21:27 30.03.2022
2950 Fog -2 1010 93 6000 5.66 10 20:32 30.03.2022
2951 Fog -3 1010 93 1500 7.72 20 19:43 30.03.2022
2952 Fog -3 1010 93 2000 6.69 10 18:41 30.03.2022
2953 Clouds -5 1011 100 10000 6.71 20 17:50 30.03.2022
2954 Clouds -5 1011 100 10000 6.71 20 16:58 30.03.2022
2955 Fog -4 1011 100 2000 7.15 20 16:39 30.03.2022
2956 Fog -4 1012 93 400 7.2 20 15:47 30.03.2022
2957 Snow -5 1011 100 400 7.2 10 14:22 30.03.2022
2958 Snow -5 1012 93 500 6.17 40 13:20 30.03.2022
2959 Clouds -5 1012 93 2600 6.69 20 12:19 30.03.2022
2960 Snow -5 1012 93 750 5.66 20 10:48 30.03.2022
2961 Clouds -6 1013 100 450 5.14 360 09:30 30.03.2022
2962 Clouds -11 1013 93 10000 3.12 16 07:59 30.03.2022
2963 Clouds -5 1013 93 300 4.12 360 06:32 30.03.2022
2964 Snow -5 1013 93 350 6.69 10 05:38 30.03.2022
2965 Fog -5 1013 100 1200 6.17 20 01:45 30.03.2022
2966 Clear -5 1014 92 10000 4.92 10 22:38 29.03.2022
2967 Clouds -4 1014 93 10000 5.14 10 21:47 29.03.2022
2968 Clear -5 1015 92 10000 4.47 360 20:55 29.03.2022
2969 Snow -4 1014 93 600 4.63 360 20:25 29.03.2022
2970 Snow -4 1014 100 300 4.12 350 19:27 29.03.2022
2971 Clear -5 1014 92 10000 4.02 350 18:53 29.03.2022
2972 Snow -4 1015 93 400 5.14 360 17:40 29.03.2022
2973 Clouds -4 1015 92 10000 4.02 360 16:59 29.03.2022
2974 Snow -4 1015 93 1500 4.12 360 16:25 29.03.2022
2975 Snow -4 1016 93 800 4.63 360 15:20 29.03.2022
2976 Snow -4 1016 93 1200 4.12 360 14:43 29.03.2022
2977 Snow -5 1016 100 400 4.12 350 13:33 29.03.2022
2978 Clouds -10 1017 86 10000 3.09 39 11:58 29.03.2022
2979 Clouds -11 1017 86 10000 3.32 44 10:59 29.03.2022
2980 Clouds -11 1018 86 10000 3.25 46 09:51 29.03.2022
2981 Clouds -4 1018 100 5000 3.6 20 08:43 29.03.2022
2982 Clouds -3 1018 93 10000 4.63 10 06:21 29.03.2022
2983 Clear -2 1019 93 10000 1.54 90 02:27 29.03.2022
2984 Clouds 0 1019 80 10000 3.6 190 23:26 28.03.2022
2985 Clouds 0 1019 80 10000 3.6 190 23:26 28.03.2022
2986 Clear -4 1019 82 10000 1.78 42 22:57 28.03.2022
2987 Clouds -1 1019 93 10000 5.66 190 22:31 28.03.2022
2988 Clouds -1 1019 93 10000 6.71 200 21:38 28.03.2022
2989 Clouds 0 1018 86 10000 6.71 200 20:32 28.03.2022
2990 Clouds 1 1018 75 10000 5.14 200 19:48 28.03.2022
2991 Clouds 1 1018 75 10000 5.14 200 19:30 28.03.2022
2992 Clouds 2 1018 64 10000 2.57 170 18:44 28.03.2022
2993 Clouds 3 1017 56 10000 1.54 360 17:41 28.03.2022
2994 Clouds 4 1017 52 10000 0 0 16:48 28.03.2022
2995 Clear -4 1019 79 10000 1.53 61 14:56 28.03.2022
2996 Clouds 1 1016 60 10000 1.54 120 14:23 28.03.2022
2997 Clouds -1 1016 69 10000 0.51 20 13:18 28.03.2022
2998 Clouds -1 1015 69 10000 1.54 160 11:43 28.03.2022
2999 Clouds -7 1016 74 10000 2.93 111 09:55 28.03.2022
3000 Clouds -1 1014 69 10000 0 0 09:21 28.03.2022
3001 Clouds 0 1014 64 10000 1.03 0 08:39 28.03.2022
3002 Clouds 0 1014 64 10000 1.03 0 08:18 28.03.2022
3003 Clouds 1 1013 55 10000 1.54 170 06:31 28.03.2022
3004 Clouds 0 1009 59 10000 1.54 170 00:30 28.03.2022
3005 Clouds 1 1008 64 10000 0.51 0 22:35 27.03.2022
3006 Clouds 2 1007 60 10000 1.03 190 21:43 27.03.2022
3007 Clouds 2 1007 60 10000 1.03 190 21:18 27.03.2022
3008 Clouds 3 1007 44 10000 1.03 0 20:24 27.03.2022
3009 Clouds 2 1007 48 10000 1.03 240 19:37 27.03.2022
3010 Clouds 2 1007 48 10000 1.54 0 18:44 27.03.2022
3011 Clouds 2 1007 48 10000 1.54 0 18:23 27.03.2022
3012 Clear 3 1007 38 10000 1.54 170 17:35 27.03.2022
3013 Clear -5 1010 72 10000 2.32 50 15:51 27.03.2022
3014 Clouds -8 1010 76 10000 2.42 80 13:58 27.03.2022
3015 Clouds -3 1009 63 10000 1.54 80 13:20 27.03.2022
3016 Clouds -4 1009 58 10000 1.54 130 11:35 27.03.2022
3017 Clouds -3 1008 63 10000 11.32 40 09:37 27.03.2022
3018 Clouds -3 1010 50 10000 8.75 60 07:31 27.03.2022
3019 Clouds -4 1014 68 10000 9.26 50 03:45 27.03.2022
3020 Clouds -4 1016 63 10000 8.75 40 00:26 27.03.2022
3021 Clouds -3 1017 54 10000 8.23 40 22:49 26.03.2022
3022 Clouds -5 1017 62 10000 6.71 40 21:57 26.03.2022
3023 Clouds -4 1017 63 10000 6.71 50 21:30 26.03.2022
3024 Clouds -4 1018 68 10000 7.72 50 19:32 26.03.2022
3025 Clouds -4 1018 68 10000 7.72 50 19:32 26.03.2022
3026 Clouds -3 1019 63 10000 4.12 40 18:40 26.03.2022
3027 Clouds -4 1019 74 10000 4.12 50 17:36 26.03.2022
3028 Clouds -4 1019 68 10000 4.12 50 16:34 26.03.2022
3029 Clouds -4 1019 68 10000 3.6 30 15:39 26.03.2022
3030 Clouds -5 1019 73 10000 1.34 50 13:56 26.03.2022
3031 Clouds -5 1019 74 10000 1.54 50 13:20 26.03.2022
3032 Clouds -12 1021 85 10000 2.94 60 11:50 26.03.2022
3033 Clouds -7 1019 86 10000 2.06 90 10:48 26.03.2022
3034 Clouds -6 1019 79 10000 1.03 60 08:50 26.03.2022
3035 Clouds -7 1018 86 10000 2.06 50 06:39 26.03.2022
3036 Clouds -8 1018 86 10000 1.54 100 05:30 26.03.2022
3037 Clouds -6 1017 73 10000 1.54 60 01:47 26.03.2022
3038 Clouds -5 1016 68 10000 2.57 60 22:21 25.03.2022
3039 Clouds -8 1018 81 10000 1.24 5 20:58 25.03.2022
3040 Clouds -4 1016 63 10000 2.57 50 20:26 25.03.2022
3041 Clouds -4 1016 68 10000 1.54 10 19:19 25.03.2022
3042 Clouds -3 1016 63 10000 2.57 30 18:34 25.03.2022
3043 Clouds -3 1016 54 10000 3.09 40 17:29 25.03.2022
3044 Clouds -1 1016 47 10000 1.54 130 16:27 25.03.2022
3045 Clouds -2 1016 43 10000 0.51 230 15:33 25.03.2022
3046 Clouds -5 1016 50 10000 0 0 13:29 25.03.2022
3047 Clouds -7 1016 68 10000 1.54 100 11:21 25.03.2022
3048 Clouds -8 1015 86 10000 1.54 90 09:31 25.03.2022
3049 Clouds -15 1018 73 10000 2.41 117 08:50 25.03.2022
3050 Clouds -8 1015 67 10000 0.51 110 07:42 25.03.2022
3051 Clouds -15 1017 70 10000 3.17 106 06:59 25.03.2022
3052 Clouds -7 1014 58 10000 2.06 180 02:37 25.03.2022
3053 Clouds -12 1016 78 10000 1.96 25 22:59 24.03.2022
3054 Clouds -8 1014 73 10000 5.14 360 22:19 24.03.2022
3055 Clouds -11 1015 77 10000 2.78 348 20:58 24.03.2022
3056 Clouds -7 1014 63 10000 7.2 60 19:49 24.03.2022
3057 Clouds -7 1014 63 10000 7.2 40 18:45 24.03.2022
3058 Clouds -7 1015 63 10000 6.71 50 17:36 24.03.2022
3059 Clouds -7 1015 63 10000 6.71 50 17:36 24.03.2022
3060 Clouds -7 1016 63 10000 6.71 40 16:33 24.03.2022
3061 Clouds -12 1019 70 10000 3.34 17 14:52 24.03.2022
3062 Clouds -8 1017 62 10000 9.26 60 14:22 24.03.2022
3063 Clouds -9 1018 67 10000 7.72 50 13:34 24.03.2022
3064 Clouds -19 1020 85 10000 3.7 42 12:24 24.03.2022
3065 Clouds -21 1021 88 10000 3.44 23 11:27 24.03.2022
3066 Clouds -21 1021 91 10000 3.85 36 09:28 24.03.2022
3067 Clouds -21 1021 91 10000 3.85 36 08:34 24.03.2022
3068 Clouds -22 1022 96 10000 3.65 23 05:36 24.03.2022
3069 Clouds -20 1022 98 10000 3.47 11 00:38 24.03.2022
3070 Clear -10 1021 73 10000 5.66 350 22:21 23.03.2022
3071 Clouds -9 1021 67 10000 5.66 10 21:24 23.03.2022
3072 Clouds -9 1021 67 10000 6.69 360 20:36 23.03.2022
3073 Clouds -9 1021 73 10000 6.17 10 19:28 23.03.2022
3074 Clear -10 1022 78 10000 7.15 10 17:52 23.03.2022
3075 Clear -10 1022 78 10000 7.15 10 17:25 23.03.2022
3076 Clear -11 1023 73 10000 6.17 360 15:43 23.03.2022
3077 Clouds -11 1023 85 10000 6.17 360 14:47 23.03.2022
3078 Clouds -11 1023 85 10000 7.2 10 13:31 23.03.2022
3079 Clouds -20 1025 99 10000 4.2 358 11:33 23.03.2022
3080 Snow -11 1024 85 10000 7.72 350 08:41 23.03.2022
3081 Clouds -18 1026 98 10000 4.35 353 05:50 23.03.2022
3082 Clouds -17 1027 98 9320 4.83 340 02:50 23.03.2022
3083 Clouds -12 1025 92 10000 8.23 340 00:27 23.03.2022
3084 Clouds -11 1024 85 5619 7.15 350 21:52 22.03.2022
3085 Clouds -11 1024 85 10000 7.2 350 21:23 22.03.2022
3086 Clouds -10 1024 85 10000 5.66 340 20:29 22.03.2022
3087 Clouds -10 1023 85 10000 5.14 340 19:27 22.03.2022
3088 Clouds -10 1023 85 10000 5.14 340 18:49 22.03.2022
3089 Clouds -10 1023 85 10000 5.14 350 17:44 22.03.2022
3090 Clouds -10 1024 85 10000 4.92 350 16:58 22.03.2022
3091 Clouds -10 1022 79 10000 5.66 350 15:48 22.03.2022
3092 Clouds -10 1022 79 10000 5.66 350 15:21 22.03.2022
3093 Clouds -10 1022 67 10000 5.14 350 14:45 22.03.2022
3094 Clouds -10 1021 61 10000 4.02 360 13:52 22.03.2022
3095 Clouds -11 1021 67 10000 4.12 360 12:34 22.03.2022
3096 Clouds -10 1020 79 10000 4.63 360 11:24 22.03.2022
3097 Clouds -11 1019 67 10000 5.66 360 09:42 22.03.2022
3098 Clouds -10 1019 67 10000 4.12 40 07:44 22.03.2022
3099 Clouds -19 1021 80 10000 3 34 04:29 22.03.2022
3100 Clouds -20 1021 82 10000 2.97 34 02:52 22.03.2022
3101 Clouds -11 1019 79 10000 5.66 10 23:19 21.03.2022
3102 Clouds -11 1019 73 10000 5.66 30 21:39 21.03.2022
3103 Clouds -11 1019 67 10000 5.14 50 20:45 21.03.2022
3104 Clouds -11 1019 67 10000 5.14 50 20:24 21.03.2022
3105 Clouds -11 1019 67 10000 5.14 40 19:48 21.03.2022
3106 Clouds -11 1019 67 10000 5.14 40 19:22 21.03.2022
3107 Clouds -11 1020 67 10000 5.14 60 17:36 21.03.2022
3108 Clear -15 1022 69 10000 4 356 16:59 21.03.2022
3109 Clouds -11 1020 67 10000 7.72 50 16:36 21.03.2022
3110 Clouds -12 1020 72 10000 6.69 20 15:45 21.03.2022
3111 Clouds -12 1021 67 10000 6.17 30 14:47 21.03.2022
3112 Clouds -13 1021 72 10000 5.66 20 13:27 21.03.2022
3113 Clear -22 1023 84 10000 3.3 28 12:31 21.03.2022
3114 Clear -24 1024 86 10000 3.36 39 11:39 21.03.2022
3115 Clear -25 1024 89 10000 3.48 44 09:54 21.03.2022
3116 Clear -25 1025 91 10000 3.4 45 07:54 21.03.2022
3117 Clouds -26 1025 93 10000 3.32 46 06:31 21.03.2022
3118 Clouds -25 1025 97 10000 3.08 48 02:33 21.03.2022
3119 Clouds -14 1024 78 4800 1.03 320 23:32 20.03.2022
3120 Clouds -14 1023 72 10000 0 0 22:42 20.03.2022
3121 Clouds -14 1023 72 10000 0 0 21:49 20.03.2022
3122 Clouds -14 1023 72 10000 0 0 21:20 20.03.2022
3123 Clouds -14 1023 66 10000 0 0 20:42 20.03.2022
3124 Clear -19 1025 87 10000 2.02 336 19:57 20.03.2022
3125 Clouds -14 1022 66 10000 0 0 19:26 20.03.2022
3126 Clouds -18 1024 84 10000 2.02 337 17:51 20.03.2022
3127 Clouds -14 1022 66 10000 1.03 250 17:29 20.03.2022
3128 Clouds -18 1024 85 10000 2.25 343 16:52 20.03.2022
3129 Clouds -20 1024 90 10000 2.1 353 15:27 20.03.2022
3130 Snow -15 1021 72 10000 1.03 270 13:49 20.03.2022
3131 Snow -15 1021 78 10000 0 0 12:22 20.03.2022
3132 Clouds -25 1023 96 10000 2.17 43 10:55 20.03.2022
3133 Snow -16 1019 78 10000 1.03 340 08:42 20.03.2022
3134 Clouds -16 1018 78 10000 4.63 320 06:55 20.03.2022
3135 Clouds -15 1018 66 10000 3.6 340 04:23 20.03.2022
3136 Clouds -15 1017 72 10000 3.09 350 01:29 20.03.2022
3137 Clouds -15 1017 72 10000 2.06 310 00:37 20.03.2022
3138 Clouds -15 1016 72 10000 3.09 340 23:19 19.03.2022
3139 Clouds -15 1015 72 10000 1.54 300 21:27 19.03.2022
3140 Clouds -15 1015 72 10000 2.57 300 20:39 19.03.2022
3141 Clouds -15 1017 71 10000 1.79 330 18:58 19.03.2022
3142 Clouds -14 1014 72 10000 2.06 330 18:23 19.03.2022
3143 Clouds -15 1014 85 10000 2.57 340 17:35 19.03.2022
3144 Snow -15 1013 85 10000 2.57 340 15:43 19.03.2022
3145 Snow -15 1012 85 10000 4.12 320 14:34 19.03.2022
3146 Clouds -20 1015 97 6543 1.36 337 12:59 19.03.2022
3147 Snow -15 1010 85 10000 5.14 300 12:39 19.03.2022
3148 Clouds -21 1015 99 3228 1.42 331 11:51 19.03.2022
3149 Snow -14 1009 85 6000 4.12 330 10:45 19.03.2022
3150 Clouds -18 1011 94 4123 1.43 205 06:51 19.03.2022
3151 Snow -11 1004 62 1300 9.77 150 03:24 19.03.2022
3152 Clouds -12 1004 67 2100 9.77 150 02:29 19.03.2022
3153 Clouds -13 1004 66 10000 6.17 160 23:44 18.03.2022
3154 Clouds -13 1004 66 10000 4.12 190 22:28 18.03.2022
3155 Clouds -13 1003 61 10000 4.12 220 21:45 18.03.2022
3156 Clouds -13 1002 71 945 5.81 230 19:51 18.03.2022
3157 Clouds -13 1002 72 10000 6.17 230 19:21 18.03.2022
3158 Clouds -13 1000 78 208 7.6 220 17:52 18.03.2022
3159 Snow -12 1000 85 10000 8.23 220 16:49 18.03.2022
3160 Snow -12 999 85 700 6.17 200 15:32 18.03.2022
3161 Snow -12 999 79 2000 5.14 200 14:23 18.03.2022
3162 Clouds -13 999 85 10000 5.66 230 12:36 18.03.2022
3163 Snow -12 1000 95 120 3.45 156 10:53 18.03.2022
3164 Snow -10 996 85 550 7.2 210 09:30 18.03.2022
3165 Snow -10 996 92 500 6.69 200 08:32 18.03.2022
3166 Snow -10 996 85 800 8.23 200 06:35 18.03.2022
3167 Clouds -11 997 85 135 7.6 180 02:57 18.03.2022
3168 Snow -12 996 85 300 12.35 160 00:39 18.03.2022
3169 Snow -12 997 79 1000 10.29 160 23:38 17.03.2022
3170 Snow -12 997 72 2000 10.8 160 22:25 17.03.2022
3171 Snow -12 997 67 1800 7.72 130 21:48 17.03.2022
3172 Snow -12 997 67 1800 7.72 130 21:26 17.03.2022
3173 Snow -13 997 72 5000 8.23 140 20:45 17.03.2022
3174 Clouds -13 999 78 126 6.71 150 19:50 17.03.2022
3175 Clouds -13 997 78 5000 6.71 150 19:32 17.03.2022
3176 Snow -14 997 85 1000 8.23 170 18:49 17.03.2022
3177 Snow -14 997 85 500 10.29 160 17:18 17.03.2022
3178 Snow -15 997 85 1200 3.09 160 15:44 17.03.2022
3179 Snow -15 997 85 1200 3.09 160 15:26 17.03.2022
3180 Snow -16 997 85 1000 1.03 60 14:38 17.03.2022
3181 Clouds -19 1000 83 9093 3.6 106 12:55 17.03.2022
3182 Snow -17 996 85 5000 0 0 12:37 17.03.2022
3183 Snow -17 996 85 1500 3.6 280 11:30 17.03.2022
3184 Snow -16 994 85 750 4.63 270 10:32 17.03.2022
3185 Snow -17 993 85 1600 1.54 270 08:40 17.03.2022
3186 Snow -17 993 85 2000 0 0 07:36 17.03.2022
3187 Snow -17 992 85 900 3.09 250 05:48 17.03.2022
3188 Snow -17 990 78 6000 5.14 110 01:37 17.03.2022
3189 Clouds -24 993 90 10000 2.7 81 23:57 16.03.2022
3190 Clouds -23 993 86 10000 2.34 65 22:51 16.03.2022
3191 Clouds -18 989 85 10000 3.09 70 22:33 16.03.2022
3192 Snow -17 989 78 4000 2.06 60 21:46 16.03.2022
3193 Snow -17 989 85 3000 1.03 40 20:28 16.03.2022
3194 Clouds -16 988 77 10000 0.89 280 19:22 16.03.2022
3195 Clouds -16 988 78 3000 1.03 280 18:40 16.03.2022
3196 Clouds -16 988 78 4000 0.51 290 17:43 16.03.2022
3197 Clouds -16 988 78 4000 0.51 290 17:25 16.03.2022
3198 Clouds -17 987 77 837 0.89 290 15:56 16.03.2022
3199 Snow -18 987 85 3000 2.57 240 14:31 16.03.2022
3200 Snow -18 987 85 4000 3.09 240 13:32 16.03.2022
3201 Clouds -21 989 92 9244 2.37 100 11:58 16.03.2022
3202 Clouds -18 987 85 3700 4.63 270 11:21 16.03.2022
3203 Snow -17 986 85 2500 4.12 270 10:28 16.03.2022
3204 Clouds -17 986 77 1313 5.81 230 09:55 16.03.2022
3205 Snow -16 985 78 2400 4.63 230 06:33 16.03.2022
3206 Snow -17 985 85 2500 4.47 250 02:29 16.03.2022
3207 Clouds -17 988 84 253 4.47 250 22:51 15.03.2022
3208 Snow -17 985 85 5000 4.63 250 22:32 15.03.2022
3209 Snow -17 984 78 1500 5.66 210 20:42 15.03.2022
3210 Snow -17 984 78 2000 5.66 240 19:27 15.03.2022
3211 Snow -17 983 85 6000 5.66 230 17:35 15.03.2022
3212 Clouds -17 983 77 6000 5.14 220 16:34 15.03.2022
3213 Snow -17 982 78 2000 5.14 270 15:21 15.03.2022
3214 Snow -17 982 78 3000 4.12 250 14:46 15.03.2022
3215 Snow -18 982 85 3100 4.12 260 13:55 15.03.2022
3216 Snow -18 982 85 4000 2.06 260 12:46 15.03.2022
3217 Snow -18 981 85 4000 3.6 290 11:32 15.03.2022
3218 Clouds -22 985 98 622 1.04 263 09:54 15.03.2022
3219 Snow -22 985 98 487 0.09 118 08:50 15.03.2022
3220 Snow -22 984 98 380 1.61 66 07:53 15.03.2022
3221 Clouds -17 980 78 10000 5.14 250 07:35 15.03.2022
3222 Clouds -17 980 85 10000 4.12 240 05:42 15.03.2022
3223 Clouds -22 982 96 528 4.48 231 23:58 14.03.2022
3224 Clouds -17 977 85 10000 6.17 220 23:25 14.03.2022
3225 Snow -17 976 85 1700 6.69 240 22:37 14.03.2022
3226 Snow -17 974 85 3500 7.72 250 21:49 14.03.2022
3227 Clouds -17 977 84 518 5.81 250 20:54 14.03.2022
3228 Snow -17 972 85 1800 6.17 250 20:23 14.03.2022
3229 Snow -17 970 85 2000 7.72 280 19:21 14.03.2022
3230 Snow -20 971 88 587 6.46 284 17:55 14.03.2022
3231 Snow -16 966 85 2000 12.35 300 17:25 14.03.2022
3232 Snow -16 964 92 600 12.35 300 16:26 14.03.2022
3233 Snow -15 959 92 400 10.8 310 14:41 14.03.2022
3234 Snow -20 959 97 135 10.03 308 12:54 14.03.2022
3235 Snow -18 955 96 131 11.18 314 10:57 14.03.2022
3236 Snow -17 953 95 134 11.57 319 09:56 14.03.2022
3237 Snow -11 951 85 550 11.83 320 09:23 14.03.2022
3238 Snow -16 951 94 137 11.23 319 08:57 14.03.2022
3239 Snow -11 950 92 1000 8.23 320 08:20 14.03.2022
3240 Snow -12 950 85 4300 4.63 20 05:46 14.03.2022
3241 Clouds -16 955 84 10000 7.21 346 02:51 14.03.2022
3242 Snow -14 960 66 3900 10.29 350 01:29 14.03.2022
3243 Clouds -17 970 83 10000 7.19 6 22:56 13.03.2022
3244 Clouds -13 974 78 10000 9.77 10 21:40 13.03.2022
3245 Clouds -13 974 78 10000 9.77 10 21:19 13.03.2022
3246 Clouds -13 976 78 10000 9.77 10 20:43 13.03.2022
3247 Clouds -13 976 78 10000 9.77 10 20:20 13.03.2022
3248 Snow -13 979 78 3000 7.72 10 19:40 13.03.2022
3249 Snow -13 979 78 3000 7.72 10 19:19 13.03.2022
3250 Clouds -13 982 78 10000 8.23 10 18:40 13.03.2022
3251 Snow -14 984 85 10000 9.77 350 17:47 13.03.2022
3252 Snow -14 984 85 10000 9.77 350 17:22 13.03.2022
3253 Snow -14 987 85 10000 7.2 350 16:43 13.03.2022
3254 Snow -14 987 85 10000 7.2 350 16:20 13.03.2022
3255 Clouds -14 989 78 10000 4.63 340 15:33 13.03.2022
3256 Clouds -18 995 93 10000 2.61 30 13:53 13.03.2022
3257 Clouds -14 993 85 10000 0.51 0 13:26 13.03.2022
3258 Clouds -15 994 78 10000 1.03 150 12:20 13.03.2022
3259 Clouds -16 995 85 5000 2.06 320 11:36 13.03.2022
3260 Snow -15 997 85 3200 0.51 0 10:48 13.03.2022
3261 Snow -15 997 85 3200 0.51 0 10:25 13.03.2022
3262 Snow -15 998 78 2800 2.06 300 09:41 13.03.2022
3263 Clouds -17 1001 95 2687 1.51 57 08:48 13.03.2022
3264 Clouds -17 1001 97 1418 1.38 29 07:57 13.03.2022
3265 Clouds -17 1002 97 550 0.38 212 05:55 13.03.2022
3266 Snow -15 998 85 10000 2.57 260 03:33 13.03.2022
3267 Snow -15 997 85 2900 4.63 290 00:48 13.03.2022
3268 Snow -14 995 85 8000 6.71 300 22:47 12.03.2022
3269 Clouds -13 992 84 200 8.49 290 20:59 12.03.2022
3270 Clouds -13 991 84 458 9.39 300 19:57 12.03.2022
3271 Snow -13 991 85 1200 9.77 300 19:39 12.03.2022
3272 Snow -12 990 72 3200 3.09 270 18:31 12.03.2022
3273 Clouds -12 989 72 10000 2.57 350 17:43 12.03.2022
3274 Clouds -13 988 78 10000 3.09 50 16:25 12.03.2022
3275 Clouds -13 988 66 10000 4.12 30 15:24 12.03.2022
3276 Clouds -13 988 60 1360 5.81 20 14:52 12.03.2022
3277 Clouds -13 988 65 1028 6.71 360 13:53 12.03.2022
3278 Clouds -14 988 56 10000 7.2 340 12:25 12.03.2022
3279 Clouds -15 988 71 790 6.71 10 11:51 12.03.2022
3280 Clouds -14 988 72 10000 6.69 10 11:20 12.03.2022
3281 Clouds -20 991 96 1166 2.58 3 09:59 12.03.2022
3282 Clouds -14 989 72 10000 8.75 10 09:39 12.03.2022
3283 Clouds -21 991 95 4368 2.28 16 07:51 12.03.2022
3284 Clouds -13 989 78 10000 7.2 30 05:44 12.03.2022
3285 Clouds -23 994 94 10000 2.64 55 00:24 12.03.2022
3286 Clouds -13 991 72 10000 4.63 10 23:37 11.03.2022
3287 Clouds -21 994 92 10000 2.77 61 21:55 11.03.2022
3288 Clouds -19 994 91 8936 2.7 66 20:59 11.03.2022
3289 Clouds -13 991 72 10000 5.66 330 20:40 11.03.2022
3290 Clouds -13 991 72 10000 5.66 330 20:19 11.03.2022
3291 Clouds -12 991 72 10000 5.66 340 19:28 11.03.2022
3292 Clouds -18 994 83 10000 3.07 34 17:50 11.03.2022
3293 Clouds -13 992 78 10000 6.17 40 17:21 11.03.2022
3294 Clouds -19 995 83 10000 3.18 21 15:57 11.03.2022
3295 Clouds -13 992 85 10000 4.63 340 15:29 11.03.2022
3296 Clouds -23 995 88 10000 3.03 45 13:28 11.03.2022
3297 Clouds -24 996 86 10000 3.12 40 12:30 11.03.2022
3298 Clouds -25 996 86 10000 3.21 43 11:57 11.03.2022
3299 Clouds -25 996 87 10000 3.19 45 10:30 11.03.2022
3300 Clouds -25 996 87 10000 3.13 46 09:33 11.03.2022
3301 Clouds -25 997 86 10000 3.13 52 08:27 11.03.2022
3302 Clouds -25 997 86 10000 3.13 52 07:46 11.03.2022
3303 Clouds -25 997 86 10000 3.14 37 06:25 11.03.2022
3304 Clouds -25 997 86 10000 3.33 42 04:24 11.03.2022
3305 Clouds -24 998 89 10000 2.99 50 00:39 11.03.2022
3306 Clouds -22 998 90 10000 3.04 32 22:32 10.03.2022
3307 Clouds -21 998 89 10000 2.84 16 21:53 10.03.2022
3308 Clouds -11 995 62 10000 4.63 50 21:24 10.03.2022
3309 Clouds -17 997 82 10000 2.51 359 20:18 10.03.2022
3310 Clouds -17 997 83 10000 2.28 352 18:56 10.03.2022
3311 Clouds -17 997 83 10000 2.16 349 17:50 10.03.2022
3312 Clouds -18 997 84 10000 1.94 1 16:52 10.03.2022
3313 Snow -11 994 67 10000 4.12 340 15:27 10.03.2022
3314 Clouds -21 997 89 10000 2.5 36 13:41 10.03.2022
3315 Clouds -23 996 91 10000 2.64 47 12:38 10.03.2022
3316 Clouds -23 996 94 10000 2.93 62 11:28 10.03.2022
3317 Clouds -22 995 96 10000 2.85 66 09:28 10.03.2022
3318 Clouds -22 994 97 8008 2.73 69 07:47 10.03.2022
3319 Clouds -22 994 98 5306 2.66 77 05:30 10.03.2022
3320 Clouds -20 992 94 2906 1.95 73 01:59 10.03.2022
3321 Clear -12 989 61 10000 6.69 10 23:32 09.03.2022
3322 Clouds -12 988 61 10000 7.2 20 22:20 09.03.2022
3323 Clouds -12 988 61 10000 7.2 10 21:36 09.03.2022
3324 Clouds -12 987 67 10000 7.2 10 20:36 09.03.2022
3325 Clouds -11 987 62 10000 6.69 10 18:41 09.03.2022
3326 Clouds -11 987 67 10000 7.2 10 17:28 09.03.2022
3327 Clouds -11 987 67 10000 7.72 30 16:36 09.03.2022
3328 Clouds -11 987 73 10000 8.23 20 15:32 09.03.2022
3329 Clouds -19 990 85 10000 2.9 13 13:58 09.03.2022
3330 Clouds -21 991 89 10000 2.81 22 12:59 09.03.2022
3331 Clouds -22 991 90 10000 3.01 29 12:20 09.03.2022
3332 Clouds -22 991 90 10000 3.01 29 11:36 09.03.2022
3333 Clouds -22 991 91 10000 3.18 29 10:49 09.03.2022
3334 Clouds -21 991 90 10000 3.32 39 09:22 09.03.2022
3335 Clouds -21 991 90 10000 3.32 39 08:42 09.03.2022
3336 Clouds -9 991 67 10000 8.23 10 04:47 09.03.2022
3337 Clouds -16 995 85 10000 3.24 20 00:52 09.03.2022
3338 Clouds -9 994 67 10000 4.63 80 23:21 08.03.2022
3339 Clouds -8 994 67 10000 5.14 50 22:45 08.03.2022
3340 Clouds -8 994 67 10000 5.66 80 21:26 08.03.2022
3341 Clouds -12 997 77 10000 3.73 6 20:54 08.03.2022
3342 Clouds -8 995 72 10000 5.36 80 19:55 08.03.2022
3343 Clouds -7 996 68 10000 5.14 80 18:45 08.03.2022
3344 Clouds -7 996 68 10000 4.12 70 17:50 08.03.2022
3345 Clouds -7 997 68 10000 2.06 80 16:33 08.03.2022
3346 Clouds -8 997 79 7000 4.12 120 14:23 08.03.2022
3347 Clouds -10 998 92 8000 2.57 60 12:44 08.03.2022
3348 Clouds -10 999 92 1212 1.34 100 11:53 08.03.2022
3349 Snow -10 999 92 5000 1.54 100 11:34 08.03.2022
3350 Clouds -9 999 92 10000 1.54 110 10:22 08.03.2022
3351 Snow -10 1000 92 2600 1.54 90 08:28 08.03.2022
3352 Snow -8 1001 93 300 3.09 250 05:47 08.03.2022
3353 Snow -8 1002 93 1000 2.06 30 00:43 08.03.2022
3354 Snow -8 1003 86 2000 2.57 20 22:24 07.03.2022
3355 Snow -8 1003 86 1500 2.06 10 21:35 07.03.2022
3356 Clouds -8 1003 85 1173 1.34 300 20:54 07.03.2022
3357 Snow -8 1003 86 600 1.54 300 20:22 07.03.2022
3358 Clouds -7 1003 73 10000 3.09 220 19:41 07.03.2022
3359 Clouds -7 1003 79 10000 2.57 220 18:47 07.03.2022
3360 Clouds -7 1003 85 1947 4.47 240 17:58 07.03.2022
3361 Clouds -7 1003 73 1195 4.47 210 16:56 07.03.2022
3362 Snow -7 1003 73 10000 4.63 210 16:34 07.03.2022
3363 Snow -7 1002 86 10000 6.17 190 14:40 07.03.2022
3364 Snow -7 1002 93 7000 3.6 210 12:33 07.03.2022
3365 Snow -7 1002 93 2900 3.09 230 10:45 07.03.2022
3366 Snow -7 1002 93 2900 3.09 230 10:24 07.03.2022
3367 Snow -6 1000 73 1200 8.75 160 07:24 07.03.2022
3368 Snow -7 998 93 750 2.57 190 00:24 07.03.2022
3369 Snow -9 1001 95 98 2.92 197 23:58 06.03.2022
3370 Snow -7 998 86 3200 2.57 190 23:18 06.03.2022
3371 Snow -8 997 93 2400 3.09 220 22:24 06.03.2022
3372 Snow -10 999 94 142 6.67 237 20:56 06.03.2022
3373 Snow -7 994 86 3000 3.09 210 20:28 06.03.2022
3374 Snow -7 993 86 3500 3.6 210 19:31 06.03.2022
3375 Snow -7 992 86 1300 4.63 220 18:25 06.03.2022
3376 Snow -8 992 93 800 4.63 210 17:22 06.03.2022
3377 Snow -11 994 93 176 8.94 213 16:52 06.03.2022
3378 Snow -7 990 93 400 5.66 210 16:24 06.03.2022
3379 Snow -7 989 93 700 5.36 210 15:19 06.03.2022
3380 Snow -7 989 93 200 5.66 210 14:41 06.03.2022
3381 Snow -7 988 93 3500 6.17 200 13:47 06.03.2022
3382 Snow -7 987 93 800 7.2 210 12:36 06.03.2022
3383 Snow -8 985 93 150 8.75 210 11:30 06.03.2022
3384 Snow -7 983 93 100 8.75 200 10:30 06.03.2022
3385 Snow -12 988 91 293 11.27 206 08:51 06.03.2022
3386 Snow -7 981 93 150 8.75 200 08:27 06.03.2022
3387 Snow -7 979 93 1100 9.77 190 07:18 06.03.2022
3388 Snow -5 970 93 50 12.86 170 01:36 06.03.2022
3389 Snow -5 967 86 100 19.03 160 00:34 06.03.2022
3390 Snow -5 965 93 300 23.66 160 23:46 05.03.2022
3391 Snow -5 965 93 300 23.66 160 23:18 05.03.2022
3392 Snow -3 963 86 300 22.64 160 22:31 05.03.2022
3393 Snow -1 962 74 1900 20.58 160 21:24 05.03.2022
3394 Clouds -6 964 80 10000 18.14 161 19:59 05.03.2022
3395 Clouds -3 962 74 10000 11.16 170 18:57 05.03.2022
3396 Clouds -4 963 72 10000 15.38 159 18:36 05.03.2022
3397 Clouds 3 958 44 10000 8.94 70 16:58 05.03.2022
3398 Clouds 3 958 44 10000 9.26 70 16:18 05.03.2022
3399 Clouds -1 962 63 10000 5.36 20 14:53 05.03.2022
3400 Clouds -1 962 64 10000 5.66 20 14:35 05.03.2022
3401 Clouds -1 965 55 10000 5.14 40 13:37 05.03.2022
3402 Clouds -3 967 63 10000 6.69 50 12:33 05.03.2022
3403 Clouds -3 970 63 10000 6.69 40 11:20 05.03.2022
3404 Clouds 0 972 37 10000 9.26 80 10:48 05.03.2022
3405 Clouds -3 974 54 10000 8.75 40 09:28 05.03.2022
3406 Clouds -3 976 54 10000 9.26 40 08:24 05.03.2022
3407 Clouds -4 980 58 10000 5.66 30 06:29 05.03.2022
3408 Clouds -14 985 75 10000 4.04 51 04:54 05.03.2022
3409 Clouds -12 994 79 10000 4.84 79 23:59 04.03.2022
3410 Clouds -2 991 37 10000 6.17 110 22:45 04.03.2022
3411 Clouds -2 991 37 10000 6.17 110 22:24 04.03.2022
3412 Clouds -1 991 37 10000 3.6 0 21:42 04.03.2022
3413 Clouds 0 990 37 10000 5.66 110 20:36 04.03.2022
3414 Clouds -1 990 43 10000 5.14 0 19:36 04.03.2022
3415 Clouds -3 992 63 10000 12.83 154 18:54 04.03.2022
3416 Clouds 0 989 43 10000 8.75 160 18:33 04.03.2022
3417 Clouds 0 990 40 10000 5.14 140 17:29 04.03.2022
3418 Clouds -2 989 59 10000 3.09 90 15:48 04.03.2022
3419 Snow -3 990 80 10000 5.66 170 14:45 04.03.2022
3420 Clouds -5 988 58 10000 1.54 0 13:35 04.03.2022
3421 Snow -9 993 84 6178 3.74 149 11:59 04.03.2022
3422 Clouds -5 988 50 10000 9.26 70 11:37 04.03.2022
3423 Snow -14 992 71 8154 5.6 45 10:24 04.03.2022
3424 Clouds -8 990 53 10000 8.75 40 09:27 04.03.2022
3425 Clouds -18 993 74 10000 5.98 43 07:48 04.03.2022
3426 Clouds -19 996 79 10000 5.09 46 05:49 04.03.2022
3427 Clouds -18 1003 89 10000 3.82 68 01:23 04.03.2022
3428 Clouds -7 1002 53 10000 3.6 120 23:31 03.03.2022
3429 Clouds -7 1002 58 10000 3.09 160 22:18 03.03.2022
3430 Clouds -6 1003 53 10000 3.6 100 21:36 03.03.2022
3431 Clouds -6 1003 53 10000 3.6 110 20:45 03.03.2022
3432 Clouds -6 1002 53 10000 4.12 180 19:22 03.03.2022
3433 Clouds -5 1002 50 10000 3.09 130 18:26 03.03.2022
3434 Clouds -4 1002 46 10000 3.6 0 17:31 03.03.2022
3435 Clouds -6 1002 53 10000 5.14 140 16:41 03.03.2022
3436 Clouds -7 1002 58 10000 4.12 120 15:44 03.03.2022
3437 Clouds -8 1002 73 10000 5.14 140 14:44 03.03.2022
3438 Clouds -8 1002 73 10000 5.14 140 14:26 03.03.2022
3439 Clouds -8 1001 67 10000 6.17 190 12:35 03.03.2022
3440 Clouds -9 1000 73 10000 8.75 180 11:26 03.03.2022
3441 Snow -9 999 79 3900 9.77 180 10:38 03.03.2022
3442 Clouds -9 996 73 5000 9.77 200 08:43 03.03.2022
3443 Snow -12 998 90 640 8.67 193 06:58 03.03.2022
3444 Snow -9 993 79 2300 8.75 180 06:23 03.03.2022
3445 Snow -6 983 86 800 13.89 170 00:40 03.03.2022
3446 Snow -6 982 79 750 13.38 160 23:28 02.03.2022
3447 Snow -6 981 86 1700 9.77 180 22:44 02.03.2022
3448 Clouds -6 980 86 10000 9.26 180 21:23 02.03.2022
3449 Clouds -6 980 86 10000 9.26 180 21:23 02.03.2022
3450 Clouds -6 977 93 10000 12.86 190 20:30 02.03.2022
3451 Snow -5 976 93 4500 11.32 190 19:49 02.03.2022
3452 Snow -5 976 93 4500 11.32 190 19:30 02.03.2022
3453 Clouds -4 976 93 10000 9.26 180 18:39 02.03.2022
3454 Clouds -4 976 93 10000 9.26 180 18:39 02.03.2022
3455 Clouds -11 980 89 6224 4.28 190 17:50 02.03.2022
3456 Clouds -11 980 90 7669 4.65 189 16:59 02.03.2022
3457 Clouds -4 975 86 10000 5.66 190 16:41 02.03.2022
3458 Clouds -12 979 90 10000 2.33 246 14:42 02.03.2022
3459 Clouds -14 979 93 10000 1.78 216 13:24 02.03.2022
3460 Clouds -15 980 93 9695 0.25 239 12:42 02.03.2022
3461 Clouds -17 980 97 10000 1.6 327 11:40 02.03.2022
3462 Clouds -18 981 97 10000 0.99 337 11:21 02.03.2022
3463 Clouds -19 982 96 10000 0.5 41 09:41 02.03.2022
3464 Clouds -19 983 97 10000 0.57 95 08:54 02.03.2022
3465 Clouds -19 984 97 10000 1.48 311 07:28 02.03.2022
3466 Clouds -20 982 95 10000 2.31 337 06:40 02.03.2022
3467 Clouds -11 987 92 10000 10.29 40 01:32 02.03.2022
3468 Clouds -12 989 85 10000 8.23 360 23:49 01.03.2022
3469 Clouds -12 990 92 10000 8.23 360 22:45 01.03.2022
3470 Clouds -21 994 98 10000 3.97 359 21:58 01.03.2022
3471 Clouds -12 991 85 10000 6.17 360 21:24 01.03.2022
3472 Clouds -11 992 79 10000 6.69 10 20:30 01.03.2022
3473 Clouds -11 992 79 10000 6.69 10 20:30 01.03.2022
3474 Clouds -10 993 67 10000 6.17 10 19:28 01.03.2022
3475 Clouds -11 993 79 10000 7.2 10 18:49 01.03.2022
3476 Clouds -11 993 79 10000 7.2 10 18:19 01.03.2022
3477 Clouds -11 994 85 10000 7.2 10 17:22 01.03.2022
3478 Snow -11 995 85 10000 7.2 360 16:33 01.03.2022
3479 Clouds -11 995 85 10000 6.69 10 15:38 01.03.2022
3480 Clouds -11 995 85 10000 6.69 10 15:38 01.03.2022
3481 Clouds -11 996 85 10000 6.17 10 14:34 01.03.2022
3482 Clouds -20 998 93 10000 2.69 50 13:52 01.03.2022
3483 Clouds -21 998 94 10000 3.02 75 13:24 01.03.2022
3484 Clouds -22 998 94 10000 3.07 64 12:32 01.03.2022
3485 Snow -11 995 85 10000 4.63 340 10:36 01.03.2022
3486 Snow -11 995 79 10000 2.57 340 08:42 01.03.2022
3487 Clouds -18 998 96 5367 0.7 107 07:52 01.03.2022
3488 Clouds -11 995 79 10000 0.51 250 06:20 01.03.2022
3489 Snow -12 996 85 10000 1.03 240 02:44 01.03.2022
3490 Snow -12 995 85 10000 2.57 300 00:34 01.03.2022
3491 Clouds -12 995 79 10000 2.06 50 23:30 28.02.2022
3492 Clouds -12 995 79 10000 3.09 360 22:18 28.02.2022
3493 Clouds -12 995 72 10000 2.57 310 21:37 28.02.2022
3494 Clouds -17 997 92 8449 0.9 119 19:59 28.02.2022
3495 Clouds -12 994 79 10000 1.54 280 19:40 28.02.2022
3496 Clouds -12 994 79 10000 0.51 340 18:44 28.02.2022
3497 Clouds -13 994 85 10000 2.57 10 17:33 28.02.2022
3498 Snow -13 993 85 10000 2.57 330 16:43 28.02.2022
3499 Snow -13 994 85 10000 4.12 340 15:27 28.02.2022
3500 Snow -13 994 85 10000 3.6 340 14:32 28.02.2022
3501 Clouds -21 997 98 6690 1.27 42 13:48 28.02.2022
3502 Clouds -23 997 99 10000 1.78 56 12:48 28.02.2022
3503 Clouds -23 997 99 8628 2.49 48 11:58 28.02.2022
3504 Clouds -14 994 78 10000 1.54 140 11:18 28.02.2022
3505 Clouds -14 994 85 10000 2.06 260 10:21 28.02.2022
3506 Clouds -14 993 78 10000 1.54 260 09:36 28.02.2022
3507 Clouds -14 993 78 10000 1.54 270 08:48 28.02.2022
3508 Clouds -14 992 78 10000 2.06 300 07:43 28.02.2022
3509 Clouds -22 996 98 10000 1.37 71 05:52 28.02.2022
3510 Clouds -14 991 78 10000 2.57 340 04:30 28.02.2022
3511 Clouds -14 991 78 10000 2.57 340 04:30 28.02.2022
3512 Clouds -23 994 98 7053 0.33 115 00:34 28.02.2022
3513 Clouds -15 989 61 10000 2.06 360 22:38 27.02.2022
3514 Clouds -23 992 96 10000 1.52 352 21:55 27.02.2022
3515 Clouds -15 987 56 10000 3.6 360 21:35 27.02.2022
3516 Clouds -15 987 72 10000 5.14 360 20:41 27.02.2022
3517 Clouds -15 987 72 10000 5.14 360 20:18 27.02.2022
3518 Clouds -15 986 72 10000 4.63 350 19:36 27.02.2022
3519 Clouds -15 986 72 10000 4.63 350 19:18 27.02.2022
3520 Clouds -18 990 78 10000 3.04 356 17:57 27.02.2022
3521 Clouds -15 986 78 10000 7.2 350 17:34 27.02.2022
3522 Clouds -15 986 72 10000 6.69 360 16:22 27.02.2022
3523 Clouds -15 986 78 10000 4.63 360 14:29 27.02.2022
3524 Snow -16 986 85 10000 3.09 360 12:36 27.02.2022
3525 Clouds -16 985 78 10000 4.12 360 11:46 27.02.2022
3526 Clouds -16 985 72 10000 3.09 360 10:36 27.02.2022
3527 Clouds -24 989 91 10000 2.49 72 09:58 27.02.2022
3528 Clouds -16 984 66 10000 2.57 360 09:23 27.02.2022
3529 Clouds -17 983 71 10000 3.09 10 08:45 27.02.2022
3530 Clouds -17 983 78 10000 3.09 340 05:45 27.02.2022
3531 Clouds -17 983 78 10000 3.6 340 03:35 27.02.2022
3532 Clouds -24 989 90 10000 2.38 75 23:52 26.02.2022
3533 Clouds -17 984 60 10000 2.06 330 22:42 26.02.2022
3534 Clouds -16 984 66 10000 1.03 330 21:29 26.02.2022
3535 Clouds -16 984 60 10000 2.06 340 20:43 26.02.2022
3536 Clouds -21 988 85 10000 2.06 36 19:57 26.02.2022
3537 Clouds -15 984 66 10000 2.06 330 19:33 26.02.2022
3538 Clouds -15 984 61 10000 1.54 340 18:33 26.02.2022
3539 Clouds -15 983 61 10000 1.03 80 17:36 26.02.2022
3540 Clouds -15 983 56 10000 2.06 130 16:39 26.02.2022
3541 Clouds -16 983 66 10000 1.03 120 15:38 26.02.2022
3542 Clouds -16 983 66 10000 1.03 120 15:19 26.02.2022
3543 Clouds -17 984 71 10000 0 0 14:42 26.02.2022
3544 Clouds -17 984 71 10000 0 0 14:19 26.02.2022
3545 Clouds -25 988 87 10000 2.82 89 12:53 26.02.2022
3546 Clouds -25 988 86 10000 3.09 92 11:53 26.02.2022
3547 Clouds -18 983 78 10000 1.03 140 11:26 26.02.2022
3548 Clouds -18 983 78 10000 0.51 260 10:22 26.02.2022
3549 Clouds -18 983 78 10000 1.03 250 08:35 26.02.2022
3550 Clouds -18 982 78 10000 3.09 280 06:46 26.02.2022
3551 Clouds -19 983 78 10000 7.2 310 00:26 26.02.2022
3552 Clouds -19 983 84 10000 8.75 310 22:44 25.02.2022
3553 Snow -19 983 84 1800 8.75 320 21:37 25.02.2022
3554 Snow -19 983 84 1800 8.75 320 21:18 25.02.2022
3555 Snow -19 982 84 1600 9.77 320 20:31 25.02.2022
3556 Snow -22 986 90 492 6.52 337 18:35 25.02.2022
3557 Snow -18 982 85 800 6.17 350 17:21 25.02.2022
3558 Snow -17 982 78 1000 3.6 340 16:21 25.02.2022
3559 Snow -17 983 78 2000 4.63 350 15:42 25.02.2022
3560 Clouds -23 987 88 978 6.71 339 15:20 25.02.2022
3561 Snow -17 984 78 3000 5.14 360 14:41 25.02.2022
3562 Clouds -17 985 71 10000 3.09 360 13:36 25.02.2022
3563 Clouds -23 989 90 1625 6.3 339 12:55 25.02.2022
3564 Clouds -22 989 92 1223 5.7 342 11:28 25.02.2022
3565 Clouds -18 986 85 5000 6.69 330 10:29 25.02.2022
3566 Clouds -23 989 94 1099 5.13 342 09:57 25.02.2022
3567 Mist -18 987 78 3800 6.17 340 09:18 25.02.2022
3568 Mist -18 988 78 4100 6.69 340 07:41 25.02.2022
3569 Clouds -28 991 98 2959 3.14 27 05:49 25.02.2022
3570 Clouds -29 992 97 8731 3.54 31 04:32 25.02.2022
3571 Clouds -18 994 60 10000 6.69 10 23:47 24.02.2022
3572 Clear -27 998 95 10000 3.92 15 21:58 24.02.2022
3573 Clear -27 998 95 10000 3.92 15 21:58 24.02.2022
3574 Clouds -17 996 60 10000 7.2 360 21:39 24.02.2022
3575 Clouds -17 996 60 10000 7.2 360 21:19 24.02.2022
3576 Clouds -17 997 78 10000 7.2 10 19:42 24.02.2022
3577 Clouds -17 998 85 10000 8.23 10 18:44 24.02.2022
3578 Clouds -17 998 85 10000 8.23 10 18:19 24.02.2022
3579 Clouds -17 999 85 10000 6.69 350 17:34 24.02.2022
3580 Clouds -22 1002 88 10000 3.41 28 16:50 24.02.2022
3581 Clouds -17 1001 85 10000 8.23 10 16:24 24.02.2022
3582 Clouds -24 1005 91 10000 2.99 47 14:56 24.02.2022
3583 Clouds -16 1003 85 10000 6.17 10 14:36 24.02.2022
3584 Clouds -25 1006 92 10000 3.18 57 13:40 24.02.2022
3585 Clouds -26 1007 93 10000 3.41 67 13:21 24.02.2022
3586 Clouds -17 1007 78 3500 4.12 340 10:41 24.02.2022
3587 Clouds -17 1008 78 6000 3.6 340 09:40 24.02.2022
3588 Snow -16 1008 72 10000 3.09 320 08:42 24.02.2022
3589 Clouds -23 1012 94 10000 3.12 86 05:59 24.02.2022
3590 Clouds -21 1013 90 10000 2 77 02:59 24.02.2022
3591 Clouds -16 1012 60 10000 2.06 90 23:45 23.02.2022
3592 Clouds -20 1015 86 10000 1.9 65 21:53 23.02.2022
3593 Clouds -15 1012 61 10000 1.54 10 20:32 23.02.2022
3594 Clouds -20 1014 80 10000 1.52 4 19:55 23.02.2022
3595 Clouds -19 1015 76 10000 2.05 23 18:57 23.02.2022
3596 Clouds -20 1014 75 10000 1.89 14 17:46 23.02.2022
3597 Clouds -16 1012 60 10000 3.09 10 15:28 23.02.2022
3598 Clouds -16 1012 51 10000 3.09 360 13:34 23.02.2022
3599 Clouds -16 1012 60 10000 4.12 360 12:28 23.02.2022
3600 Clouds -22 1014 83 10000 1.27 56 10:55 23.02.2022
3601 Clouds -17 1010 71 10000 3.09 360 09:31 23.02.2022
3602 Clouds -17 1009 71 10000 3.6 360 08:28 23.02.2022
3603 Clouds -17 1008 78 4400 3.6 340 07:25 23.02.2022
3604 Clouds -17 1006 71 10000 2.57 340 02:22 23.02.2022
3605 Clouds -21 1007 91 4937 3.45 42 23:50 22.02.2022
3606 Snow -17 1004 71 7000 4.12 350 23:31 22.02.2022
3607 Clouds -16 1003 51 10000 6.17 360 22:28 22.02.2022
3608 Clouds -17 1002 60 10000 8.23 30 21:40 22.02.2022
3609 Clouds -17 1002 60 10000 8.23 30 21:19 22.02.2022
3610 Clouds -16 1001 51 10000 6.69 10 20:31 22.02.2022
3611 Clouds -21 1003 91 10000 4.06 347 19:56 22.02.2022
3612 Clouds -16 1000 51 10000 9.26 20 19:33 22.02.2022
3613 Clouds -17 999 60 10000 9.26 30 18:35 22.02.2022
3614 Clouds -17 998 60 10000 9.26 40 17:27 22.02.2022
3615 Clouds -23 1000 81 10000 3.74 8 16:55 22.02.2022
3616 Clouds -17 998 60 10000 8.23 10 16:20 22.02.2022
3617 Clouds -17 997 66 10000 8.75 20 15:30 22.02.2022
3618 Clouds -28 998 81 10000 3.55 31 14:28 22.02.2022
3619 Clouds -29 997 83 10000 4.01 16 11:38 22.02.2022
3620 Clouds -19 995 78 9000 7.72 10 09:44 22.02.2022
3621 Clouds -28 996 83 10000 3.94 38 07:30 22.02.2022
3622 Clouds -28 996 83 10000 4.34 40 06:54 22.02.2022
3623 Clouds -27 997 85 10000 3.8 39 02:50 22.02.2022
3624 Clear -26 999 87 10000 3.89 54 23:18 21.02.2022
3625 Clouds -16 997 72 10000 6.69 30 22:36 21.02.2022
3626 Clouds -16 996 85 10000 5.66 20 21:21 21.02.2022
3627 Clouds -21 1000 84 10000 3.62 35 18:56 21.02.2022
3628 Clouds -15 997 66 10000 4.63 10 18:37 21.02.2022
3629 Clouds -16 997 78 10000 5.66 10 16:23 21.02.2022
3630 Clouds -16 998 78 10000 6.17 10 14:23 21.02.2022
3631 Clouds -25 1002 90 10000 3.59 49 13:31 21.02.2022
3632 Clouds -25 1002 90 10000 3.59 49 13:31 21.02.2022
3633 Clouds -26 1004 91 10000 3.65 53 12:46 21.02.2022
3634 Clouds -27 1004 92 10000 3.69 51 12:21 21.02.2022
3635 Clouds -26 1005 93 10000 3.53 51 10:29 21.02.2022
3636 Clouds -25 1006 95 10000 3.41 55 07:48 21.02.2022
3637 Clouds -14 1007 85 5000 2.06 50 00:35 21.02.2022
3638 Snow -14 1008 85 4000 1.54 130 22:32 20.02.2022
3639 Snow -14 1008 92 1200 2.06 40 21:44 20.02.2022
3640 Snow -14 1008 92 1200 2.06 40 21:25 20.02.2022
3641 Snow -14 1008 92 2500 2.57 340 20:43 20.02.2022
3642 Clouds -15 1012 84 4249 2.24 330 19:51 20.02.2022
3643 Clouds -15 1011 84 1473 2.24 330 18:56 20.02.2022
3644 Snow -14 1009 85 300 2.57 330 18:37 20.02.2022
3645 Clouds -13 1009 84 1189 1.34 180 17:55 20.02.2022
3646 Snow -13 1009 85 1500 1.54 180 17:24 20.02.2022
3647 Snow -13 1009 85 1500 1.54 180 17:24 20.02.2022
3648 Clouds -13 1008 85 10000 2.57 160 15:27 20.02.2022
3649 Clouds -15 1008 71 10000 0.45 100 13:59 20.02.2022
3650 Snow -15 1007 66 2000 3.09 90 12:47 20.02.2022
3651 Clouds -15 1007 71 10000 1.34 80 11:55 20.02.2022
3652 Snow -15 1006 78 650 1.54 140 10:21 20.02.2022
3653 Snow -15 1005 78 2500 0.51 160 09:35 20.02.2022
3654 Snow -16 1002 78 3100 2.06 80 06:29 20.02.2022
3655 Clouds -15 995 78 10000 7.72 320 00:32 20.02.2022
3656 Clouds -15 995 78 10000 7.72 320 00:32 20.02.2022
3657 Snow -15 994 85 2900 6.71 320 23:33 19.02.2022
3658 Snow -15 993 85 1200 6.17 340 22:24 19.02.2022
3659 Snow -14 991 78 5000 5.14 360 21:45 19.02.2022
3660 Clouds -14 990 72 9000 6.17 340 20:28 19.02.2022
3661 Clouds -13 989 66 10000 5.66 360 19:34 19.02.2022
3662 Clouds -13 989 61 10000 6.69 10 18:40 19.02.2022
3663 Clouds -13 989 61 10000 6.69 10 18:40 19.02.2022
3664 Clouds -18 990 84 10000 2.24 9 17:57 19.02.2022
3665 Clouds -13 988 61 10000 7.72 30 17:21 19.02.2022
3666 Clouds -19 990 86 10000 2.71 34 15:59 19.02.2022
3667 Clouds -21 990 87 10000 2.88 14 14:54 19.02.2022
3668 Clouds -22 990 89 10000 3.16 25 13:57 19.02.2022
3669 Clouds -23 991 90 10000 3.34 54 11:53 19.02.2022
3670 Clouds -23 991 90 10000 3.31 55 10:54 19.02.2022
3671 Clouds -23 991 90 10000 3.58 65 08:57 19.02.2022
3672 Snow -13 988 66 10000 3.6 90 06:48 19.02.2022
3673 Clouds -13 991 61 10000 3.09 70 00:42 19.02.2022
3674 Snow -14 991 66 10000 2.06 0 22:28 18.02.2022
3675 Clouds -14 991 72 10000 3.09 40 21:22 18.02.2022
3676 Clouds -14 990 72 10000 3.09 20 20:18 18.02.2022
3677 Clouds -14 990 66 10000 4.63 50 19:25 18.02.2022
3678 Clouds -15 991 61 10000 4.63 20 18:29 18.02.2022
3679 Clouds -20 993 81 10000 2.22 38 17:56 18.02.2022
3680 Clouds -16 991 55 10000 5.14 360 16:19 18.02.2022
3681 Clouds -16 991 60 10000 5.14 360 14:19 18.02.2022
3682 Clouds -16 990 51 10000 6.17 360 13:45 18.02.2022
3683 Clouds -16 990 66 10000 6.69 10 12:48 18.02.2022
3684 Clouds -25 993 88 10000 3.44 27 11:56 18.02.2022
3685 Clouds -16 991 72 10000 6.69 10 10:42 18.02.2022
3686 Clouds -16 992 78 10000 4.63 360 07:21 18.02.2022
3687 Clouds -24 996 92 10000 3.4 37 05:52 18.02.2022
3688 Clouds -16 994 60 10000 4.12 340 05:34 18.02.2022
3689 Clouds -15 997 72 10000 6.69 80 22:20 17.02.2022
3690 Clouds -15 998 72 10000 7.2 80 21:38 17.02.2022
3691 Clouds -14 998 61 10000 6.69 80 20:43 17.02.2022
3692 Clouds -15 998 65 10000 5.81 70 19:55 17.02.2022
3693 Clouds -14 998 66 10000 6.17 70 19:22 17.02.2022
3694 Clouds -14 999 61 10000 5.14 80 18:29 17.02.2022
3695 Clouds -14 999 56 10000 4.63 90 17:42 17.02.2022
3696 Clouds -18 1002 77 10000 2.53 75 15:57 17.02.2022
3697 Clouds -15 999 61 10000 4.63 90 14:30 17.02.2022
3698 Clouds -15 999 56 10000 3.6 70 13:31 17.02.2022
3699 Clouds -21 1002 83 10000 2.79 75 11:52 17.02.2022
3700 Clouds -15 998 56 10000 5.14 40 10:20 17.02.2022
3701 Clouds -16 997 66 10000 5.14 30 07:45 17.02.2022
3702 Clouds -16 993 51 10000 6.69 30 23:23 16.02.2022
3703 Clouds -16 993 51 10000 8.75 40 22:36 16.02.2022
3704 Clouds -15 991 51 10000 8.23 30 20:22 16.02.2022
3705 Clouds -19 992 89 10000 3.26 6 18:56 16.02.2022
3706 Clouds -16 990 55 10000 7.72 20 18:34 16.02.2022
3707 Clouds -17 991 81 10000 3.26 26 17:24 16.02.2022
3708 Clouds -15 988 61 10000 6.17 30 15:23 16.02.2022
3709 Clouds -15 987 66 10000 4.12 40 13:46 16.02.2022
3710 Clouds -15 987 66 10000 5.14 60 12:26 16.02.2022
3711 Clouds -15 986 78 4800 5.14 60 11:46 16.02.2022
3712 Clouds -15 986 72 10000 5.14 70 10:35 16.02.2022
3713 Snow -15 985 72 6000 4.12 80 09:39 16.02.2022
3714 Clouds -16 985 78 2900 3.09 40 06:44 16.02.2022
3715 Snow -15 985 78 3500 3.6 20 02:47 16.02.2022
3716 Clouds -16 987 72 10000 2.57 10 22:34 15.02.2022
3717 Clouds -16 987 71 1544 1.34 330 21:50 15.02.2022
3718 Clouds -16 987 72 10000 1.54 330 21:30 15.02.2022
3719 Clouds -16 990 77 1134 1.79 350 20:58 15.02.2022
3720 Snow -16 987 78 10000 2.06 350 20:26 15.02.2022
3721 Snow -16 987 78 10000 3.6 330 19:45 15.02.2022
3722 Clouds -16 987 78 10000 3.6 330 18:26 15.02.2022
3723 Clouds -16 988 77 703 3.58 330 17:53 15.02.2022
3724 Clouds -16 988 78 10000 3.6 330 17:32 15.02.2022
3725 Clouds -16 989 78 10000 4.63 310 15:43 15.02.2022
3726 Clouds -16 989 78 10000 5.14 320 14:31 15.02.2022
3727 Clouds -16 990 78 10000 3.6 320 13:25 15.02.2022
3728 Clouds -16 993 77 3077 2.68 340 11:41 15.02.2022
3729 Clouds -16 991 78 10000 3.09 340 10:30 15.02.2022
3730 Clouds -16 991 72 10000 3.6 310 08:48 15.02.2022
3731 Snow -15 991 72 10000 3.6 350 06:46 15.02.2022
3732 Clouds -15 994 61 10000 4.12 20 00:25 15.02.2022
3733 Clouds -19 997 94 9075 2.98 30 21:58 14.02.2022
3734 Snow -18 997 96 1208 2.97 20 20:54 14.02.2022
3735 Clouds -17 996 96 1341 2.62 14 19:52 14.02.2022
3736 Clouds -15 994 78 10000 5.14 350 19:30 14.02.2022
3737 Clouds -15 994 72 10000 5.14 340 18:24 14.02.2022
3738 Clouds -15 994 72 10000 5.14 340 18:24 14.02.2022
3739 Clouds -14 994 66 10000 6.69 330 17:31 14.02.2022
3740 Clouds -15 995 66 10000 3.6 350 16:49 14.02.2022
3741 Clouds -15 995 56 10000 3.09 330 15:42 14.02.2022
3742 Clouds -15 995 61 10000 1.54 80 13:36 14.02.2022
3743 Clouds -20 998 81 10000 2.82 107 12:59 14.02.2022
3744 Clouds -16 995 72 10000 2.57 60 12:32 14.02.2022
3745 Clouds -15 995 66 10000 3.09 360 11:39 14.02.2022
3746 Clouds -15 995 72 10000 1.54 10 10:22 14.02.2022
3747 Clouds -15 994 78 10000 2.06 340 08:32 14.02.2022
3748 Clouds -15 994 78 10000 2.06 310 07:26 14.02.2022
3749 Snow -14 994 85 3500 2.06 310 23:19 13.02.2022
3750 Snow -14 994 78 5000 2.06 260 22:41 13.02.2022
3751 Snow -14 994 78 5000 3.58 250 22:22 13.02.2022
3752 Clouds -14 993 78 10000 3.6 250 21:24 13.02.2022
3753 Clouds -13 993 78 10000 4.63 250 20:30 13.02.2022
3754 Clouds -13 991 92 10000 5.14 250 19:23 13.02.2022
3755 Snow -12 990 92 1500 5.14 240 18:42 13.02.2022
3756 Clouds -11 989 92 225 4.47 240 17:52 13.02.2022
3757 Clouds -8 985 92 144 10.73 250 15:54 13.02.2022
3758 Clouds -8 985 92 144 10.73 250 15:54 13.02.2022
3759 Snow -8 986 93 163 11.14 238 14:57 13.02.2022
3760 Clouds -5 985 79 2623 11.62 140 13:59 13.02.2022
3761 Clouds -4 987 74 3000 7.2 130 12:49 13.02.2022
3762 Clouds -5 989 74 10000 5.66 140 11:24 13.02.2022
3763 Clouds -6 991 73 10000 7.2 120 10:28 13.02.2022
3764 Clouds -5 992 54 10000 4.63 120 09:36 13.02.2022
3765 Clouds -8 996 86 10000 4.12 150 07:19 13.02.2022
3766 Clouds -10 1004 92 10000 0.51 0 00:35 13.02.2022
3767 Snow -9 1004 86 2500 1.54 260 23:39 12.02.2022
3768 Snow -9 1004 86 3000 3.09 220 22:33 12.02.2022
3769 Clouds -11 1007 84 5273 3.43 235 21:20 12.02.2022
3770 Snow -9 1004 86 3000 5.14 220 20:32 12.02.2022
3771 Snow -8 1004 86 2000 5.66 220 19:21 12.02.2022
3772 Clouds -8 1006 85 623 4.02 220 18:52 12.02.2022
3773 Snow -8 1003 86 3000 4.12 220 18:34 12.02.2022
3774 Clouds -7 1005 92 304 4.92 220 16:58 12.02.2022
3775 Snow -7 1001 93 5000 5.14 220 16:25 12.02.2022
3776 Snow -7 1001 93 5000 5.14 220 16:25 12.02.2022
3777 Clouds -7 1004 92 201 4.92 210 15:50 12.02.2022
3778 Snow -6 998 93 800 6.17 210 14:31 12.02.2022
3779 Snow -5 996 93 1000 8.75 200 13:19 12.02.2022
3780 Clouds 0 990 93 10000 19.03 160 10:41 12.02.2022
3781 Clouds 0 990 93 10000 20.58 160 09:39 12.02.2022
3782 Clouds 0 990 93 10000 20.58 160 09:20 12.02.2022
3783 Snow 0 990 93 1100 21.61 160 08:18 12.02.2022
3784 Snow 0 990 93 1100 21.61 160 08:18 12.02.2022
3785 Snow 2 993 64 1200 11.83 160 05:33 12.02.2022
3786 Snow 1 994 75 5000 4.63 140 04:27 12.02.2022
3787 Snow 1 995 69 10000 3.09 150 02:18 12.02.2022
3788 Snow 1 996 69 8000 11.83 160 22:37 11.02.2022
3789 Snow 1 996 69 8000 11.83 160 22:18 11.02.2022
3790 Snow -1 995 93 200 13.89 160 20:41 11.02.2022
3791 Snow -1 995 93 100 19.55 160 19:47 11.02.2022
3792 Snow -1 995 93 100 19.55 160 19:27 11.02.2022
3793 Snow -1 995 93 200 17.49 160 18:26 11.02.2022
3794 Snow -1 995 93 600 19.03 160 17:26 11.02.2022
3795 Snow 0 996 80 4000 15.43 160 16:26 11.02.2022
3796 Snow -1 997 69 10000 5.14 170 14:44 11.02.2022
3797 Snow -1 997 69 10000 5.14 170 14:23 11.02.2022
3798 Clouds -3 999 74 10000 8.91 152 13:59 11.02.2022
3799 Clouds -1 997 64 10000 7.72 170 13:39 11.02.2022
3800 Clouds 0 997 59 10000 8.23 160 12:19 11.02.2022
3801 Clouds 0 998 64 10000 10.29 150 10:24 11.02.2022
3802 Clouds -1 999 69 10000 4.12 160 08:49 11.02.2022
3803 Clouds -1 999 69 10000 4.12 160 08:28 11.02.2022
3804 Clouds -2 999 69 7000 5.14 160 07:34 11.02.2022
3805 Snow -2 1002 69 6000 9.26 160 02:40 11.02.2022
3806 Snow -2 1002 69 6000 9.26 160 02:40 11.02.2022
3807 Snow -2 1002 69 6000 9.26 160 02:19 11.02.2022
3808 Snow -3 1003 74 5000 6.71 160 23:36 10.02.2022
3809 Clouds -3 1003 79 10000 4.92 160 21:53 10.02.2022
3810 Snow -3 1003 80 2600 5.14 160 21:24 10.02.2022
3811 Snow -3 1004 80 3400 5.14 160 20:48 10.02.2022
3812 Snow -3 1004 80 1800 5.14 160 19:37 10.02.2022
3813 Snow -3 1004 80 1800 5.14 160 19:18 10.02.2022
3814 Snow -4 1004 93 100 6.17 160 17:39 10.02.2022
3815 Snow -4 1004 93 100 6.17 160 17:19 10.02.2022
3816 Snow -4 1005 93 100 5.66 160 16:20 10.02.2022
3817 Snow -4 1005 93 100 5.66 170 15:33 10.02.2022
3818 Snow -5 1006 100 400 4.63 190 14:49 10.02.2022
3819 Snow -5 1006 100 400 4.63 190 14:30 10.02.2022
3820 Snow -5 1007 93 800 3.09 200 13:33 10.02.2022
3821 Clouds -8 1008 100 204 3.58 350 12:51 10.02.2022
3822 Snow -8 1008 93 400 4.12 340 11:44 10.02.2022
3823 Snow -8 1008 93 400 4.12 340 11:25 10.02.2022
3824 Clouds -8 1008 93 10000 4.63 350 10:19 10.02.2022
3825 Clouds -8 1008 93 10000 3.6 350 09:25 10.02.2022
3826 Clouds -8 1007 93 10000 2.57 360 07:40 10.02.2022
3827 Clouds -7 1007 92 99 2.68 300 05:53 10.02.2022
3828 Clouds -5 1005 100 92 4.02 210 01:58 10.02.2022
3829 Clouds -5 1002 92 96 10.73 170 00:51 10.02.2022
3830 Snow -5 1002 93 100 10.8 170 00:29 10.02.2022
3831 Snow -5 1002 93 100 12.35 160 23:28 09.02.2022
3832 Snow -5 1002 93 150 13.38 160 22:45 09.02.2022
3833 Snow -5 1002 93 150 13.38 160 22:25 09.02.2022
3834 Snow -5 1001 93 100 14.92 160 21:38 09.02.2022
3835 Snow -5 1001 93 100 14.92 160 21:18 09.02.2022
3836 Snow -5 1001 86 300 17.49 160 20:41 09.02.2022
3837 Snow -5 1001 86 300 17.49 160 20:20 09.02.2022
3838 Snow -6 1002 93 300 19.03 160 19:38 09.02.2022
3839 Clouds -6 1002 93 300 24.18 160 17:43 09.02.2022
3840 Clouds -7 1004 85 1597 22.35 150 16:54 09.02.2022
3841 Clouds -7 1004 85 7307 22.35 150 15:55 09.02.2022
3842 Clouds -7 1004 86 300 22.64 150 15:19 09.02.2022
3843 Clouds -8 1008 73 10000 16.46 150 12:42 09.02.2022
3844 Clouds -8 1008 73 10000 16.46 150 12:42 09.02.2022
3845 Clouds -8 1008 62 10000 13.89 150 11:20 09.02.2022
3846 Snow -9 1009 62 800 13.89 150 10:32 09.02.2022
3847 Snow -10 1009 73 900 12.35 150 09:42 09.02.2022
3848 Snow -10 1009 73 900 12.35 150 09:20 09.02.2022
3849 Snow -10 1010 73 1900 9.77 150 08:26 09.02.2022
3850 Snow -11 1012 67 1900 10.29 150 05:30 09.02.2022
3851 Clouds -12 1013 55 10000 8.49 140 03:51 09.02.2022
3852 Clouds -13 1013 66 10000 8.75 160 01:33 09.02.2022
3853 Clouds -14 1013 66 10000 8.23 140 23:39 08.02.2022
3854 Clouds -18 1016 71 10000 5.31 107 22:53 08.02.2022
3855 Clouds -14 1013 56 10000 8.23 120 22:22 08.02.2022
3856 Clouds -19 1017 73 10000 5.18 104 21:52 08.02.2022
3857 Clouds -15 1013 66 10000 7.72 120 21:21 08.02.2022
3858 Clouds -19 1017 76 10000 4.64 103 20:56 08.02.2022
3859 Clouds -15 1013 66 10000 8.23 120 20:23 08.02.2022
3860 Clouds -18 1016 75 10000 4.88 102 18:53 08.02.2022
3861 Clouds -15 1013 60 10000 7.15 120 17:50 08.02.2022
3862 Snow -15 1013 72 2800 7.2 140 16:42 08.02.2022
3863 Snow -16 1013 78 1500 5.66 130 15:39 08.02.2022
3864 Clouds -20 1016 79 10000 4.28 111 14:57 08.02.2022
3865 Snow -16 1013 78 3500 4.12 170 13:30 08.02.2022
3866 Snow -16 1013 78 5000 0.51 90 12:20 08.02.2022
3867 Snow -17 1013 78 3500 1.03 100 10:47 08.02.2022
3868 Clouds -17 1013 71 10000 1.54 130 09:46 08.02.2022
3869 Clouds -17 1012 78 10000 0 0 08:34 08.02.2022
3870 Clouds -18 1011 60 10000 2.06 290 05:46 08.02.2022
3871 Clouds -17 1010 55 10000 3.09 280 04:40 08.02.2022
3872 Clouds -17 1010 55 10000 3.09 280 04:22 08.02.2022
3873 Clouds -18 1009 78 10000 3.6 290 03:36 08.02.2022
3874 Clouds -18 1009 78 10000 3.6 290 03:18 08.02.2022
3875 Clouds -17 1009 77 382 4.47 280 02:59 08.02.2022
3876 Clouds -17 1009 78 10000 4.63 280 02:36 08.02.2022
3877 Clouds -17 1009 78 10000 4.63 280 02:18 08.02.2022
3878 Clouds -17 1008 85 10000 4.63 300 01:44 08.02.2022
3879 Clouds -17 1008 85 10000 4.63 300 01:24 08.02.2022
3880 Clouds -17 1007 84 401 4.92 300 00:55 08.02.2022
3881 Clouds -17 1007 85 10000 5.14 300 00:19 08.02.2022
3882 Clouds -17 1006 85 10000 6.17 300 23:42 07.02.2022
3883 Clouds -17 1006 85 10000 6.17 300 23:18 07.02.2022
3884 Clouds -17 1009 84 2745 4.92 310 22:59 07.02.2022
3885 Clouds -17 1005 85 10000 5.14 310 22:18 07.02.2022
3886 Snow -17 1004 85 2000 5.66 300 21:49 07.02.2022
3887 Snow -17 1004 85 2000 5.66 300 21:27 07.02.2022
3888 Snow -17 1003 85 2000 6.17 290 20:43 07.02.2022
3889 Snow -17 1003 85 2000 6.17 290 20:24 07.02.2022
3890 Snow -17 1002 85 2000 5.66 300 19:47 07.02.2022
3891 Snow -17 1001 85 1500 6.17 300 18:34 07.02.2022
3892 Snow -16 999 85 500 7.2 300 17:18 07.02.2022
3893 Snow -16 999 92 400 6.71 300 16:46 07.02.2022
3894 Snow -15 998 85 1500 7.2 300 15:48 07.02.2022
3895 Clouds -15 995 92 1394 6.71 330 13:51 07.02.2022
3896 Snow -15 995 92 600 6.71 330 13:26 07.02.2022
3897 Clouds -15 993 84 1034 4.92 350 11:58 07.02.2022
3898 Clouds -14 993 85 1034 5.14 350 11:38 07.02.2022
3899 Clouds -15 992 84 1206 4.47 340 10:59 07.02.2022
3900 Snow -14 992 85 1500 4.63 340 10:41 07.02.2022
3901 Snow -14 992 85 1500 4.63 340 10:22 07.02.2022
3902 Clouds -13 991 85 10000 4.12 330 09:47 07.02.2022
3903 Clouds -13 991 85 10000 4.12 330 09:18 07.02.2022
3904 Clouds -13 990 85 4000 4.12 350 07:44 07.02.2022
3905 Snow -13 990 85 1100 3.09 340 06:34 07.02.2022
3906 Snow -14 989 85 1800 4.12 350 04:31 07.02.2022
3907 Clouds -13 987 56 10000 6.17 10 01:37 07.02.2022
3908 Clouds -15 988 54 10000 7.6 40 23:51 06.02.2022
3909 Clouds -15 988 56 10000 7.72 40 23:20 06.02.2022
3910 Clouds -15 988 51 10000 7.72 20 22:41 06.02.2022
3911 Clouds -15 989 66 6000 9.26 350 21:38 06.02.2022
3912 Clouds -15 989 66 6000 9.26 350 21:20 06.02.2022
3913 Clouds -15 988 78 10000 9.77 350 20:48 06.02.2022
3914 Clouds -15 988 78 10000 9.77 350 20:23 06.02.2022
3915 Clouds -14 989 56 10000 7.72 40 19:18 06.02.2022
3916 Clouds -14 991 72 10000 9.77 50 18:28 06.02.2022
3917 Clouds -14 992 72 10000 10.8 50 17:37 06.02.2022
3918 Clouds -19 996 74 10000 5.19 21 16:52 06.02.2022
3919 Clouds -15 994 78 10000 9.77 60 16:20 06.02.2022
3920 Clouds -14 995 78 10000 9.26 50 15:47 06.02.2022
3921 Clouds -14 995 78 10000 9.26 50 15:24 06.02.2022
3922 Clouds -14 996 66 10000 8.75 40 14:19 06.02.2022
3923 Clouds -15 998 66 10000 8.75 40 13:21 06.02.2022
3924 Clouds -15 999 72 10000 8.75 30 12:33 06.02.2022
3925 Clouds -14 1001 72 10000 6.69 360 10:37 06.02.2022
3926 Clouds -14 1001 61 10000 4.63 50 09:48 06.02.2022
3927 Clouds -14 1002 61 10000 4.63 60 08:41 06.02.2022
3928 Clouds -14 1003 72 10000 5.66 50 07:31 06.02.2022
3929 Snow -15 1005 85 10000 0 0 05:28 06.02.2022
3930 Snow -15 1005 85 10000 0 0 05:28 06.02.2022
3931 Snow -14 1006 85 1100 2.06 70 02:25 06.02.2022
3932 Snow -14 1007 85 1500 1.03 30 00:49 06.02.2022
3933 Snow -14 1007 85 1500 1.03 30 00:22 06.02.2022
3934 Clouds -13 1008 65 1461 2.68 240 21:59 05.02.2022
3935 Clouds -13 1007 72 10000 4.63 230 20:48 05.02.2022
3936 Clouds -13 1007 72 10000 4.63 230 20:23 05.02.2022
3937 Snow -13 1007 85 10000 5.14 180 19:44 05.02.2022
3938 Snow -13 1007 78 6000 4.63 230 18:45 05.02.2022
3939 Snow -14 1007 78 600 7.2 150 17:36 05.02.2022
3940 Snow -14 1007 78 8000 5.66 150 16:24 05.02.2022
3941 Snow -14 1007 85 6000 2.57 0 15:31 05.02.2022
3942 Clouds -15 1007 84 182 0.89 130 13:55 05.02.2022
3943 Snow -14 1006 85 1500 1.54 70 12:46 05.02.2022
3944 Snow -14 1006 85 900 1.54 60 11:47 05.02.2022
3945 Snow -14 1006 78 1800 2.06 330 10:44 05.02.2022
3946 Clouds -15 1006 77 1274 4.02 300 09:51 05.02.2022
3947 Clouds -15 1006 84 1867 4.02 240 08:51 05.02.2022
3948 Snow -14 1005 85 10000 4.63 250 07:27 05.02.2022
3949 Clouds -15 1005 77 4454 4.92 200 06:55 05.02.2022
3950 Snow -14 1003 85 1100 3.09 220 02:43 05.02.2022
3951 Snow -14 1003 78 550 3.09 220 01:18 05.02.2022
3952 Clouds -14 1002 56 10000 5.14 220 00:36 05.02.2022
3953 Clouds -14 1002 51 10000 5.66 220 23:33 04.02.2022
3954 Clouds -15 1001 77 2579 4.92 210 22:50 04.02.2022
3955 Snow -14 1000 85 10000 5.66 220 21:36 04.02.2022
3956 Snow -14 1000 85 10000 5.66 220 21:18 04.02.2022
3957 Snow -14 999 85 10000 5.66 220 20:38 04.02.2022
3958 Snow -14 998 85 1300 5.14 250 19:29 04.02.2022
3959 Snow -17 999 91 826 3.66 150 16:50 04.02.2022
3960 Snow -14 994 85 3500 6.69 240 15:33 04.02.2022
3961 Snow -14 992 85 1200 8.23 280 14:47 04.02.2022
3962 Snow -14 988 85 400 9.77 310 12:43 04.02.2022
3963 Snow -12 986 85 100 11.32 320 11:46 04.02.2022
3964 Snow -14 990 90 402 12.98 290 10:59 04.02.2022
3965 Snow -11 985 85 750 10.8 340 10:22 04.02.2022
3966 Snow -11 987 85 900 9.77 350 08:31 04.02.2022
3967 Snow -11 995 92 1100 2.06 250 04:45 04.02.2022
3968 Snow -10 996 79 4400 2.57 220 02:38 04.02.2022
3969 Snow -9 997 73 6000 3.6 210 00:18 04.02.2022
3970 Snow -10 1000 82 3792 9.63 211 22:52 03.02.2022
3971 Snow -10 1000 88 1401 9.46 213 21:59 03.02.2022
3972 Snow -8 996 93 400 4.12 200 21:37 03.02.2022
3973 Snow -7 995 93 1200 4.12 220 20:22 03.02.2022
3974 Snow -5 994 93 1400 4.12 210 19:49 03.02.2022
3975 Snow -5 994 93 1400 4.12 210 19:20 03.02.2022
3976 Snow -5 993 93 1800 3.6 220 18:24 03.02.2022
3977 Snow -4 993 93 1000 4.12 190 17:26 03.02.2022
3978 Snow -4 992 86 1000 12.86 160 15:38 03.02.2022
3979 Snow -4 992 86 1200 18.01 150 14:18 03.02.2022
3980 Snow -4 992 74 4000 14.4 150 12:32 03.02.2022
3981 Clouds -6 995 79 10000 4.92 100 08:59 03.02.2022
3982 Snow -6 995 79 3000 5.14 100 08:18 03.02.2022
3983 Clouds -15 1007 67 10000 6.29 75 00:59 03.02.2022
3984 Clouds -12 1006 56 10000 4.12 80 00:22 03.02.2022
3985 Clouds -12 1009 48 10000 3.09 80 22:41 02.02.2022
3986 Clouds -17 1013 71 10000 4.75 76 21:52 02.02.2022
3987 Clouds -13 1010 52 10000 4.63 100 21:29 02.02.2022
3988 Clouds -13 1012 47 10000 6.17 100 20:27 02.02.2022
3989 Clouds -13 1013 52 10000 5.66 110 19:48 02.02.2022
3990 Clouds -18 1016 78 10000 4.11 81 19:00 02.02.2022
3991 Clouds -13 1014 52 10000 5.14 100 18:25 02.02.2022
3992 Clouds -13 1016 61 10000 3.6 140 17:22 02.02.2022
3993 Clouds -18 1019 79 10000 4.03 89 16:59 02.02.2022
3994 Clouds -14 1018 66 10000 6.17 120 15:49 02.02.2022
3995 Snow -14 1019 78 3000 2.57 120 12:47 02.02.2022
3996 Clouds -19 1022 86 10000 3.43 115 11:51 02.02.2022
3997 Clouds -15 1020 72 10000 0.51 140 11:30 02.02.2022
3998 Snow -14 1019 78 5000 0 0 09:18 02.02.2022
3999 Snow -15 1022 95 208 1.75 150 04:57 02.02.2022
4000 Clouds -13 1017 72 10000 3.6 280 22:36 01.02.2022
4001 Snow -12 1018 85 4146 6.54 295 20:58 01.02.2022
4002 Clouds -12 1016 56 10000 3.6 280 19:39 01.02.2022
4003 Clouds -12 1015 85 10000 2.57 330 17:38 01.02.2022
4004 Snow -12 1015 85 10000 2.57 320 16:31 01.02.2022
4005 Clouds -12 1015 79 10000 2.57 270 13:27 01.02.2022
4006 Clouds -12 1015 79 10000 4.12 230 12:28 01.02.2022
4007 Snow -12 1014 92 1700 6.17 240 10:42 01.02.2022
4008 Snow -8 1008 93 4600 4.12 300 02:24 01.02.2022
4009 Snow -8 1004 93 1500 3.09 290 23:40 31.01.2022
4010 Snow -7 1001 63 3000 2.06 340 22:43 31.01.2022
4011 Clouds -8 1000 73 10000 4.12 350 21:38 31.01.2022
4012 Clouds -7 998 68 10000 6.17 330 20:44 31.01.2022
4013 Clouds -7 998 68 10000 6.17 330 20:24 31.01.2022
4014 Clouds -8 993 72 10000 2.68 340 18:54 31.01.2022
4015 Clouds -8 993 73 10000 3.09 340 18:20 31.01.2022
4016 Clouds -8 992 67 10000 3.6 20 17:25 31.01.2022
4017 Clouds -8 989 67 10000 4.12 340 16:25 31.01.2022
4018 Snow -12 988 92 479 2.39 24 14:54 31.01.2022
4019 Clouds -9 984 62 10000 3.09 60 13:43 31.01.2022
4020 Clouds -9 983 67 10000 3.6 30 12:38 31.01.2022
4021 Clouds -9 982 67 10000 4.63 30 11:34 31.01.2022
4022 Clouds -10 981 67 10000 5.66 20 10:49 31.01.2022
4023 Clouds -15 984 78 6031 4.18 15 09:45 31.01.2022
4024 Clouds -15 984 75 10000 4.15 28 08:58 31.01.2022
4025 Clouds -15 984 75 10000 4.15 28 08:38 31.01.2022
4026 Clouds -16 984 74 10000 5.07 17 08:19 31.01.2022
4027 Clouds -16 988 79 8396 5.92 15 06:18 31.01.2022
4028 Clouds -11 1004 73 10000 9.77 50 00:44 31.01.2022
4029 Clouds -11 1010 73 10000 7.2 60 22:38 30.01.2022
4030 Clouds -11 1010 73 10000 7.2 60 22:20 30.01.2022
4031 Clouds -11 1012 73 10000 5.66 90 21:38 30.01.2022
4032 Clouds -11 1012 73 10000 5.66 90 21:18 30.01.2022
4033 Clouds -11 1015 79 10000 4.63 110 20:45 30.01.2022
4034 Clouds -11 1015 79 10000 4.63 110 20:26 30.01.2022
4035 Snow -10 1017 85 3600 2.57 160 19:24 30.01.2022
4036 Snow -10 1018 79 3000 4.12 170 18:35 30.01.2022
4037 Clouds -10 1019 85 6016 7.15 180 17:53 30.01.2022
4038 Snow -10 1019 85 1000 7.2 180 17:20 30.01.2022
4039 Snow -9 1020 62 1000 7.2 210 16:37 30.01.2022
4040 Snow -9 1020 62 1000 7.2 210 16:37 30.01.2022
4041 Snow -9 1020 62 1000 7.2 210 16:19 30.01.2022
4042 Clouds -9 1021 62 10000 7.72 220 15:49 30.01.2022
4043 Clouds -9 1021 62 10000 7.72 220 15:31 30.01.2022
4044 Clouds -10 1020 62 10000 9.77 220 14:46 30.01.2022
4045 Snow -10 1020 79 8000 9.77 220 12:47 30.01.2022
4046 Clouds -10 1020 78 2414 10.73 220 11:53 30.01.2022
4047 Mist -11 1020 85 3500 10.8 220 10:29 30.01.2022
4048 Clouds -11 1019 78 3154 10.28 230 09:50 30.01.2022
4049 Clouds -11 1018 85 2112 9.39 220 08:52 30.01.2022
4050 Snow -11 1018 79 9000 10.29 200 07:28 30.01.2022
4051 Clouds -13 1014 84 5447 10.28 230 01:56 30.01.2022
4052 Clouds -13 1014 84 5447 10.28 230 01:56 30.01.2022
4053 Snow -12 1013 79 2300 7.2 220 00:22 30.01.2022
4054 Clouds -12 1010 66 10000 9.39 220 22:58 29.01.2022
4055 Clouds -12 1009 84 10000 5.81 230 21:49 29.01.2022
4056 Clouds -12 1009 84 10000 5.81 230 21:24 29.01.2022
4057 Snow -12 1009 85 1500 6.17 230 20:28 29.01.2022
4058 Snow -11 1007 85 1000 5.14 230 19:34 29.01.2022
4059 Clouds -10 1009 85 1525 7.6 190 18:52 29.01.2022
4060 Snow -11 1006 85 1500 8.23 220 18:18 29.01.2022
4061 Clouds -10 1007 85 211 7.6 190 17:28 29.01.2022
4062 Snow -11 1007 90 243 8.66 225 15:57 29.01.2022
4063 Clouds -10 1005 85 6000 7.2 200 14:23 29.01.2022
4064 Clouds -10 1004 79 10000 8.23 200 13:42 29.01.2022
4065 Clouds -10 1004 79 10000 8.23 200 13:23 29.01.2022
4066 Snow -10 1003 92 150 7.72 200 11:47 29.01.2022
4067 Snow -10 1003 92 150 7.72 200 11:24 29.01.2022
4068 Snow -9 1001 92 650 6.17 210 08:43 29.01.2022
4069 Clouds -10 1001 92 2187 4.92 220 06:55 29.01.2022
4070 Snow -5 996 93 150 5.14 200 00:35 29.01.2022
4071 Clouds -5 996 92 186 4.92 190 23:52 28.01.2022
4072 Clouds -5 996 92 223 5.36 190 22:50 28.01.2022
4073 Snow -5 996 93 350 5.66 190 22:21 28.01.2022
4074 Snow -5 995 93 50 8.75 180 21:36 28.01.2022
4075 Snow -5 995 86 300 10.8 170 20:29 28.01.2022
4076 Snow -5 995 86 300 13.89 170 19:29 28.01.2022
4077 Snow -4 995 68 1900 11.83 170 18:42 28.01.2022
4078 Clouds -4 997 63 10000 9.77 160 16:46 28.01.2022
4079 Clouds -4 997 63 10000 9.77 160 15:20 28.01.2022
4080 Clouds -5 998 53 10000 7.6 160 13:50 28.01.2022
4081 Clouds -5 998 58 10000 7.72 150 12:29 28.01.2022
4082 Clouds -5 999 58 10000 8.75 160 11:24 28.01.2022
4083 Clouds -7 1000 57 10000 7.15 130 09:52 28.01.2022
4084 Snow -9 1003 57 10000 5.66 170 07:44 28.01.2022
4085 Snow -9 1003 62 7000 8.23 170 06:44 28.01.2022
4086 Clouds -14 1008 75 10000 5.59 98 03:57 28.01.2022
4087 Clouds -11 1006 62 10000 1.03 0 02:31 28.01.2022
4088 Clouds -16 1009 79 10000 3.89 106 01:59 28.01.2022
4089 Snow -11 1006 62 3700 4.63 180 01:31 28.01.2022
4090 Clouds -12 1007 72 10000 1.54 100 22:48 27.01.2022
4091 Clouds -13 1007 78 10000 2.06 80 21:46 27.01.2022
4092 Clouds -13 1007 78 10000 2.06 80 21:28 27.01.2022
4093 Clouds -13 1007 85 10000 1.03 70 20:25 27.01.2022
4094 Clouds -13 1005 85 10000 4.12 290 18:26 27.01.2022
4095 Clouds -13 1005 85 10000 4.63 300 17:34 27.01.2022
4096 Snow -12 1001 85 5000 6.17 310 14:35 27.01.2022
4097 Snow -11 1000 85 2000 7.2 320 13:24 27.01.2022
4098 Snow -11 999 92 2000 9.77 330 12:39 27.01.2022
4099 Clouds -14 999 93 1342 4.65 343 09:56 27.01.2022
4100 Clouds -8 997 67 10000 7.2 340 08:49 27.01.2022
4101 Clouds -8 997 67 10000 7.2 340 08:28 27.01.2022
4102 Clouds -8 1000 45 10000 3.6 110 05:49 27.01.2022
4103 Snow -7 1005 63 6000 4.12 140 01:46 27.01.2022
4104 Snow -8 1006 73 2500 5.14 150 22:39 26.01.2022
4105 Snow -8 1010 93 149 3.31 186 21:55 26.01.2022
4106 Snow -8 1007 73 1500 8.23 160 21:31 26.01.2022
4107 Snow -9 1007 92 10000 9.77 190 20:35 26.01.2022
4108 Clouds -8 1010 71 10000 8.94 208 19:54 26.01.2022
4109 Clouds -8 1007 73 10000 9.77 190 19:19 26.01.2022
4110 Clouds -8 1007 86 1800 10.8 200 18:26 26.01.2022
4111 Clouds -9 1007 92 300 11.32 190 17:49 26.01.2022
4112 Clouds -9 1007 92 300 11.32 190 17:19 26.01.2022
4113 Clouds -9 1007 86 5000 11.32 190 16:27 26.01.2022
4114 Clouds -8 1006 86 2500 9.77 210 15:45 26.01.2022
4115 Snow -8 1004 79 10000 9.26 190 13:24 26.01.2022
4116 Snow -8 1002 93 1600 6.17 230 11:40 26.01.2022
4117 Snow -8 1001 93 1600 5.66 230 10:20 26.01.2022
4118 Snow -7 1000 86 2300 6.17 230 09:43 26.01.2022
4119 Snow -6 999 93 2700 5.14 220 07:32 26.01.2022
4120 Clouds -5 1003 79 177 2.24 170 01:53 26.01.2022
4121 Clouds -6 1005 85 8264 4.02 150 23:54 25.01.2022
4122 Clouds -5 1006 73 6256 8.05 160 22:50 25.01.2022
4123 Snow -5 1004 74 1200 8.23 160 22:21 25.01.2022
4124 Snow -5 1005 68 3000 6.17 160 21:41 25.01.2022
4125 Clouds -6 1005 79 5000 7.2 160 20:46 25.01.2022
4126 Clouds -6 1005 79 5000 7.2 160 20:22 25.01.2022
4127 Snow -6 1005 79 600 7.2 160 19:44 25.01.2022
4128 Snow -6 1006 86 900 5.66 150 18:24 25.01.2022
4129 Snow -6 1007 79 900 4.63 100 17:42 25.01.2022
4130 Snow -7 1008 86 2500 4.63 80 16:35 25.01.2022
4131 Snow -8 1009 86 10000 5.14 70 15:47 25.01.2022
4132 Snow -8 1009 86 10000 5.14 70 15:28 25.01.2022
4133 Clouds -8 1011 78 10000 4.92 60 14:57 25.01.2022
4134 Clouds -10 1010 92 10000 2.57 80 13:28 25.01.2022
4135 Snow -8 1009 86 5000 1.54 190 10:39 25.01.2022
4136 Snow -9 1011 89 684 2.09 184 08:34 25.01.2022
4137 Clouds -9 1010 86 1445 2.54 211 07:28 25.01.2022
4138 Clouds -8 1009 80 10000 3.26 229 06:29 25.01.2022
4139 Clouds -5 1007 92 4711 6.71 220 04:22 25.01.2022
4140 Snow -5 994 93 5000 6.69 220 23:37 24.01.2022
4141 Snow -5 994 93 5000 6.69 220 23:18 24.01.2022
4142 Clouds -5 995 92 4630 9.39 210 22:59 24.01.2022
4143 Snow -4 995 93 1400 9.77 210 22:41 24.01.2022
4144 Snow -4 998 91 449 7.23 219 21:52 24.01.2022
4145 Clouds -3 996 92 144 1.34 210 21:28 24.01.2022
4146 Snow -3 992 93 5000 1.54 210 20:29 24.01.2022
4147 Snow -3 995 96 154 6.1 205 19:39 24.01.2022
4148 Snow 0 994 96 158 1.34 210 19:20 24.01.2022
4149 Snow 0 991 59 10000 4.63 100 17:45 24.01.2022
4150 Snow 0 991 59 10000 4.63 100 17:23 24.01.2022
4151 Snow 0 991 55 10000 5.14 110 16:41 24.01.2022
4152 Snow 0 991 55 10000 5.14 110 16:18 24.01.2022
4153 Snow -1 993 69 10000 3.6 100 14:35 24.01.2022
4154 Snow -1 994 64 10000 5.66 100 12:40 24.01.2022
4155 Snow -1 994 64 10000 5.66 100 12:22 24.01.2022
4156 Snow -1 996 59 6000 6.17 110 10:27 24.01.2022
4157 Clouds -5 998 75 10000 5.65 102 09:48 24.01.2022
4158 Clouds -5 998 75 10000 5.34 102 08:30 24.01.2022
4159 Clouds -5 1001 76 10000 5.31 102 06:19 24.01.2022
4160 Clouds -5 1004 53 10000 4.92 100 01:30 24.01.2022
4161 Clouds -6 1004 75 10000 4.89 111 00:35 24.01.2022
4162 Clouds -6 1005 73 10000 5.18 102 23:52 23.01.2022
4163 Snow -4 1004 54 10000 5.14 100 22:32 23.01.2022
4164 Snow -5 1004 58 10000 4.63 100 21:49 23.01.2022
4165 Snow -5 1004 58 10000 4.63 100 21:25 23.01.2022
4166 Clouds -5 1005 68 10000 5.14 110 20:44 23.01.2022
4167 Snow -5 1005 68 10000 6.17 160 19:44 23.01.2022
4168 Clouds -7 1006 84 10000 4.65 99 18:51 23.01.2022
4169 Clouds -7 1007 83 10000 4.4 100 17:44 23.01.2022
4170 Clouds -6 1007 84 10000 4.29 116 16:47 23.01.2022
4171 Clouds -8 1007 84 10000 3.27 136 14:59 23.01.2022
4172 Clouds -9 1006 85 10000 3.38 171 14:25 23.01.2022
4173 Clouds -7 1004 75 10000 4.14 195 12:59 23.01.2022
4174 Clouds -7 1004 75 10000 4.14 195 12:36 23.01.2022
4175 Snow -6 1003 75 10000 5.12 209 12:18 23.01.2022
4176 Clouds -6 1002 72 6438 6.46 220 11:23 23.01.2022
4177 Snow -6 1001 73 10000 8.97 237 10:28 23.01.2022
4178 Snow -6 1001 73 10000 8.97 237 09:51 23.01.2022
4179 Snow -6 999 77 10000 12.86 235 08:59 23.01.2022
4180 Snow -10 999 84 6573 6.03 94 05:58 23.01.2022
4181 Clouds -10 998 72 10000 5.36 160 01:53 23.01.2022
4182 Clouds -10 998 72 10000 5.36 160 01:53 23.01.2022
4183 Clouds -10 998 72 10000 5.36 160 01:33 23.01.2022
4184 Clouds -10 998 72 10000 5.36 160 00:23 23.01.2022
4185 Clouds -10 998 72 10000 5.36 160 23:57 22.01.2022
4186 Clouds -10 999 79 3500 6.17 160 22:46 22.01.2022
4187 Clouds -10 999 85 1900 6.17 160 21:36 22.01.2022
4188 Snow -10 999 85 600 5.66 180 20:23 22.01.2022
4189 Snow -10 999 92 2000 5.66 210 19:21 22.01.2022
4190 Snow -10 999 92 5000 5.66 210 18:25 22.01.2022
4191 Clouds -10 1000 79 10000 4.12 180 17:41 22.01.2022
4192 Clouds -10 1003 78 187 3.58 180 16:56 22.01.2022
4193 Clouds -10 1003 85 166 2.61 131 15:53 22.01.2022
4194 Clouds -10 1000 85 10000 0 0 15:32 22.01.2022
4195 Snow -15 1002 91 1182 2.75 124 13:59 22.01.2022
4196 Snow -16 1003 91 1749 2.81 122 12:55 22.01.2022
4197 Snow -10 1000 73 8000 0 0 12:30 22.01.2022
4198 Clouds -17 1002 87 3092 3.14 110 11:49 22.01.2022
4199 Clouds -18 1002 86 10000 3.54 105 10:38 22.01.2022
4200 Clouds -18 1002 87 10000 3.51 102 10:19 22.01.2022
4201 Clouds -18 1002 88 10000 3.3 95 08:54 22.01.2022
4202 Clouds -18 1002 88 10000 3.2 92 08:27 22.01.2022
4203 Clouds -18 1002 89 10000 3.1 72 05:20 22.01.2022
4204 Clouds -17 1002 91 10000 2.77 78 01:58 22.01.2022
4205 Snow -11 1000 85 3000 1.03 140 23:48 21.01.2022
4206 Snow -10 1000 79 1500 1.54 180 22:44 21.01.2022
4207 Snow -10 1000 85 5000 1.54 120 20:45 21.01.2022
4208 Snow -10 1000 85 500 0 0 18:41 21.01.2022
4209 Clouds -11 999 85 10000 0 0 17:45 21.01.2022
4210 Clouds -11 1000 92 1000 0.51 210 15:48 21.01.2022
4211 Clouds -10 999 85 215 0.45 170 14:37 21.01.2022
4212 Clouds -10 1000 79 10000 1.54 210 12:42 21.01.2022
4213 Clouds -9 999 73 10000 4.12 240 11:29 21.01.2022
4214 Clouds -9 999 67 10000 4.63 240 10:27 21.01.2022
4215 Clouds -10 1001 84 2160 2.43 219 08:50 21.01.2022
4216 Clouds -10 1000 82 3487 2.92 229 07:37 21.01.2022
4217 Clouds -8 994 78 1153 5.36 290 01:48 21.01.2022
4218 Clouds -8 994 79 10000 5.66 290 22:47 20.01.2022
4219 Clouds -8 993 79 10000 5.66 290 21:48 20.01.2022
4220 Clouds -8 993 79 10000 5.66 290 21:24 20.01.2022
4221 Clouds -8 992 93 10000 4.63 300 19:46 20.01.2022
4222 Clouds -8 992 93 10000 4.63 300 19:18 20.01.2022
4223 Snow -8 993 93 3000 4.12 320 17:36 20.01.2022
4224 Clouds -7 994 85 177 4.92 300 15:59 20.01.2022
4225 Clouds -7 994 86 8000 5.14 300 15:29 20.01.2022
4226 Clouds -7 994 86 10000 5.14 300 14:18 20.01.2022
4227 Snow -7 994 93 3500 4.12 290 12:48 20.01.2022
4228 Snow -7 994 93 3500 4.12 290 12:27 20.01.2022
4229 Clouds -6 993 100 126 4.47 280 10:59 20.01.2022
4230 Snow -6 995 96 120 5.25 282 09:44 20.01.2022
4231 Snow -6 994 96 127 5.2 282 08:45 20.01.2022
4232 Snow -5 992 96 120 4.38 290 06:49 20.01.2022
4233 Snow 1 989 96 77 16 174 00:30 20.01.2022
4234 Rain 2 990 95 675 18.46 172 22:38 19.01.2022
4235 Rain 2 990 94 2817 19.15 172 21:34 19.01.2022
4236 Rain 2 990 94 1761 20.12 172 20:56 19.01.2022
4237 Rain 2 990 94 1761 20.12 172 20:30 19.01.2022
4238 Rain 2 990 94 1189 19.78 169 18:52 19.01.2022
4239 Rain 2 990 92 4580 20.73 171 17:51 19.01.2022
4240 Rain 2 991 89 6407 21.93 168 17:18 19.01.2022
4241 Rain 2 991 89 6407 21.93 168 17:18 19.01.2022
4242 Rain 2 991 89 6407 21.93 168 17:18 19.01.2022
4243 Rain 2 991 89 6407 21.93 168 17:18 19.01.2022
4244 Rain 2 991 89 6407 21.93 168 17:18 19.01.2022
4245 Rain 2 991 90 5668 22.25 167 15:32 19.01.2022
4246 Rain 2 991 83 10000 25.54 168 13:25 19.01.2022
4247 Rain 2 990 82 10000 25.98 170 11:59 19.01.2022
4248 Rain 2 990 82 10000 25.98 170 11:38 19.01.2022
4249 Snow 2 991 85 10000 23.78 168 09:36 19.01.2022
4250 Snow 2 992 81 10000 24.81 167 08:38 19.01.2022
4251 Snow 0 996 86 1223 19.24 161 05:20 19.01.2022
4252 Clouds -3 1005 73 1552 6.71 150 00:22 19.01.2022
4253 Clouds -3 1005 73 10000 6.71 150 23:18 18.01.2022
4254 Clouds -3 1005 73 10000 6.71 150 21:45 18.01.2022
4255 Clouds -3 1006 73 3000 6.71 150 20:38 18.01.2022
4256 Clouds -3 1006 68 10000 5.93 126 19:51 18.01.2022
4257 Clouds -3 1006 68 10000 4.63 0 19:33 18.01.2022
4258 Clouds -3 1007 63 10000 5.66 150 18:23 18.01.2022
4259 Clouds -4 1007 63 10000 6.69 150 17:32 18.01.2022
4260 Clouds -4 1008 42 10000 3.09 150 16:22 18.01.2022
4261 Clouds -6 1008 63 10000 4.63 80 15:25 18.01.2022
4262 Clouds -6 1008 63 10000 3.6 60 14:23 18.01.2022
4263 Clouds -6 1009 58 10000 4.63 120 11:45 18.01.2022
4264 Clouds -12 1011 74 10000 4.3 95 10:30 18.01.2022
4265 Clouds -14 1010 81 10000 3.59 115 08:29 18.01.2022
4266 Clouds -14 1010 81 10000 3.59 115 07:45 18.01.2022
4267 Clouds -12 1009 89 10000 2.81 130 00:42 18.01.2022
4268 Clouds -8 1005 79 10000 0.51 210 22:46 17.01.2022
4269 Clouds -8 1004 79 10000 1.03 200 21:49 17.01.2022
4270 Clouds -8 1004 79 10000 1.03 200 21:29 17.01.2022
4271 Clouds -8 1002 79 10000 3.09 290 19:37 17.01.2022
4272 Clouds -7 1000 67 10000 4.39 288 18:26 17.01.2022
4273 Clouds -7 1000 68 10000 5.14 0 17:22 17.01.2022
4274 Snow -7 999 68 10000 4.12 290 16:22 17.01.2022
4275 Clouds -8 996 67 3204 5.36 330 14:58 17.01.2022
4276 Clouds -8 996 67 10000 5.66 330 14:32 17.01.2022
4277 Clouds -8 994 67 10000 6.17 320 13:19 17.01.2022
4278 Clouds -8 992 79 10000 7.2 310 12:27 17.01.2022
4279 Clouds -10 979 92 456 4.02 360 11:33 17.01.2022
4280 Clouds -10 979 92 1047 4.02 360 10:21 17.01.2022
4281 Clouds -10 979 92 422 4.02 360 08:44 17.01.2022
4282 Snow -10 979 92 245 4.02 360 07:21 17.01.2022
4283 Snow -10 979 92 800 4.12 360 02:20 17.01.2022
4284 Snow -9 979 86 800 4.63 360 00:43 17.01.2022
4285 Snow -8 978 93 650 6.17 10 21:22 16.01.2022
4286 Snow -8 976 93 500 8.23 10 20:30 16.01.2022
4287 Snow -9 977 92 1700 9.77 10 18:48 16.01.2022
4288 Clouds -10 977 92 197 12.07 10 17:51 16.01.2022
4289 Snow -12 979 93 299 5.99 13 16:56 16.01.2022
4290 Snow -12 981 86 1487 5.2 14 15:50 16.01.2022
4291 Mist -8 981 79 4900 11.32 20 14:30 16.01.2022
4292 Clouds -8 982 73 10000 9.26 10 13:33 16.01.2022
4293 Clouds -9 983 73 10000 6.69 360 12:26 16.01.2022
4294 Clouds -8 984 67 10000 7.2 10 11:38 16.01.2022
4295 Clouds -9 985 73 10000 7.2 10 10:43 16.01.2022
4296 Clouds -13 987 83 10000 4.74 12 09:59 16.01.2022
4297 Clouds -9 986 73 10000 7.2 20 09:38 16.01.2022
4298 Clouds -9 986 73 10000 7.2 20 09:20 16.01.2022
4299 Clouds -8 989 73 10000 8.23 20 07:21 16.01.2022
4300 Snow -7 998 93 10000 8.75 360 00:36 16.01.2022
4301 Clouds -6 1000 93 10000 8.23 10 22:55 15.01.2022
4302 Snow -6 1001 93 3000 7.2 20 21:23 15.01.2022
4303 Snow -6 1002 93 5000 4.12 50 20:48 15.01.2022
4304 Snow -6 1002 93 5000 4.12 50 20:29 15.01.2022
4305 Snow -6 1002 93 2100 4.12 40 19:27 15.01.2022
4306 Snow -6 1004 93 1500 2.06 20 18:23 15.01.2022
4307 Snow -6 1005 93 2000 3.09 40 16:49 15.01.2022
4308 Snow -6 1005 93 2000 3.09 40 16:49 15.01.2022
4309 Snow -7 1006 93 1200 2.06 70 14:48 15.01.2022
4310 Snow -7 1006 93 1400 2.57 40 13:29 15.01.2022
4311 Snow -7 1007 93 1400 3.6 60 11:32 15.01.2022
4312 Snow -8 1008 93 900 5.14 60 09:46 15.01.2022
4313 Clouds -7 1012 73 9000 2.06 150 05:18 15.01.2022
4314 Clouds -7 1016 67 203 8.94 210 23:32 14.01.2022
4315 Clouds -7 1015 68 10000 9.26 210 21:18 14.01.2022
4316 Clouds -8 1015 93 10000 10.29 220 20:37 14.01.2022
4317 Clouds -8 1017 73 10000 6.16 220 19:55 14.01.2022
4318 Clouds -7 1014 79 2000 12.86 210 18:42 14.01.2022
4319 Snow -8 1014 93 4200 11.83 220 17:39 14.01.2022
4320 Clouds -7 1013 79 10000 13.38 210 16:43 14.01.2022
4321 Clouds -7 1013 73 10000 12.35 200 15:33 14.01.2022
4322 Clouds -7 1013 79 10000 12.86 210 14:28 14.01.2022
4323 Clouds -8 1014 92 10000 11.18 210 12:58 14.01.2022
4324 Clouds -8 1014 85 1025 12.07 180 11:53 14.01.2022
4325 Snow -8 1011 86 1400 9.26 180 10:40 14.01.2022
4326 Snow -8 1013 72 5743 9.97 189 08:53 14.01.2022
4327 Snow -8 1010 86 1100 9.26 190 07:32 14.01.2022
4328 Snow -8 1008 86 250 6.69 180 02:27 14.01.2022
4329 Snow -8 1006 86 200 7.2 170 00:22 14.01.2022
4330 Clouds -7 1005 85 10000 7.6 190 21:52 13.01.2022
4331 Snow -7 1005 86 500 7.72 190 21:29 13.01.2022
4332 Clouds -7 1003 92 230 4.02 200 19:58 13.01.2022
4333 Snow -7 1003 93 200 4.12 200 19:29 13.01.2022
4334 Snow -5 1002 63 3000 4.63 120 18:40 13.01.2022
4335 Snow -8 1005 90 402 7.5 137 16:57 13.01.2022
4336 Clouds -6 1003 53 10000 7.2 90 15:39 13.01.2022
4337 Clouds -6 1004 49 10000 7.2 100 15:21 13.01.2022
4338 Clouds -8 1005 57 10000 6.17 90 13:29 13.01.2022
4339 Clouds -9 1006 57 10000 5.14 90 11:18 13.01.2022
4340 Clouds -9 1008 57 10000 5.04 77 09:24 13.01.2022
4341 Clouds -10 1008 57 10000 4.59 84 08:29 13.01.2022
4342 Clouds -16 1010 81 10000 4.59 84 07:59 13.01.2022
4343 Clouds -9 1008 53 10000 4.32 87 07:20 13.01.2022
4344 Clouds -9 1008 57 10000 5.14 110 05:21 13.01.2022
4345 Clouds -17 1011 86 10000 4.04 90 04:55 13.01.2022
4346 Clouds -10 1007 79 10000 1.03 70 01:41 13.01.2022
4347 Clouds -14 1009 91 4567 2.8 120 23:54 12.01.2022
4348 Clouds -14 1009 91 4567 2.8 120 23:34 12.01.2022
4349 Snow -10 1004 79 10000 1.54 100 22:49 12.01.2022
4350 Clouds -10 1002 78 835 1.79 260 21:54 12.01.2022
4351 Snow -10 1003 79 10000 2.06 280 21:21 12.01.2022
4352 Clouds -10 1002 78 430 1.79 260 20:53 12.01.2022
4353 Clouds -10 1001 85 10000 4.12 280 19:24 12.01.2022
4354 Clouds -9 1000 86 10000 3.6 260 18:27 12.01.2022
4355 Clouds -10 998 85 10000 4.02 280 16:58 12.01.2022
4356 Clouds -10 1001 81 10000 2.86 280 15:53 12.01.2022
4357 Snow -9 996 92 2000 1.03 320 14:46 12.01.2022
4358 Snow -8 995 79 6000 2.57 340 12:58 12.01.2022
4359 Snow -9 994 95 135 2.57 290 09:59 12.01.2022
4360 Snow -8 990 93 2600 3.6 300 08:34 12.01.2022
4361 Snow -8 989 93 2800 3.09 330 07:34 12.01.2022
4362 Snow -7 987 86 1700 3.09 330 06:21 12.01.2022
4363 Clouds -7 980 86 10000 3.6 10 23:30 11.01.2022
4364 Clouds -7 979 86 10000 3.09 70 22:41 11.01.2022
4365 Clouds -7 979 86 10000 3.09 70 22:21 11.01.2022
4366 Clouds -13 980 86 10000 1.63 54 20:51 11.01.2022
4367 Snow -7 975 86 5000 4.12 60 19:45 11.01.2022
4368 Snow -8 974 93 2600 4.12 60 18:31 11.01.2022
4369 Snow -8 973 86 5000 3.6 50 17:24 11.01.2022
4370 Snow -7 973 73 10000 4.12 70 16:37 11.01.2022
4371 Clouds -7 972 63 10000 3.6 60 15:35 11.01.2022
4372 Clouds -8 971 62 10000 1.03 70 14:41 11.01.2022
4373 Clouds -17 974 81 10000 2.12 99 13:55 11.01.2022
4374 Clouds -9 970 73 10000 1.54 150 13:34 11.01.2022
4375 Clouds -11 970 85 10000 2.06 110 12:42 11.01.2022
4376 Clouds -11 969 79 10000 3.6 90 11:43 11.01.2022
4377 Clouds -10 967 85 10000 4.63 10 09:29 11.01.2022
4378 Clouds -10 967 73 10000 6.17 60 06:37 11.01.2022
4379 Clouds -10 972 67 10000 4.12 90 00:32 11.01.2022
4380 Clouds -10 973 62 10000 2.57 80 23:43 10.01.2022
4381 Clouds -10 973 62 10000 2.57 80 23:22 10.01.2022
4382 Clouds -11 974 67 10000 2.57 80 22:19 10.01.2022
4383 Clouds -15 977 81 10000 3.28 84 21:54 10.01.2022
4384 Clouds -11 975 73 10000 2.57 110 21:20 10.01.2022
4385 Clouds -16 977 81 10000 3.29 94 20:57 10.01.2022
4386 Clouds -11 975 73 10000 0 0 20:28 10.01.2022
4387 Clouds -10 976 62 10000 1.54 150 19:44 10.01.2022
4388 Clouds -10 976 62 10000 1.54 150 19:21 10.01.2022
4389 Clouds -11 976 79 10000 3.6 80 18:49 10.01.2022
4390 Clouds -17 979 87 10000 2.69 100 17:56 10.01.2022
4391 Clouds -10 978 73 10000 4.12 40 16:42 10.01.2022
4392 Clouds -10 978 73 10000 4.63 50 15:49 10.01.2022
4393 Clouds -10 979 85 10000 5.66 10 14:34 10.01.2022
4394 Clouds -19 983 93 10000 3.06 57 12:18 10.01.2022
4395 Clouds -10 981 79 10000 3.6 50 11:25 10.01.2022
4396 Clouds -18 984 95 10000 3.55 71 09:53 10.01.2022
4397 Clouds -10 982 79 10000 4.12 80 08:22 10.01.2022
4398 Clouds -10 983 73 10000 2.57 110 05:50 10.01.2022
4399 Snow -10 984 79 10000 0.51 130 01:33 10.01.2022
4400 Clouds -10 985 73 10000 0 0 00:29 10.01.2022
4401 Clouds -10 985 73 10000 1.54 60 23:43 09.01.2022
4402 Clouds -10 985 79 10000 2.06 350 22:40 09.01.2022
4403 Clouds -10 985 73 10000 1.54 20 21:47 09.01.2022
4404 Clouds -10 985 73 10000 1.54 20 21:24 09.01.2022
4405 Clouds -14 988 90 2964 1.05 107 20:54 09.01.2022
4406 Snow -10 985 79 10000 3.09 340 20:36 09.01.2022
4407 Snow -10 985 79 10000 3.09 340 20:18 09.01.2022
4408 Snow -10 985 73 10000 3.09 360 19:36 09.01.2022
4409 Snow -10 985 73 10000 3.09 360 19:18 09.01.2022
4410 Clouds -10 986 73 10000 4.12 360 18:37 09.01.2022
4411 Clouds -10 986 73 10000 3.6 360 17:48 09.01.2022
4412 Clouds -10 986 73 10000 3.6 360 17:25 09.01.2022
4413 Clouds -10 986 73 10000 4.63 10 16:38 09.01.2022
4414 Clouds -11 987 79 10000 3.6 350 15:38 09.01.2022
4415 Clouds -10 988 67 10000 4.12 350 14:41 09.01.2022
4416 Clouds -10 988 67 10000 4.12 350 14:21 09.01.2022
4417 Clouds -11 989 79 10000 4.12 360 13:41 09.01.2022
4418 Clouds -17 992 85 10000 2.9 42 11:56 09.01.2022
4419 Clouds -11 990 73 10000 3.09 350 11:25 09.01.2022
4420 Clouds -17 993 89 10000 2.97 37 09:55 09.01.2022
4421 Clouds -11 992 85 10000 2.06 350 08:56 09.01.2022
4422 Clouds -11 993 85 8000 2.06 320 06:21 09.01.2022
4423 Snow -11 996 92 2400 0 0 01:28 09.01.2022
4424 Snow -12 997 85 10000 1.03 170 00:37 09.01.2022
4425 Clouds -11 998 85 10000 1.54 350 23:31 08.01.2022
4426 Snow -10 999 85 1900 2.06 100 22:48 08.01.2022
4427 Clouds -11 999 92 5000 3.09 120 21:28 08.01.2022
4428 Snow -10 1000 85 1000 3.09 150 20:43 08.01.2022
4429 Snow -10 1000 85 1000 3.09 150 20:22 08.01.2022
4430 Snow -10 1001 85 600 2.06 160 19:22 08.01.2022
4431 Clouds -10 1002 92 4500 4.63 160 17:31 08.01.2022
4432 Snow -10 1002 92 10000 0 0 16:45 08.01.2022
4433 Snow -10 1002 92 4300 3.09 180 15:33 08.01.2022
4434 Clouds -10 1004 92 757 2.68 240 13:58 08.01.2022
4435 Snow -10 1001 92 2200 5.14 240 11:43 08.01.2022
4436 Clouds -9 1001 86 6000 5.66 240 10:40 08.01.2022
4437 Clouds -9 1001 86 6000 5.66 240 10:22 08.01.2022
4438 Snow -9 1000 92 650 5.14 250 09:34 08.01.2022
4439 Snow -9 997 92 4100 1.03 140 06:22 08.01.2022
4440 Snow -8 991 79 10000 4.12 280 01:46 08.01.2022
4441 Snow -8 989 73 10000 4.63 270 23:36 07.01.2022
4442 Snow -7 986 73 6000 6.69 300 21:49 07.01.2022
4443 Snow -7 985 86 5000 8.23 300 20:35 07.01.2022
4444 Snow -7 985 86 5000 8.23 300 20:35 07.01.2022
4445 Clouds -7 984 93 10000 8.23 300 19:27 07.01.2022
4446 Clouds -6 982 86 6000 8.23 310 18:49 07.01.2022
4447 Clouds -6 982 86 6000 8.23 310 18:24 07.01.2022
4448 Snow -7 982 93 10000 4.12 10 17:24 07.01.2022
4449 Clouds -11 982 93 618 2.96 17 15:55 07.01.2022
4450 Clouds -6 980 73 10000 7.2 10 13:52 07.01.2022
4451 Clouds -14 981 96 10000 3.28 13 12:57 07.01.2022
4452 Clouds -14 981 92 10000 3.33 5 11:58 07.01.2022
4453 Clouds -5 982 86 10000 3.6 10 06:47 07.01.2022
4454 Clouds -12 985 82 10000 3.37 97 02:54 07.01.2022
4455 Clouds -11 985 81 10000 3.35 104 01:50 07.01.2022
4456 Clouds -7 984 58 10000 1.03 130 01:26 07.01.2022
4457 Clouds -6 984 53 10000 2.68 140 00:34 07.01.2022
4458 Clouds -5 984 63 10000 2.57 140 22:42 06.01.2022
4459 Clouds -6 984 73 10000 3.6 160 21:22 06.01.2022
4460 Clouds -6 984 73 10000 5.14 150 20:19 06.01.2022
4461 Clouds -5 984 74 10000 6.17 150 19:40 06.01.2022
4462 Clouds -6 983 92 10000 4.47 160 17:52 06.01.2022
4463 Clouds -6 983 93 10000 4.63 160 17:31 06.01.2022
4464 Clouds -6 983 86 10000 3.6 170 16:39 06.01.2022
4465 Clouds -6 983 79 10000 4.63 170 15:45 06.01.2022
4466 Clouds -6 983 79 10000 4.63 170 15:23 06.01.2022
4467 Clouds -5 983 80 10000 5.14 170 14:20 06.01.2022
4468 Snow -5 982 74 5000 6.69 170 13:44 06.01.2022
4469 Clouds -5 982 80 10000 5.66 170 12:40 06.01.2022
4470 Clouds -5 982 68 10000 5.14 150 11:41 06.01.2022
4471 Clouds -5 982 68 10000 5.14 150 11:20 06.01.2022
4472 Clouds -5 981 74 10000 5.66 170 08:31 06.01.2022
4473 Snow -5 980 86 5000 6.17 200 00:42 06.01.2022
4474 Snow -4 980 63 10000 7.72 170 23:36 05.01.2022
4475 Snow -9 982 83 3736 3.47 166 22:51 05.01.2022
4476 Clouds -4 980 58 10000 7.2 160 22:29 05.01.2022
4477 Clouds -4 979 63 10000 8.75 160 21:46 05.01.2022
4478 Snow -4 979 68 10000 8.75 160 20:49 05.01.2022
4479 Clouds -9 980 74 10000 4.59 134 19:58 05.01.2022
4480 Snow -4 979 63 10000 9.26 160 18:33 05.01.2022
4481 Snow -3 978 74 10000 10.29 190 17:23 05.01.2022
4482 Snow -3 978 80 10000 7.72 180 16:38 05.01.2022
4483 Snow -3 980 79 414 8.94 170 15:20 05.01.2022
4484 Snow -3 977 86 2400 10.8 180 13:39 05.01.2022
4485 Snow -3 976 92 510 11.62 180 12:51 05.01.2022
4486 Snow 0 972 93 1400 11.83 180 09:30 05.01.2022
4487 Snow 0 971 93 2100 7.72 170 07:42 05.01.2022
4488 Clouds -2 972 95 7277 8.04 171 04:58 05.01.2022
4489 Clouds 6 970 36 10000 7.72 100 00:44 05.01.2022
4490 Clouds 3 970 52 10000 3.09 70 23:27 04.01.2022
4491 Clouds 4 971 41 10000 4.12 160 22:40 04.01.2022
4492 Clouds 4 972 41 10000 2.57 170 21:18 04.01.2022
4493 Clouds 3 972 48 10000 6.69 70 19:20 04.01.2022
4494 Clouds 2 975 55 10000 6.17 20 17:44 04.01.2022
4495 Clouds 2 977 51 10000 6.69 60 16:42 04.01.2022
4496 Clouds 2 977 51 10000 6.71 60 16:23 04.01.2022
4497 Clouds -2 977 69 10000 4.29 73 14:54 04.01.2022
4498 Clouds 3 979 44 10000 4.63 90 14:34 04.01.2022
4499 Clouds 3 979 44 10000 6.17 100 13:27 04.01.2022
4500 Snow 2 982 48 10000 9.26 80 10:41 04.01.2022
4501 Clouds 1 984 93 10000 8.23 80 09:20 04.01.2022
4502 Clouds -1 984 93 10000 5.66 50 08:30 04.01.2022
4503 Clouds -3 989 93 10000 5.14 360 02:31 04.01.2022
4504 Snow -3 991 100 4500 4.63 360 00:41 04.01.2022
4505 Snow -3 991 93 3500 4.12 360 23:19 03.01.2022
4506 Snow -5 992 100 155 4.02 360 21:52 03.01.2022
4507 Snow -4 992 100 1500 4.12 360 21:32 03.01.2022
4508 Snow -3 993 92 141 1.34 300 19:56 03.01.2022
4509 Snow -3 993 92 120 2.24 200 18:54 03.01.2022
4510 Snow -3 993 93 1500 2.57 200 18:28 03.01.2022
4511 Snow -3 993 100 1329 4.47 210 16:58 03.01.2022
4512 Snow -2 993 93 800 5.14 200 15:39 03.01.2022
4513 Snow 0 992 80 3200 2.06 220 14:30 03.01.2022
4514 Snow -1 992 86 7000 4.63 180 12:46 03.01.2022
4515 Snow 1 993 60 10000 2.57 120 11:38 03.01.2022
4516 Rain 1 993 51 10000 5.14 110 10:36 03.01.2022
4517 Snow 0 994 51 10000 7.72 80 08:48 03.01.2022
4518 Snow 0 995 47 10000 10.29 80 07:36 03.01.2022
4519 Clouds -7 1006 73 10000 4.63 80 23:56 02.01.2022
4520 Clouds -3 1006 54 10000 7.72 70 23:22 02.01.2022
4521 Clouds -8 1007 70 10000 4.85 82 22:53 02.01.2022
4522 Clouds -4 1008 54 10000 1.03 0 21:46 02.01.2022
4523 Clouds -4 1008 58 10000 1.54 0 20:38 02.01.2022
4524 Clouds -4 1008 58 10000 1.54 0 20:18 02.01.2022
4525 Clouds -4 1009 54 10000 0.51 0 19:30 02.01.2022
4526 Clouds -4 1009 54 10000 3.09 70 18:46 02.01.2022
4527 Clouds -4 1009 54 10000 3.09 70 18:46 02.01.2022
4528 Clouds -9 1010 71 10000 4.81 80 17:54 02.01.2022
4529 Clouds -4 1010 58 10000 1.54 120 17:36 02.01.2022
4530 Clouds -4 1010 58 10000 1.54 120 17:18 02.01.2022
4531 Clouds -4 1011 54 10000 1.54 90 16:26 02.01.2022
4532 Clouds -5 1011 58 10000 0.51 0 14:32 02.01.2022
4533 Clouds -11 1013 79 10000 3.93 79 12:50 02.01.2022
4534 Clouds -5 1012 54 10000 1.54 120 12:22 02.01.2022
4535 Clouds -5 1012 54 10000 0.51 180 11:32 02.01.2022
4536 Clouds -5 1012 58 10000 1.03 50 10:46 02.01.2022
4537 Clouds -5 1012 58 10000 1.54 320 09:45 02.01.2022
4538 Clouds -11 1014 81 10000 3.88 80 05:50 02.01.2022
4539 Clouds -6 1013 68 10000 0.51 120 01:48 02.01.2022
4540 Clouds -6 1012 68 10000 4.12 80 23:40 01.01.2022
4541 Clouds -12 1015 82 10000 3.25 85 22:57 01.01.2022
4542 Clouds -6 1012 73 10000 6.17 80 22:23 01.01.2022
4543 Clouds -6 1012 73 10000 5.66 70 21:44 01.01.2022
4544 Clouds -13 1014 83 10000 3.91 85 20:55 01.01.2022
4545 Clouds -13 1014 84 10000 3.68 83 19:58 01.01.2022
4546 Clouds -6 1011 73 10000 4.12 80 19:19 01.01.2022
4547 Clouds -12 1013 85 10000 3.65 83 17:59 01.01.2022
4548 Snow -5 1012 74 10000 5.14 110 16:41 01.01.2022
4549 Snow -5 1012 74 10000 5.14 110 16:19 01.01.2022
4550 Clouds -5 1012 68 10000 4.63 90 15:26 01.01.2022
4551 Clouds -13 1013 88 10000 3.62 91 13:59 01.01.2022
4552 Clouds -13 1013 87 10000 3.95 85 12:50 01.01.2022
4553 Clouds -13 1013 88 10000 3.78 88 11:56 01.01.2022
4554 Clouds -6 1011 73 10000 5.14 60 11:23 01.01.2022
4555 Clouds -6 1011 73 10000 5.66 60 10:40 01.01.2022
4556 Clouds -6 1011 68 10000 2.57 80 09:46 01.01.2022
4557 Clouds -6 1011 73 10000 4.63 60 08:26 01.01.2022
4558 Clouds -13 1012 90 10000 3.66 95 07:54 01.01.2022
4559 Clouds -6 1010 73 10000 6.69 70 07:34 01.01.2022
4560 Snow -6 1010 73 10000 5.66 60 06:41 01.01.2022
4561 Clouds -6 1011 73 10000 4.63 80 04:38 01.01.2022
4562 Snow -6 1011 79 10000 5.66 80 02:44 01.01.2022
4563 Clouds -6 1010 79 10000 5.66 80 23:44 31.12.2021
4564 Clouds -11 1011 92 3483 3.3 93 21:53 31.12.2021
4565 Snow -6 1009 79 2000 2.57 80 20:39 31.12.2021
4566 Clouds -6 1009 79 10000 2.57 70 19:31 31.12.2021
4567 Clouds -6 1009 79 10000 2.57 70 19:31 31.12.2021
4568 Clouds -6 1009 79 10000 2.57 70 19:31 31.12.2021
4569 Snow -6 1009 73 10000 0 0 18:41 31.12.2021
4570 Clouds -6 1009 79 10000 1.03 110 17:45 31.12.2021
4571 Clouds -6 1009 79 10000 1.03 110 17:19 31.12.2021
4572 Clouds -6 1009 73 10000 1.54 120 16:40 31.12.2021
4573 Clouds -11 1010 94 2409 3.07 77 15:57 31.12.2021
4574 Clouds -6 1009 73 10000 6.17 80 15:29 31.12.2021
4575 Clouds -11 1010 94 2534 2.96 82 14:57 31.12.2021
4576 Clouds -11 1010 94 2410 2.97 81 14:57 31.12.2021
4577 Clouds -6 1009 73 10000 5.66 70 14:31 31.12.2021
4578 Snow -6 1009 79 5000 5.66 80 13:42 31.12.2021
4579 Snow -6 1008 73 2800 5.66 70 12:49 31.12.2021
4580 Snow -6 1008 73 2800 5.66 70 12:19 31.12.2021
4581 Snow -6 1008 79 3000 5.14 60 11:33 31.12.2021
4582 Snow -6 1008 79 3000 5.66 60 10:41 31.12.2021
4583 Snow -6 1008 79 10000 5.66 60 10:23 31.12.2021
4584 Clouds -6 1008 79 10000 5.14 60 09:33 31.12.2021
4585 Clouds -6 1008 79 10000 3.6 40 08:49 31.12.2021
4586 Clouds -6 1007 79 10000 4.63 60 07:49 31.12.2021
4587 Clouds -6 1007 73 10000 3.6 50 01:38 31.12.2021
4588 Clouds -13 1010 86 10000 2.63 86 22:54 30.12.2021
4589 Clouds -6 1007 79 10000 4.12 40 22:27 30.12.2021
4590 Clouds -6 1007 79 10000 3.6 40 21:38 30.12.2021
4591 Clouds -12 1010 84 10000 2.76 90 20:58 30.12.2021
4592 Clouds -6 1007 79 10000 1.54 0 20:35 30.12.2021
4593 Clouds -13 1010 80 10000 2.99 94 19:53 30.12.2021
4594 Clouds -6 1007 79 10000 2.06 130 19:28 30.12.2021
4595 Clouds -6 1007 79 10000 3.09 120 18:26 30.12.2021
4596 Clouds -14 1010 76 10000 2.84 98 16:50 30.12.2021
4597 Clouds -14 1010 76 10000 2.83 104 15:53 30.12.2021
4598 Clouds -15 1010 76 10000 2.89 106 14:54 30.12.2021
4599 Clouds -7 1008 68 10000 2.57 130 14:35 30.12.2021
4600 Clouds -7 1008 79 10000 3.6 170 13:25 30.12.2021
4601 Clouds -16 1011 75 10000 2.69 112 11:53 30.12.2021
4602 Clouds -17 1010 75 10000 2.12 98 10:28 30.12.2021
4603 Clouds -8 1007 79 10000 1.54 170 09:44 30.12.2021
4604 Clouds -18 1009 76 10000 2.37 68 06:58 30.12.2021
4605 Clouds -17 1010 74 10000 2.66 58 05:20 30.12.2021
4606 Clouds -17 1010 74 10000 2.66 58 05:20 30.12.2021
4607 Clouds -17 1010 73 10000 2.69 49 03:40 30.12.2021
4608 Clouds -17 1010 73 10000 2.69 49 03:40 30.12.2021
4609 Clouds -7 1007 79 10000 5.14 40 02:28 30.12.2021
4610 Clouds -7 1008 79 10000 4.63 20 23:37 29.12.2021
4611 Clouds -17 1011 73 10000 3.03 39 22:42 29.12.2021
4612 Clouds -7 1008 73 10000 3.6 40 21:56 29.12.2021
4613 Clouds -17 1011 72 10000 3.15 40 20:58 29.12.2021
4614 Clouds -7 1008 73 10000 3.09 40 20:29 29.12.2021
4615 Clouds -16 1011 72 10000 3.13 44 19:31 29.12.2021
4616 Clouds -17 1011 73 10000 3.03 38 18:42 29.12.2021
4617 Clouds -16 1011 73 10000 3.03 34 17:51 29.12.2021
4618 Clouds -16 1011 73 10000 2.99 39 17:27 29.12.2021
4619 Clear -6 1010 79 10000 5.14 20 16:22 29.12.2021
4620 Clouds -7 1010 86 10000 3.09 40 15:21 29.12.2021
4621 Clouds -7 1010 86 10000 2.57 40 13:42 29.12.2021
4622 Clouds -7 1010 86 10000 3.09 50 12:35 29.12.2021
4623 Clear -7 1011 86 10000 3.09 30 11:25 29.12.2021
4624 Clouds -7 1011 86 10000 3.09 40 09:46 29.12.2021
4625 Clouds -16 1013 76 10000 2.75 62 07:47 29.12.2021
4626 Clouds -16 1014 79 10000 2.91 56 06:37 29.12.2021
4627 Clouds -16 1014 79 10000 2.93 56 05:57 29.12.2021
4628 Clouds -16 1014 79 10000 2.93 56 05:36 29.12.2021
4629 Clouds -15 1014 80 10000 2.66 74 01:45 29.12.2021
4630 Clouds -15 1014 80 10000 2.57 69 00:19 29.12.2021
4631 Clouds -15 1014 80 10000 2.58 69 23:31 28.12.2021
4632 Clouds -5 1011 68 10000 4.12 60 22:42 28.12.2021
4633 Clouds -5 1011 68 10000 4.12 60 22:23 28.12.2021
4634 Clouds -6 1011 68 10000 1.54 100 21:36 28.12.2021
4635 Clouds -6 1011 79 10000 1.54 110 20:35 28.12.2021
4636 Clouds -5 1010 63 10000 1.03 130 19:22 28.12.2021
4637 Clouds -5 1010 68 10000 1.54 100 18:35 28.12.2021
4638 Clouds -13 1012 77 10000 3.12 63 17:57 28.12.2021
4639 Clouds -5 1010 63 10000 0.51 150 16:34 28.12.2021
4640 Clouds -4 1010 63 10000 1.54 100 15:49 28.12.2021
4641 Clouds -4 1010 63 10000 1.54 100 15:20 28.12.2021
4642 Clouds -5 1010 68 10000 1.03 130 14:46 28.12.2021
4643 Clouds -5 1010 68 10000 1.03 130 14:20 28.12.2021
4644 Clear -5 1010 68 10000 1.54 90 13:42 28.12.2021
4645 Clear -5 1010 68 10000 1.54 90 13:24 28.12.2021
4646 Clear -5 1009 68 10000 1.54 110 12:49 28.12.2021
4647 Clear -6 1009 79 10000 1.54 50 11:33 28.12.2021
4648 Clouds -5 1008 80 10000 2.06 140 07:41 28.12.2021
4649 Clouds -5 1007 68 10000 0 0 06:41 28.12.2021
4650 Clear -4 1006 68 10000 2.06 70 23:43 27.12.2021
4651 Clouds -13 1007 77 10000 2.79 68 22:59 27.12.2021
4652 Clear -4 1005 68 10000 1.54 120 21:42 27.12.2021
4653 Clear -4 1005 68 10000 1.54 120 21:20 27.12.2021
4654 Clouds -12 1006 77 10000 2.82 77 19:58 27.12.2021
4655 Clouds -4 1005 74 10000 3.09 40 19:39 27.12.2021
4656 Clear -3 1004 63 10000 1.54 0 18:34 27.12.2021
4657 Clear -3 1004 59 10000 0.51 0 17:48 27.12.2021
4658 Clear -4 1004 63 10000 1.03 160 16:40 27.12.2021
4659 Clear -12 1006 78 10000 2.5 79 15:52 27.12.2021
4660 Clear -3 1005 63 10000 1.03 150 14:33 27.12.2021
4661 Clouds -3 1004 74 10000 2.06 80 13:39 27.12.2021
4662 Clouds -3 1005 74 10000 3.09 60 12:36 27.12.2021
4663 Clouds -3 1005 74 10000 2.06 50 10:31 27.12.2021
4664 Clouds -3 1005 74 10000 1.03 60 09:47 27.12.2021
4665 Clear -12 1006 79 10000 2.8 77 07:50 27.12.2021
4666 Clear -3 1005 68 10000 1.54 160 07:29 27.12.2021
4667 Clear -1 1005 69 10000 2.57 80 02:21 27.12.2021
4668 Clear -10 1007 79 10000 2.91 65 23:58 26.12.2021
4669 Clear -2 1005 64 10000 0.51 130 23:39 26.12.2021
4670 Clouds -2 1005 64 10000 1.54 120 22:34 26.12.2021
4671 Clear -9 1007 77 10000 2.32 81 20:59 26.12.2021
4672 Clear 0 1005 59 10000 2.06 150 19:49 26.12.2021
4673 Clear 0 1005 69 10000 2.06 360 18:24 26.12.2021
4674 Clouds 0 1004 59 10000 0.51 110 17:24 26.12.2021
4675 Clouds 0 1004 69 10000 1.03 0 14:32 26.12.2021
4676 Clouds 1 1003 55 10000 1.03 0 13:43 26.12.2021
4677 Clouds 1 1003 55 10000 1.03 0 13:20 26.12.2021
4678 Clouds 1 1003 60 10000 1.54 350 12:33 26.12.2021
4679 Clouds 1 1002 69 10000 1.03 0 10:43 26.12.2021
4680 Clouds 0 1002 69 10000 1.03 0 09:28 26.12.2021
4681 Clouds 1 1002 55 10000 2.06 160 08:44 26.12.2021
4682 Clouds -6 1004 75 10000 3.61 81 07:59 26.12.2021
4683 Clouds -7 1002 75 10000 3.5 74 01:30 26.12.2021
4684 Clouds -7 1002 77 10000 3.38 74 23:58 25.12.2021
4685 Clouds -7 1002 76 10000 3.52 74 23:27 25.12.2021
4686 Clouds 3 1000 44 10000 3.6 0 22:28 25.12.2021
4687 Clouds -7 1001 75 10000 4.05 71 21:18 25.12.2021
4688 Clouds -7 1000 76 10000 3.95 66 19:28 25.12.2021
4689 Clouds -7 1000 76 10000 3.94 66 18:57 25.12.2021
4690 Clear 2 999 44 10000 1.03 170 18:21 25.12.2021
4691 Clear 0 999 69 10000 5.66 70 16:46 25.12.2021
4692 Clouds -1 999 74 10000 3.6 0 15:26 25.12.2021
4693 Clear -1 998 69 10000 4.12 10 13:43 25.12.2021
4694 Clear 0 998 51 10000 1.54 0 12:18 25.12.2021
4695 Clouds 0 998 43 10000 2.06 10 10:36 25.12.2021
4696 Clear 0 998 55 10000 1.03 0 09:48 25.12.2021
4697 Clouds -1 997 55 10000 3.6 90 07:21 25.12.2021
4698 Clear -10 999 72 10000 3.76 93 01:34 25.12.2021
4699 Clouds -9 999 70 10000 3.81 75 00:19 25.12.2021
4700 Clouds -9 1000 70 10000 4.26 70 21:51 24.12.2021
4701 Clouds 0 999 55 10000 1.54 150 19:27 24.12.2021
4702 Clouds 0 999 55 10000 2.06 190 18:41 24.12.2021
4703 Clouds 0 1000 59 10000 2.06 190 16:44 24.12.2021
4704 Clouds -7 1001 70 10000 4.13 80 15:50 24.12.2021
4705 Clouds -7 1001 70 10000 4.13 80 15:50 24.12.2021
4706 Clouds -8 1001 72 10000 4.24 81 15:20 24.12.2021
4707 Clouds -8 1001 72 10000 4.24 81 14:34 24.12.2021
4708 Clouds -8 1002 73 10000 4.26 74 13:54 24.12.2021
4709 Clouds -8 1002 73 10000 4.26 74 13:32 24.12.2021
4710 Clouds -9 1003 74 10000 4.13 74 12:40 24.12.2021
4711 Clouds -9 1004 75 10000 4.1 72 11:45 24.12.2021
4712 Clouds -9 1004 76 10000 3.9 66 11:24 24.12.2021
4713 Clouds -9 1004 76 10000 3.9 66 10:35 24.12.2021
4714 Clear -9 1005 78 10000 4.27 51 08:58 24.12.2021
4715 Clear -9 1006 80 10000 4.3 48 07:58 24.12.2021
4716 Clear -9 1006 80 10000 4.3 48 07:58 24.12.2021
4717 Clouds 0 1006 80 10000 5.66 50 07:31 24.12.2021
4718 Clouds 2 1012 87 10000 7.2 30 00:47 24.12.2021
4719 Clouds -3 1013 95 10000 4.99 36 23:50 23.12.2021
4720 Clouds 0 1013 94 10000 5.36 40 22:53 23.12.2021
4721 Clouds 1 1013 93 10000 5.66 40 22:24 23.12.2021
4722 Clouds 1 1014 100 10000 5.66 30 21:47 23.12.2021
4723 Clouds 0 1014 94 10000 6.71 30 20:53 23.12.2021
4724 Fog 1 1014 93 10000 6.17 30 19:31 23.12.2021
4725 Fog 1 1014 100 300 3.09 30 18:28 23.12.2021
4726 Rain 1 1014 100 10000 2.06 40 17:46 23.12.2021
4727 Rain 1 1015 100 10000 0.51 0 16:40 23.12.2021
4728 Rain 1 1015 100 10000 0.51 0 16:20 23.12.2021
4729 Rain 1 1014 100 7000 2.57 190 15:31 23.12.2021
4730 Rain 2 1014 93 7000 0 0 14:42 23.12.2021
4731 Rain 2 1014 93 7000 0 0 14:19 23.12.2021
4732 Fog 0 1013 100 3000 0 0 12:39 23.12.2021
4733 Rain 2 1013 93 10000 0 0 10:41 23.12.2021
4734 Clouds 2 1012 93 9000 0 0 09:34 23.12.2021
4735 Clouds -2 1014 94 10000 0.61 354 08:58 23.12.2021
4736 Clouds 1 1011 93 8000 4.12 170 06:23 23.12.2021
4737 Clouds 0 1010 93 10000 3.6 10 03:41 23.12.2021
4738 Clouds -2 1011 86 10000 2.62 26 22:55 22.12.2021
4739 Clouds 3 1009 81 10000 1.54 10 22:32 22.12.2021
4740 Clouds 4 1009 75 10000 3.09 50 21:53 22.12.2021
4741 Clouds -2 1011 87 10000 2.63 38 21:28 22.12.2021
4742 Clouds 3 1008 81 10000 0.51 0 20:41 22.12.2021
4743 Clouds 3 1008 81 10000 0.51 0 20:20 22.12.2021
4744 Clouds 5 1008 70 10000 1.54 150 19:19 22.12.2021
4745 Clouds 3 1007 81 10000 1.54 180 17:39 22.12.2021
4746 Clouds 4 1006 81 10000 1.54 130 16:36 22.12.2021
4747 Clouds 4 1006 81 10000 2.06 170 15:39 22.12.2021
4748 Clouds 2 1004 87 10000 4.63 180 13:32 22.12.2021
4749 Clouds 2 1003 80 10000 3.6 160 12:31 22.12.2021
4750 Clouds -4 1004 92 10000 2.65 79 09:53 22.12.2021
4751 Clouds 1 1001 93 10000 3.09 0 09:33 22.12.2021
4752 Clouds 2 1001 87 10000 3.6 30 07:25 22.12.2021
4753 Clouds 2 1001 87 10000 3.6 40 05:42 22.12.2021
4754 Clouds 2 1001 87 10000 3.6 40 05:24 22.12.2021
4755 Clouds 2 1002 87 10000 3.6 40 04:47 22.12.2021
4756 Clouds 2 1002 87 10000 3.6 40 04:22 22.12.2021
4757 Clouds 2 1002 87 10000 3.09 40 03:32 22.12.2021
4758 Clouds 4 1003 81 10000 6.17 180 00:33 22.12.2021
4759 Clouds -1 1004 96 10000 3.63 138 22:52 21.12.2021
4760 Clouds 3 1001 87 10000 8.75 180 22:27 21.12.2021
4761 Clouds 4 1001 75 10000 7.2 190 21:43 21.12.2021
4762 Clouds 0 1002 94 10000 5.41 182 20:54 21.12.2021
4763 Clouds 4 1000 70 10000 10.29 180 20:20 21.12.2021
4764 Clouds 10 998 27 10000 8.75 100 19:41 21.12.2021
4765 Clouds 10 998 29 10000 11.32 80 18:45 21.12.2021
4766 Clouds 10 998 29 10000 11.32 80 18:21 21.12.2021
4767 Clouds 11 998 28 10000 10.29 110 17:41 21.12.2021
4768 Clouds 4 999 64 10000 5.56 84 15:59 21.12.2021
4769 Clouds 11 998 25 10000 10.29 110 15:20 21.12.2021
4770 Clouds 3 999 61 10000 6.02 101 13:50 21.12.2021
4771 Clouds 10 998 32 10000 10.29 100 13:30 21.12.2021
4772 Clouds 10 999 34 10000 10.29 80 11:36 21.12.2021
4773 Clouds 10 999 34 10000 9.26 90 10:24 21.12.2021
4774 Clouds 11 999 28 10000 10.29 90 09:23 21.12.2021
4775 Clouds 2 1000 64 10000 5.42 86 07:58 21.12.2021
4776 Clouds 11 999 30 10000 9.77 100 07:27 21.12.2021
4777 Clouds 1 1001 68 10000 4.59 85 05:31 21.12.2021
4778 Clouds 10 1000 34 10000 10.29 70 02:40 21.12.2021
4779 Clouds 2 1002 62 10000 5.33 95 23:59 20.12.2021
4780 Clouds 10 1000 37 10000 9.77 80 23:29 20.12.2021
4781 Clouds 10 1000 37 10000 10.29 80 22:28 20.12.2021
4782 Clouds 11 1000 35 10000 8.75 80 21:47 20.12.2021
4783 Clouds 11 1000 35 10000 8.75 80 21:23 20.12.2021
4784 Clouds 1 1002 67 10000 5.25 94 20:44 20.12.2021
4785 Clouds 1 1002 74 10000 4.63 79 19:53 20.12.2021
4786 Clouds 9 1000 46 10000 5.66 90 19:31 20.12.2021
4787 Clouds 1 1002 76 10000 4.32 75 18:54 20.12.2021
4788 Clouds 2 1002 75 10000 4.62 83 17:53 20.12.2021
4789 Clouds 9 999 53 10000 9.26 70 17:25 20.12.2021
4790 Clouds 6 1000 70 10000 8.75 60 16:40 20.12.2021
4791 Clouds 2 1002 85 10000 4.2 50 15:51 20.12.2021
4792 Clouds 2 1002 87 10000 3.66 47 14:53 20.12.2021
4793 Rain 6 1001 70 10000 0.51 0 13:18 20.12.2021
4794 Rain 6 1001 65 10000 1.54 180 11:19 20.12.2021
4795 Clouds 10 1001 50 10000 6.69 120 09:48 20.12.2021
4796 Clouds 10 1001 50 10000 6.69 120 09:29 20.12.2021
4797 Clouds 10 1001 37 10000 5.14 110 08:42 20.12.2021
4798 Clouds 3 1002 68 10000 5.85 81 07:50 20.12.2021
4799 Clouds 3 1002 68 10000 5.85 81 07:50 20.12.2021
4800 Clouds 10 1002 37 10000 8.23 100 07:30 20.12.2021
4801 Clouds 9 1005 46 10000 5.66 90 04:24 20.12.2021
4802 Clouds 3 1009 62 10000 5.88 90 23:59 19.12.2021
4803 Clouds 2 1010 65 10000 5.49 86 22:51 19.12.2021
4804 Clouds 2 1010 68 10000 5.16 86 21:50 19.12.2021
4805 Clouds 7 1009 49 10000 7.72 70 21:30 19.12.2021
4806 Clouds 6 1009 56 10000 8.23 80 20:32 19.12.2021
4807 Clouds 1 1011 73 10000 5.8 80 19:51 19.12.2021
4808 Clouds 6 1010 56 10000 10.29 80 19:22 19.12.2021
4809 Clouds 5 1010 60 10000 11.32 80 18:29 19.12.2021
4810 Clouds 0 1011 78 10000 5.69 73 17:53 19.12.2021
4811 Clouds 5 1010 56 10000 11.32 80 17:19 19.12.2021
4812 Clouds 4 1011 65 10000 9.77 60 16:26 19.12.2021
4813 Clouds 4 1011 65 10000 9.77 60 16:26 19.12.2021
4814 Clouds 0 1013 86 10000 6.71 50 15:43 19.12.2021
4815 Snow 0 1013 86 10000 6.71 50 15:20 19.12.2021
4816 Rain 1 1013 86 10000 6.69 50 14:42 19.12.2021
4817 Clouds 0 1014 86 10000 0 0 13:22 19.12.2021
4818 Clouds 0 1013 86 10000 0.51 150 12:42 19.12.2021
4819 Clouds 0 1013 86 10000 0.51 150 12:18 19.12.2021
4820 Clouds 1 1013 86 10000 2.57 160 11:21 19.12.2021
4821 Clouds 2 1012 80 10000 1.54 0 10:26 19.12.2021
4822 Snow 3 1011 81 9000 5.66 160 09:42 19.12.2021
4823 Snow 3 1010 75 10000 9.26 160 08:35 19.12.2021
4824 Clouds -1 1005 93 10000 4.12 210 04:45 19.12.2021
4825 Clouds -1 1000 59 10000 0.51 140 01:33 19.12.2021
4826 Clouds -7 1001 82 10000 1.84 61 00:52 19.12.2021
4827 Clouds -2 998 74 10000 3.6 20 22:37 18.12.2021
4828 Clouds -8 1000 80 10000 2.5 23 21:58 18.12.2021
4829 Clouds -1 998 74 10000 5.14 50 21:36 18.12.2021
4830 Clouds -1 998 59 10000 7.2 60 20:44 18.12.2021
4831 Clouds -1 998 59 10000 7.2 60 20:19 18.12.2021
4832 Clouds -1 998 55 10000 8.23 70 19:25 18.12.2021
4833 Clouds -10 1000 76 10000 2.6 41 18:22 18.12.2021
4834 Clouds -3 1000 74 10000 9.77 50 17:48 18.12.2021
4835 Clouds -3 1001 63 10000 8.23 60 16:26 18.12.2021
4836 Clouds -4 1002 68 10000 7.2 40 15:27 18.12.2021
4837 Clouds -11 1002 73 10000 3.56 49 14:51 18.12.2021
4838 Clouds -4 1004 58 10000 6.69 60 13:28 18.12.2021
4839 Clouds -6 1006 68 10000 1.54 100 11:23 18.12.2021
4840 Clear -8 1008 62 10000 1.54 160 09:40 18.12.2021
4841 Clouds -7 1008 58 10000 3.09 170 08:47 18.12.2021
4842 Clouds -7 1008 58 10000 3.09 170 08:27 18.12.2021
4843 Clear -15 1011 73 10000 3.79 84 05:56 18.12.2021
4844 Clouds -7 1011 68 10000 5.14 70 00:30 18.12.2021
4845 Clouds -7 1012 63 10000 3.6 60 23:46 17.12.2021
4846 Clouds -15 1014 82 10000 3.9 78 21:58 17.12.2021
4847 Clouds -7 1012 68 10000 2.57 90 21:20 17.12.2021
4848 Clouds -7 1012 68 10000 2.06 70 20:41 17.12.2021
4849 Clouds -6 1013 63 10000 3.09 160 19:28 17.12.2021
4850 Clouds -7 1012 63 10000 1.54 140 18:39 17.12.2021
4851 Clouds -7 1012 63 10000 2.06 130 17:40 17.12.2021
4852 Clouds -14 1014 83 10000 2.94 85 16:50 17.12.2021
4853 Clouds -7 1012 63 10000 2.57 130 16:22 17.12.2021
4854 Clouds -8 1012 67 10000 3.09 110 15:25 17.12.2021
4855 Clouds -8 1011 67 10000 2.06 90 14:41 17.12.2021
4856 Clouds -7 1011 68 10000 2.06 100 13:22 17.12.2021
4857 Clouds -8 1011 73 10000 2.06 110 12:21 17.12.2021
4858 Clouds -8 1009 73 10000 1.54 110 10:38 17.12.2021
4859 Clouds -8 1009 79 10000 3.09 70 09:34 17.12.2021
4860 Clouds -8 1008 79 10000 2.57 20 08:31 17.12.2021
4861 Clouds -8 1008 73 10000 2.06 60 07:18 17.12.2021
4862 Clouds -18 1009 86 10000 3.04 60 04:39 17.12.2021
4863 Clouds -17 1004 87 10000 2.73 39 23:58 16.12.2021
4864 Clouds -7 1001 73 10000 4.12 360 22:24 16.12.2021
4865 Clouds -7 1001 73 10000 4.12 360 22:24 16.12.2021
4866 Clouds -7 1001 73 10000 4.12 360 22:23 16.12.2021
4867 Clouds -7 1001 73 10000 4.12 360 22:23 16.12.2021
4868 Clouds -7 1000 79 10000 4.12 20 21:45 16.12.2021
4869 Clouds -17 1002 87 10000 2.78 39 20:57 16.12.2021
4870 Clouds -8 999 73 10000 3.09 60 20:27 16.12.2021
4871 Clouds -8 998 79 10000 2.57 60 19:35 16.12.2021
4872 Clouds -17 1000 86 10000 3.07 36 18:37 16.12.2021
4873 Snow -7 996 79 10000 3.09 20 17:49 16.12.2021
4874 Clouds -16 998 87 10000 3.41 28 16:55 16.12.2021
4875 Clouds -7 995 79 10000 3.09 10 16:20 16.12.2021
4876 Clouds -16 997 89 10000 2.87 28 14:50 16.12.2021
4877 Clouds -15 997 89 10000 2.89 37 12:48 16.12.2021
4878 Clouds -5 994 80 10000 4.12 10 11:19 16.12.2021
4879 Clouds -5 994 86 10000 5.14 350 10:46 16.12.2021
4880 Clouds -14 996 94 10000 3.65 28 09:52 16.12.2021
4881 Clouds -5 994 86 10000 3.6 360 07:21 16.12.2021
4882 Clouds -5 994 86 10000 4.12 10 06:19 16.12.2021
4883 Clouds -12 995 98 5227 3.2 24 00:53 16.12.2021
4884 Clouds -6 995 86 10000 2.06 20 23:21 15.12.2021
4885 Clouds -5 995 86 10000 1.54 100 22:26 15.12.2021
4886 Clouds -5 995 86 10000 1.03 120 21:49 15.12.2021
4887 Clouds -5 995 86 10000 1.03 120 21:26 15.12.2021
4888 Clouds -8 996 95 9250 1.42 117 19:55 15.12.2021
4889 Clouds -3 994 86 10000 2.57 240 19:23 15.12.2021
4890 Clouds -3 994 86 10000 3.09 260 18:36 15.12.2021
4891 Clouds -3 994 86 10000 3.6 270 17:49 15.12.2021
4892 Clouds -3 994 86 10000 3.6 270 17:27 15.12.2021
4893 Clouds -3 994 86 10000 3.09 270 16:26 15.12.2021
4894 Clouds -3 994 86 8000 2.57 200 15:45 15.12.2021
4895 Clouds -3 994 86 8000 2.57 200 15:27 15.12.2021
4896 Clouds -5 994 85 1465 1.79 190 13:59 15.12.2021
4897 Snow -3 993 86 8000 2.57 190 12:24 15.12.2021
4898 Clouds -3 991 86 10000 2.06 200 10:25 15.12.2021
4899 Clouds -7 991 83 10000 2.07 152 08:54 15.12.2021
4900 Clouds -4 988 80 10000 2.57 160 06:45 15.12.2021
4901 Clouds -4 985 86 10000 1.54 20 01:20 15.12.2021
4902 Clouds -4 984 74 10000 1.54 0 23:42 14.12.2021
4903 Clouds -5 983 93 10000 3.09 40 22:48 14.12.2021
4904 Clouds -5 983 93 10000 3.09 40 22:18 14.12.2021
4905 Clouds -4 982 86 10000 3.09 30 20:28 14.12.2021
4906 Clouds -4 981 86 10000 1.03 0 19:40 14.12.2021
4907 Clouds -12 982 79 10000 2.59 43 18:53 14.12.2021
4908 Clouds -4 981 86 10000 1.03 90 18:22 14.12.2021
4909 Clouds -4 980 86 10000 3.09 30 17:30 14.12.2021
4910 Clouds -4 980 80 10000 1.54 50 16:39 14.12.2021
4911 Clouds -4 980 80 10000 3.09 40 15:35 14.12.2021
4912 Clouds -4 979 80 10000 3.09 30 13:31 14.12.2021
4913 Clear -12 980 79 10000 2.64 66 11:59 14.12.2021
4914 Clouds -4 978 80 10000 2.57 30 11:24 14.12.2021
4915 Clear -12 979 78 10000 2.16 73 09:57 14.12.2021
4916 Clouds -4 977 63 10000 1.54 40 09:35 14.12.2021
4917 Clear -4 976 80 10000 4.12 30 08:27 14.12.2021
4918 Clear -3 975 80 10000 4.12 40 07:43 14.12.2021
4919 Clouds -3 974 80 10000 4.12 70 02:37 14.12.2021
4920 Clear -11 976 78 10000 4.15 48 22:56 13.12.2021
4921 Clear -12 976 79 10000 3.92 39 21:53 13.12.2021
4922 Clouds -3 973 80 10000 9.26 30 21:32 13.12.2021
4923 Clouds -4 974 80 10000 7.2 30 20:42 13.12.2021
4924 Clear -11 975 76 10000 3.78 45 19:52 13.12.2021
4925 Clouds -3 974 63 10000 7.72 30 18:24 13.12.2021
4926 Clouds -3 974 68 10000 8.75 50 17:26 13.12.2021
4927 Clouds -11 977 77 10000 3.6 49 15:54 13.12.2021
4928 Clouds -4 976 74 10000 9.26 40 15:32 13.12.2021
4929 Clouds -5 977 80 10000 8.75 50 13:45 13.12.2021
4930 Clouds -5 978 74 10000 6.17 50 12:49 13.12.2021
4931 Clouds -13 980 79 10000 3.6 47 11:59 13.12.2021
4932 Clouds -5 978 74 10000 3.6 80 11:35 13.12.2021
4933 Clouds -6 978 73 10000 6.69 40 10:47 13.12.2021
4934 Clouds -7 979 73 10000 4.12 40 09:32 13.12.2021
4935 Clouds -14 981 77 10000 3.83 56 07:53 13.12.2021
4936 Clouds -7 982 73 10000 5.66 60 05:36 13.12.2021
4937 Clouds -7 984 79 10000 9.26 60 03:28 13.12.2021
4938 Clouds -7 988 79 10000 7.72 60 23:26 12.12.2021
4939 Snow -7 990 86 6000 9.77 40 21:41 12.12.2021
4940 Snow -7 990 86 10000 9.26 40 20:18 12.12.2021
4941 Clouds -7 992 79 10000 8.23 10 18:43 12.12.2021
4942 Clouds -7 993 86 10000 7.2 10 17:45 12.12.2021
4943 Clouds -7 993 86 10000 7.72 10 16:28 12.12.2021
4944 Clouds -14 995 94 10000 3.37 50 15:50 12.12.2021
4945 Clouds -7 994 86 10000 4.63 10 15:26 12.12.2021
4946 Clouds -6 994 86 10000 5.66 20 14:36 12.12.2021
4947 Clouds -6 995 86 10000 6.17 20 13:33 12.12.2021
4948 Clouds -6 995 86 10000 4.63 10 12:32 12.12.2021
4949 Clouds -5 995 86 10000 3.09 50 11:44 12.12.2021
4950 Clouds -5 995 86 10000 3.09 50 11:24 12.12.2021
4951 Clouds -6 995 93 10000 2.57 50 10:28 12.12.2021
4952 Clouds -7 995 93 10000 3.09 40 09:39 12.12.2021
4953 Clouds -6 995 86 10000 3.6 360 08:34 12.12.2021
4954 Snow -5 995 93 10000 3.6 10 06:20 12.12.2021
4955 Snow -4 995 93 2200 3.09 10 05:22 12.12.2021
4956 Snow -5 995 85 154 5.36 320 03:57 12.12.2021
4957 Snow -4 994 86 3000 2.57 360 23:48 11.12.2021
4958 Snow -4 994 86 1300 3.09 20 22:24 11.12.2021
4959 Snow -5 993 85 194 2.68 360 21:52 11.12.2021
4960 Snow -4 993 86 10000 3.09 360 21:21 11.12.2021
4961 Snow -4 992 93 10000 3.09 60 19:37 11.12.2021
4962 Snow -5 992 92 3481 1.79 350 18:53 11.12.2021
4963 Clouds -4 992 93 10000 2.06 350 18:26 11.12.2021
4964 Clouds -3 991 74 10000 3.6 30 17:37 11.12.2021
4965 Clouds -7 992 85 10000 1.02 58 15:55 11.12.2021
4966 Clouds -3 990 74 10000 2.06 40 15:35 11.12.2021
4967 Clouds -3 990 80 10000 2.57 30 13:21 11.12.2021
4968 Clouds -8 991 80 10000 1.21 55 11:55 11.12.2021
4969 Clouds -10 991 78 10000 1.73 85 09:57 11.12.2021
4970 Clouds -4 988 74 10000 1.54 50 09:34 11.12.2021
4971 Clouds -5 988 80 10000 3.09 50 02:41 11.12.2021
4972 Clouds -5 989 80 10000 3.6 60 00:42 11.12.2021
4973 Clouds -11 990 82 10000 2.84 45 23:39 10.12.2021
4974 Clouds -5 989 80 10000 3.09 40 22:26 10.12.2021
4975 Clouds -5 989 80 10000 3.6 50 21:37 10.12.2021
4976 Clouds -12 990 85 10000 2.71 54 19:55 10.12.2021
4977 Clouds -5 988 80 10000 4.63 60 19:18 10.12.2021
4978 Clouds -5 989 80 10000 5.14 70 17:23 10.12.2021
4979 Clouds -5 990 86 10000 5.66 70 16:32 10.12.2021
4980 Clouds -5 990 80 10000 6.17 70 15:42 10.12.2021
4981 Clouds -5 990 80 10000 6.17 70 15:23 10.12.2021
4982 Clouds -12 993 93 10000 3.22 60 13:53 10.12.2021
4983 Clouds -4 992 93 10000 4.63 70 13:31 10.12.2021
4984 Clouds -11 993 93 10000 3.32 70 12:51 10.12.2021
4985 Snow -3 993 93 5000 2.06 40 11:36 10.12.2021
4986 Clouds -8 994 94 3475 2.98 56 10:55 10.12.2021
4987 Snow -4 995 93 10000 0.51 30 09:33 10.12.2021
4988 Snow -3 996 100 10000 2.06 320 07:24 10.12.2021
4989 Snow -3 998 93 1900 4.12 280 04:32 10.12.2021
4990 Snow -3 999 93 2500 4.63 280 02:29 10.12.2021
4991 Snow -3 999 100 8000 3.6 290 23:40 09.12.2021
4992 Snow -2 999 93 6000 4.12 280 22:41 09.12.2021
4993 Snow -2 999 93 6000 4.12 280 22:21 09.12.2021
4994 Snow -2 998 93 8000 5.14 280 21:39 09.12.2021
4995 Snow -2 998 93 5000 4.12 290 20:34 09.12.2021
4996 Snow -2 996 93 1600 2.57 230 19:38 09.12.2021
4997 Snow -2 996 93 1600 2.57 230 19:19 09.12.2021
4998 Snow -2 995 93 3000 1.54 180 18:18 09.12.2021
4999 Snow -2 994 93 3000 1.54 190 17:47 09.12.2021
5000 Snow -2 994 93 3000 1.54 190 17:24 09.12.2021
5001 Snow -2 993 86 10000 1.54 230 16:25 09.12.2021
5002 Clouds -2 992 80 10000 1.54 20 15:18 09.12.2021
5003 Clouds -2 991 80 10000 2.57 310 14:30 09.12.2021
5004 Clouds -2 988 86 10000 3.09 0 12:48 09.12.2021
5005 Clouds -2 987 86 10000 2.06 0 11:33 09.12.2021
5006 Clouds -2 986 86 10000 1.54 0 10:20 09.12.2021
5007 Clouds -3 982 68 10000 3.09 60 07:34 09.12.2021
5008 Clouds -10 982 79 10000 2.22 58 03:56 09.12.2021
5009 Clouds -1 978 59 10000 4.63 40 00:25 09.12.2021
5010 Clouds 0 978 51 10000 7.72 70 23:37 08.12.2021
5011 Clouds -9 979 79 10000 2.82 33 22:57 08.12.2021
5012 Clouds 0 977 43 10000 8.23 80 22:36 08.12.2021
5013 Clouds -1 977 69 10000 6.69 50 21:38 08.12.2021
5014 Clouds -9 979 76 10000 3.48 45 20:50 08.12.2021
5015 Clouds -8 978 77 10000 3.76 49 19:57 08.12.2021
5016 Clouds 1 976 44 10000 8.75 60 19:20 08.12.2021
5017 Clouds -1 976 74 10000 7.72 60 18:22 08.12.2021
5018 Clouds -7 978 83 10000 3.45 52 16:55 08.12.2021
5019 Clouds -2 975 74 10000 7.72 60 15:45 08.12.2021
5020 Clouds -2 975 74 10000 7.72 60 15:23 08.12.2021
5021 Clouds -4 974 86 10000 8.23 40 13:27 08.12.2021
5022 Snow -6 974 79 1800 8.23 50 10:45 08.12.2021
5023 Snow -6 974 79 1800 8.23 50 10:23 08.12.2021
5024 Snow -7 975 62 10000 5.36 50 08:54 08.12.2021
5025 Snow -8 975 62 10000 5.14 40 06:36 08.12.2021
5026 Snow -9 983 62 10000 10.29 60 01:20 08.12.2021
5027 Clouds -8 989 67 10000 8.75 50 23:29 07.12.2021
5028 Clouds -8 995 53 10000 7.72 80 21:26 07.12.2021
5029 Clouds -8 997 57 10000 6.17 80 20:26 07.12.2021
5030 Clouds -8 997 57 10000 6.17 80 20:26 07.12.2021
5031 Clouds -8 999 53 10000 6.69 70 19:23 07.12.2021
5032 Clouds -8 1002 53 10000 5.66 80 18:32 07.12.2021
5033 Clouds -7 1003 49 10000 4.12 100 17:27 07.12.2021
5034 Clouds -14 1005 79 10000 4.13 80 16:56 07.12.2021
5035 Clouds -7 1004 53 10000 3.6 110 16:26 07.12.2021
5036 Clouds -7 1005 53 10000 7.2 120 14:47 07.12.2021
5037 Clouds -7 1005 63 10000 6.17 110 13:45 07.12.2021
5038 Clouds -7 1006 63 10000 3.6 140 12:27 07.12.2021
5039 Clouds -7 1006 63 10000 3.6 110 11:23 07.12.2021
5040 Snow -7 1005 79 2400 5.66 150 09:40 07.12.2021
5041 Clouds -9 1007 74 10000 4.28 134 07:52 07.12.2021
5042 Snow -9 1006 76 10000 3.17 147 05:54 07.12.2021
5043 Snow -6 1003 73 6000 3.6 130 05:26 07.12.2021
5044 Snow -6 999 79 10000 3.09 240 23:38 06.12.2021
5045 Snow -6 999 86 10000 6.69 250 22:41 06.12.2021
5046 Snow -6 999 86 10000 6.69 250 22:18 06.12.2021
5047 Snow -6 998 79 10000 3.6 210 21:36 06.12.2021
5048 Snow -5 997 68 10000 4.12 230 20:33 06.12.2021
5049 Snow -5 997 68 10000 4.12 230 20:33 06.12.2021
5050 Clouds -5 996 68 10000 4.63 230 19:25 06.12.2021
5051 Clouds -5 995 73 10000 4.47 240 18:55 06.12.2021
5052 Clouds -6 997 69 10000 4.84 245 17:55 06.12.2021
5053 Clouds -5 994 80 10000 4.12 230 17:34 06.12.2021
5054 Clouds -5 994 80 10000 4.12 230 17:34 06.12.2021
5055 Clouds -6 996 70 10000 5.04 238 15:52 06.12.2021
5056 Clouds -6 995 70 10000 5.02 233 14:51 06.12.2021
5057 Clouds -4 991 74 10000 6.17 180 13:36 06.12.2021
5058 Clouds -5 990 80 10000 7.6 210 12:39 06.12.2021
5059 Clouds -4 989 74 10000 6.17 200 10:30 06.12.2021
5060 Clouds -5 989 69 10000 8.74 194 07:59 06.12.2021
5061 Snow -5 986 80 2599 10.11 198 03:52 06.12.2021
5062 Clouds -3 977 74 10000 9.26 180 22:28 05.12.2021
5063 Snow -4 976 86 1700 11.83 190 21:26 05.12.2021
5064 Clouds -3 975 68 10000 11.18 200 20:59 05.12.2021
5065 Clouds -3 975 68 10000 11.32 200 20:18 05.12.2021
5066 Clouds -3 974 74 10000 11.32 200 19:33 05.12.2021
5067 Clouds -3 973 74 10000 11.83 200 18:39 05.12.2021
5068 Clouds -3 973 74 10000 11.83 200 18:19 05.12.2021
5069 Clouds -3 972 86 10000 10.8 200 17:45 05.12.2021
5070 Snow -2 971 80 500 10.29 180 16:45 05.12.2021
5071 Snow -2 971 80 500 10.29 180 16:24 05.12.2021
5072 Clouds -1 970 69 10000 10.8 180 14:49 05.12.2021
5073 Clouds -1 970 69 10000 10.8 180 14:30 05.12.2021
5074 Clouds -1 969 86 10000 9.77 200 13:43 05.12.2021
5075 Clouds 0 968 81 10000 10.73 180 12:55 05.12.2021
5076 Clouds 0 968 80 10000 10.8 180 12:29 05.12.2021
5077 Clouds -1 968 92 10000 8.94 170 11:56 05.12.2021
5078 Clouds 0 970 79 10000 9.39 180 10:52 05.12.2021
5079 Snow -1 966 100 10000 10.73 170 09:58 05.12.2021
5080 Snow 0 963 100 3500 11.83 170 07:33 05.12.2021
5081 Clouds 6 959 39 10000 5.66 100 02:25 05.12.2021
5082 Clouds 6 962 42 10000 9.26 110 23:31 04.12.2021
5083 Clouds 4 963 56 10000 10.45 137 21:54 04.12.2021
5084 Rain 4 964 73 10000 11.41 163 20:55 04.12.2021
5085 Clouds 5 965 61 10000 18.27 145 19:55 04.12.2021
5086 Clouds 9 962 40 10000 9.26 130 19:31 04.12.2021
5087 Clouds 5 962 60 10000 20.51 154 17:59 04.12.2021
5088 Clouds 5 962 70 10000 1.54 0 17:38 04.12.2021
5089 Snow 4 963 81 10000 7.2 60 16:48 04.12.2021
5090 Snow 4 963 81 10000 7.2 60 16:30 04.12.2021
5091 Rain 3 964 81 10000 9.26 70 15:18 04.12.2021
5092 Snow 0 970 97 692 4.65 91 11:50 04.12.2021
5093 Snow 1 970 80 7000 9.26 70 11:32 04.12.2021
5094 Snow 1 970 80 7000 9.26 70 11:32 04.12.2021
5095 Snow 1 971 80 4600 10.29 70 10:43 04.12.2021
5096 Snow -3 976 86 700 13.38 60 08:47 04.12.2021
5097 Snow -3 981 46 1500 12.86 80 06:26 04.12.2021
5098 Snow -3 986 43 6000 9.77 80 04:42 04.12.2021
5099 Clouds -4 994 50 3500 9.77 80 00:24 04.12.2021
5100 Snow -4 996 50 10000 10.29 80 23:26 03.12.2021
5101 Snow -4 996 50 10000 10.29 80 23:26 03.12.2021
5102 Clouds -3 997 46 10000 9.26 80 22:46 03.12.2021
5103 Clouds -3 999 50 10000 7.2 100 21:26 03.12.2021
5104 Clouds -8 1000 65 10000 5.93 79 20:52 03.12.2021
5105 Clouds -8 1001 64 10000 5.85 85 19:53 03.12.2021
5106 Clouds -3 1001 50 10000 5.14 100 18:34 03.12.2021
5107 Clouds -9 1003 68 10000 5.77 88 17:59 03.12.2021
5108 Clouds -4 1003 58 10000 6.17 90 15:47 03.12.2021
5109 Clouds -9 1006 78 10000 4.42 99 12:59 03.12.2021
5110 Clouds -4 1004 58 10000 1.03 0 12:19 03.12.2021
5111 Clouds -5 1004 68 10000 4.02 140 10:55 03.12.2021
5112 Clouds -6 1006 90 10000 3.37 125 08:29 03.12.2021
5113 Clouds -6 1006 90 10000 3.37 125 07:43 03.12.2021
5114 Clouds -5 1006 91 6391 4.87 153 04:44 03.12.2021
5115 Snow -3 1000 73 408 4.92 230 00:48 03.12.2021
5116 Snow -3 1000 73 712 4.92 230 23:47 02.12.2021
5117 Snow -3 1000 73 1551 4.92 230 22:36 02.12.2021
5118 Clouds -3 1000 73 6160 4.92 230 21:41 02.12.2021
5119 Clouds -3 1000 73 10000 4.92 230 20:44 02.12.2021
5120 Clouds -3 1000 73 10000 4.92 230 20:22 02.12.2021
5121 Clouds -3 1000 74 10000 5.14 230 18:36 02.12.2021
5122 Clouds -3 999 80 10000 5.66 220 16:35 02.12.2021
5123 Snow -3 999 80 10000 6.69 220 15:41 02.12.2021
5124 Snow -3 999 80 10000 6.69 220 15:41 02.12.2021
5125 Snow -3 998 86 10000 6.71 220 14:52 02.12.2021
5126 Clouds -3 997 86 10000 8.23 220 13:36 02.12.2021
5127 Snow -3 996 93 2000 8.23 220 12:24 02.12.2021
5128 Snow -2 993 93 3000 9.26 210 10:42 02.12.2021
5129 Snow -3 994 96 149 9.11 232 09:26 02.12.2021
5130 Snow -3 990 96 131 10.59 233 06:59 02.12.2021
5131 Snow 0 974 91 547 2.87 127 01:26 02.12.2021
5132 Clouds 2 975 70 10000 2.24 180 00:26 02.12.2021
5133 Snow 2 975 87 10000 2.57 180 22:31 01.12.2021
5134 Rain 2 975 87 10000 5.66 180 21:44 01.12.2021
5135 Rain 2 975 87 10000 8.75 170 20:23 01.12.2021
5136 Rain 2 975 93 10000 13.07 166 19:40 01.12.2021
5137 Rain 2 973 93 10000 12.35 109 18:47 01.12.2021
5138 Rain 3 973 87 8000 16.98 160 17:24 01.12.2021
5139 Rain 4 972 87 6000 13.89 170 16:21 01.12.2021
5140 Snow 1 973 100 3500 4.12 160 14:35 01.12.2021
5141 Snow -1 972 100 10000 7.2 40 13:37 01.12.2021
5142 Snow 0 997 96 2705 7.15 60 10:44 01.12.2021
5143 Snow 0 997 96 2455 7.15 60 10:22 01.12.2021
5144 Snow 0 997 97 2104 7.15 60 08:52 01.12.2021
5145 Snow 0 997 95 1997 7.15 60 07:59 01.12.2021
5146 Snow 0 997 95 1997 7.15 60 07:31 01.12.2021
5147 Snow -4 994 89 1897 4.88 41 03:57 01.12.2021
5148 Clouds 0 997 80 10000 7.2 60 03:27 01.12.2021
5149 Clouds 0 1006 80 10000 5.66 60 00:44 01.12.2021
5150 Clouds -5 1007 87 10000 3.74 61 23:33 30.11.2021
5151 Clouds -4 1009 88 10000 4.09 51 22:34 30.11.2021
5152 Clouds 0 1011 91 10000 11.18 160 20:47 30.11.2021
5153 Clouds 0 1011 94 4837 11.18 160 20:26 30.11.2021
5154 Snow 0 1011 86 10000 11.32 160 19:39 30.11.2021
5155 Clouds 0 1011 94 1790 11.18 170 18:54 30.11.2021
5156 Snow 0 1011 100 10000 10.29 170 17:47 30.11.2021
5157 Snow 0 1011 100 3500 10.8 170 16:25 30.11.2021
5158 Snow 0 994 100 70 19.67 160 14:35 30.11.2021
5159 Snow 0 994 100 50 19.67 160 13:41 30.11.2021
5160 Snow 0 994 100 50 19.67 160 13:22 30.11.2021
5161 Snow 0 994 100 50 19.67 160 12:40 30.11.2021
5162 Snow 0 994 100 62 19.67 160 11:26 30.11.2021
5163 Snow 0 994 100 62 19.67 160 10:37 30.11.2021
5164 Snow 0 994 100 51 19.67 160 08:59 30.11.2021
5165 Snow 0 994 100 51 19.67 160 08:40 30.11.2021
5166 Snow 1 1002 97 44 14.69 183 08:19 30.11.2021
5167 Snow 0 994 100 44 19.67 160 07:34 30.11.2021
5168 Snow 0 995 96 324 12.66 156 01:52 30.11.2021
5169 Snow 2 994 87 3700 17.49 160 01:31 30.11.2021
5170 Snow 1 996 97 86 10.37 156 23:54 29.11.2021
5171 Snow 2 994 87 6000 3.09 0 23:20 29.11.2021
5172 Snow 3 994 75 10000 4.63 170 22:44 29.11.2021
5173 Snow 3 994 75 10000 4.63 170 22:25 29.11.2021
5174 Rain 3 994 70 10000 3.09 0 21:21 29.11.2021
5175 Clouds 3 995 74 10000 11.62 150 20:56 29.11.2021
5176 Rain 3 993 75 6000 11.83 150 20:22 29.11.2021
5177 Drizzle 3 994 75 8000 8.75 150 19:44 29.11.2021
5178 Drizzle 3 994 75 8000 8.75 150 19:25 29.11.2021
5179 Clouds 1 995 86 10000 11.23 154 18:45 29.11.2021
5180 Clouds 1 996 88 10000 11.46 155 17:22 29.11.2021
5181 Clouds 1 996 88 10000 11.46 155 16:56 29.11.2021
5182 Clouds 1 995 88 10000 11.05 155 16:25 29.11.2021
5183 Clouds 1 995 87 10000 9.85 156 15:24 29.11.2021
5184 Clouds 1 995 87 10000 9.85 156 14:41 29.11.2021
5185 Rain 1 995 98 65 5.91 154 13:28 29.11.2021
5186 Rain 1 995 97 169 6.25 147 12:22 29.11.2021
5187 Rain 1 995 97 169 6.25 147 11:31 29.11.2021
5188 Rain 1 995 99 91 3.42 141 10:27 29.11.2021
5189 Rain 4 994 81 5000 10.29 170 08:30 29.11.2021
5190 Rain 2 996 97 273 7.34 162 05:58 29.11.2021
5191 Clouds 4 992 93 10000 15.95 170 01:35 29.11.2021
5192 Snow 4 992 93 2300 18.01 160 00:36 29.11.2021
5193 Snow 5 991 100 1800 19.55 160 23:42 28.11.2021
5194 Snow 6 991 93 3200 19.03 160 22:30 28.11.2021
5195 Snow 5 993 100 2200 2.57 0 21:41 28.11.2021
5196 Rain 4 994 95 6051 9.94 177 20:58 28.11.2021
5197 Rain 2 993 97 6372 4.1 91 19:55 28.11.2021
5198 Fog 3 995 93 3000 2.06 0 18:45 28.11.2021
5199 Fog 3 995 93 3000 2.06 0 18:26 28.11.2021
5200 Fog 2 996 100 7000 5.66 30 17:49 28.11.2021
5201 Fog 2 996 100 7000 5.66 30 17:27 28.11.2021
5202 Mist 3 997 93 1100 3.6 20 16:28 28.11.2021
5203 Clouds 2 999 98 10000 2.79 150 15:52 28.11.2021
5204 Clouds 2 999 96 10000 3.25 147 14:56 28.11.2021
5205 Mist 4 998 100 1300 7.2 190 14:30 28.11.2021
5206 Rain 4 999 92 10000 9.88 169 12:58 28.11.2021
5207 Rain 4 999 91 10000 11.68 171 11:57 28.11.2021
5208 Snow 6 996 87 2400 15.43 160 10:37 28.11.2021
5209 Snow 6 996 87 2400 15.43 160 10:19 28.11.2021
5210 Rain 6 995 87 2000 16.98 160 09:36 28.11.2021
5211 Rain 4 997 95 7369 11.34 177 05:50 28.11.2021
5212 Rain 7 998 87 3500 8.23 180 23:33 27.11.2021
5213 Rain 7 998 93 4000 15.95 170 20:33 27.11.2021
5214 Rain 6 1001 93 3400 8.23 190 18:49 27.11.2021
5215 Rain 7 1001 87 1300 12.86 170 16:31 27.11.2021
5216 Rain 3 1003 98 2689 4.24 154 15:55 27.11.2021
5217 Rain 6 1002 87 2000 16.98 170 13:47 27.11.2021
5218 Rain 6 1002 93 2000 17.49 170 12:29 27.11.2021
5219 Snow 6 1003 93 1500 18.52 170 10:32 27.11.2021
5220 Rain 2 1006 99 2440 4.47 142 09:51 27.11.2021
5221 Snow 7 1004 87 2100 15.95 170 08:40 27.11.2021
5222 Rain 2 1009 99 566 2.81 111 04:58 27.11.2021
5223 Rain 1 1011 99 1963 3.41 60 01:53 27.11.2021
5224 Rain 1 1012 93 2200 2.57 20 23:35 26.11.2021
5225 Rain 0 1012 100 3000 2.57 0 22:25 26.11.2021
5226 Rain 1 1013 100 1500 1.03 0 21:36 26.11.2021
5227 Rain 1 1014 98 10000 2.87 38 20:53 26.11.2021
5228 Rain 0 1013 100 1500 1.03 70 20:19 26.11.2021
5229 Fog 0 1013 100 1500 4.12 30 19:47 26.11.2021
5230 Rain 0 1014 100 6000 2.06 0 18:33 26.11.2021
5231 Fog 0 1014 93 2500 6.17 40 17:23 26.11.2021
5232 Snow 1 1015 99 342 2.3 60 15:57 26.11.2021
5233 Snow -1 1015 100 3500 5.66 50 13:36 26.11.2021
5234 Snow -1 1015 100 5000 5.14 40 12:40 26.11.2021
5235 Snow 0 1014 100 10000 1.54 180 10:38 26.11.2021
5236 Snow 0 1014 96 513 3.67 56 08:59 26.11.2021
5237 Snow 0 1014 100 5000 3.09 0 08:21 26.11.2021
5238 Snow -1 1015 100 5000 0.51 0 07:33 26.11.2021
5239 Snow -2 1016 100 3200 2.06 60 06:28 26.11.2021
5240 Clouds -4 1019 81 10000 3.24 80 04:51 26.11.2021
5241 Clouds -2 1019 100 10000 1.54 230 03:25 26.11.2021
5242 Snow -2 1023 93 10000 0.51 0 23:27 25.11.2021
5243 Clouds -10 1026 88 10000 4.1 75 21:50 25.11.2021
5244 Snow -1 1025 93 10000 3.6 60 20:37 25.11.2021
5245 Clouds -1 1025 93 10000 2.06 50 18:48 25.11.2021
5246 Clouds -9 1028 92 10000 3.36 69 17:58 25.11.2021
5247 Clouds -1 1026 100 10000 0.51 350 17:26 25.11.2021
5248 Clouds -1 1026 100 10000 2.06 50 16:38 25.11.2021
5249 Clouds -10 1029 94 10000 3.23 83 15:58 25.11.2021
5250 Clouds -1 1026 93 10000 1.54 40 14:19 25.11.2021
5251 Clouds -2 1026 100 10000 1.54 10 12:47 25.11.2021
5252 Clouds -8 1028 97 5632 3.06 67 11:52 25.11.2021
5253 Clouds -4 1025 100 10000 1.03 80 10:25 25.11.2021
5254 Clouds -2 1023 100 10000 2.57 40 06:24 25.11.2021
5255 Clouds -7 1023 99 7956 1.61 26 02:53 25.11.2021
5256 Snow -1 1019 100 8000 3.09 30 23:39 24.11.2021
5257 Snow -1 1018 100 3500 4.12 60 22:28 24.11.2021
5258 Snow 0 1018 93 600 2.57 320 21:45 24.11.2021
5259 Snow 0 1020 98 141 3.58 220 20:58 24.11.2021
5260 Snow 0 1017 100 700 3.6 220 20:26 24.11.2021
5261 Snow 0 1015 99 61 12.07 170 18:58 24.11.2021
5262 Snow 0 1015 100 800 12.35 170 18:18 24.11.2021
5263 Snow 0 1013 100 800 15.95 170 16:20 24.11.2021
5264 Snow 1 1017 97 44 14.12 186 14:57 24.11.2021
5265 Snow 1 1012 100 1600 22.64 170 14:21 24.11.2021
5266 Snow 0 1016 100 54 20.56 170 12:51 24.11.2021
5267 Snow 2 1010 93 2200 24.69 160 11:24 24.11.2021
5268 Rain 2 1010 93 58 23.25 160 10:52 24.11.2021
5269 Rain 2 1010 93 58 23.25 160 10:52 24.11.2021
5270 Rain 2 1010 93 2000 23.66 160 10:34 24.11.2021
5271 Snow 1 1011 100 1900 22.12 160 09:29 24.11.2021
5272 Snow 1 1009 100 2000 25.21 160 07:39 24.11.2021
5273 Snow 1 1010 100 2200 26.75 160 05:23 24.11.2021
5274 Snow 2 1009 100 2500 29.84 160 03:32 24.11.2021
5275 Snow 2 1008 93 1800 22.12 160 23:33 23.11.2021
5276 Snow 2 1010 100 1600 20.58 160 22:38 23.11.2021
5277 Rain 2 1010 100 2000 20.06 160 21:45 23.11.2021
5278 Rain 3 1013 81 1800 12.86 150 20:22 23.11.2021
5279 Snow 1 1015 69 2000 5.14 160 19:33 23.11.2021
5280 Snow -2 1017 46 10000 1.54 100 18:34 23.11.2021
5281 Snow -4 1017 58 10000 3.09 0 17:31 23.11.2021
5282 Snow -5 1020 63 10000 5.66 60 16:37 23.11.2021
5283 Clouds -5 1021 58 10000 5.14 60 15:27 23.11.2021
5284 Clouds -9 1023 72 10000 4.26 81 14:54 23.11.2021
5285 Clouds -5 1023 58 10000 4.63 90 13:20 23.11.2021
5286 Clouds -5 1024 63 10000 5.66 80 10:28 23.11.2021
5287 Clouds -5 1025 74 10000 4.12 90 09:47 23.11.2021
5288 Clouds -5 1025 74 10000 4.63 90 08:41 23.11.2021
5289 Clouds -14 1027 87 10000 3.6 80 04:53 23.11.2021
5290 Clouds -6 1024 86 10000 2.57 80 03:35 23.11.2021
5291 Clouds -6 1023 86 10000 2.06 80 23:41 22.11.2021
5292 Clouds -6 1023 86 10000 2.06 80 23:20 22.11.2021
5293 Clouds -5 1022 86 10000 1.03 180 22:30 22.11.2021
5294 Snow -5 1021 86 10000 2.57 170 21:45 22.11.2021
5295 Snow -5 1021 86 10000 2.57 170 21:21 22.11.2021
5296 Clouds -5 1021 93 10000 1.54 170 20:42 22.11.2021
5297 Clouds -5 1020 80 10000 2.06 120 19:21 22.11.2021
5298 Clouds -4 1019 86 10000 3.09 100 18:41 22.11.2021
5299 Clouds -4 1019 86 10000 3.09 100 18:22 22.11.2021
5300 Clouds -5 1019 80 10000 2.06 110 16:45 22.11.2021
5301 Clouds -5 1018 74 10000 2.06 80 15:32 22.11.2021
5302 Clouds -7 1019 91 10000 2.03 161 12:51 22.11.2021
5303 Snow -3 1016 80 5000 3.09 50 11:39 22.11.2021
5304 Clouds -4 1015 80 10000 1.54 60 10:27 22.11.2021
5305 Clouds -3 1014 68 10000 2.57 70 08:44 22.11.2021
5306 Clouds -3 1014 68 10000 2.57 70 08:24 22.11.2021
5307 Snow -2 1010 93 4600 2.57 60 01:43 22.11.2021
5308 Snow -2 1009 93 2000 0.51 60 23:22 21.11.2021
5309 Snow -2 1009 93 10000 1.54 230 22:46 21.11.2021
5310 Snow -2 1008 93 10000 1.54 180 21:33 21.11.2021
5311 Clouds -2 1007 93 10000 1.03 0 20:38 21.11.2021
5312 Clouds -2 1006 100 10000 1.03 30 19:43 21.11.2021
5313 Clouds -2 1006 100 10000 1.03 30 19:43 21.11.2021
5314 Clouds -10 1008 89 10000 2.47 52 17:59 21.11.2021
5315 Clouds -1 1006 86 10000 2.06 80 17:37 21.11.2021
5316 Clouds -1 1006 86 10000 2.06 80 17:37 21.11.2021
5317 Clouds -1 1007 93 10000 2.57 50 15:22 21.11.2021
5318 Clouds -1 1007 93 10000 3.6 60 14:43 21.11.2021
5319 Clouds -1 1008 93 10000 3.09 60 13:40 21.11.2021
5320 Clouds -1 1008 100 10000 3.09 40 12:32 21.11.2021
5321 Clouds -1 1009 86 10000 3.6 90 11:42 21.11.2021
5322 Clouds -7 1010 91 10000 3.25 102 10:55 21.11.2021
5323 Clouds -2 1009 80 10000 2.57 80 10:18 21.11.2021
5324 Snow 0 1010 74 10000 3.6 160 08:40 21.11.2021
5325 Snow 0 1010 74 10000 3.6 160 08:20 21.11.2021
5326 Snow 0 1010 86 10000 4.12 180 07:41 21.11.2021
5327 Snow 0 1010 93 10000 7.72 190 05:48 21.11.2021
5328 Clouds 0 1009 93 10000 8.23 190 04:37 21.11.2021
5329 Clouds 1 1009 86 10000 10.29 190 03:18 21.11.2021
5330 Clouds 0 1008 93 10000 10.8 190 02:48 21.11.2021
5331 Snow 0 1006 85 10000 11.62 190 00:54 21.11.2021
5332 Snow 0 1004 100 9000 12.35 190 23:43 20.11.2021
5333 Snow 0 1001 100 1200 13.38 190 21:40 20.11.2021
5334 Snow 0 1000 95 362 12.52 190 20:54 20.11.2021
5335 Rain 1 996 93 10000 13.38 190 18:46 20.11.2021
5336 Rain 1 996 93 10000 13.38 190 18:46 20.11.2021
5337 Rain 1 996 93 10000 13.38 190 18:26 20.11.2021
5338 Clouds 0 994 100 10000 13.89 190 17:26 20.11.2021
5339 Snow 1 992 93 3500 14.92 190 16:46 20.11.2021
5340 Snow 1 988 93 2000 19.03 180 14:46 20.11.2021
5341 Snow 1 988 93 2000 19.03 180 14:23 20.11.2021
5342 Snow 0 989 100 4000 1.54 0 12:22 20.11.2021
5343 Snow 0 992 97 62 9.63 161 10:52 20.11.2021
5344 Snow -1 993 93 500 11.32 80 09:39 20.11.2021
5345 Snow -2 996 93 800 12.35 80 07:37 20.11.2021
5346 Snow -2 999 86 1300 11.83 80 05:28 20.11.2021
5347 Snow -4 1002 81 3884 5.55 80 04:50 20.11.2021
5348 Clouds -5 1006 62 6068 5.81 60 01:58 20.11.2021
5349 Clouds -5 1006 58 10000 7.2 50 00:40 20.11.2021
5350 Clouds -6 1007 63 10000 6.69 50 23:43 19.11.2021
5351 Clouds -6 1008 63 10000 7.72 60 22:39 19.11.2021
5352 Clouds -7 1010 62 10000 4.47 50 20:59 19.11.2021
5353 Clouds -7 1009 63 10000 4.63 50 20:37 19.11.2021
5354 Clouds -7 1011 57 10000 4.47 40 19:56 19.11.2021
5355 Clouds -7 1010 58 10000 4.63 40 19:27 19.11.2021
5356 Clouds -7 1010 53 10000 1.03 0 18:43 19.11.2021
5357 Clouds -7 1010 58 10000 3.09 50 17:37 19.11.2021
5358 Clouds -10 1011 66 10000 0.89 110 15:58 19.11.2021
5359 Clouds -13 1013 70 10000 3.53 91 13:57 19.11.2021
5360 Clouds -9 1012 67 10000 2.57 80 10:34 19.11.2021
5361 Clouds -14 1014 72 10000 4.29 73 09:58 19.11.2021
5362 Clouds -9 1012 73 10000 5.66 60 08:32 19.11.2021
5363 Clear -15 1013 75 10000 4 61 04:54 19.11.2021
5364 Clouds -8 1011 67 10000 5.14 50 02:43 19.11.2021
5365 Clear -15 1011 75 10000 3.96 52 23:52 18.11.2021
5366 Clouds -9 1009 73 10000 5.14 70 22:38 18.11.2021
5367 Clear -15 1010 74 10000 3.73 49 20:56 18.11.2021
5368 Clouds -8 1007 67 10000 5.14 60 20:34 18.11.2021
5369 Clear -15 1009 74 10000 3.71 46 19:59 18.11.2021
5370 Clouds -8 1006 62 10000 5.14 70 19:36 18.11.2021
5371 Clouds -8 1006 62 10000 4.12 60 18:35 18.11.2021
5372 Clear -15 1008 73 10000 3.59 47 17:52 18.11.2021
5373 Clouds -9 1005 62 10000 4.12 60 16:46 18.11.2021
5374 Clear -15 1007 74 10000 3.39 33 15:52 18.11.2021
5375 Clear -9 1004 67 10000 7.2 30 14:40 18.11.2021
5376 Clear -17 1005 75 10000 3.7 40 12:55 18.11.2021
5377 Clouds -9 1002 67 10000 6.17 360 11:44 18.11.2021
5378 Clouds -9 1002 67 10000 6.17 360 11:25 18.11.2021
5379 Clouds -9 1002 73 10000 6.69 10 10:24 18.11.2021
5380 Clouds -9 1001 73 10000 6.69 20 08:30 18.11.2021
5381 Clouds -9 1000 67 10000 5.14 360 06:40 18.11.2021
5382 Clouds -9 1000 73 10000 5.14 360 05:44 18.11.2021
5383 Clouds -9 999 73 10000 5.14 360 01:26 18.11.2021
5384 Clouds -9 999 73 10000 5.14 360 01:26 18.11.2021
5385 Clouds -9 998 67 10000 5.14 20 23:35 17.11.2021
5386 Clear -9 997 79 10000 5.14 360 22:40 17.11.2021
5387 Clear -9 997 79 10000 5.14 360 22:19 17.11.2021
5388 Clear -9 997 79 10000 5.14 360 22:19 17.11.2021
5389 Clear -9 996 67 10000 5.66 10 21:35 17.11.2021
5390 Clear -16 997 80 10000 3.23 16 19:51 17.11.2021
5391 Clear -9 994 73 10000 6.17 350 17:35 17.11.2021
5392 Clear -15 995 77 10000 2.73 39 15:56 17.11.2021
5393 Clear -9 993 79 10000 5.14 360 13:41 17.11.2021
5394 Clouds -9 993 67 10000 7.2 0 12:38 17.11.2021
5395 Clear -16 995 78 10000 3.14 48 10:54 17.11.2021
5396 Clear -16 995 78 10000 3.14 48 10:54 17.11.2021
5397 Clear -8 993 73 10000 6.69 10 09:44 17.11.2021
5398 Clouds -9 993 67 10000 7.72 350 08:30 17.11.2021
5399 Clouds -8 994 62 10000 7.2 360 07:41 17.11.2021
5400 Clouds -7 999 53 9000 18.01 10 02:49 17.11.2021
5401 Clouds -8 1003 67 7000 17.49 10 00:42 17.11.2021
5402 Clouds -7 1007 58 10000 11.83 50 22:37 16.11.2021
5403 Clouds -7 1010 68 10000 10.8 40 20:19 16.11.2021
5404 Clear -15 1012 77 10000 5.47 32 19:55 16.11.2021
5405 Clear -14 1013 80 10000 4.92 40 18:52 16.11.2021
5406 Clouds -7 1012 73 10000 4.63 40 18:29 16.11.2021
5407 Clouds -7 1013 73 10000 3.6 80 17:29 16.11.2021
5408 Clouds -8 1014 79 10000 5.14 70 16:31 16.11.2021
5409 Clouds -8 1015 73 10000 6.17 80 15:48 16.11.2021
5410 Clouds -8 1016 86 10000 6.17 60 13:49 16.11.2021
5411 Clouds -13 1018 88 10000 3.32 67 10:52 16.11.2021
5412 Clouds -8 1016 79 10000 4.12 50 09:44 16.11.2021
5413 Clouds -8 1015 79 10000 2.06 60 08:24 16.11.2021
5414 Clouds -8 1016 73 10000 4.12 60 07:30 16.11.2021
5415 Clouds -8 1014 67 10000 2.57 60 01:20 16.11.2021
5416 Clouds -9 1013 67 10000 2.06 110 22:48 15.11.2021
5417 Clouds -9 1013 67 10000 2.06 110 22:20 15.11.2021
5418 Clouds -10 1012 72 10000 2.24 80 21:51 15.11.2021
5419 Clouds -10 1012 73 10000 2.57 80 21:25 15.11.2021
5420 Clouds -8 1011 53 10000 4.12 60 19:41 15.11.2021
5421 Clouds -8 1010 57 10000 4.63 80 18:18 15.11.2021
5422 Clouds -9 1010 73 10000 4.63 60 16:19 15.11.2021
5423 Clouds -10 1009 79 10000 5.14 60 15:40 15.11.2021
5424 Clouds -10 1009 79 10000 5.14 60 15:20 15.11.2021
5425 Clouds -10 1008 73 10000 5.14 60 12:47 15.11.2021
5426 Clouds -16 1010 82 10000 2.93 54 10:54 15.11.2021
5427 Clouds -10 1006 73 10000 2.57 80 09:26 15.11.2021
5428 Clouds -10 1005 67 10000 6.17 70 07:45 15.11.2021
5429 Clouds -10 1004 73 10000 5.14 60 04:46 15.11.2021
5430 Clouds -10 1004 67 10000 5.66 60 23:37 14.11.2021
5431 Clouds -10 1004 67 10000 5.14 80 22:34 14.11.2021
5432 Clear -16 1006 75 10000 3.09 61 19:53 14.11.2021
5433 Clouds -10 1003 52 10000 1.54 70 19:18 14.11.2021
5434 Clear -16 1005 76 10000 3.26 60 18:54 14.11.2021
5435 Clouds -10 1004 57 10000 3.6 60 18:36 14.11.2021
5436 Clouds -10 1004 57 10000 3.6 60 18:18 14.11.2021
5437 Clear -16 1005 75 10000 3.32 58 17:55 14.11.2021
5438 Clouds -10 1003 57 10000 6.17 70 17:37 14.11.2021
5439 Clouds -10 1003 57 10000 6.17 70 17:19 14.11.2021
5440 Clouds -10 1004 62 10000 7.2 70 16:46 14.11.2021
5441 Clouds -10 1004 62 10000 7.2 70 16:20 14.11.2021
5442 Clouds -11 1004 67 10000 7.2 80 15:23 14.11.2021
5443 Clear -11 1004 67 10000 6.69 80 14:49 14.11.2021
5444 Clear -11 1004 67 10000 6.69 80 14:28 14.11.2021
5445 Clear -17 1006 72 10000 3.44 65 13:54 14.11.2021
5446 Clear -11 1004 67 10000 5.66 60 13:35 14.11.2021
5447 Clouds -12 1004 67 10000 5.14 70 12:27 14.11.2021
5448 Clouds -11 1004 62 10000 6.17 60 11:41 14.11.2021
5449 Clear -11 1004 62 10000 8.23 60 10:41 14.11.2021
5450 Clouds -11 1004 62 10000 8.23 60 09:48 14.11.2021
5451 Clear -17 1006 72 10000 3.3 51 08:54 14.11.2021
5452 Clouds -11 1004 62 10000 8.23 30 07:23 14.11.2021
5453 Clouds -10 1003 62 10000 9.77 40 00:26 14.11.2021
5454 Clouds -10 1004 62 10000 9.26 30 22:26 13.11.2021
5455 Clear -17 1006 73 10000 4.02 37 21:57 13.11.2021
5456 Clouds -9 1005 62 10000 11.32 20 21:23 13.11.2021
5457 Clear -9 1005 62 10000 12.35 10 19:47 13.11.2021
5458 Clear -9 1006 62 10000 11.83 20 18:33 13.11.2021
5459 Clear -16 1008 69 10000 4.39 25 17:56 13.11.2021
5460 Clear -9 1007 57 10000 8.75 10 16:38 13.11.2021
5461 Clear -9 1007 57 10000 9.26 10 15:37 13.11.2021
5462 Clear -9 1008 57 10000 8.75 10 14:33 13.11.2021
5463 Clouds -10 1009 62 10000 7.72 30 13:38 13.11.2021
5464 Clouds -9 1009 57 10000 8.23 10 12:28 13.11.2021
5465 Clouds -9 1010 62 10000 9.77 20 11:38 13.11.2021
5466 Clouds -10 1010 57 10000 9.26 20 10:45 13.11.2021
5467 Clouds -10 1010 57 10000 9.26 20 10:23 13.11.2021
5468 Clear -9 1011 53 10000 8.23 30 09:38 13.11.2021
5469 Clear -17 1013 70 10000 4.76 27 08:56 13.11.2021
5470 Clouds -9 1011 53 10000 10.29 20 08:31 13.11.2021
5471 Clear -17 1013 69 10000 5.12 24 05:59 13.11.2021
5472 Clouds -9 1012 67 10000 6.69 360 04:30 13.11.2021
5473 Clouds -10 1014 67 10000 7.2 40 01:38 13.11.2021
5474 Clear -16 1017 72 10000 4.99 15 22:59 12.11.2021
5475 Clouds -9 1015 53 10000 8.23 30 21:49 12.11.2021
5476 Clear -9 1015 53 10000 7.72 40 20:18 12.11.2021
5477 Clear -15 1018 69 10000 4.9 24 19:28 12.11.2021
5478 Clear -9 1016 53 10000 6.17 30 18:46 12.11.2021
5479 Clear -9 1016 53 10000 5.66 60 16:39 12.11.2021
5480 Clear -9 1016 57 10000 6.69 30 15:34 12.11.2021
5481 Clear -16 1018 70 10000 5.27 16 12:54 12.11.2021
5482 Clear -16 1018 70 10000 5.27 16 12:54 12.11.2021
5483 Clear -16 1018 71 10000 4.52 15 10:58 12.11.2021
5484 Clear -8 1017 62 10000 5.66 40 09:45 12.11.2021
5485 Clouds -8 1017 57 10000 7.2 40 08:40 12.11.2021
5486 Clouds -8 1016 73 10000 7.2 360 03:27 12.11.2021
5487 Clouds -8 1016 57 10000 5.14 50 23:43 11.11.2021
5488 Clear -8 1015 57 10000 8.23 30 22:40 11.11.2021
5489 Clouds -8 1015 53 10000 5.66 40 21:29 11.11.2021
5490 Clouds -8 1014 57 10000 6.17 50 20:48 11.11.2021
5491 Clouds -8 1014 57 10000 6.69 40 19:30 11.11.2021
5492 Clouds -8 1014 57 10000 6.17 50 18:22 11.11.2021
5493 Clear -8 1013 57 10000 6.17 60 17:37 11.11.2021
5494 Clear -9 1013 67 10000 6.17 60 15:19 11.11.2021
5495 Clear -9 1013 62 10000 7.2 40 14:36 11.11.2021
5496 Clear -9 1013 62 10000 7.2 40 14:18 11.11.2021
5497 Clear -9 1013 62 10000 6.69 50 13:34 11.11.2021
5498 Clear -16 1014 73 10000 4.87 20 11:57 11.11.2021
5499 Clear -16 1014 74 10000 4.6 25 09:54 11.11.2021
5500 Clouds -9 1011 67 10000 7.2 40 08:28 11.11.2021
5501 Clouds -9 1011 62 10000 6.69 40 06:44 11.11.2021
5502 Clouds -9 1010 67 10000 6.69 360 00:37 11.11.2021
5503 Clouds -9 1009 73 10000 6.17 30 22:38 10.11.2021
5504 Clear -8 1009 67 10000 7.2 20 21:46 10.11.2021
5505 Clear -14 1011 73 10000 3.87 31 20:53 10.11.2021
5506 Clear -14 1010 73 10000 3.89 28 19:50 10.11.2021
5507 Clear -8 1008 73 10000 4.63 70 19:32 10.11.2021
5508 Clouds -8 1007 79 10000 6.17 60 17:19 10.11.2021
5509 Clouds -8 1007 73 10000 5.14 60 15:46 10.11.2021
5510 Clouds -8 1006 67 10000 4.63 60 14:24 10.11.2021
5511 Clear -8 1006 67 10000 5.14 60 13:36 10.11.2021
5512 Clouds -8 1006 67 10000 3.6 80 12:23 10.11.2021
5513 Clouds -8 1005 73 10000 5.66 60 09:18 10.11.2021
5514 Clouds -8 1005 67 10000 5.14 70 08:41 10.11.2021
5515 Clouds -8 1004 67 10000 6.17 70 06:45 10.11.2021
5516 Clouds -14 1007 75 10000 3.11 54 05:58 10.11.2021
5517 Clouds -14 1006 76 10000 3.17 44 01:56 10.11.2021
5518 Clouds -8 1004 73 10000 5.14 60 22:29 09.11.2021
5519 Clear -8 1003 73 10000 5.14 60 20:43 09.11.2021
5520 Clear -7 1003 73 10000 5.14 70 19:33 09.11.2021
5521 Clear -7 1003 73 10000 5.66 70 18:49 09.11.2021
5522 Clear -12 1005 71 10000 3.71 38 16:57 09.11.2021
5523 Clouds -7 1004 73 10000 4.12 60 15:36 09.11.2021
5524 Clear -13 1006 77 10000 3.33 48 13:50 09.11.2021
5525 Clouds -7 1004 73 10000 5.66 60 12:47 09.11.2021
5526 Clouds -8 1004 79 10000 4.63 60 11:18 09.11.2021
5527 Clear -13 1006 80 10000 3.32 53 09:59 09.11.2021
5528 Clouds -7 1004 79 10000 3.6 60 09:21 09.11.2021
5529 Clear -13 1006 81 10000 3.29 57 07:54 09.11.2021
5530 Clear -13 1005 81 10000 2.91 34 02:50 09.11.2021
5531 Clear -13 1005 81 10000 2.87 38 01:55 09.11.2021
5532 Clouds -6 1002 79 10000 2.57 60 01:36 09.11.2021
5533 Clouds -5 1002 86 10000 6.17 10 23:32 08.11.2021
5534 Clouds -5 1001 80 10000 3.09 60 22:47 08.11.2021
5535 Clouds -5 1001 74 10000 2.57 110 21:45 08.11.2021
5536 Clouds -5 1000 86 10000 0 0 20:36 08.11.2021
5537 Clouds -4 1000 80 10000 1.54 230 19:43 08.11.2021
5538 Clouds -4 1000 74 10000 1.54 160 17:48 08.11.2021
5539 Clouds -5 1000 80 10000 2.57 160 15:56 08.11.2021
5540 Clouds -10 1003 75 10000 1.84 73 14:57 08.11.2021
5541 Clouds -5 1000 68 10000 0.51 90 14:34 08.11.2021
5542 Clouds -5 1000 68 10000 3.6 50 13:20 08.11.2021
5543 Clear -12 1003 75 10000 2.65 66 11:55 08.11.2021
5544 Clear -12 1003 74 10000 2.44 56 10:50 08.11.2021
5545 Clear -8 1000 79 10000 2.06 40 09:31 08.11.2021
5546 Clear -12 1003 74 10000 2.49 59 08:52 08.11.2021
5547 Clear -12 1003 74 10000 2.45 44 06:57 08.11.2021
5548 Clouds -6 1001 73 10000 4.63 30 03:38 08.11.2021
5549 Clouds -6 1001 73 10000 4.63 30 03:19 08.11.2021
5550 Clear -4 1003 63 10000 6.17 60 23:33 07.11.2021
5551 Clouds -4 1004 63 10000 5.66 60 21:42 07.11.2021
5552 Clear -10 1005 74 10000 3.8 38 20:51 07.11.2021
5553 Clear -3 1004 54 10000 6.69 60 19:22 07.11.2021
5554 Clear -3 1005 59 10000 5.66 60 17:47 07.11.2021
5555 Clear -3 1005 54 10000 7.2 70 16:49 07.11.2021
5556 Clear -3 1006 59 10000 7.2 80 15:44 07.11.2021
5557 Clear -3 1006 59 10000 6.17 60 14:28 07.11.2021
5558 Clouds -9 1008 74 10000 4.35 66 12:57 07.11.2021
5559 Snow -2 1007 54 10000 9.26 60 11:42 07.11.2021
5560 Snow -2 1007 54 10000 9.26 60 11:42 07.11.2021
5561 Clouds -2 1008 64 10000 8.23 50 09:26 07.11.2021
5562 Clouds -1 1009 59 10000 7.2 80 06:46 07.11.2021
5563 Clouds -1 1010 64 10000 6.69 80 02:32 07.11.2021
5564 Clouds -1 1012 68 10000 2.24 120 22:57 06.11.2021
5565 Clouds -1 1010 69 10000 2.57 120 22:32 06.11.2021
5566 Clouds -2 1010 69 10000 4.12 80 21:32 06.11.2021
5567 Snow -2 1010 74 6611 4.02 80 20:50 06.11.2021
5568 Clouds -2 1010 79 10000 4.47 60 18:56 06.11.2021
5569 Snow -2 1010 86 2000 2.57 180 16:44 06.11.2021
5570 Snow -2 1009 86 10000 2.57 20 14:37 06.11.2021
5571 Snow -1 1009 69 10000 2.57 190 13:38 06.11.2021
5572 Snow -1 1008 74 8000 3.09 170 11:46 06.11.2021
5573 Clouds -1 1007 59 10000 5.14 120 09:23 06.11.2021
5574 Snow -1 1008 78 10000 7.64 173 04:59 06.11.2021
5575 Clouds -2 1006 59 10000 4.63 90 01:47 06.11.2021
5576 Clouds -2 1006 54 10000 0 0 23:35 05.11.2021
5577 Clouds -2 1006 54 10000 1.03 110 22:34 05.11.2021
5578 Clouds -3 1006 59 10000 0 0 21:26 05.11.2021
5579 Clouds -3 1006 50 10000 1.03 80 20:20 05.11.2021
5580 Clouds -2 1006 54 10000 4.12 100 19:40 05.11.2021
5581 Clouds -2 1006 59 10000 5.66 70 18:39 05.11.2021
5582 Clouds -2 1006 59 10000 8.23 70 17:28 05.11.2021
5583 Clouds -2 1007 64 10000 9.26 70 15:38 05.11.2021
5584 Clouds -3 1009 68 10000 7.2 80 13:37 05.11.2021
5585 Clouds -2 1009 59 10000 5.14 90 11:22 05.11.2021
5586 Clouds -6 1011 78 10000 3.11 103 08:40 05.11.2021
5587 Clouds -6 1011 78 10000 3.23 104 07:39 05.11.2021
5588 Clouds -6 1011 80 10000 4.26 103 05:32 05.11.2021
5589 Clouds -3 1012 84 10000 6.12 136 02:26 05.11.2021
5590 Snow -1 1009 74 7698 8.94 150 00:51 05.11.2021
5591 Snow -1 1009 74 10000 9.26 150 23:23 04.11.2021
5592 Snow -1 1009 74 3800 6.69 160 22:19 04.11.2021
5593 Snow -2 1008 80 10000 5.66 170 21:35 04.11.2021
5594 Clouds -1 1010 86 10000 6.71 170 20:50 04.11.2021
5595 Clouds -1 1008 86 10000 6.69 170 20:22 04.11.2021
5596 Snow -1 1007 93 1500 5.66 170 19:47 04.11.2021
5597 Snow -2 1006 100 10000 4.12 200 18:44 04.11.2021
5598 Snow -2 1005 100 10000 4.02 220 17:54 04.11.2021
5599 Snow -1 1007 93 1187 3.57 205 16:47 04.11.2021
5600 Snow -1 1003 93 1400 2.57 290 14:42 04.11.2021
5601 Snow 0 1002 100 1100 2.06 230 12:32 04.11.2021
5602 Snow 1 1002 86 10000 3.09 170 09:42 04.11.2021
5603 Snow 1 1002 86 6000 7.2 160 08:31 04.11.2021
5604 Rain 1 1002 86 10000 9.77 180 07:35 04.11.2021
5605 Snow 0 1001 92 2693 10.28 200 04:47 04.11.2021
5606 Snow 0 996 100 6092 14.31 180 22:53 03.11.2021
5607 Snow 2 993 93 3500 20.06 160 21:49 03.11.2021
5608 Snow 2 993 93 3500 20.06 160 21:30 03.11.2021
5609 Snow 2 991 93 3500 19.03 160 20:37 03.11.2021
5610 Rain 1 995 96 66 14.51 165 19:58 03.11.2021
5611 Rain 2 990 93 5000 18.52 160 19:19 03.11.2021
5612 Rain 2 993 96 56 15.05 174 18:25 03.11.2021
5613 Rain 2 993 96 56 15.05 174 17:36 03.11.2021
5614 Rain 3 987 87 6000 22.12 160 16:26 03.11.2021
5615 Rain 3 986 87 7000 24.69 150 15:44 03.11.2021
5616 Snow 3 987 87 4400 21.61 160 14:25 03.11.2021
5617 Rain 3 989 81 5000 17.49 160 12:33 03.11.2021
5618 Snow 4 988 75 8000 19.55 160 11:27 03.11.2021
5619 Clouds 4 989 75 6000 18.52 160 10:49 03.11.2021
5620 Snow 4 989 75 8000 18.52 160 09:31 03.11.2021
5621 Snow 4 990 75 6000 19.03 160 08:23 03.11.2021
5622 Rain 4 989 70 10000 18.52 160 07:39 03.11.2021
5623 Snow 4 990 81 10000 19.55 160 05:35 03.11.2021
5624 Rain 4 989 86 746 18.33 160 02:50 03.11.2021
5625 Rain 3 992 93 9364 17.13 170 23:56 02.11.2021
5626 Rain 4 987 93 1300 21.61 160 22:47 02.11.2021
5627 Snow 6 986 81 4200 17.49 160 21:45 02.11.2021
5628 Rain 7 986 81 10000 20.06 160 20:34 02.11.2021
5629 Rain 4 989 90 10000 16.46 160 19:54 02.11.2021
5630 Rain 8 986 81 10000 16.46 160 19:18 02.11.2021
5631 Rain 8 988 81 10000 8.23 180 18:26 02.11.2021
5632 Rain 8 988 76 10000 9.77 160 17:43 02.11.2021
5633 Rain 8 990 76 10000 7.2 170 16:31 02.11.2021
5634 Rain 7 990 76 5000 15.95 160 15:48 02.11.2021
5635 Rain 7 992 70 6000 11.32 160 14:31 02.11.2021
5636 Rain 4 993 87 8000 2.57 300 13:28 02.11.2021
5637 Rain 4 994 81 10000 6.17 180 12:45 02.11.2021
5638 Rain 5 995 65 10000 11.83 160 11:38 02.11.2021
5639 Rain 3 997 86 8284 0.89 130 10:54 02.11.2021
5640 Rain 3 996 87 10000 1.03 130 10:30 02.11.2021
5641 Clouds 3 998 87 10000 3.09 10 08:45 02.11.2021
5642 Clouds 4 999 75 10000 5.66 180 07:45 02.11.2021
5643 Clouds 8 1002 57 10000 5.14 180 04:39 02.11.2021
5644 Snow 3 1004 87 10000 5.66 200 02:49 02.11.2021
5645 Rain 4 1006 81 10000 2.57 0 23:32 01.11.2021
5646 Rain 2 1008 93 6000 7.72 180 21:28 01.11.2021
5647 Rain 5 1007 80 6000 14.31 160 20:40 01.11.2021
5648 Rain 2 1010 89 8929 11.97 170 19:58 01.11.2021
5649 Rain 2 1010 89 8929 11.97 170 19:58 01.11.2021
5650 Rain 5 1007 65 10000 14.92 170 19:35 01.11.2021
5651 Rain 6 1007 56 10000 13.89 160 18:23 01.11.2021
5652 Clouds 7 1008 49 10000 11.32 160 17:35 01.11.2021
5653 Clouds 7 1011 48 10000 8.49 160 16:50 01.11.2021
5654 Clouds 7 1011 48 10000 8.49 160 15:56 01.11.2021
5655 Clouds 7 1009 49 10000 8.75 160 15:27 01.11.2021
5656 Clouds 6 1010 52 10000 6.17 170 14:44 01.11.2021
5657 Clouds 6 1010 52 10000 6.17 170 14:23 01.11.2021
5658 Clouds 5 1012 56 10000 6.71 160 13:50 01.11.2021
5659 Clouds 4 1010 70 10000 1.54 0 12:34 01.11.2021
5660 Clouds 4 1011 70 10000 2.06 0 11:26 01.11.2021
5661 Snow 2 1012 93 10000 1.03 10 09:47 01.11.2021
5662 Snow 2 1013 87 10000 1.54 20 08:18 01.11.2021
5663 Snow 3 1013 81 10000 5.66 170 07:40 01.11.2021
5664 Snow 2 1014 87 9000 7.72 170 03:48 01.11.2021
5665 Snow 2 1014 87 5000 10.29 170 01:37 01.11.2021
5666 Rain 2 1013 93 5000 10.8 170 22:32 31.10.2021
5667 Rain 2 1015 97 71 8.77 174 20:50 31.10.2021
5668 Snow 2 1012 93 3500 9.77 180 19:22 31.10.2021
5669 Rain 3 1011 87 5000 9.26 180 18:40 31.10.2021
5670 Rain 3 1011 93 8000 9.77 180 17:32 31.10.2021
5671 Clouds 3 1013 91 10000 10.21 185 15:50 31.10.2021
5672 Rain 2 1009 93 3500 8.75 180 14:23 31.10.2021
5673 Rain 3 1008 87 9000 10.29 170 12:49 31.10.2021
5674 Rain 3 1008 87 10000 9.26 170 11:41 31.10.2021
5675 Snow 2 1007 93 3700 9.77 170 10:43 31.10.2021
5676 Rain 2 1006 100 3800 11.32 170 09:22 31.10.2021
5677 Snow 2 1005 93 6000 10.8 180 08:29 31.10.2021
5678 Rain 1 1000 86 10000 16.46 170 01:37 31.10.2021
5679 Clouds 4 999 65 10000 14.4 180 22:47 30.10.2021
5680 Clouds 6 998 61 10000 20.58 150 21:35 30.10.2021
5681 Clouds 3 999 75 10000 13.89 180 20:44 30.10.2021
5682 Clouds 6 998 56 10000 12.35 160 18:48 30.10.2021
5683 Clouds 5 999 65 10000 8.75 200 17:25 30.10.2021
5684 Clouds 4 1001 64 10000 10.28 180 14:54 30.10.2021
5685 Clouds 4 1002 65 10000 9.77 180 13:40 30.10.2021
5686 Clouds 4 1002 65 10000 9.77 180 13:40 30.10.2021
5687 Clouds 4 1002 65 10000 9.77 180 13:21 30.10.2021
5688 Clouds 1 1003 86 10000 6.69 180 12:47 30.10.2021
5689 Clouds 2 1003 80 10000 7.72 180 11:42 30.10.2021
5690 Clouds 1 1004 86 10000 3.09 150 10:32 30.10.2021
5691 Clouds 0 1004 86 10000 4.92 200 08:53 30.10.2021
5692 Clouds 0 1004 93 10000 0 0 07:25 30.10.2021
5693 Clouds 0 1004 93 10000 2.06 30 05:39 30.10.2021
5694 Snow 0 1004 93 10000 0.51 0 00:47 30.10.2021
5695 Snow 1 1003 93 10000 4.12 190 22:43 29.10.2021
5696 Snow 1 1003 93 10000 4.12 190 22:20 29.10.2021
5697 Clouds 1 1002 93 10000 5.66 180 20:46 29.10.2021
5698 Clouds 1 1002 93 10000 5.66 180 20:18 29.10.2021
5699 Snow 1 1001 93 4500 5.66 180 18:33 29.10.2021
5700 Clouds 0 1001 97 1613 4.02 170 16:54 29.10.2021
5701 Rain 1 1000 86 10000 6.17 180 14:38 29.10.2021
5702 Snow 1 1002 99 58 4.47 174 11:56 29.10.2021
5703 Snow 1 1000 93 9000 5.66 180 10:44 29.10.2021
5704 Snow -1 1001 93 4000 2.06 200 08:41 29.10.2021
5705 Clouds -1 1006 69 10000 5.14 30 00:37 29.10.2021
5706 Clouds -1 1006 69 10000 4.12 40 23:27 28.10.2021
5707 Clouds -1 1006 74 10000 5.66 40 22:18 28.10.2021
5708 Clouds -1 1006 63 10000 4.92 30 20:54 28.10.2021
5709 Clouds -1 1006 63 10000 4.02 50 19:51 28.10.2021
5710 Clouds -1 1006 69 10000 4.12 20 18:27 28.10.2021
5711 Clouds -1 1007 74 10000 4.12 30 17:19 28.10.2021
5712 Clouds -2 1007 80 10000 5.14 50 16:20 28.10.2021
5713 Clouds -2 1007 74 10000 3.09 20 14:39 28.10.2021
5714 Clouds -2 1007 80 10000 4.63 60 13:29 28.10.2021
5715 Clouds -2 1007 74 10000 3.6 40 12:44 28.10.2021
5716 Clouds -3 1007 86 10000 4.47 50 10:58 28.10.2021
5717 Clouds -3 1006 86 10000 4.63 50 09:40 28.10.2021
5718 Clouds -3 1006 86 10000 4.63 50 09:22 28.10.2021
5719 Clouds -2 1006 80 10000 6.69 30 08:35 28.10.2021
5720 Clouds -3 1006 68 10000 4.63 40 07:40 28.10.2021
5721 Clouds -1 1006 69 10000 2.57 50 00:40 28.10.2021
5722 Clouds -2 1006 64 10000 3.6 60 22:36 27.10.2021
5723 Clouds -1 1006 59 10000 3.09 50 21:34 27.10.2021
5724 Clouds -1 1006 63 10000 2.68 60 20:57 27.10.2021
5725 Clouds -1 1006 64 10000 3.09 60 20:38 27.10.2021
5726 Clouds -1 1005 69 10000 3.6 40 19:42 27.10.2021
5727 Clouds -1 1005 63 10000 3.58 40 18:54 27.10.2021
5728 Clouds -2 1005 74 10000 5.14 60 16:49 27.10.2021
5729 Clouds -2 1005 74 10000 5.14 60 16:23 27.10.2021
5730 Clouds -2 1004 74 10000 5.66 40 15:23 27.10.2021
5731 Clear -3 1005 74 10000 4.63 40 13:42 27.10.2021
5732 Clouds -2 1003 68 10000 6.71 40 10:59 27.10.2021
5733 Clouds -2 1003 69 10000 6.69 40 10:36 27.10.2021
5734 Clouds -2 1002 58 10000 5.36 50 08:58 27.10.2021
5735 Clouds -2 1002 69 10000 5.66 50 07:39 27.10.2021
5736 Clouds -1 1002 55 10000 5.66 60 05:37 27.10.2021
5737 Clear -1 1001 59 10000 5.14 60 01:21 27.10.2021
5738 Clouds -1 1001 51 10000 4.12 50 00:39 27.10.2021
5739 Clear -1 1000 54 10000 5.81 40 23:52 26.10.2021
5740 Clear -1 1000 64 10000 4.12 50 22:44 26.10.2021
5741 Clear -1 1000 64 10000 4.12 50 22:21 26.10.2021
5742 Clear 0 999 55 10000 5.14 40 21:32 26.10.2021
5743 Clear 0 999 59 10000 6.17 40 19:34 26.10.2021
5744 Clear 0 998 47 10000 6.71 50 18:54 26.10.2021
5745 Sand 0 998 51 10000 5.66 40 17:45 26.10.2021
5746 Clear 0 997 43 10000 9.26 60 15:46 26.10.2021
5747 Clear -1 997 59 10000 6.17 40 12:33 26.10.2021
5748 Clear -2 996 63 10000 4.92 360 10:54 26.10.2021
5749 Clear -3 995 63 10000 5.66 30 08:24 26.10.2021
5750 Clear -2 995 69 10000 6.69 10 07:22 26.10.2021
5751 Clouds -3 994 54 10000 7.2 60 00:19 26.10.2021
5752 Clear -4 994 58 10000 7.72 60 23:36 25.10.2021
5753 Clear -4 994 50 10000 6.69 60 22:29 25.10.2021
5754 Clear -3 994 50 10000 6.17 50 21:42 25.10.2021
5755 Sand -3 994 46 10000 7.2 50 20:37 25.10.2021
5756 Sand -3 994 43 10000 8.75 50 19:43 25.10.2021
5757 Sand -3 994 43 10000 8.75 50 19:22 25.10.2021
5758 Sand -4 994 42 10000 9.26 60 18:38 25.10.2021
5759 Sand -4 995 42 10000 8.75 50 17:26 25.10.2021
5760 Clear -6 995 53 10000 7.6 30 14:53 25.10.2021
5761 Clouds -6 996 49 10000 5.14 40 12:33 25.10.2021
5762 Clear -5 996 63 10000 9.77 10 10:47 25.10.2021
5763 Clear -5 999 58 10000 8.49 20 08:58 25.10.2021
5764 Clear -4 996 58 10000 7.2 360 07:19 25.10.2021
5765 Clouds -4 997 58 10000 7.2 10 04:35 25.10.2021
5766 Clear -5 998 53 10000 4.02 60 00:52 25.10.2021
5767 Clouds -4 998 54 10000 4.12 60 00:33 25.10.2021
5768 Clear -3 998 50 10000 4.12 60 23:41 24.10.2021
5769 Clear -3 998 43 10000 3.6 60 22:39 24.10.2021
5770 Clear -3 998 43 10000 3.6 60 22:19 24.10.2021
5771 Clear -3 998 46 10000 4.12 60 21:18 24.10.2021
5772 Clouds -2 999 46 10000 4.63 50 20:34 24.10.2021
5773 Clouds -2 998 40 10000 4.12 60 19:40 24.10.2021
5774 Clouds -2 999 43 10000 4.63 60 18:29 24.10.2021
5775 Clouds -2 999 37 10000 5.14 60 17:44 24.10.2021
5776 Clear -3 999 42 10000 5.36 60 15:56 24.10.2021
5777 Clouds -3 999 43 10000 7.2 60 14:42 24.10.2021
5778 Clouds -3 999 42 10000 8.49 70 12:58 24.10.2021
5779 Clouds -3 998 46 10000 8.75 70 11:45 24.10.2021
5780 Clouds -3 998 46 10000 8.75 70 11:26 24.10.2021
5781 Clouds -3 999 46 10000 8.75 60 10:28 24.10.2021
5782 Clouds -2 1001 39 10000 3.52 37 07:59 24.10.2021
5783 Clouds -2 1001 54 10000 5.14 50 01:25 24.10.2021
5784 Clouds -2 1001 54 10000 5.36 50 23:51 23.10.2021
5785 Clouds -2 1002 50 10000 5.66 50 22:32 23.10.2021
5786 Clouds -2 1002 54 10000 4.63 30 20:37 23.10.2021
5787 Clouds -2 1002 50 10000 4.02 50 18:59 23.10.2021
5788 Clouds -2 1002 50 10000 4.12 50 18:30 23.10.2021
5789 Clouds -2 1002 50 10000 5.66 350 17:43 23.10.2021
5790 Clear -2 1002 50 10000 5.14 10 16:38 23.10.2021
5791 Clear -4 1003 54 10000 4.63 360 14:35 23.10.2021
5792 Clouds -2 1001 46 10000 12.35 10 09:45 23.10.2021
5793 Clouds -1 998 55 10000 15.95 20 00:28 23.10.2021
5794 Clear -1 997 59 10000 13.38 10 23:23 22.10.2021
5795 Clear 0 995 45 10000 14.75 10 20:55 22.10.2021
5796 Clear 0 994 44 10000 14.31 10 18:57 22.10.2021
5797 Sand 1 995 47 10000 15.95 20 17:44 22.10.2021
5798 Clear 0 995 49 10000 14.75 10 15:57 22.10.2021
5799 Sand 0 995 59 10000 13.38 10 14:30 22.10.2021
5800 Clouds -1 996 64 10000 9.26 360 12:41 22.10.2021
5801 Clear 0 996 58 10000 11.18 20 10:50 22.10.2021
5802 Clear -1 997 63 10000 7.6 60 09:56 22.10.2021
5803 Clear -1 997 63 10000 7.6 60 09:56 22.10.2021
5804 Clear -1 997 63 10000 7.6 60 09:56 22.10.2021
5805 Clear -1 996 64 10000 7.72 60 09:32 22.10.2021
5806 Clouds -1 998 69 10000 7.72 30 07:28 22.10.2021
5807 Clouds -1 999 69 10000 6.17 30 06:19 22.10.2021
5808 Clouds -2 1002 80 10000 5.66 20 00:31 22.10.2021
5809 Clouds -2 1003 86 10000 6.17 20 23:48 21.10.2021
5810 Clouds -2 1003 86 10000 7.72 40 22:22 21.10.2021
5811 Clouds -1 1004 86 10000 7.72 30 21:18 21.10.2021
5812 Clouds -1 1004 86 10000 6.69 40 20:21 21.10.2021
5813 Clouds -1 1006 86 10000 4.12 40 19:30 21.10.2021
5814 Clouds -1 1006 86 10000 4.02 30 18:52 21.10.2021
5815 Clouds -1 1006 86 10000 4.12 30 18:27 21.10.2021
5816 Clouds -2 1008 93 10000 3.09 50 17:47 21.10.2021
5817 Clouds -1 1009 86 10000 0.51 0 16:26 21.10.2021
5818 Clouds -1 1009 86 10000 0.51 340 15:21 21.10.2021
5819 Clouds -1 1010 86 10000 0.88 318 14:50 21.10.2021
5820 Clouds -2 1010 93 10000 1.54 200 13:27 21.10.2021
5821 Clear -3 1011 100 10000 1.54 170 11:46 21.10.2021
5822 Clear -3 1011 93 10000 0.51 130 09:24 21.10.2021
5823 Clear -3 1012 100 10000 3.6 20 07:32 21.10.2021
5824 Clouds -2 1014 93 10000 5.14 360 05:33 21.10.2021
5825 Clear -2 1018 93 10000 4.12 30 00:22 21.10.2021
5826 Snow -2 1020 100 700 5.66 360 22:22 20.10.2021
5827 Clear 0 1021 69 10000 5.36 20 21:46 20.10.2021
5828 Clear 0 1021 69 10000 5.36 20 20:57 20.10.2021
5829 Clouds 1 1021 69 10000 5.66 20 20:37 20.10.2021
5830 Clear 0 1022 69 10000 4.92 40 19:59 20.10.2021
5831 Clear 1 1022 69 10000 5.14 40 19:18 20.10.2021
5832 Clear 1 1023 64 10000 5.66 20 18:29 20.10.2021
5833 Clear 0 1024 52 10000 4.92 60 15:57 20.10.2021
5834 Clouds 0 1025 69 10000 1.54 100 13:46 20.10.2021
5835 Clear 0 1025 63 10000 1.34 140 09:50 20.10.2021
5836 Clouds 2 1024 55 10000 2.06 240 05:28 20.10.2021
5837 Clear 4 1023 32 10000 3.04 160 00:53 20.10.2021
5838 Clear 4 1023 33 10000 0.51 0 00:28 20.10.2021
5839 Clear 2 1022 55 7000 0.51 0 22:28 19.10.2021
5840 Clear 3 1021 48 10000 4.12 60 21:33 19.10.2021
5841 Clear 6 1021 28 10000 0.51 310 20:26 19.10.2021
5842 Clear 6 1021 39 10000 0.51 240 19:50 19.10.2021
5843 Clear 6 1020 39 10000 1.03 170 19:29 19.10.2021
5844 Clear 5 1020 38 10000 1.54 0 18:23 19.10.2021
5845 Clear 5 1020 42 10000 0 0 17:20 19.10.2021
5846 Clear 3 1019 38 10000 0 0 15:26 19.10.2021
5847 Clear 1 1019 44 10000 0.51 110 14:31 19.10.2021
5848 Clear 3 1018 32 10000 1.54 90 13:49 19.10.2021
5849 Clear 3 1016 29 10000 7.15 80 11:58 19.10.2021
5850 Clear 3 1016 30 10000 7.2 80 11:23 19.10.2021
5851 Clear 4 1016 26 10000 10.29 60 09:42 19.10.2021
5852 Clear 3 1016 27 10000 12.52 70 08:56 19.10.2021
5853 Clouds 1 1019 34 10000 7.2 80 00:36 19.10.2021
5854 Clear 0 1019 34 10000 4.92 70 23:56 18.10.2021
5855 Clouds 1 1019 34 10000 5.14 70 23:22 18.10.2021
5856 Clear 0 1019 37 10000 1.79 40 22:55 18.10.2021
5857 Clouds 0 1019 55 10000 2.06 40 22:18 18.10.2021
5858 Clouds 3 1019 32 10000 0 0 20:46 18.10.2021
5859 Clouds 3 1019 32 10000 0 0 20:21 18.10.2021
5860 Clear 3 1018 30 10000 1.03 190 19:31 18.10.2021
5861 Clear 2 1018 24 10000 1.89 122 18:58 18.10.2021
5862 Clear 2 1018 24 10000 1.89 122 18:58 18.10.2021
5863 Clear 0 1017 27 10000 3.09 110 16:33 18.10.2021
5864 Clear 0 1017 29 10000 6.17 60 14:42 18.10.2021
5865 Clear -1 1016 46 10000 7.15 60 11:59 18.10.2021
5866 Clear -1 1016 59 10000 10.29 60 09:48 18.10.2021
5867 Clear -1 1017 64 10000 5.14 50 07:46 18.10.2021
5868 Clear 0 1018 69 10000 5.66 30 00:30 18.10.2021
5869 Clear 0 1019 74 10000 4.12 40 22:48 17.10.2021
5870 Clear 1 1019 69 10000 4.12 50 21:44 17.10.2021
5871 Clear 2 1018 59 10000 4.47 40 20:57 17.10.2021
5872 Clear 2 1018 59 10000 4.47 40 20:25 17.10.2021
5873 Clear 2 1018 59 10000 4.47 40 19:38 17.10.2021
5874 Clear 2 1018 59 10000 4.47 40 18:35 17.10.2021
5875 Clear 1 1018 64 10000 1.03 0 16:49 17.10.2021
5876 Clear 0 1018 69 10000 1.03 0 14:40 17.10.2021
5877 Clear 0 1018 69 10000 1.03 0 14:22 17.10.2021
5878 Clear 1 1018 64 10000 4.12 60 13:33 17.10.2021
5879 Clear 0 1018 63 10000 6.71 60 11:54 17.10.2021
5880 Clouds 1 1017 64 10000 1.54 0 10:20 17.10.2021
5881 Clouds 0 1017 74 10000 1.03 50 09:22 17.10.2021
5882 Clear 0 1017 70 10000 0.45 110 06:55 17.10.2021
5883 Clear 1 1013 75 10000 2.57 40 00:49 17.10.2021
5884 Clear 2 1012 60 10000 4.12 30 23:33 16.10.2021
5885 Clear 3 1012 60 10000 5.14 40 21:29 16.10.2021
5886 Clear 3 1011 65 10000 4.63 60 20:30 16.10.2021
5887 Clear 3 1011 60 10000 6.17 60 19:43 16.10.2021
5888 Clear 3 1011 60 10000 6.17 60 19:20 16.10.2021
5889 Clear 3 1011 65 10000 6.69 60 18:46 16.10.2021
5890 Clear 3 1011 65 10000 6.69 60 18:28 16.10.2021
5891 Clear 2 1011 69 10000 6.71 60 17:53 16.10.2021
5892 Clear 2 1011 69 10000 6.69 60 17:21 16.10.2021
5893 Clear 0 1011 61 10000 8.05 40 13:59 16.10.2021
5894 Clear 0 1011 93 10000 7.72 40 11:26 16.10.2021
5895 Clouds 1 1011 86 10000 8.75 40 10:25 16.10.2021
5896 Clear 0 1012 72 10000 4.47 50 06:51 16.10.2021
5897 Clouds 2 1013 93 10000 6.17 50 01:25 16.10.2021
5898 Clouds 2 1013 93 10000 6.17 50 01:25 16.10.2021
5899 Clouds 2 1013 93 10000 6.17 50 01:25 16.10.2021
5900 Clear 3 1013 86 10000 4.47 60 23:50 15.10.2021
5901 Clear 4 1013 81 10000 5.14 60 22:24 15.10.2021
5902 Clear 2 1014 93 10000 5.36 50 21:56 15.10.2021
5903 Clear 2 1014 93 10000 5.36 50 21:24 15.10.2021
5904 Clear 2 1014 93 10000 5.36 50 20:45 15.10.2021
5905 Clouds 2 1014 93 10000 5.66 50 19:26 15.10.2021
5906 Fog 1 1015 93 10000 6.17 20 18:40 15.10.2021
5907 Fog 4 1015 93 10000 5.14 80 16:28 15.10.2021
5908 Fog 2 1016 100 10000 4.63 50 15:28 15.10.2021
5909 Fog 1 1017 100 10000 5.66 40 12:41 15.10.2021
5910 Fog 1 1018 100 350 5.66 30 11:26 15.10.2021
5911 Mist 1 1018 100 1500 5.66 30 10:42 15.10.2021
5912 Clouds 2 1019 93 10000 7.15 60 08:59 15.10.2021
5913 Clouds 2 1020 100 10000 4.12 60 05:31 15.10.2021
5914 Clouds 4 1022 87 10000 4.12 180 00:48 15.10.2021
5915 Clouds 4 1022 87 10000 4.12 180 00:21 15.10.2021
5916 Clouds 5 1022 75 10000 6.71 170 22:51 14.10.2021
5917 Rain 6 1022 70 10000 5.66 150 21:44 14.10.2021
5918 Rain 6 1021 75 10000 7.72 150 20:38 14.10.2021
5919 Rain 6 1021 75 10000 7.72 150 20:18 14.10.2021
5920 Rain 6 1022 81 10000 7.72 170 19:32 14.10.2021
5921 Rain 4 1022 93 9000 6.17 200 17:26 14.10.2021
5922 Drizzle 6 1022 81 10000 8.75 160 16:49 14.10.2021
5923 Drizzle 5 1022 87 10000 8.23 160 15:35 14.10.2021
5924 Rain 5 1021 81 10000 9.77 160 14:41 14.10.2021
5925 Rain 5 1021 81 10000 9.26 160 13:37 14.10.2021
5926 Clouds 4 1021 87 10000 7.72 170 11:44 14.10.2021
5927 Clouds 4 1020 69 10000 8.49 180 09:55 14.10.2021
5928 Clouds 2 1019 85 10000 8.94 200 06:55 14.10.2021
5929 Clouds 0 1020 81 10000 3.58 200 00:58 14.10.2021
5930 Clouds 0 1019 81 10000 3.58 200 00:22 14.10.2021
5931 Fog 1 1016 93 10000 4.47 190 21:53 13.10.2021
5932 Fog 1 1016 93 10000 3.09 190 21:32 13.10.2021
5933 Clouds 0 1015 80 10000 4.02 190 19:58 13.10.2021
5934 Fog 1 1014 93 500 5.36 200 18:49 13.10.2021
5935 Clouds 0 1014 79 10000 4.02 200 17:55 13.10.2021
5936 Fog 1 1014 93 500 5.66 180 15:32 13.10.2021
5937 Fog 1 1014 100 2000 2.57 190 14:45 13.10.2021
5938 Fog 1 1014 100 2000 2.57 190 14:21 13.10.2021
5939 Clouds 0 1013 93 10000 3.09 170 12:22 13.10.2021
5940 Clouds 2 1013 80 10000 0 0 11:34 13.10.2021
5941 Clear 1 1012 93 10000 4.63 40 08:41 13.10.2021
5942 Clear 0 1013 75 10000 7.6 50 06:51 13.10.2021
5943 Clouds 1 1015 93 10000 4.63 40 02:28 13.10.2021
5944 Clouds 1 1015 93 10000 0.51 60 01:43 13.10.2021
5945 Clouds 1 1016 86 10000 5.14 30 23:30 12.10.2021
5946 Clouds 3 1017 75 10000 5.14 40 22:46 12.10.2021
5947 Clouds 4 1017 72 10000 4.47 50 21:50 12.10.2021
5948 Clouds 3 1017 75 10000 5.14 20 20:34 12.10.2021
5949 Clouds 2 1017 73 10000 4.47 50 19:57 12.10.2021
5950 Clouds 3 1018 81 10000 4.63 20 18:36 12.10.2021
5951 Clouds 2 1019 75 10000 2.24 340 17:51 12.10.2021
5952 Clouds 2 1018 87 10000 0 0 16:39 12.10.2021
5953 Clouds 2 1018 80 10000 1.53 353 15:58 12.10.2021
5954 Clouds 1 1019 93 10000 0.51 30 14:45 12.10.2021
5955 Clouds 1 1019 86 10000 0 0 13:43 12.10.2021
5956 Clouds 1 1019 86 10000 0.51 0 12:39 12.10.2021
5957 Clouds 1 1018 86 10000 1.03 180 09:46 12.10.2021
5958 Clouds 1 1017 86 10000 1.54 160 08:43 12.10.2021
5959 Clouds 2 1016 80 10000 2.06 160 07:36 12.10.2021
5960 Clouds 3 1015 70 10000 1.03 0 05:31 12.10.2021
5961 Clouds 3 1016 70 10000 4.12 40 04:32 12.10.2021
5962 Clouds 3 1015 70 10000 5.14 50 00:28 12.10.2021
5963 Clouds 3 1015 70 10000 4.63 40 23:40 11.10.2021
5964 Clouds 5 1015 60 10000 3.58 50 22:57 11.10.2021
5965 Clouds 4 1015 70 10000 4.12 50 21:46 11.10.2021
5966 Clouds 4 1015 70 10000 4.63 50 20:47 11.10.2021
5967 Clouds 3 1015 81 10000 5.66 40 19:45 11.10.2021
5968 Clouds 3 1016 81 10000 4.63 40 18:43 11.10.2021
5969 Clouds 3 1016 75 10000 6.17 50 17:49 11.10.2021
5970 Clouds 2 1016 87 10000 7.72 60 16:39 11.10.2021
5971 Clouds 2 1017 68 10000 5.81 50 15:51 11.10.2021
5972 Clouds 2 1017 87 10000 6.17 50 15:23 11.10.2021
5973 Clouds 2 1017 80 10000 5.66 50 14:42 11.10.2021
5974 Clouds 2 1017 80 10000 7.72 40 13:37 11.10.2021
5975 Clouds 2 1017 75 10000 7.6 60 11:52 11.10.2021
5976 Clouds 2 1018 87 10000 5.66 50 10:43 11.10.2021
5977 Clouds 2 1018 87 10000 5.66 50 09:37 11.10.2021
5978 Clouds 2 1018 87 10000 5.14 50 07:29 11.10.2021
5979 Clouds 4 1018 70 10000 4.12 50 01:41 11.10.2021
5980 Clouds 4 1019 64 10000 0.45 230 00:50 11.10.2021
5981 Rain 4 1019 65 10000 0.51 230 00:28 11.10.2021
5982 Clouds 2 1019 69 10000 2.24 20 21:57 10.10.2021
5983 Clouds 2 1019 69 10000 2.57 20 21:32 10.10.2021
5984 Clouds 5 1019 52 10000 3.09 120 20:48 10.10.2021
5985 Clouds 5 1019 52 10000 3.09 120 20:21 10.10.2021
5986 Clouds 4 1019 60 10000 4.92 60 19:59 10.10.2021
5987 Clouds 4 1019 60 10000 5.14 60 19:36 10.10.2021
5988 Clouds 2 1019 75 10000 3.09 0 18:36 10.10.2021
5989 Clouds 4 1019 55 10000 0.58 75 16:57 10.10.2021
5990 Clouds 2 1020 69 10000 6.17 60 15:47 10.10.2021
5991 Clouds 1 1021 80 10000 3.6 40 14:42 10.10.2021
5992 Clouds 1 1022 80 10000 1.54 220 13:34 10.10.2021
5993 Clouds 1 1021 80 10000 0.51 0 12:35 10.10.2021
5994 Clouds 1 1022 75 10000 1.54 130 10:44 10.10.2021
5995 Clouds 1 1022 80 10000 0 0 09:31 10.10.2021
5996 Clouds 0 1023 74 10000 2.97 82 08:54 10.10.2021
5997 Clouds 0 1023 74 10000 1.79 320 07:53 10.10.2021
5998 Clouds 1 1024 86 10000 1.03 0 03:20 10.10.2021
5999 Clouds 0 1024 80 10000 4.02 200 00:58 10.10.2021
6000 Clouds 1 1024 80 10000 4.12 200 00:33 10.10.2021
6001 Clouds 1 1024 80 10000 4.63 200 23:20 09.10.2021
6002 Clouds 1 1023 80 10000 4.63 200 21:48 09.10.2021
6003 Clouds 1 1023 80 10000 4.63 200 21:29 09.10.2021
6004 Clouds 2 1022 75 10000 5.14 200 19:45 09.10.2021
6005 Clouds 2 1022 75 10000 5.14 200 19:20 09.10.2021
6006 Clouds 2 1022 75 10000 5.14 200 18:33 09.10.2021
6007 Clouds 2 1021 80 10000 4.63 200 17:21 09.10.2021
6008 Clouds 2 1021 69 10000 2.06 200 16:19 09.10.2021
6009 Clouds -1 1020 86 10000 2.06 150 13:46 09.10.2021
6010 Clear 1 1021 70 10000 2.5 173 12:54 09.10.2021
6011 Clear -1 1019 74 10000 1.03 90 11:48 09.10.2021
6012 Clear -2 1018 80 10000 1.54 130 10:42 09.10.2021
6013 Clear -1 1020 86 10000 3.58 40 09:53 09.10.2021
6014 Clear -1 1017 80 10000 3.6 60 08:30 09.10.2021
6015 Clear -1 1017 93 10000 2.57 60 07:49 09.10.2021
6016 Clear -1 1017 93 10000 1.54 50 05:39 09.10.2021
6017 Clear 0 1016 86 10000 2.57 50 03:44 09.10.2021
6018 Clear 0 1016 86 10000 3.09 50 02:41 09.10.2021
6019 Clear 0 1015 69 10000 2.24 40 23:52 08.10.2021
6020 Clear 3 1015 47 10000 2.24 343 22:59 08.10.2021
6021 Clear 3 1015 48 10000 0 0 22:25 08.10.2021
6022 Clear 3 1014 44 10000 2.06 340 21:35 08.10.2021
6023 Clouds 3 1014 41 10000 2.06 20 19:39 08.10.2021
6024 Clouds 2 1014 51 10000 3.09 40 17:36 08.10.2021
6025 Clear 2 1014 59 10000 0.89 60 16:53 08.10.2021
6026 Clouds 2 1014 60 10000 1.03 60 16:24 08.10.2021
6027 Clear -1 1014 80 10000 4.63 20 14:18 08.10.2021
6028 Clear -1 1014 80 10000 4.12 20 13:36 08.10.2021
6029 Clear 0 1013 64 10000 4.12 30 11:40 08.10.2021
6030 Clear -1 1013 74 10000 3.09 20 10:42 08.10.2021
6031 Clear 0 1012 74 10000 5.14 20 09:46 08.10.2021
6032 Clear 1 1011 51 10000 3.6 40 00:35 08.10.2021
6033 Clear 1 1011 47 10000 4.12 60 23:22 07.10.2021
6034 Clouds 2 1011 64 10000 3.09 30 21:47 07.10.2021
6035 Clouds 2 1011 64 10000 3.09 30 21:28 07.10.2021
6036 Clouds 3 1011 44 10000 4.63 60 20:28 07.10.2021
6037 Clouds 2 1011 60 10000 4.12 20 19:31 07.10.2021
6038 Clouds 2 1011 55 10000 5.14 20 18:27 07.10.2021
6039 Clouds 3 1011 48 10000 4.63 40 17:27 07.10.2021
6040 Clear 2 1012 51 10000 4.47 50 15:58 07.10.2021
6041 Clouds 2 1011 48 10000 5.14 60 14:48 07.10.2021
6042 Clouds 2 1011 48 10000 5.14 60 13:43 07.10.2021
6043 Clouds 1 1011 55 10000 4.12 50 12:49 07.10.2021
6044 Clouds 2 1011 51 10000 4.47 60 10:57 07.10.2021
6045 Clouds 2 1011 51 10000 4.63 60 10:22 07.10.2021
6046 Clouds 3 1010 48 10000 6.17 70 09:34 07.10.2021
6047 Clouds 2 1010 59 10000 5.36 60 08:53 07.10.2021
6048 Clouds 3 1010 51 10000 4.92 50 07:57 07.10.2021
6049 Clouds 3 1010 52 10000 5.14 50 07:37 07.10.2021
6050 Clouds 2 1011 69 10000 5.66 60 04:24 07.10.2021
6051 Clouds 3 1011 65 10000 4.12 60 00:29 07.10.2021
6052 Clouds 4 1011 60 10000 2.24 50 22:59 06.10.2021
6053 Clouds 4 1011 60 10000 2.57 50 22:24 06.10.2021
6054 Clouds 4 1011 60 10000 1.54 150 21:24 06.10.2021
6055 Clouds 4 1011 60 10000 2.57 140 20:28 06.10.2021
6056 Clouds 4 1011 65 10000 1.03 0 18:43 06.10.2021
6057 Clouds 2 1010 75 10000 3.6 60 17:26 06.10.2021
6058 Clouds 4 1010 60 10000 1.45 66 15:37 06.10.2021
6059 Clouds 4 1010 60 10000 1.03 0 14:41 06.10.2021
6060 Clouds 5 1010 56 10000 6.17 160 13:24 06.10.2021
6061 Clouds 5 1010 52 10000 5.66 160 12:46 06.10.2021
6062 Clouds 5 1010 52 10000 5.66 160 12:24 06.10.2021
6063 Clouds 4 1010 56 10000 8.23 160 10:37 06.10.2021
6064 Clouds 3 1010 70 10000 7.72 160 09:39 06.10.2021
6065 Clouds 4 1011 70 10000 7.74 164 08:58 06.10.2021
6066 Clouds 3 1010 75 10000 7.2 160 08:30 06.10.2021
6067 Clouds 1 1009 93 10000 10.8 180 05:38 06.10.2021
6068 Clouds 0 1009 76 10000 7.6 190 01:56 06.10.2021
6069 Clouds 3 1009 81 10000 6.17 190 00:22 06.10.2021
6070 Clouds 4 1009 64 10000 4.92 190 23:51 05.10.2021
6071 Clouds 4 1009 65 10000 5.14 190 23:29 05.10.2021
6072 Clouds 4 1009 75 10000 5.66 190 22:30 05.10.2021
6073 Clouds 4 1009 75 10000 5.66 190 22:30 05.10.2021
6074 Clouds 5 1009 60 10000 4.47 200 21:56 05.10.2021
6075 Clouds 5 1009 60 10000 4.47 200 21:56 05.10.2021
6076 Clouds 6 1009 60 10000 4.47 200 21:19 05.10.2021
6077 Clouds 7 1009 49 10000 5.14 200 20:26 05.10.2021
6078 Clouds 7 1010 48 10000 3.58 190 19:50 05.10.2021
6079 Clouds 7 1010 49 10000 3.6 190 19:22 05.10.2021
6080 Clouds 8 1010 42 10000 3.09 190 18:20 05.10.2021
6081 Clouds 4 1012 55 10000 7.15 50 15:28 05.10.2021
6082 Clear 3 1012 65 10000 6.17 30 13:49 05.10.2021
6083 Clear 3 1012 65 10000 6.17 30 13:18 05.10.2021
6084 Clear 5 1012 52 10000 6.69 40 12:33 05.10.2021
6085 Clear 4 1012 56 10000 1.54 0 11:41 05.10.2021
6086 Clouds 2 1013 69 10000 6.17 50 10:34 05.10.2021
6087 Clear 2 1014 74 10000 3.76 57 06:59 05.10.2021
6088 Fog 1 1015 93 2000 6.69 20 01:28 05.10.2021
6089 Clouds 2 1016 56 10000 5.36 10 22:53 04.10.2021
6090 Fog 2 1015 75 10000 2.57 350 21:23 04.10.2021
6091 Clouds 5 1015 60 10000 2.57 40 18:48 04.10.2021
6092 Clouds 3 1016 65 10000 1.03 260 17:26 04.10.2021
6093 Clouds 2 1016 69 10000 2.57 60 15:32 04.10.2021
6094 Clouds 2 1016 75 10000 1.03 0 14:45 04.10.2021
6095 Clouds 4 1016 72 10000 0.97 69 13:59 04.10.2021
6096 Clouds 1 1016 86 10000 3.09 60 13:31 04.10.2021
6097 Fog 1 1016 75 10000 0.51 350 12:50 04.10.2021
6098 Clouds 0 1016 74 10000 0 0 11:33 04.10.2021
6099 Clouds 2 1016 64 10000 1.03 120 10:45 04.10.2021
6100 Clouds 1 1016 69 10000 0.51 100 09:35 04.10.2021
6101 Clouds 2 1015 77 10000 2.16 181 07:53 04.10.2021
6102 Clouds 3 1015 86 10000 2.24 190 06:50 04.10.2021
6103 Clouds 4 1015 84 10000 3.84 178 22:51 03.10.2021
6104 Clouds 4 1014 80 10000 4.06 178 21:54 03.10.2021
6105 Clouds 4 1014 80 10000 4.06 178 21:31 03.10.2021
6106 Clouds 9 1012 43 10000 7.2 160 20:45 03.10.2021
6107 Clouds 8 1012 49 10000 5.14 200 19:46 03.10.2021
6108 Clear 5 1012 44 10000 4.02 50 18:29 03.10.2021
6109 Clear 4 1011 52 10000 6.69 40 17:37 03.10.2021
6110 Clouds 4 1011 52 10000 9.77 60 15:29 03.10.2021
6111 Clouds 2 1011 69 10000 7.2 50 14:30 03.10.2021
6112 Clouds 3 1011 56 10000 6.17 50 13:35 03.10.2021
6113 Clouds 3 1011 60 10000 7.2 60 12:47 03.10.2021
6114 Clear 2 1011 69 10000 7.2 60 11:37 03.10.2021
6115 Clear 0 1011 80 10000 4.47 40 09:58 03.10.2021
6116 Clear 3 1013 70 10000 5.66 40 05:38 03.10.2021
6117 Clouds 4 1016 61 10000 4.47 20 22:59 02.10.2021
6118 Clouds 5 1017 60 10000 3.58 20 21:59 02.10.2021
6119 Clouds 7 1018 45 10000 3.6 20 20:33 02.10.2021
6120 Clouds 4 1019 51 10000 5.36 50 18:57 02.10.2021
6121 Clouds 4 1019 52 10000 5.66 50 18:20 02.10.2021
6122 Clouds 5 1019 52 10000 5.14 40 17:38 02.10.2021
6123 Clouds 3 1020 65 10000 6.69 40 16:39 02.10.2021
6124 Clouds 2 1022 59 10000 4.47 40 07:51 02.10.2021
6125 Clouds 0 1024 74 10000 3.6 40 15:37 30.09.2021
6126 Clouds -1 1024 86 10000 1.79 40 14:22 30.09.2021
6127 Clouds -2 1024 92 10000 2.68 60 11:58 30.09.2021
6128 Clouds 1 1025 46 10000 3.96 9 10:55 30.09.2021
6129 Clouds -1 1023 86 10000 3.6 50 10:25 30.09.2021
6130 Clouds 0 1023 86 10000 2.57 90 08:31 30.09.2021
6131 Clouds -1 1022 86 10000 2.57 90 07:45 30.09.2021
6132 Clouds -1 1022 86 10000 1.54 50 05:25 30.09.2021
6133 Clouds 0 1021 80 10000 1.54 50 02:33 30.09.2021
6134 Clouds 0 1020 74 10000 2.06 50 00:32 30.09.2021
6135 Clouds 3 1018 65 10000 2.06 270 22:41 29.09.2021
6136 Clouds 3 1017 52 10000 1.54 0 21:42 29.09.2021
6137 Clouds 3 1016 44 10000 1.03 320 20:31 29.09.2021
6138 Clear 3 1016 34 10000 0.89 50 19:59 29.09.2021
6139 Clear 3 1016 35 10000 1.03 50 19:22 29.09.2021
6140 Clear 3 1015 41 10000 1.03 0 18:18 29.09.2021
6141 Clear 0 1013 50 10000 3.58 60 16:55 29.09.2021
6142 Clear 1 1013 51 10000 3.6 60 16:27 29.09.2021
6143 Clear 0 1012 59 10000 4.12 40 15:24 29.09.2021
6144 Clouds -1 1012 69 10000 4.63 50 14:37 29.09.2021
6145 Clouds -1 1011 59 10000 2.57 50 13:33 29.09.2021
6146 Clouds -1 1011 59 10000 5.14 50 12:38 29.09.2021
6147 Clouds -1 1010 64 10000 4.12 60 11:20 29.09.2021
6148 Clear -2 1010 74 10000 3.6 60 10:28 29.09.2021
6149 Clouds -1 1010 69 10000 4.63 50 09:41 29.09.2021
6150 Clear -1 1010 63 10000 3.58 60 07:51 29.09.2021
6151 Clear -1 1010 74 10000 4.12 50 06:27 29.09.2021
6152 Clear 1 1012 80 10000 2.06 170 00:28 29.09.2021
6153 Clear 2 1012 69 10000 5.66 210 22:26 28.09.2021
6154 Clear 3 1012 60 10000 5.81 210 21:54 28.09.2021
6155 Clear 3 1012 60 10000 5.81 210 21:19 28.09.2021
6156 Clear 3 1012 52 10000 7.72 200 19:49 28.09.2021
6157 Clear 3 1012 52 10000 7.72 200 19:29 28.09.2021
6158 Clear 3 1012 44 10000 7.72 200 18:41 28.09.2021
6159 Clear 2 1012 47 10000 1.34 50 16:54 28.09.2021
6160 Clear 1 1012 51 10000 0.51 220 15:21 28.09.2021
6161 Clear -1 1012 59 10000 1.03 140 13:27 28.09.2021
6162 Clear -1 1012 55 10000 0.51 150 12:25 28.09.2021
6163 Clear -1 1012 59 10000 3.09 70 11:48 28.09.2021
6164 Clear -1 1012 59 10000 3.09 70 11:27 28.09.2021
6165 Clear -1 1012 55 10000 3.09 70 10:30 28.09.2021
6166 Clouds -1 1012 59 10000 0.51 0 09:29 28.09.2021
6167 Clear -1 1012 55 7000 2.06 100 08:44 28.09.2021
6168 Clear -1 1012 55 7000 2.06 100 08:20 28.09.2021
6169 Clear 1 1012 44 10000 5.66 50 06:46 28.09.2021
6170 Clear 1 1014 51 10000 5.14 70 01:38 28.09.2021
6171 Clear 0 1014 59 10000 5.14 60 00:32 28.09.2021
6172 Clear 1 1014 55 10000 6.17 40 23:49 27.09.2021
6173 Clear 1 1014 55 10000 6.17 40 23:25 27.09.2021
6174 Clear 2 1014 35 10000 5.66 60 22:31 27.09.2021
6175 Clear 2 1014 41 10000 6.17 40 21:38 27.09.2021
6176 Clear 2 1015 44 10000 4.63 50 20:29 27.09.2021
6177 Clear 2 1015 48 10000 4.63 50 19:40 27.09.2021
6178 Clear 0 1015 50 10000 5.81 50 18:54 27.09.2021
6179 Clear 1 1016 51 10000 6.17 50 17:41 27.09.2021
6180 Clear 1 1016 51 10000 6.17 50 17:21 27.09.2021
6181 Clear 1 1016 47 10000 6.69 50 16:37 27.09.2021
6182 Clear 0 1016 55 10000 5.14 60 15:39 27.09.2021
6183 Clear -1 1017 63 10000 4.47 60 13:57 27.09.2021
6184 Clear -1 1017 64 10000 3.6 70 12:26 27.09.2021
6185 Clear 0 1017 52 10000 4.47 80 10:51 27.09.2021
6186 Clear 0 1017 59 10000 5.14 60 09:46 27.09.2021
6187 Clear -1 1017 69 10000 3.6 60 08:26 27.09.2021
6188 Clear 0 1018 60 10000 2.24 70 04:51 27.09.2021
6189 Clear 0 1015 57 10000 2.68 40 00:21 27.09.2021
6190 Clear 0 1015 58 10000 2.68 40 22:27 26.09.2021
6191 Clear 0 1015 58 10000 2.68 40 21:31 26.09.2021
6192 Clear 0 1015 59 10000 2.68 40 20:45 26.09.2021
6193 Clear 0 1015 61 10000 2.68 40 20:18 26.09.2021
6194 Clear 0 1018 61 10000 2.68 40 19:36 26.09.2021
6195 Clear 0 1017 61 10000 2.68 40 18:45 26.09.2021
6196 Clear 0 1017 60 10000 2.68 40 17:49 26.09.2021
6197 Clear 0 1017 57 10000 2.68 40 17:20 26.09.2021
6198 Clear 0 1015 59 10000 3.09 40 16:28 26.09.2021
6199 Clear -1 1017 63 10000 2.68 60 15:56 26.09.2021
6200 Clear -1 1015 64 10000 2.06 50 14:45 26.09.2021
6201 Clear -3 1014 68 10000 2.57 60 13:45 26.09.2021
6202 Clouds -2 1014 64 10000 3.09 60 12:33 26.09.2021
6203 Clear -3 1016 73 10000 2.24 60 11:59 26.09.2021
6204 Clear -3 1014 74 10000 2.57 60 11:37 26.09.2021
6205 Clear -3 1014 74 10000 2.57 60 10:23 26.09.2021
6206 Clear -2 1015 68 10000 2.68 60 08:55 26.09.2021
6207 Clear -1 1015 55 10000 2.57 40 03:26 26.09.2021
6208 Clear 0 1016 47 10000 4.12 40 00:20 26.09.2021
6209 Clear 1 1016 44 10000 4.12 40 23:23 25.09.2021
6210 Clear 1 1016 40 10000 3.6 40 22:37 25.09.2021
6211 Clear 0 1016 40 10000 4.92 50 21:55 25.09.2021
6212 Clear 1 1016 40 10000 5.14 50 21:30 25.09.2021
6213 Clear 1 1016 44 10000 4.12 40 20:45 25.09.2021
6214 Clear 0 1017 47 10000 5.14 40 18:47 25.09.2021
6215 Clear 0 1018 51 10000 7.72 20 17:47 25.09.2021
6216 Clear -1 1018 59 10000 6.69 30 15:41 25.09.2021
6217 Clear -2 1019 68 10000 7.15 20 13:57 25.09.2021
6218 Clear -2 1019 69 10000 7.2 20 13:30 25.09.2021
6219 Clear -1 1019 63 10000 8.05 20 11:54 25.09.2021
6220 Clear -2 1020 51 10000 7.36 19 10:34 25.09.2021
6221 Clear -1 1020 51 10000 7.05 19 09:26 25.09.2021
6222 Clear -1 1020 51 10000 6.86 19 07:55 25.09.2021
6223 Clear 0 1020 51 10000 7.2 14 05:46 25.09.2021
6224 Clear 2 1017 43 10000 8.94 40 23:50 24.09.2021
6225 Clouds 2 1017 51 10000 6.69 20 21:42 24.09.2021
6226 Clouds 1 1017 55 10000 7.2 10 20:33 24.09.2021
6227 Clouds 1 1016 60 10000 6.69 20 19:47 24.09.2021
6228 Clouds 1 1016 55 10000 5.14 20 18:33 24.09.2021
6229 Clouds 0 1016 55 10000 4.47 20 17:54 24.09.2021
6230 Clouds 1 1016 55 10000 4.63 20 17:36 24.09.2021
6231 Clouds 1 1016 55 10000 4.63 20 17:18 24.09.2021
6232 Clouds -1 1017 63 10000 4.47 20 13:57 24.09.2021
6233 Clouds -1 1015 63 10000 4.92 360 12:58 24.09.2021
6234 Clouds -1 1015 64 10000 5.14 360 12:39 24.09.2021
6235 Clouds -1 1015 64 10000 5.14 360 12:20 24.09.2021
6236 Clouds -1 1014 59 10000 5.14 20 10:25 24.09.2021
6237 Clouds -1 1015 43 10000 3.87 26 08:29 24.09.2021
6238 Clouds -1 1015 43 10000 3.87 26 07:34 24.09.2021
6239 Clouds 0 1015 43 10000 3.62 21 06:45 24.09.2021
6240 Clouds 0 1015 44 10000 2.87 355 04:54 24.09.2021
6241 Clear 0 1014 55 10000 4.63 342 23:57 23.09.2021
6242 Clouds 1 1012 60 10000 5.14 340 22:22 23.09.2021
6243 Clear 1 1013 51 10000 5.53 334 21:52 23.09.2021
6244 Clear 2 1011 41 10000 1.54 30 20:34 23.09.2021
6245 Clear 2 1010 41 10000 3.09 70 19:31 23.09.2021
6246 Clear 1 1011 40 10000 3.77 337 17:46 23.09.2021
6247 Clouds 0 1008 64 10000 2.06 20 15:30 23.09.2021
6248 Clouds -1 1009 39 10000 3.92 23 14:59 23.09.2021
6249 Clouds -2 1007 64 10000 2.06 50 13:45 23.09.2021
6250 Clouds -2 1007 64 10000 2.06 50 13:20 23.09.2021
6251 Clouds -2 1008 41 10000 4.72 22 12:52 23.09.2021
6252 Clouds -2 1006 69 10000 3.09 30 12:22 23.09.2021
6253 Clouds -1 1005 55 10000 4.12 20 11:32 23.09.2021
6254 Clouds -1 1004 64 10000 4.63 20 10:25 23.09.2021
6255 Clouds -2 1006 41 10000 4.39 23 09:52 23.09.2021
6256 Clouds -2 1002 69 10000 2.57 70 08:21 23.09.2021
6257 Clouds -1 1002 46 10000 5.19 15 03:50 23.09.2021
6258 Clouds 2 999 44 10000 4.12 30 23:24 22.09.2021
6259 Clouds 2 999 44 10000 4.12 40 22:29 22.09.2021
6260 Clouds 2 1001 36 10000 5.38 7 21:55 22.09.2021
6261 Clouds 2 999 41 10000 4.63 50 21:33 22.09.2021
6262 Clouds 2 999 44 10000 4.12 50 20:54 22.09.2021
6263 Clouds 2 1000 44 10000 4.63 40 19:32 22.09.2021
6264 Clouds 1 1000 55 10000 5.66 50 18:39 22.09.2021
6265 Clouds 2 1001 39 10000 5.89 22 17:48 22.09.2021
6266 Clouds 1 1002 40 10000 5.56 29 16:38 22.09.2021
6267 Clouds 1 1002 51 10000 6.69 50 15:19 22.09.2021
6268 Clouds 0 1003 55 10000 7.2 40 13:48 22.09.2021
6269 Clouds -1 1005 52 10000 7.1 42 11:59 22.09.2021
6270 Clouds -1 1006 53 10000 6.24 43 10:52 22.09.2021
6271 Clouds 0 1004 59 10000 4.63 50 09:25 22.09.2021
6272 Clouds 0 1005 64 10000 6.17 40 08:29 22.09.2021
6273 Clouds 0 1005 74 10000 5.14 60 07:21 22.09.2021
6274 Clouds 0 1008 55 10000 4.84 46 05:56 22.09.2021
6275 Clouds 0 1007 86 10000 5.14 70 05:34 22.09.2021
6276 Clouds 1 1009 54 10000 4.22 48 03:52 22.09.2021
6277 Clouds 1 1008 86 10000 3.6 50 00:37 22.09.2021
6278 Clouds 1 1008 86 10000 0 0 23:24 21.09.2021
6279 Clouds 1 1008 86 10000 3.09 220 21:37 21.09.2021
6280 Clouds 2 1010 63 10000 1.62 140 20:27 21.09.2021
6281 Clouds 1 1011 56 10000 1.53 57 19:22 21.09.2021
6282 Clouds 1 1011 57 10000 1.45 72 17:49 21.09.2021
6283 Clouds 1 1009 75 10000 3.6 160 16:38 21.09.2021
6284 Clouds 1 1011 58 10000 1.93 122 15:52 21.09.2021
6285 Clouds 1 1011 60 10000 2.83 113 14:58 21.09.2021
6286 Clouds 1 1011 63 10000 3.27 107 13:57 21.09.2021
6287 Clouds 0 1009 86 10000 3.09 160 13:39 21.09.2021
6288 Snow 0 1009 80 2600 0.51 0 12:40 21.09.2021
6289 Clouds 0 1009 74 10000 0 0 10:33 21.09.2021
6290 Clouds 0 1009 74 10000 1.54 100 08:41 21.09.2021
6291 Clouds 0 1009 80 10000 1.03 110 07:20 21.09.2021
6292 Clouds 1 1013 72 10000 3.67 326 01:52 21.09.2021
6293 Clouds 2 1011 75 10000 3.09 330 22:42 20.09.2021
6294 Clouds 1 1011 86 10000 5.14 340 21:42 20.09.2021
6295 Clouds 2 1013 66 10000 7.42 330 20:58 20.09.2021
6296 Clouds 2 1011 69 10000 5.14 330 19:46 20.09.2021
6297 Clouds 3 1011 66 10000 5.62 319 17:54 20.09.2021
6298 Rain 3 1011 66 10000 5.32 322 16:57 20.09.2021
6299 Rain 3 1011 68 10000 5.43 324 15:57 20.09.2021
6300 Rain 1 1011 80 10000 1.54 20 15:34 20.09.2021
6301 Rain 1 1011 80 10000 2.06 10 14:26 20.09.2021
6302 Snow 0 1010 100 10000 2.06 50 12:44 20.09.2021
6303 Snow 0 1010 100 10000 2.06 50 12:22 20.09.2021
6304 Snow 0 1009 93 10000 0 0 10:49 20.09.2021
6305 Snow 0 1009 100 3800 0.51 0 09:48 20.09.2021
6306 Snow 0 1009 100 3800 0.51 0 09:29 20.09.2021
6307 Snow 0 1009 100 10000 1.54 290 08:35 20.09.2021
6308 Rain 1 1008 86 10000 2.57 310 06:21 20.09.2021
6309 Clouds 3 1004 64 10000 6.17 316 22:57 19.09.2021
6310 Clouds 3 1003 63 10000 6.19 316 21:50 19.09.2021
6311 Clouds 3 1002 62 10000 5.65 304 20:59 19.09.2021
6312 Clouds 3 1001 56 10000 3.25 300 19:54 19.09.2021
6313 Clouds 3 1000 50 10000 2.8 311 18:53 19.09.2021
6314 Clouds 3 1000 50 10000 2.8 311 18:53 19.09.2021
6315 Clouds 5 998 56 10000 1.54 40 17:42 19.09.2021
6316 Clouds 4 997 48 10000 1.54 40 16:35 19.09.2021
6317 Clouds 2 997 75 10000 2.57 10 15:32 19.09.2021
6318 Clouds 1 996 80 10000 3.6 10 14:49 19.09.2021
6319 Clouds 2 998 50 10000 3.75 13 13:57 19.09.2021
6320 Clouds 1 998 53 10000 3.96 19 12:56 19.09.2021
6321 Clouds 1 995 75 10000 4.63 30 11:49 19.09.2021
6322 Clouds 1 995 75 10000 4.63 30 11:22 19.09.2021
6323 Clouds 2 997 57 10000 3.48 27 09:51 19.09.2021
6324 Clouds 1 995 86 10000 4.63 30 09:23 19.09.2021
6325 Clouds 1 996 80 10000 5.66 50 06:49 19.09.2021
6326 Clear 2 997 80 10000 2.57 10 01:36 19.09.2021
6327 Clear 5 997 60 10000 2.57 360 23:19 18.09.2021
6328 Clear 4 998 56 10000 3.02 330 21:56 18.09.2021
6329 Clear 6 996 56 10000 2.57 50 20:46 18.09.2021
6330 Clouds 4 998 51 10000 1.66 2 19:58 18.09.2021
6331 Clear 6 996 56 10000 3.09 60 19:36 18.09.2021
6332 Clear 6 996 56 10000 3.09 60 19:18 18.09.2021
6333 Clear 5 995 60 10000 3.6 60 18:30 18.09.2021
6334 Clouds 3 996 65 10000 3.09 40 16:35 18.09.2021
6335 Clouds 2 997 55 10000 2.09 336 13:59 18.09.2021
6336 Clouds 0 995 100 10000 2.57 0 13:31 18.09.2021
6337 Clouds 2 996 56 10000 2.45 359 12:52 18.09.2021
6338 Clouds 2 995 57 10000 2.26 14 11:59 18.09.2021
6339 Clouds 1 995 93 10000 4.12 50 11:29 18.09.2021
6340 Clouds 1 996 86 10000 2.08 29 10:30 18.09.2021
6341 Clouds 1 996 86 10000 2.08 29 10:30 18.09.2021
6342 Clouds 0 996 93 10000 1.37 359 09:23 18.09.2021
6343 Clouds 0 996 93 10000 0.68 346 08:24 18.09.2021
6344 Clouds 3 1001 65 10000 1.08 208 00:53 18.09.2021
6345 Clouds 3 1002 64 10000 1.31 254 23:56 17.09.2021
6346 Clouds 3 1002 64 10000 2.16 268 22:48 17.09.2021
6347 Clouds 4 1002 60 10000 1.64 293 22:23 17.09.2021
6348 Clouds 6 1001 56 10000 3.09 250 21:32 17.09.2021
6349 Clouds 6 1001 52 10000 1.54 320 19:34 17.09.2021
6350 Clouds 6 1001 49 10000 1.54 50 18:40 17.09.2021
6351 Clear 4 1001 60 10000 2.57 30 16:42 17.09.2021
6352 Clear 2 1002 80 10000 3.09 20 15:21 17.09.2021
6353 Clouds 2 1002 56 10000 2.39 354 11:51 17.09.2021
6354 Clouds 2 1001 75 10000 3.09 40 10:21 17.09.2021
6355 Clouds 2 1001 69 10000 3.6 40 07:48 17.09.2021
6356 Clouds 1 1001 80 10000 3.6 40 05:45 17.09.2021
6357 Clouds 3 1003 75 10000 1.03 340 00:32 17.09.2021
6358 Clouds 3 1003 70 10000 1.03 300 22:42 16.09.2021
6359 Clouds 3 1003 70 10000 1.03 300 22:23 16.09.2021
6360 Clouds 5 1003 56 10000 2.06 320 21:35 16.09.2021
6361 Clouds 4 1003 60 10000 1.54 300 20:30 16.09.2021
6362 Clouds 4 1004 51 10000 1.64 176 18:52 16.09.2021
6363 Clouds 3 1003 56 10000 4.12 40 18:18 16.09.2021
6364 Clouds 2 1004 75 10000 4.63 40 16:47 16.09.2021
6365 Clouds 2 1005 64 10000 2.57 40 14:49 16.09.2021
6366 Clouds 2 1006 69 10000 0.51 90 13:34 16.09.2021
6367 Clouds 1 1006 64 10000 0 0 12:45 16.09.2021
6368 Clouds 2 1007 50 10000 2.53 49 11:50 16.09.2021
6369 Clouds 2 1007 50 10000 2.53 49 11:50 16.09.2021
6370 Clouds 2 1007 50 10000 2.18 40 10:56 16.09.2021
6371 Clouds 1 1006 69 10000 3.6 50 10:22 16.09.2021
6372 Clouds 1 1007 69 10000 3.6 40 09:31 16.09.2021
6373 Clouds 2 1008 54 10000 2.82 24 07:52 16.09.2021
6374 Clouds 2 1009 54 10000 3.5 19 06:57 16.09.2021
6375 Clouds 1 1008 64 10000 4.12 50 06:38 16.09.2021
6376 Clouds 1 1009 64 10000 3.09 30 03:22 16.09.2021
6377 Clouds 3 1011 53 10000 4.24 2 00:53 16.09.2021
6378 Clouds 4 1009 38 10000 3.09 10 23:30 15.09.2021
6379 Clouds 4 1009 38 10000 4.12 30 22:39 15.09.2021
6380 Clouds 4 1009 41 10000 3.6 40 21:31 15.09.2021
6381 Clouds 4 1009 41 10000 4.63 20 20:49 15.09.2021
6382 Clouds 4 1009 38 10000 4.63 40 19:33 15.09.2021
6383 Clouds 3 1009 44 10000 4.12 20 18:45 15.09.2021
6384 Clouds 3 1009 44 10000 3.6 20 17:42 15.09.2021
6385 Clouds 2 1009 51 10000 3.6 30 16:43 15.09.2021
6386 Clouds 2 1009 51 10000 3.6 30 16:43 15.09.2021
6387 Clouds 1 1009 60 10000 4.63 20 15:22 15.09.2021
6388 Clouds 0 1009 64 10000 5.14 30 14:42 15.09.2021
6389 Clouds 0 1008 64 10000 5.66 30 13:47 15.09.2021
6390 Clouds 0 1008 64 10000 5.66 30 13:28 15.09.2021
6391 Clouds 0 1008 59 10000 5.66 20 12:33 15.09.2021
6392 Clear -1 1009 55 10000 5.55 21 11:51 15.09.2021
6393 Clear -1 1009 55 10000 5.55 21 11:51 15.09.2021
6394 Clear -1 1009 55 10000 5.57 16 10:58 15.09.2021
6395 Clear 0 1007 69 10000 5.14 30 10:33 15.09.2021
6396 Clear 0 1008 55 10000 5.73 10 08:51 15.09.2021
6397 Clouds 0 1006 69 10000 4.12 30 07:26 15.09.2021
6398 Clear 1 1004 69 10000 3.09 30 02:21 15.09.2021
6399 Clouds 4 1003 45 10000 6.17 10 22:26 14.09.2021
6400 Clouds 4 1002 45 10000 6.69 30 21:26 14.09.2021
6401 Clouds 4 1002 45 10000 7.2 30 20:21 14.09.2021
6402 Clouds 3 1001 44 10000 7.2 20 19:23 14.09.2021
6403 Clouds 2 1001 51 10000 8.75 20 17:33 14.09.2021
6404 Clouds 2 1001 51 10000 10.29 20 16:43 14.09.2021
6405 Clouds 1 1001 51 10000 8.75 20 15:24 14.09.2021
6406 Clouds 1 1001 60 10000 9.77 20 14:19 14.09.2021
6407 Clouds 1 1001 64 10000 9.77 10 11:47 14.09.2021
6408 Clear 1 1001 69 10000 9.26 10 10:44 14.09.2021
6409 Clouds 1 1001 69 10000 10.8 20 09:49 14.09.2021
6410 Clear 1 1002 57 10000 9.69 8 07:58 14.09.2021
6411 Clear 2 1003 59 10000 7.87 9 02:55 14.09.2021
6412 Clear 3 1004 52 10000 7.2 50 23:29 13.09.2021
6413 Clouds 4 1004 52 10000 7.72 20 22:28 13.09.2021
6414 Clear 4 1004 58 10000 6.64 353 21:56 13.09.2021
6415 Clouds 4 1004 48 10000 7.2 20 21:33 13.09.2021
6416 Clouds 4 1005 65 10000 3.6 30 19:41 13.09.2021
6417 Clouds 3 1005 70 10000 3.09 30 18:45 13.09.2021
6418 Clouds 3 1005 70 10000 3.09 40 17:38 13.09.2021
6419 Clouds 3 1005 75 10000 2.57 20 16:49 13.09.2021
6420 Clear 2 1006 80 10000 1.54 50 14:47 13.09.2021
6421 Clouds 1 1005 86 10000 1.54 50 11:45 13.09.2021
6422 Clouds 2 1006 72 10000 3.36 350 10:50 13.09.2021
6423 Clouds 1 1004 93 10000 3.09 300 08:41 13.09.2021
6424 Clouds 3 999 65 10000 8.23 330 00:48 13.09.2021
6425 Clouds 3 1000 70 10000 12.65 322 22:51 12.09.2021
6426 Rain 3 996 70 10000 11.32 320 22:23 12.09.2021
6427 Clouds 3 995 65 10000 12.35 330 21:21 12.09.2021
6428 Clouds 3 993 65 10000 12.86 330 20:19 12.09.2021
6429 Clouds 3 992 70 10000 12.86 330 19:37 12.09.2021
6430 Clouds 3 992 70 10000 12.86 330 19:18 12.09.2021
6431 Clouds 3 989 65 6000 15.43 320 18:18 12.09.2021
6432 Clouds 3 990 64 10000 13.62 325 15:58 12.09.2021
6433 Clouds 4 985 65 10000 6.69 330 14:48 12.09.2021
6434 Clouds 4 984 70 10000 6.69 340 12:45 12.09.2021
6435 Clouds 3 984 70 10000 4.63 10 10:33 12.09.2021
6436 Clouds 4 984 60 10000 4.12 40 08:39 12.09.2021
6437 Clouds 3 984 65 10000 2.06 40 07:33 12.09.2021
6438 Clouds 7 991 57 10000 4.12 20 00:48 12.09.2021
6439 Clouds 6 993 59 10000 6.54 347 22:59 11.09.2021
6440 Clouds 7 994 65 10000 3.6 40 21:39 11.09.2021
6441 Clouds 7 997 58 10000 5.47 5 19:55 11.09.2021
6442 Clouds 7 998 57 10000 6.17 40 18:30 11.09.2021
6443 Clouds 5 999 75 10000 6.69 50 17:29 11.09.2021
6444 Clouds 6 1001 61 10000 5.66 50 15:38 11.09.2021
6445 Clouds 4 1003 75 10000 6.69 50 13:25 11.09.2021
6446 Clouds 4 1004 70 10000 7.2 40 11:45 11.09.2021
6447 Clouds 4 1006 69 10000 4.41 40 10:51 11.09.2021
6448 Clouds 4 1005 70 10000 5.66 40 09:28 11.09.2021
6449 Clouds 5 1006 60 10000 4.12 50 07:44 11.09.2021
6450 Clouds 4 1008 65 10000 1.54 0 04:23 11.09.2021
6451 Clouds 8 1009 49 10000 3.09 50 22:47 10.09.2021
6452 Clouds 8 1009 49 10000 3.09 50 22:22 10.09.2021
6453 Clouds 8 1009 49 10000 3.09 50 21:43 10.09.2021
6454 Clouds 7 1010 65 10000 4.12 50 19:33 10.09.2021
6455 Clouds 6 1011 64 10000 4.12 35 17:59 10.09.2021
6456 Clouds 6 1011 70 10000 4.63 40 16:28 10.09.2021
6457 Clouds 4 1012 65 10000 4.49 36 13:52 10.09.2021
6458 Clouds 3 1011 75 10000 3.6 40 11:38 10.09.2021
6459 Clouds 4 1011 70 10000 5.14 50 08:27 10.09.2021
6460 Clouds 4 1012 65 10000 6.17 60 07:44 10.09.2021
6461 Clouds 7 1014 57 10000 4.63 70 00:42 10.09.2021
6462 Clear 7 1015 61 10000 4.12 50 22:18 09.09.2021
6463 Clouds 7 1015 57 10000 3.6 50 20:48 09.09.2021
6464 Clouds 7 1015 57 10000 3.6 50 20:30 09.09.2021
6465 Clear 6 1016 61 10000 3.28 27 18:50 09.09.2021
6466 Clear 6 1016 64 10000 3.36 15 17:54 09.09.2021
6467 Clear 5 1016 75 10000 3.09 40 16:40 09.09.2021
6468 Clear 5 1016 75 10000 2.06 360 15:26 09.09.2021
6469 Clear 3 1016 81 10000 2.06 40 12:34 09.09.2021
6470 Clear 3 1016 87 10000 2.57 40 11:33 09.09.2021
6471 Clouds 3 1015 93 10000 3.6 30 09:39 09.09.2021
6472 Clouds 4 1016 79 10000 4.36 339 07:57 09.09.2021
6473 Clouds 4 1014 93 10000 3.09 50 06:24 09.09.2021
6474 Fog 5 1012 100 500 2.57 230 01:31 09.09.2021
6475 Fog 5 1012 100 500 2.57 230 01:31 09.09.2021
6476 Fog 5 1012 100 500 2.57 230 01:31 09.09.2021
6477 Rain 6 1012 96 9928 2.09 241 21:50 08.09.2021
6478 Rain 6 1012 97 1329 2.48 204 20:57 08.09.2021
6479 Rain 7 1010 93 10000 5.66 190 19:48 08.09.2021
6480 Fog 7 1010 93 10000 3.6 190 18:49 08.09.2021
6481 Fog 7 1010 93 10000 3.6 190 18:27 08.09.2021
6482 Clouds 6 1011 95 10000 4.73 186 17:54 08.09.2021
6483 Clouds 8 1011 76 10000 1.54 180 16:27 08.09.2021
6484 Clouds 6 1012 90 10000 3.6 173 13:53 08.09.2021
6485 Clouds 6 1011 87 10000 2.06 0 12:42 08.09.2021
6486 Clouds 6 1011 87 10000 2.06 0 12:24 08.09.2021
6487 Clouds 6 1011 93 10000 2.06 190 11:28 08.09.2021
6488 Clouds 6 1011 87 10000 2.06 170 10:32 08.09.2021
6489 Clouds 6 1012 87 10000 0.97 160 09:58 08.09.2021
6490 Clouds 7 1012 86 10000 1.7 95 07:55 08.09.2021
6491 Clouds 7 1012 83 10000 1.48 161 07:55 08.09.2021
6492 Clouds 7 1012 86 10000 1.7 95 07:55 08.09.2021
6493 Clouds 7 1012 86 10000 1.7 95 07:55 08.09.2021
6494 Clouds 6 1011 87 10000 0 0 07:30 08.09.2021
6495 Clouds 7 1011 81 10000 5.14 60 00:33 08.09.2021
6496 Clouds 6 1011 87 10000 4.63 50 22:35 07.09.2021
6497 Clouds 6 1011 87 10000 5.66 50 21:46 07.09.2021
6498 Clouds 6 1011 81 10000 5.14 50 19:47 07.09.2021
6499 Clouds 7 1011 76 10000 1.54 80 18:39 07.09.2021
6500 Rain 6 1011 87 10000 2.06 60 17:43 07.09.2021
6501 Rain 5 1013 85 10000 4.7 90 15:57 07.09.2021
6502 Rain 6 1012 81 10000 3.6 160 15:35 07.09.2021
6503 Rain 6 1012 70 10000 3.09 160 14:38 07.09.2021
6504 Rain 4 1011 93 10000 1.54 140 12:38 07.09.2021
6505 Rain 4 1011 93 10000 1.03 200 11:33 07.09.2021
6506 Clouds 4 1010 93 10000 1.54 0 10:40 07.09.2021
6507 Clouds 5 1010 81 10000 2.57 160 08:23 07.09.2021
6508 Clouds 4 1009 93 10000 3.09 180 06:44 07.09.2021
6509 Mist 3 1009 100 2300 4.12 190 04:47 07.09.2021
6510 Clouds 3 1009 93 350 4.63 200 02:28 07.09.2021
6511 Clouds 4 1008 93 10000 2.57 180 00:23 07.09.2021
6512 Clouds 5 1008 87 10000 2.57 230 23:31 06.09.2021
6513 Clouds 6 1009 73 10000 2.46 240 22:53 06.09.2021
6514 Fog 6 1007 81 10000 2.57 250 22:32 06.09.2021
6515 Clouds 7 1008 60 10000 3.38 281 20:55 06.09.2021
6516 Clouds 10 1005 43 10000 2.57 280 19:22 06.09.2021
6517 Clouds 10 1005 43 10000 2.57 280 19:22 06.09.2021
6518 Clouds 10 1005 43 10000 2.57 280 19:22 06.09.2021
6519 Clouds 11 1005 25 10000 2.06 0 18:46 06.09.2021
6520 Clouds 11 1005 25 10000 2.06 0 18:23 06.09.2021
6521 Clouds 8 1004 53 10000 3.6 40 17:35 06.09.2021
6522 Clouds 6 1004 70 10000 4.63 20 15:43 06.09.2021
6523 Clouds 6 1003 61 10000 6.69 40 13:47 06.09.2021
6524 Clouds 5 1003 65 10000 7.2 50 12:46 06.09.2021
6525 Clouds 4 1003 65 10000 5.14 40 10:44 06.09.2021
6526 Clear 4 1004 58 10000 4.74 20 07:59 06.09.2021
6527 Clear 6 1003 61 10000 4.12 20 04:44 06.09.2021
6528 Clear 8 1003 53 10000 8.75 20 23:34 05.09.2021
6529 Clear 9 1003 46 10000 9.26 20 22:47 05.09.2021
6530 Clear 9 1003 53 10000 5.9 360 21:57 05.09.2021
6531 Clear 9 1003 46 10000 7.72 20 21:30 05.09.2021
6532 Clear 9 1003 51 10000 4.44 7 19:56 05.09.2021
6533 Clouds 9 1003 46 10000 5.14 30 18:41 05.09.2021
6534 Clouds 8 1004 53 10000 3.6 50 17:30 05.09.2021
6535 Clear 7 1005 61 10000 3.6 50 15:28 05.09.2021
6536 Clear 6 1005 75 10000 4.12 50 14:19 05.09.2021
6537 Clear 4 1005 81 10000 4.12 40 12:29 05.09.2021
6538 Clear 4 1006 62 10000 5.31 15 10:53 05.09.2021
6539 Clear 4 1006 81 10000 4.12 50 10:23 05.09.2021
6540 Clear 4 1006 81 10000 3.09 40 09:21 05.09.2021
6541 Clouds 5 1007 81 10000 3.09 50 07:48 05.09.2021
6542 Clouds 7 1009 81 10000 4.12 40 01:22 05.09.2021
6543 Clear 7 1010 81 10000 4.63 340 00:27 05.09.2021
6544 Clouds 9 1010 76 10000 3.6 340 23:39 04.09.2021
6545 Clouds 9 1010 71 10000 3.6 10 22:36 04.09.2021
6546 Clouds 6 1011 75 10000 7.31 330 21:56 04.09.2021
6547 Clouds 9 1011 66 10000 4.63 50 19:42 04.09.2021
6548 Clouds 7 1012 76 10000 4.12 60 18:43 04.09.2021
6549 Clouds 5 1012 87 10000 5.66 10 16:23 04.09.2021
6550 Clouds 3 1014 100 10000 4.63 350 13:22 04.09.2021
6551 Clouds 4 1014 87 10000 4.12 360 11:19 04.09.2021
6552 Clouds 4 1014 93 10000 4.12 350 09:19 04.09.2021
6553 Clouds 4 1015 83 10000 2.78 13 05:50 04.09.2021
6554 Clouds 2 1016 100 6000 2.06 260 00:27 04.09.2021
6555 Clouds 3 1016 93 10000 3.6 280 23:32 03.09.2021
6556 Clouds 3 1016 93 10000 3.6 270 22:35 03.09.2021
6557 Clouds 4 1016 87 10000 3.6 260 21:35 03.09.2021
6558 Clouds 4 1016 87 10000 3.6 260 21:35 03.09.2021
6559 Clouds 4 1016 87 10000 3.09 250 20:42 03.09.2021
6560 Clouds 5 1017 75 10000 2.48 271 19:55 03.09.2021
6561 Clouds 5 1016 81 10000 2.57 260 19:18 03.09.2021
6562 Clouds 5 1018 72 10000 2.21 278 17:53 03.09.2021
6563 Clouds 4 1017 87 10000 1.03 260 16:37 03.09.2021
6564 Clouds 5 1019 71 10000 2.27 294 14:58 03.09.2021
6565 Clouds 4 1017 87 10000 4.12 300 12:24 03.09.2021
6566 Clouds 4 1016 87 10000 1.03 310 10:31 03.09.2021
6567 Clouds 5 1018 77 10000 2.62 271 08:59 03.09.2021
6568 Clouds 4 1016 87 10000 3.6 280 07:44 03.09.2021
6569 Clouds 5 1015 81 10000 3.6 270 05:24 03.09.2021
6570 Clouds 7 1013 81 10000 4.12 270 23:20 02.09.2021
6571 Clouds 10 1011 71 10000 5.14 270 21:35 02.09.2021
6572 Clouds 7 1012 71 10000 2.67 255 19:55 02.09.2021
6573 Clouds 11 1009 62 10000 1.54 300 17:33 02.09.2021
6574 Clouds 8 1010 70 10000 2.33 306 15:52 02.09.2021
6575 Clouds 8 1009 76 10000 2.22 347 13:57 02.09.2021
6576 Clouds 8 1009 78 10000 2.28 15 12:55 02.09.2021
6577 Clouds 6 1007 87 10000 4.12 20 11:35 02.09.2021
6578 Clouds 8 1007 71 10000 3.6 60 09:44 02.09.2021
6579 Clouds 7 1008 79 10000 1.83 49 07:57 02.09.2021
6580 Clouds 9 1007 61 10000 2.06 40 07:18 02.09.2021
6581 Clouds 9 1009 68 10000 3.12 154 02:56 02.09.2021
6582 Clouds 11 1008 50 10000 1.54 0 02:33 02.09.2021
6583 Clouds 11 1008 54 10000 2.57 50 01:28 02.09.2021
6584 Clouds 12 1008 50 10000 4.63 40 23:40 01.09.2021
6585 Clear 11 1008 58 10000 3.09 10 22:40 01.09.2021
6586 Clear 11 1008 54 10000 3.6 50 21:40 01.09.2021
6587 Clouds 12 1009 50 10000 4.12 40 20:39 01.09.2021
6588 Clouds 11 1009 50 10000 6.17 60 18:43 01.09.2021
6589 Clouds 10 1010 62 10000 5.66 40 17:40 01.09.2021
6590 Clouds 9 1011 61 10000 6.69 40 16:47 01.09.2021
6591 Clouds 7 1012 76 10000 7.72 30 15:47 01.09.2021
6592 Clouds 6 1013 75 10000 7.2 50 12:23 01.09.2021
6593 Clouds 6 1013 81 10000 7.2 30 11:44 01.09.2021
6594 Clouds 6 1014 81 10000 6.69 10 08:48 01.09.2021
6595 Clouds 5 1015 67 10000 5.92 13 07:52 01.09.2021
6596 Clouds 7 1015 76 10000 4.63 20 05:23 01.09.2021
6597 Clear 11 1016 58 10000 3.6 40 22:41 31.08.2021
6598 Clear 11 1017 58 10000 4.12 30 21:33 31.08.2021
6599 Clear 11 1017 58 10000 4.12 50 19:46 31.08.2021
6600 Clear 10 1017 62 10000 3.6 40 18:30 31.08.2021
6601 Clear 9 1017 61 10000 3.6 50 17:38 31.08.2021
6602 Clear 9 1017 61 10000 3.6 50 17:20 31.08.2021
6603 Clear 8 1017 81 10000 3.09 10 16:24 31.08.2021
6604 Clouds 5 1016 93 10000 4.63 30 13:40 31.08.2021
6605 Fog 3 1015 100 10000 3.6 50 11:36 31.08.2021
6606 Clear 6 1017 71 10000 3.51 21 10:55 31.08.2021
6607 Clear 4 1015 87 10000 2.57 30 09:45 31.08.2021
6608 Clouds 4 1015 93 10000 3.09 20 08:39 31.08.2021
6609 Clear 5 1015 81 10000 2.06 20 07:35 31.08.2021
6610 Clear 5 1016 87 10000 3.09 40 03:40 31.08.2021
6611 Clouds 8 1016 71 10000 3.6 360 23:35 30.08.2021
6612 Clear 7 1017 71 10000 6.44 330 21:52 30.08.2021
6613 Clouds 8 1016 71 10000 2.57 30 21:32 30.08.2021
6614 Clouds 8 1016 71 10000 3.6 60 20:20 30.08.2021
6615 Clouds 7 1017 76 10000 3.6 40 19:29 30.08.2021
6616 Clouds 6 1017 81 10000 4.12 40 18:34 30.08.2021
6617 Clouds 6 1017 81 10000 4.12 60 17:46 30.08.2021
6618 Clouds 5 1017 87 10000 4.12 40 16:24 30.08.2021
6619 Clouds 5 1017 81 10000 3.09 360 15:39 30.08.2021
6620 Clouds 4 1018 87 10000 4.12 360 13:43 30.08.2021
6621 Clouds 4 1018 87 10000 3.6 360 12:29 30.08.2021
6622 Clouds 4 1017 87 10000 5.14 10 10:33 30.08.2021
6623 Clouds 6 1019 81 10000 3.09 200 22:30 29.08.2021
6624 Clouds 6 1019 81 10000 2.57 190 21:33 29.08.2021
6625 Clouds 6 1019 87 10000 3.6 200 20:22 29.08.2021
6626 Clouds 5 1018 93 10000 3.6 180 19:19 29.08.2021
6627 Rain 6 1019 85 10000 3.48 227 17:53 29.08.2021
6628 Mist 5 1017 100 1500 5.66 190 15:49 29.08.2021
6629 Drizzle 5 1017 93 2500 8.75 180 14:20 29.08.2021
6630 Drizzle 5 1017 93 4000 7.72 180 13:44 29.08.2021
6631 Drizzle 5 1016 87 10000 8.23 180 12:32 29.08.2021
6632 Rain 6 1018 86 10000 7.55 185 11:50 29.08.2021
6633 Clouds 5 1016 87 10000 9.26 170 11:23 29.08.2021
6634 Snow 5 1016 81 8000 7.2 170 10:43 29.08.2021
6635 Snow 5 1016 81 8000 7.2 170 10:24 29.08.2021
6636 Clouds 5 1015 81 10000 6.69 170 08:24 29.08.2021
6637 Drizzle 6 1013 100 200 5.14 190 00:37 29.08.2021
6638 Rain 7 1014 90 10000 11.93 170 21:54 28.08.2021
6639 Drizzle 8 1011 81 5000 11.83 170 20:28 28.08.2021
6640 Rain 8 1011 87 10000 12.86 160 18:43 28.08.2021
6641 Rain 8 1011 87 10000 12.86 160 18:19 28.08.2021
6642 Rain 8 1011 87 10000 12.86 160 17:20 28.08.2021
6643 Rain 8 1011 81 10000 10.8 160 15:46 28.08.2021
6644 Rain 7 1012 87 10000 10.29 160 14:26 28.08.2021
6645 Rain 7 1012 81 10000 10.29 160 13:45 28.08.2021
6646 Rain 7 1012 81 10000 11.83 160 12:44 28.08.2021
6647 Rain 6 1014 90 10000 8.28 150 11:54 28.08.2021
6648 Rain 7 1012 81 10000 11.32 160 10:42 28.08.2021
6649 Rain 7 1012 81 9000 9.77 160 08:41 28.08.2021
6650 Rain 7 1012 81 10000 7.72 150 07:24 28.08.2021
6651 Clouds 5 1013 93 10000 5.14 200 22:30 27.08.2021
6652 Clouds 6 1012 81 10000 6.69 200 21:19 27.08.2021
6653 Clouds 6 1012 81 10000 5.66 200 20:30 27.08.2021
6654 Clouds 6 1013 79 10000 4.37 202 18:58 27.08.2021
6655 Clouds 5 1011 93 10000 5.14 220 18:37 27.08.2021
6656 Drizzle 5 1011 93 10000 5.14 180 17:18 27.08.2021
6657 Rain 5 1010 93 4000 6.17 180 15:55 27.08.2021
6658 Fog 6 1010 81 8000 6.69 170 14:43 27.08.2021
6659 Clouds 6 1011 85 10000 5.58 176 12:54 27.08.2021
6660 Clouds 5 1009 87 10000 6.69 170 11:26 27.08.2021
6661 Rain 5 1008 87 10000 6.69 180 10:43 27.08.2021
6662 Clouds 5 1008 87 10000 6.17 180 09:37 27.08.2021
6663 Clouds 4 1008 100 10000 5.66 180 08:46 27.08.2021
6664 Fog 5 1008 100 350 4.12 210 06:47 27.08.2021
6665 Clouds 5 1007 93 10000 6.17 180 05:28 27.08.2021
6666 Clouds 5 1008 87 10000 2.06 220 00:35 27.08.2021
6667 Clouds 6 1009 87 10000 3.09 210 22:49 26.08.2021
6668 Clouds 6 1009 87 10000 3.09 210 22:19 26.08.2021
6669 Clouds 7 1009 87 10000 3.6 220 20:37 26.08.2021
6670 Clouds 7 1010 84 10000 2.93 214 18:53 26.08.2021
6671 Fog 8 1010 81 10000 2.06 200 17:45 26.08.2021
6672 Fog 6 1010 100 550 2.06 180 16:35 26.08.2021